<?xml version="1.0" encoding="UTF-8" standalone="no" ?><gpx xmlns="http://www.topografix.com/GPX/1/1" xmlns:gpxx="http://www.garmin.com/xmlschemas/GpxExtensions/v3" xmlns:wptx1="http://www.garmin.com/xmlschemas/WaypointExtension/v1" xmlns:gpxtpx="http://www.garmin.com/xmlschemas/TrackPointExtension/v1" creator="GuideVTT.com" version="1.1" xmlns:xsi="http://www.w3.org/2001/XMLSchema-instance" xsi:schemaLocation="http://www.topografix.com/GPX/1/1 http://www.topografix.com/GPX/1/1/gpx.xsd http://www.garmin.com/xmlschemas/GpxExtensions/v3 http://www8.garmin.com/xmlschemas/GpxExtensionsv3.xsd http://www.garmin.com/xmlschemas/WaypointExtension/v1 http://www8.garmin.com/xmlschemas/WaypointExtensionv1.xsd http://www.garmin.com/xmlschemas/TrackPointExtension/v1 http://www.garmin.com/xmlschemas/TrackPointExtensionv1.xsd">
<metadata><link href="http://www.garmin.com"><text>Garmin International</text></link><time>2013-06-22T15:13:50Z</time></metadata>
<trk><name>rp2025-25.gpx</name><extensions><gpxx:TrackExtension><gpxx:DisplayColor>Cyan</gpxx:DisplayColor></gpxx:TrackExtension></extensions><trkseg>
<trkpt lat="46.40121" lon="7.77711"><ele></ele><time>2025-9-19T11:18:26Z</time></trkpt>
<trkpt lat="46.40122" lon="7.77713"><ele></ele><time>2025-9-19T11:18:29Z</time></trkpt>
<trkpt lat="46.40122" lon="7.77712"><ele></ele><time>2025-9-19T11:18:32Z</time></trkpt>
<trkpt lat="46.40122" lon="7.77708"><ele></ele><time>2025-9-19T11:18:35Z</time></trkpt>
<trkpt lat="46.40124" lon="7.77707"><ele></ele><time>2025-9-19T11:18:38Z</time></trkpt>
<trkpt lat="46.40124" lon="7.77707"><ele></ele><time>2025-9-19T11:18:41Z</time></trkpt>
<trkpt lat="46.40125" lon="7.77707"><ele></ele><time>2025-9-19T11:18:44Z</time></trkpt>
<trkpt lat="46.40127" lon="7.77709"><ele></ele><time>2025-9-19T11:18:47Z</time></trkpt>
<trkpt lat="46.40132" lon="7.7771"><ele></ele><time>2025-9-19T11:18:50Z</time></trkpt>
<trkpt lat="46.40133" lon="7.77711"><ele></ele><time>2025-9-19T11:18:53Z</time></trkpt>
<trkpt lat="46.40136" lon="7.77717"><ele></ele><time>2025-9-19T11:18:56Z</time></trkpt>
<trkpt lat="46.40141" lon="7.77728"><ele></ele><time>2025-9-19T11:18:59Z</time></trkpt>
<trkpt lat="46.40143" lon="7.77731"><ele></ele><time>2025-9-19T11:19:2Z</time></trkpt>
<trkpt lat="46.40154" lon="7.77748"><ele></ele><time>2025-9-19T11:19:5Z</time></trkpt>
<trkpt lat="46.40159" lon="7.77758"><ele></ele><time>2025-9-19T11:19:8Z</time></trkpt>
<trkpt lat="46.40165" lon="7.77773"><ele></ele><time>2025-9-19T11:19:11Z</time></trkpt>
<trkpt lat="46.40164" lon="7.77785"><ele></ele><time>2025-9-19T11:19:14Z</time></trkpt>
<trkpt lat="46.40162" lon="7.77784"><ele></ele><time>2025-9-19T11:19:17Z</time></trkpt>
<trkpt lat="46.4016" lon="7.77782"><ele></ele><time>2025-9-19T11:19:20Z</time></trkpt>
<trkpt lat="46.40158" lon="7.77779"><ele></ele><time>2025-9-19T11:19:23Z</time></trkpt>
<trkpt lat="46.40156" lon="7.77776"><ele></ele><time>2025-9-19T11:19:26Z</time></trkpt>
<trkpt lat="46.40151" lon="7.77767"><ele></ele><time>2025-9-19T11:19:29Z</time></trkpt>
<trkpt lat="46.40148" lon="7.77762"><ele></ele><time>2025-9-19T11:19:32Z</time></trkpt>
<trkpt lat="46.40145" lon="7.77758"><ele></ele><time>2025-9-19T11:19:35Z</time></trkpt>
<trkpt lat="46.40142" lon="7.77753"><ele></ele><time>2025-9-19T11:19:38Z</time></trkpt>
<trkpt lat="46.40138" lon="7.77749"><ele></ele><time>2025-9-19T11:19:41Z</time></trkpt>
<trkpt lat="46.40119" lon="7.77725"><ele></ele><time>2025-9-19T11:19:44Z</time></trkpt>
<trkpt lat="46.40102" lon="7.777"><ele></ele><time>2025-9-19T11:19:47Z</time></trkpt>
<trkpt lat="46.40091" lon="7.77682"><ele></ele><time>2025-9-19T11:19:50Z</time></trkpt>
<trkpt lat="46.40074" lon="7.7766"><ele></ele><time>2025-9-19T11:19:53Z</time></trkpt>
<trkpt lat="46.4007" lon="7.77653"><ele></ele><time>2025-9-19T11:19:56Z</time></trkpt>
<trkpt lat="46.4006" lon="7.77623"><ele></ele><time>2025-9-19T11:19:59Z</time></trkpt>
<trkpt lat="46.40049" lon="7.7759"><ele></ele><time>2025-9-19T11:20:2Z</time></trkpt>
<trkpt lat="46.40038" lon="7.77557"><ele></ele><time>2025-9-19T11:20:5Z</time></trkpt>
<trkpt lat="46.40028" lon="7.77528"><ele></ele><time>2025-9-19T11:20:8Z</time></trkpt>
<trkpt lat="46.40025" lon="7.77518"><ele></ele><time>2025-9-19T11:20:11Z</time></trkpt>
<trkpt lat="46.40019" lon="7.77498"><ele></ele><time>2025-9-19T11:20:14Z</time></trkpt>
<trkpt lat="46.40016" lon="7.77488"><ele></ele><time>2025-9-19T11:20:17Z</time></trkpt>
<trkpt lat="46.40013" lon="7.77478"><ele></ele><time>2025-9-19T11:20:20Z</time></trkpt>
<trkpt lat="46.40007" lon="7.77459"><ele></ele><time>2025-9-19T11:20:23Z</time></trkpt>
<trkpt lat="46.40002" lon="7.7744"><ele></ele><time>2025-9-19T11:20:26Z</time></trkpt>
<trkpt lat="46.39996" lon="7.77421"><ele></ele><time>2025-9-19T11:20:29Z</time></trkpt>
<trkpt lat="46.39994" lon="7.77413"><ele></ele><time>2025-9-19T11:20:32Z</time></trkpt>
<trkpt lat="46.39992" lon="7.77404"><ele></ele><time>2025-9-19T11:20:35Z</time></trkpt>
<trkpt lat="46.39986" lon="7.77378"><ele></ele><time>2025-9-19T11:20:38Z</time></trkpt>
<trkpt lat="46.39979" lon="7.77343"><ele></ele><time>2025-9-19T11:20:41Z</time></trkpt>
<trkpt lat="46.39967" lon="7.77286"><ele></ele><time>2025-9-19T11:20:44Z</time></trkpt>
<trkpt lat="46.39964" lon="7.77278"><ele></ele><time>2025-9-19T11:20:47Z</time></trkpt>
<trkpt lat="46.39956" lon="7.77256"><ele></ele><time>2025-9-19T11:20:50Z</time></trkpt>
<trkpt lat="46.39949" lon="7.77243"><ele></ele><time>2025-9-19T11:20:53Z</time></trkpt>
<trkpt lat="46.39945" lon="7.77236"><ele></ele><time>2025-9-19T11:20:56Z</time></trkpt>
<trkpt lat="46.39943" lon="7.77229"><ele></ele><time>2025-9-19T11:20:59Z</time></trkpt>
<trkpt lat="46.39944" lon="7.77218"><ele></ele><time>2025-9-19T11:21:2Z</time></trkpt>
<trkpt lat="46.39947" lon="7.77211"><ele></ele><time>2025-9-19T11:21:5Z</time></trkpt>
<trkpt lat="46.39952" lon="7.7721"><ele></ele><time>2025-9-19T11:21:8Z</time></trkpt>
<trkpt lat="46.39955" lon="7.77207"><ele></ele><time>2025-9-19T11:21:11Z</time></trkpt>
<trkpt lat="46.39957" lon="7.77203"><ele></ele><time>2025-9-19T11:21:14Z</time></trkpt>
<trkpt lat="46.39958" lon="7.77199"><ele></ele><time>2025-9-19T11:21:17Z</time></trkpt>
<trkpt lat="46.3996" lon="7.77192"><ele></ele><time>2025-9-19T11:21:20Z</time></trkpt>
<trkpt lat="46.3996" lon="7.77189"><ele></ele><time>2025-9-19T11:21:23Z</time></trkpt>
<trkpt lat="46.3996" lon="7.77188"><ele></ele><time>2025-9-19T11:21:26Z</time></trkpt>
<trkpt lat="46.39959" lon="7.77183"><ele></ele><time>2025-9-19T11:21:29Z</time></trkpt>
<trkpt lat="46.39958" lon="7.77181"><ele></ele><time>2025-9-19T11:21:32Z</time></trkpt>
<trkpt lat="46.39956" lon="7.77173"><ele></ele><time>2025-9-19T11:21:35Z</time></trkpt>
<trkpt lat="46.39952" lon="7.77161"><ele></ele><time>2025-9-19T11:21:38Z</time></trkpt>
<trkpt lat="46.39951" lon="7.7716"><ele></ele><time>2025-9-19T11:21:41Z</time></trkpt>
<trkpt lat="46.3995" lon="7.77158"><ele></ele><time>2025-9-19T11:21:44Z</time></trkpt>
<trkpt lat="46.39949" lon="7.77149"><ele></ele><time>2025-9-19T11:21:47Z</time></trkpt>
<trkpt lat="46.39947" lon="7.77142"><ele></ele><time>2025-9-19T11:21:50Z</time></trkpt>
<trkpt lat="46.39946" lon="7.77138"><ele></ele><time>2025-9-19T11:21:53Z</time></trkpt>
<trkpt lat="46.39944" lon="7.7713"><ele></ele><time>2025-9-19T11:21:56Z</time></trkpt>
<trkpt lat="46.39944" lon="7.77128"><ele></ele><time>2025-9-19T11:21:59Z</time></trkpt>
<trkpt lat="46.3994" lon="7.7712"><ele></ele><time>2025-9-19T11:22:2Z</time></trkpt>
<trkpt lat="46.3994" lon="7.77118"><ele></ele><time>2025-9-19T11:22:5Z</time></trkpt>
<trkpt lat="46.39939" lon="7.77116"><ele></ele><time>2025-9-19T11:22:8Z</time></trkpt>
<trkpt lat="46.39938" lon="7.77114"><ele></ele><time>2025-9-19T11:22:11Z</time></trkpt>
<trkpt lat="46.39938" lon="7.77111"><ele></ele><time>2025-9-19T11:22:14Z</time></trkpt>
<trkpt lat="46.39938" lon="7.7711"><ele></ele><time>2025-9-19T11:22:17Z</time></trkpt>
<trkpt lat="46.39937" lon="7.77104"><ele></ele><time>2025-9-19T11:22:20Z</time></trkpt>
<trkpt lat="46.39935" lon="7.77098"><ele></ele><time>2025-9-19T11:22:23Z</time></trkpt>
<trkpt lat="46.39932" lon="7.77091"><ele></ele><time>2025-9-19T11:22:26Z</time></trkpt>
<trkpt lat="46.39931" lon="7.77087"><ele></ele><time>2025-9-19T11:22:29Z</time></trkpt>
<trkpt lat="46.39929" lon="7.77079"><ele></ele><time>2025-9-19T11:22:32Z</time></trkpt>
<trkpt lat="46.39929" lon="7.77076"><ele></ele><time>2025-9-19T11:22:35Z</time></trkpt>
<trkpt lat="46.39928" lon="7.77072"><ele></ele><time>2025-9-19T11:22:38Z</time></trkpt>
<trkpt lat="46.39927" lon="7.77071"><ele></ele><time>2025-9-19T11:22:41Z</time></trkpt>
<trkpt lat="46.39926" lon="7.77068"><ele></ele><time>2025-9-19T11:22:44Z</time></trkpt>
<trkpt lat="46.39926" lon="7.77065"><ele></ele><time>2025-9-19T11:22:47Z</time></trkpt>
<trkpt lat="46.39926" lon="7.77063"><ele></ele><time>2025-9-19T11:22:50Z</time></trkpt>
<trkpt lat="46.39924" lon="7.77057"><ele></ele><time>2025-9-19T11:22:53Z</time></trkpt>
<trkpt lat="46.39924" lon="7.77054"><ele></ele><time>2025-9-19T11:22:56Z</time></trkpt>
<trkpt lat="46.39924" lon="7.77052"><ele></ele><time>2025-9-19T11:22:59Z</time></trkpt>
<trkpt lat="46.39924" lon="7.77049"><ele></ele><time>2025-9-19T11:23:2Z</time></trkpt>
<trkpt lat="46.39923" lon="7.77048"><ele></ele><time>2025-9-19T11:23:5Z</time></trkpt>
<trkpt lat="46.39923" lon="7.77046"><ele></ele><time>2025-9-19T11:23:8Z</time></trkpt>
<trkpt lat="46.39922" lon="7.77042"><ele></ele><time>2025-9-19T11:23:11Z</time></trkpt>
<trkpt lat="46.39922" lon="7.77041"><ele></ele><time>2025-9-19T11:23:14Z</time></trkpt>
<trkpt lat="46.39921" lon="7.77035"><ele></ele><time>2025-9-19T11:23:17Z</time></trkpt>
<trkpt lat="46.39921" lon="7.77034"><ele></ele><time>2025-9-19T11:23:20Z</time></trkpt>
<trkpt lat="46.3992" lon="7.77031"><ele></ele><time>2025-9-19T11:23:23Z</time></trkpt>
<trkpt lat="46.39921" lon="7.77024"><ele></ele><time>2025-9-19T11:23:26Z</time></trkpt>
<trkpt lat="46.39921" lon="7.77019"><ele></ele><time>2025-9-19T11:23:29Z</time></trkpt>
<trkpt lat="46.39923" lon="7.77013"><ele></ele><time>2025-9-19T11:23:32Z</time></trkpt>
<trkpt lat="46.39924" lon="7.77005"><ele></ele><time>2025-9-19T11:23:35Z</time></trkpt>
<trkpt lat="46.39924" lon="7.77004"><ele></ele><time>2025-9-19T11:23:38Z</time></trkpt>
<trkpt lat="46.39922" lon="7.76995"><ele></ele><time>2025-9-19T11:23:41Z</time></trkpt>
<trkpt lat="46.39919" lon="7.76986"><ele></ele><time>2025-9-19T11:23:44Z</time></trkpt>
<trkpt lat="46.39919" lon="7.76984"><ele></ele><time>2025-9-19T11:23:47Z</time></trkpt>
<trkpt lat="46.39918" lon="7.76975"><ele></ele><time>2025-9-19T11:23:50Z</time></trkpt>
<trkpt lat="46.39917" lon="7.76971"><ele></ele><time>2025-9-19T11:23:53Z</time></trkpt>
<trkpt lat="46.39917" lon="7.76964"><ele></ele><time>2025-9-19T11:23:56Z</time></trkpt>
<trkpt lat="46.39917" lon="7.76958"><ele></ele><time>2025-9-19T11:23:59Z</time></trkpt>
<trkpt lat="46.39917" lon="7.76956"><ele></ele><time>2025-9-19T11:24:2Z</time></trkpt>
<trkpt lat="46.39916" lon="7.76955"><ele></ele><time>2025-9-19T11:24:5Z</time></trkpt>
<trkpt lat="46.39915" lon="7.76948"><ele></ele><time>2025-9-19T11:24:8Z</time></trkpt>
<trkpt lat="46.39915" lon="7.76945"><ele></ele><time>2025-9-19T11:24:11Z</time></trkpt>
<trkpt lat="46.39914" lon="7.76943"><ele></ele><time>2025-9-19T11:24:14Z</time></trkpt>
<trkpt lat="46.39913" lon="7.76939"><ele></ele><time>2025-9-19T11:24:17Z</time></trkpt>
<trkpt lat="46.39912" lon="7.76938"><ele></ele><time>2025-9-19T11:24:20Z</time></trkpt>
<trkpt lat="46.39912" lon="7.76932"><ele></ele><time>2025-9-19T11:24:23Z</time></trkpt>
<trkpt lat="46.39912" lon="7.76927"><ele></ele><time>2025-9-19T11:24:26Z</time></trkpt>
<trkpt lat="46.39911" lon="7.76923"><ele></ele><time>2025-9-19T11:24:29Z</time></trkpt>
<trkpt lat="46.39911" lon="7.76916"><ele></ele><time>2025-9-19T11:24:32Z</time></trkpt>
<trkpt lat="46.39911" lon="7.76913"><ele></ele><time>2025-9-19T11:24:35Z</time></trkpt>
<trkpt lat="46.39911" lon="7.76904"><ele></ele><time>2025-9-19T11:24:38Z</time></trkpt>
<trkpt lat="46.3991" lon="7.76899"><ele></ele><time>2025-9-19T11:24:41Z</time></trkpt>
<trkpt lat="46.3991" lon="7.76893"><ele></ele><time>2025-9-19T11:24:44Z</time></trkpt>
<trkpt lat="46.3991" lon="7.76891"><ele></ele><time>2025-9-19T11:24:47Z</time></trkpt>
<trkpt lat="46.39909" lon="7.76882"><ele></ele><time>2025-9-19T11:24:50Z</time></trkpt>
<trkpt lat="46.39908" lon="7.7688"><ele></ele><time>2025-9-19T11:24:53Z</time></trkpt>
<trkpt lat="46.39908" lon="7.76876"><ele></ele><time>2025-9-19T11:24:56Z</time></trkpt>
<trkpt lat="46.39906" lon="7.7687"><ele></ele><time>2025-9-19T11:24:59Z</time></trkpt>
<trkpt lat="46.39906" lon="7.76868"><ele></ele><time>2025-9-19T11:25:2Z</time></trkpt>
<trkpt lat="46.39906" lon="7.76864"><ele></ele><time>2025-9-19T11:25:5Z</time></trkpt>
<trkpt lat="46.39904" lon="7.76861"><ele></ele><time>2025-9-19T11:25:8Z</time></trkpt>
<trkpt lat="46.39904" lon="7.76859"><ele></ele><time>2025-9-19T11:25:11Z</time></trkpt>
<trkpt lat="46.39904" lon="7.76852"><ele></ele><time>2025-9-19T11:25:14Z</time></trkpt>
<trkpt lat="46.39902" lon="7.76847"><ele></ele><time>2025-9-19T11:25:17Z</time></trkpt>
<trkpt lat="46.39901" lon="7.76843"><ele></ele><time>2025-9-19T11:25:20Z</time></trkpt>
<trkpt lat="46.399" lon="7.76834"><ele></ele><time>2025-9-19T11:25:23Z</time></trkpt>
<trkpt lat="46.39899" lon="7.76832"><ele></ele><time>2025-9-19T11:25:26Z</time></trkpt>
<trkpt lat="46.39896" lon="7.76825"><ele></ele><time>2025-9-19T11:25:29Z</time></trkpt>
<trkpt lat="46.39895" lon="7.76824"><ele></ele><time>2025-9-19T11:25:32Z</time></trkpt>
<trkpt lat="46.39892" lon="7.76817"><ele></ele><time>2025-9-19T11:25:35Z</time></trkpt>
<trkpt lat="46.39891" lon="7.76815"><ele></ele><time>2025-9-19T11:25:38Z</time></trkpt>
<trkpt lat="46.39888" lon="7.76812"><ele></ele><time>2025-9-19T11:25:41Z</time></trkpt>
<trkpt lat="46.39886" lon="7.76809"><ele></ele><time>2025-9-19T11:25:44Z</time></trkpt>
<trkpt lat="46.39884" lon="7.76804"><ele></ele><time>2025-9-19T11:25:47Z</time></trkpt>
<trkpt lat="46.39881" lon="7.76799"><ele></ele><time>2025-9-19T11:25:50Z</time></trkpt>
<trkpt lat="46.39878" lon="7.76795"><ele></ele><time>2025-9-19T11:25:53Z</time></trkpt>
<trkpt lat="46.39876" lon="7.76789"><ele></ele><time>2025-9-19T11:25:56Z</time></trkpt>
<trkpt lat="46.39878" lon="7.76783"><ele></ele><time>2025-9-19T11:25:59Z</time></trkpt>
<trkpt lat="46.39878" lon="7.76773"><ele></ele><time>2025-9-19T11:26:2Z</time></trkpt>
<trkpt lat="46.39878" lon="7.7677"><ele></ele><time>2025-9-19T11:26:5Z</time></trkpt>
<trkpt lat="46.39878" lon="7.76763"><ele></ele><time>2025-9-19T11:26:8Z</time></trkpt>
<trkpt lat="46.39877" lon="7.7676"><ele></ele><time>2025-9-19T11:26:11Z</time></trkpt>
<trkpt lat="46.39877" lon="7.76753"><ele></ele><time>2025-9-19T11:26:14Z</time></trkpt>
<trkpt lat="46.39875" lon="7.76751"><ele></ele><time>2025-9-19T11:26:17Z</time></trkpt>
<trkpt lat="46.39873" lon="7.76746"><ele></ele><time>2025-9-19T11:26:20Z</time></trkpt>
<trkpt lat="46.39871" lon="7.7674"><ele></ele><time>2025-9-19T11:26:23Z</time></trkpt>
<trkpt lat="46.39872" lon="7.76735"><ele></ele><time>2025-9-19T11:26:26Z</time></trkpt>
<trkpt lat="46.39871" lon="7.76733"><ele></ele><time>2025-9-19T11:26:29Z</time></trkpt>
<trkpt lat="46.39869" lon="7.76728"><ele></ele><time>2025-9-19T11:26:32Z</time></trkpt>
<trkpt lat="46.39869" lon="7.76727"><ele></ele><time>2025-9-19T11:26:35Z</time></trkpt>
<trkpt lat="46.39866" lon="7.7672"><ele></ele><time>2025-9-19T11:26:38Z</time></trkpt>
<trkpt lat="46.39865" lon="7.76716"><ele></ele><time>2025-9-19T11:26:41Z</time></trkpt>
<trkpt lat="46.39865" lon="7.7671"><ele></ele><time>2025-9-19T11:26:44Z</time></trkpt>
<trkpt lat="46.39864" lon="7.76708"><ele></ele><time>2025-9-19T11:26:47Z</time></trkpt>
<trkpt lat="46.39862" lon="7.76703"><ele></ele><time>2025-9-19T11:26:50Z</time></trkpt>
<trkpt lat="46.39861" lon="7.76699"><ele></ele><time>2025-9-19T11:26:53Z</time></trkpt>
<trkpt lat="46.39859" lon="7.76694"><ele></ele><time>2025-9-19T11:26:56Z</time></trkpt>
<trkpt lat="46.39857" lon="7.76691"><ele></ele><time>2025-9-19T11:26:59Z</time></trkpt>
<trkpt lat="46.39855" lon="7.76688"><ele></ele><time>2025-9-19T11:27:2Z</time></trkpt>
<trkpt lat="46.39852" lon="7.76683"><ele></ele><time>2025-9-19T11:27:5Z</time></trkpt>
<trkpt lat="46.39851" lon="7.76682"><ele></ele><time>2025-9-19T11:27:8Z</time></trkpt>
<trkpt lat="46.39851" lon="7.76678"><ele></ele><time>2025-9-19T11:27:11Z</time></trkpt>
<trkpt lat="46.39852" lon="7.76677"><ele></ele><time>2025-9-19T11:27:14Z</time></trkpt>
<trkpt lat="46.39853" lon="7.76676"><ele></ele><time>2025-9-19T11:27:17Z</time></trkpt>
<trkpt lat="46.39854" lon="7.76676"><ele></ele><time>2025-9-19T11:27:20Z</time></trkpt>
<trkpt lat="46.39857" lon="7.76678"><ele></ele><time>2025-9-19T11:27:23Z</time></trkpt>
<trkpt lat="46.39856" lon="7.76682"><ele></ele><time>2025-9-19T11:27:26Z</time></trkpt>
<trkpt lat="46.39854" lon="7.76682"><ele></ele><time>2025-9-19T11:27:29Z</time></trkpt>
<trkpt lat="46.39853" lon="7.76681"><ele></ele><time>2025-9-19T11:27:32Z</time></trkpt>
<trkpt lat="46.39855" lon="7.76684"><ele></ele><time>2025-9-19T11:27:35Z</time></trkpt>
<trkpt lat="46.39855" lon="7.76685"><ele></ele><time>2025-9-19T11:27:38Z</time></trkpt>
<trkpt lat="46.39855" lon="7.76685"><ele></ele><time>2025-9-19T11:27:41Z</time></trkpt>
<trkpt lat="46.39855" lon="7.76685"><ele></ele><time>2025-9-19T11:27:44Z</time></trkpt>
<trkpt lat="46.39855" lon="7.76685"><ele></ele><time>2025-9-19T11:27:47Z</time></trkpt>
<trkpt lat="46.39855" lon="7.76685"><ele></ele><time>2025-9-19T11:27:50Z</time></trkpt>
<trkpt lat="46.39855" lon="7.76685"><ele></ele><time>2025-9-19T11:27:53Z</time></trkpt>
<trkpt lat="46.39855" lon="7.76685"><ele></ele><time>2025-9-19T11:27:56Z</time></trkpt>
<trkpt lat="46.39855" lon="7.76685"><ele></ele><time>2025-9-19T11:27:59Z</time></trkpt>
<trkpt lat="46.39855" lon="7.76685"><ele></ele><time>2025-9-19T11:28:2Z</time></trkpt>
<trkpt lat="46.39855" lon="7.76685"><ele></ele><time>2025-9-19T11:28:5Z</time></trkpt>
<trkpt lat="46.39855" lon="7.76685"><ele></ele><time>2025-9-19T11:28:8Z</time></trkpt>
<trkpt lat="46.39855" lon="7.76685"><ele></ele><time>2025-9-19T11:28:11Z</time></trkpt>
<trkpt lat="46.39855" lon="7.76685"><ele></ele><time>2025-9-19T11:28:14Z</time></trkpt>
<trkpt lat="46.39855" lon="7.76685"><ele></ele><time>2025-9-19T11:28:17Z</time></trkpt>
<trkpt lat="46.39855" lon="7.76685"><ele></ele><time>2025-9-19T11:28:20Z</time></trkpt>
<trkpt lat="46.39855" lon="7.76685"><ele></ele><time>2025-9-19T11:28:23Z</time></trkpt>
<trkpt lat="46.39853" lon="7.76684"><ele></ele><time>2025-9-19T11:28:26Z</time></trkpt>
<trkpt lat="46.39848" lon="7.76673"><ele></ele><time>2025-9-19T11:28:29Z</time></trkpt>
<trkpt lat="46.39847" lon="7.76672"><ele></ele><time>2025-9-19T11:28:32Z</time></trkpt>
<trkpt lat="46.39844" lon="7.76664"><ele></ele><time>2025-9-19T11:28:35Z</time></trkpt>
<trkpt lat="46.39841" lon="7.76651"><ele></ele><time>2025-9-19T11:28:38Z</time></trkpt>
<trkpt lat="46.39842" lon="7.7665"><ele></ele><time>2025-9-19T11:28:41Z</time></trkpt>
<trkpt lat="46.39841" lon="7.76651"><ele></ele><time>2025-9-19T11:28:44Z</time></trkpt>
<trkpt lat="46.39842" lon="7.76653"><ele></ele><time>2025-9-19T11:28:47Z</time></trkpt>
<trkpt lat="46.39844" lon="7.76663"><ele></ele><time>2025-9-19T11:28:50Z</time></trkpt>
<trkpt lat="46.39847" lon="7.7667"><ele></ele><time>2025-9-19T11:28:53Z</time></trkpt>
<trkpt lat="46.39852" lon="7.76671"><ele></ele><time>2025-9-19T11:28:56Z</time></trkpt>
<trkpt lat="46.39854" lon="7.7667"><ele></ele><time>2025-9-19T11:28:59Z</time></trkpt>
<trkpt lat="46.39856" lon="7.76666"><ele></ele><time>2025-9-19T11:29:2Z</time></trkpt>
<trkpt lat="46.39855" lon="7.76663"><ele></ele><time>2025-9-19T11:29:5Z</time></trkpt>
<trkpt lat="46.39847" lon="7.76647"><ele></ele><time>2025-9-19T11:29:8Z</time></trkpt>
<trkpt lat="46.39834" lon="7.76628"><ele></ele><time>2025-9-19T11:29:11Z</time></trkpt>
<trkpt lat="46.39826" lon="7.76615"><ele></ele><time>2025-9-19T11:29:14Z</time></trkpt>
<trkpt lat="46.39822" lon="7.76611"><ele></ele><time>2025-9-19T11:29:17Z</time></trkpt>
<trkpt lat="46.39812" lon="7.76608"><ele></ele><time>2025-9-19T11:29:20Z</time></trkpt>
<trkpt lat="46.39802" lon="7.76607"><ele></ele><time>2025-9-19T11:29:23Z</time></trkpt>
<trkpt lat="46.39792" lon="7.76604"><ele></ele><time>2025-9-19T11:29:26Z</time></trkpt>
<trkpt lat="46.39787" lon="7.76601"><ele></ele><time>2025-9-19T11:29:29Z</time></trkpt>
<trkpt lat="46.39776" lon="7.76594"><ele></ele><time>2025-9-19T11:29:32Z</time></trkpt>
<trkpt lat="46.39767" lon="7.76587"><ele></ele><time>2025-9-19T11:29:35Z</time></trkpt>
<trkpt lat="46.39758" lon="7.76581"><ele></ele><time>2025-9-19T11:29:38Z</time></trkpt>
<trkpt lat="46.39749" lon="7.76577"><ele></ele><time>2025-9-19T11:29:41Z</time></trkpt>
<trkpt lat="46.39739" lon="7.76575"><ele></ele><time>2025-9-19T11:29:44Z</time></trkpt>
<trkpt lat="46.39735" lon="7.76574"><ele></ele><time>2025-9-19T11:29:47Z</time></trkpt>
<trkpt lat="46.39731" lon="7.76574"><ele></ele><time>2025-9-19T11:29:50Z</time></trkpt>
<trkpt lat="46.39724" lon="7.7657"><ele></ele><time>2025-9-19T11:29:53Z</time></trkpt>
<trkpt lat="46.39721" lon="7.76566"><ele></ele><time>2025-9-19T11:29:56Z</time></trkpt>
<trkpt lat="46.39718" lon="7.76561"><ele></ele><time>2025-9-19T11:29:59Z</time></trkpt>
<trkpt lat="46.39713" lon="7.76554"><ele></ele><time>2025-9-19T11:30:2Z</time></trkpt>
<trkpt lat="46.39707" lon="7.7655"><ele></ele><time>2025-9-19T11:30:5Z</time></trkpt>
<trkpt lat="46.397" lon="7.76551"><ele></ele><time>2025-9-19T11:30:8Z</time></trkpt>
<trkpt lat="46.3969" lon="7.76553"><ele></ele><time>2025-9-19T11:30:11Z</time></trkpt>
<trkpt lat="46.39685" lon="7.76553"><ele></ele><time>2025-9-19T11:30:14Z</time></trkpt>
<trkpt lat="46.39682" lon="7.76554"><ele></ele><time>2025-9-19T11:30:17Z</time></trkpt>
<trkpt lat="46.39679" lon="7.76554"><ele></ele><time>2025-9-19T11:30:20Z</time></trkpt>
<trkpt lat="46.39677" lon="7.76555"><ele></ele><time>2025-9-19T11:30:23Z</time></trkpt>
<trkpt lat="46.39676" lon="7.76554"><ele></ele><time>2025-9-19T11:30:26Z</time></trkpt>
<trkpt lat="46.39674" lon="7.7655"><ele></ele><time>2025-9-19T11:30:29Z</time></trkpt>
<trkpt lat="46.39675" lon="7.76552"><ele></ele><time>2025-9-19T11:30:32Z</time></trkpt>
<trkpt lat="46.39674" lon="7.76551"><ele></ele><time>2025-9-19T11:30:35Z</time></trkpt>
<trkpt lat="46.39674" lon="7.76551"><ele></ele><time>2025-9-19T11:30:38Z</time></trkpt>
<trkpt lat="46.39674" lon="7.76551"><ele></ele><time>2025-9-19T11:30:41Z</time></trkpt>
<trkpt lat="46.39674" lon="7.76551"><ele></ele><time>2025-9-19T11:30:44Z</time></trkpt>
<trkpt lat="46.39674" lon="7.76551"><ele></ele><time>2025-9-19T11:30:47Z</time></trkpt>
<trkpt lat="46.39674" lon="7.76551"><ele></ele><time>2025-9-19T11:30:50Z</time></trkpt>
<trkpt lat="46.39674" lon="7.76551"><ele></ele><time>2025-9-19T11:30:53Z</time></trkpt>
<trkpt lat="46.39674" lon="7.76551"><ele></ele><time>2025-9-19T11:30:56Z</time></trkpt>
<trkpt lat="46.39674" lon="7.76551"><ele></ele><time>2025-9-19T11:30:59Z</time></trkpt>
<trkpt lat="46.39674" lon="7.76551"><ele></ele><time>2025-9-19T11:31:2Z</time></trkpt>
<trkpt lat="46.39673" lon="7.76551"><ele></ele><time>2025-9-19T11:31:5Z</time></trkpt>
<trkpt lat="46.39668" lon="7.7655"><ele></ele><time>2025-9-19T11:31:8Z</time></trkpt>
<trkpt lat="46.3967" lon="7.76544"><ele></ele><time>2025-9-19T11:31:11Z</time></trkpt>
<trkpt lat="46.39671" lon="7.76541"><ele></ele><time>2025-9-19T11:31:14Z</time></trkpt>
<trkpt lat="46.39676" lon="7.76525"><ele></ele><time>2025-9-19T11:31:17Z</time></trkpt>
<trkpt lat="46.39679" lon="7.76513"><ele></ele><time>2025-9-19T11:31:20Z</time></trkpt>
<trkpt lat="46.39681" lon="7.76501"><ele></ele><time>2025-9-19T11:31:23Z</time></trkpt>
<trkpt lat="46.39678" lon="7.76491"><ele></ele><time>2025-9-19T11:31:26Z</time></trkpt>
<trkpt lat="46.39675" lon="7.76478"><ele></ele><time>2025-9-19T11:31:29Z</time></trkpt>
<trkpt lat="46.39673" lon="7.76473"><ele></ele><time>2025-9-19T11:31:32Z</time></trkpt>
<trkpt lat="46.39666" lon="7.76446"><ele></ele><time>2025-9-19T11:31:35Z</time></trkpt>
<trkpt lat="46.39656" lon="7.76414"><ele></ele><time>2025-9-19T11:31:38Z</time></trkpt>
<trkpt lat="46.3965" lon="7.76395"><ele></ele><time>2025-9-19T11:31:41Z</time></trkpt>
<trkpt lat="46.39649" lon="7.76394"><ele></ele><time>2025-9-19T11:31:44Z</time></trkpt>
<trkpt lat="46.39649" lon="7.76394"><ele></ele><time>2025-9-19T11:31:47Z</time></trkpt>
<trkpt lat="46.39648" lon="7.76393"><ele></ele><time>2025-9-19T11:31:50Z</time></trkpt>
<trkpt lat="46.39648" lon="7.76393"><ele></ele><time>2025-9-19T11:31:53Z</time></trkpt>
<trkpt lat="46.39648" lon="7.76393"><ele></ele><time>2025-9-19T11:31:56Z</time></trkpt>
<trkpt lat="46.39648" lon="7.76393"><ele></ele><time>2025-9-19T11:31:59Z</time></trkpt>
<trkpt lat="46.39648" lon="7.76393"><ele></ele><time>2025-9-19T11:32:2Z</time></trkpt>
<trkpt lat="46.39648" lon="7.76393"><ele></ele><time>2025-9-19T11:32:5Z</time></trkpt>
<trkpt lat="46.39648" lon="7.76393"><ele></ele><time>2025-9-19T11:32:8Z</time></trkpt>
<trkpt lat="46.39648" lon="7.76393"><ele></ele><time>2025-9-19T11:32:11Z</time></trkpt>
<trkpt lat="46.39648" lon="7.76393"><ele></ele><time>2025-9-19T11:32:14Z</time></trkpt>
<trkpt lat="46.39648" lon="7.76393"><ele></ele><time>2025-9-19T11:32:17Z</time></trkpt>
<trkpt lat="46.39648" lon="7.76393"><ele></ele><time>2025-9-19T11:32:20Z</time></trkpt>
<trkpt lat="46.39649" lon="7.76395"><ele></ele><time>2025-9-19T11:32:23Z</time></trkpt>
<trkpt lat="46.39649" lon="7.76394"><ele></ele><time>2025-9-19T11:32:26Z</time></trkpt>
<trkpt lat="46.39646" lon="7.76382"><ele></ele><time>2025-9-19T11:32:29Z</time></trkpt>
<trkpt lat="46.39637" lon="7.76359"><ele></ele><time>2025-9-19T11:32:32Z</time></trkpt>
<trkpt lat="46.39631" lon="7.76347"><ele></ele><time>2025-9-19T11:32:35Z</time></trkpt>
<trkpt lat="46.3963" lon="7.76344"><ele></ele><time>2025-9-19T11:32:38Z</time></trkpt>
<trkpt lat="46.39628" lon="7.76335"><ele></ele><time>2025-9-19T11:32:41Z</time></trkpt>
<trkpt lat="46.39627" lon="7.76334"><ele></ele><time>2025-9-19T11:32:44Z</time></trkpt>
<trkpt lat="46.39624" lon="7.76326"><ele></ele><time>2025-9-19T11:32:47Z</time></trkpt>
<trkpt lat="46.39624" lon="7.76325"><ele></ele><time>2025-9-19T11:32:50Z</time></trkpt>
<trkpt lat="46.39623" lon="7.76321"><ele></ele><time>2025-9-19T11:32:53Z</time></trkpt>
<trkpt lat="46.39622" lon="7.76322"><ele></ele><time>2025-9-19T11:32:56Z</time></trkpt>
<trkpt lat="46.39622" lon="7.76322"><ele></ele><time>2025-9-19T11:32:59Z</time></trkpt>
<trkpt lat="46.39622" lon="7.76322"><ele></ele><time>2025-9-19T11:33:2Z</time></trkpt>
<trkpt lat="46.39622" lon="7.76322"><ele></ele><time>2025-9-19T11:33:5Z</time></trkpt>
<trkpt lat="46.39622" lon="7.76322"><ele></ele><time>2025-9-19T11:33:8Z</time></trkpt>
<trkpt lat="46.39622" lon="7.76321"><ele></ele><time>2025-9-19T11:33:11Z</time></trkpt>
<trkpt lat="46.39622" lon="7.76314"><ele></ele><time>2025-9-19T11:33:14Z</time></trkpt>
<trkpt lat="46.39623" lon="7.76288"><ele></ele><time>2025-9-19T11:33:17Z</time></trkpt>
<trkpt lat="46.39624" lon="7.76269"><ele></ele><time>2025-9-19T11:33:20Z</time></trkpt>
<trkpt lat="46.39625" lon="7.76256"><ele></ele><time>2025-9-19T11:33:23Z</time></trkpt>
<trkpt lat="46.39627" lon="7.76244"><ele></ele><time>2025-9-19T11:33:26Z</time></trkpt>
<trkpt lat="46.39626" lon="7.76238"><ele></ele><time>2025-9-19T11:33:29Z</time></trkpt>
<trkpt lat="46.39623" lon="7.76233"><ele></ele><time>2025-9-19T11:33:32Z</time></trkpt>
<trkpt lat="46.39612" lon="7.76231"><ele></ele><time>2025-9-19T11:33:35Z</time></trkpt>
<trkpt lat="46.39607" lon="7.76232"><ele></ele><time>2025-9-19T11:33:38Z</time></trkpt>
<trkpt lat="46.39593" lon="7.76236"><ele></ele><time>2025-9-19T11:33:41Z</time></trkpt>
<trkpt lat="46.39583" lon="7.76236"><ele></ele><time>2025-9-19T11:33:44Z</time></trkpt>
<trkpt lat="46.39578" lon="7.76231"><ele></ele><time>2025-9-19T11:33:47Z</time></trkpt>
<trkpt lat="46.39578" lon="7.76231"><ele></ele><time>2025-9-19T11:33:50Z</time></trkpt>
<trkpt lat="46.39576" lon="7.76229"><ele></ele><time>2025-9-19T11:33:53Z</time></trkpt>
<trkpt lat="46.39573" lon="7.76228"><ele></ele><time>2025-9-19T11:33:56Z</time></trkpt>
<trkpt lat="46.39567" lon="7.76223"><ele></ele><time>2025-9-19T11:33:59Z</time></trkpt>
<trkpt lat="46.39563" lon="7.76222"><ele></ele><time>2025-9-19T11:34:2Z</time></trkpt>
<trkpt lat="46.39562" lon="7.76221"><ele></ele><time>2025-9-19T11:34:5Z</time></trkpt>
<trkpt lat="46.39553" lon="7.76216"><ele></ele><time>2025-9-19T11:34:8Z</time></trkpt>
<trkpt lat="46.3955" lon="7.76213"><ele></ele><time>2025-9-19T11:34:11Z</time></trkpt>
<trkpt lat="46.39546" lon="7.7621"><ele></ele><time>2025-9-19T11:34:14Z</time></trkpt>
<trkpt lat="46.39539" lon="7.76204"><ele></ele><time>2025-9-19T11:34:17Z</time></trkpt>
<trkpt lat="46.39538" lon="7.76202"><ele></ele><time>2025-9-19T11:34:20Z</time></trkpt>
<trkpt lat="46.39532" lon="7.76194"><ele></ele><time>2025-9-19T11:34:23Z</time></trkpt>
<trkpt lat="46.39527" lon="7.76187"><ele></ele><time>2025-9-19T11:34:26Z</time></trkpt>
<trkpt lat="46.39522" lon="7.7618"><ele></ele><time>2025-9-19T11:34:29Z</time></trkpt>
<trkpt lat="46.3952" lon="7.76179"><ele></ele><time>2025-9-19T11:34:32Z</time></trkpt>
<trkpt lat="46.39515" lon="7.7617"><ele></ele><time>2025-9-19T11:34:35Z</time></trkpt>
<trkpt lat="46.39514" lon="7.76168"><ele></ele><time>2025-9-19T11:34:38Z</time></trkpt>
<trkpt lat="46.39512" lon="7.76159"><ele></ele><time>2025-9-19T11:34:41Z</time></trkpt>
<trkpt lat="46.39512" lon="7.76157"><ele></ele><time>2025-9-19T11:34:44Z</time></trkpt>
<trkpt lat="46.3951" lon="7.76148"><ele></ele><time>2025-9-19T11:34:47Z</time></trkpt>
<trkpt lat="46.3951" lon="7.76146"><ele></ele><time>2025-9-19T11:34:50Z</time></trkpt>
<trkpt lat="46.3951" lon="7.76143"><ele></ele><time>2025-9-19T11:34:53Z</time></trkpt>
<trkpt lat="46.3951" lon="7.76145"><ele></ele><time>2025-9-19T11:34:56Z</time></trkpt>
<trkpt lat="46.3951" lon="7.76147"><ele></ele><time>2025-9-19T11:34:59Z</time></trkpt>
<trkpt lat="46.3951" lon="7.76148"><ele></ele><time>2025-9-19T11:35:2Z</time></trkpt>
<trkpt lat="46.39509" lon="7.76148"><ele></ele><time>2025-9-19T11:35:5Z</time></trkpt>
<trkpt lat="46.39506" lon="7.76147"><ele></ele><time>2025-9-19T11:35:8Z</time></trkpt>
<trkpt lat="46.39504" lon="7.76148"><ele></ele><time>2025-9-19T11:35:11Z</time></trkpt>
<trkpt lat="46.39503" lon="7.7615"><ele></ele><time>2025-9-19T11:35:14Z</time></trkpt>
<trkpt lat="46.395" lon="7.76153"><ele></ele><time>2025-9-19T11:35:17Z</time></trkpt>
<trkpt lat="46.39498" lon="7.76154"><ele></ele><time>2025-9-19T11:35:20Z</time></trkpt>
<trkpt lat="46.39493" lon="7.76157"><ele></ele><time>2025-9-19T11:35:23Z</time></trkpt>
<trkpt lat="46.39489" lon="7.76158"><ele></ele><time>2025-9-19T11:35:26Z</time></trkpt>
<trkpt lat="46.39487" lon="7.76162"><ele></ele><time>2025-9-19T11:35:29Z</time></trkpt>
<trkpt lat="46.39487" lon="7.76164"><ele></ele><time>2025-9-19T11:35:32Z</time></trkpt>
<trkpt lat="46.39486" lon="7.7617"><ele></ele><time>2025-9-19T11:35:35Z</time></trkpt>
<trkpt lat="46.39484" lon="7.76172"><ele></ele><time>2025-9-19T11:35:38Z</time></trkpt>
<trkpt lat="46.39478" lon="7.76176"><ele></ele><time>2025-9-19T11:35:41Z</time></trkpt>
<trkpt lat="46.39473" lon="7.7618"><ele></ele><time>2025-9-19T11:35:44Z</time></trkpt>
<trkpt lat="46.39468" lon="7.76183"><ele></ele><time>2025-9-19T11:35:47Z</time></trkpt>
<trkpt lat="46.39465" lon="7.76183"><ele></ele><time>2025-9-19T11:35:50Z</time></trkpt>
<trkpt lat="46.39462" lon="7.76181"><ele></ele><time>2025-9-19T11:35:53Z</time></trkpt>
<trkpt lat="46.39456" lon="7.76182"><ele></ele><time>2025-9-19T11:35:56Z</time></trkpt>
<trkpt lat="46.39454" lon="7.76184"><ele></ele><time>2025-9-19T11:35:59Z</time></trkpt>
<trkpt lat="46.39452" lon="7.76187"><ele></ele><time>2025-9-19T11:36:2Z</time></trkpt>
<trkpt lat="46.39451" lon="7.76193"><ele></ele><time>2025-9-19T11:36:5Z</time></trkpt>
<trkpt lat="46.39451" lon="7.76196"><ele></ele><time>2025-9-19T11:36:8Z</time></trkpt>
<trkpt lat="46.3945" lon="7.762"><ele></ele><time>2025-9-19T11:36:11Z</time></trkpt>
<trkpt lat="46.39454" lon="7.76212"><ele></ele><time>2025-9-19T11:36:14Z</time></trkpt>
<trkpt lat="46.39456" lon="7.76218"><ele></ele><time>2025-9-19T11:36:17Z</time></trkpt>
<trkpt lat="46.39455" lon="7.7622"><ele></ele><time>2025-9-19T11:36:20Z</time></trkpt>
<trkpt lat="46.39451" lon="7.76214"><ele></ele><time>2025-9-19T11:36:23Z</time></trkpt>
<trkpt lat="46.39448" lon="7.76194"><ele></ele><time>2025-9-19T11:36:26Z</time></trkpt>
<trkpt lat="46.39449" lon="7.76157"><ele></ele><time>2025-9-19T11:36:29Z</time></trkpt>
<trkpt lat="46.39453" lon="7.76123"><ele></ele><time>2025-9-19T11:36:32Z</time></trkpt>
<trkpt lat="46.39454" lon="7.76102"><ele></ele><time>2025-9-19T11:36:35Z</time></trkpt>
<trkpt lat="46.39453" lon="7.76095"><ele></ele><time>2025-9-19T11:36:38Z</time></trkpt>
<trkpt lat="46.39453" lon="7.76089"><ele></ele><time>2025-9-19T11:36:41Z</time></trkpt>
<trkpt lat="46.39448" lon="7.7607"><ele></ele><time>2025-9-19T11:36:44Z</time></trkpt>
<trkpt lat="46.39446" lon="7.7606"><ele></ele><time>2025-9-19T11:36:47Z</time></trkpt>
<trkpt lat="46.39446" lon="7.76061"><ele></ele><time>2025-9-19T11:36:50Z</time></trkpt>
<trkpt lat="46.39446" lon="7.76061"><ele></ele><time>2025-9-19T11:36:53Z</time></trkpt>
<trkpt lat="46.39446" lon="7.7606"><ele></ele><time>2025-9-19T11:36:56Z</time></trkpt>
<trkpt lat="46.39446" lon="7.76061"><ele></ele><time>2025-9-19T11:36:59Z</time></trkpt>
<trkpt lat="46.39446" lon="7.76061"><ele></ele><time>2025-9-19T11:37:2Z</time></trkpt>
<trkpt lat="46.39446" lon="7.76059"><ele></ele><time>2025-9-19T11:37:5Z</time></trkpt>
<trkpt lat="46.39446" lon="7.76059"><ele></ele><time>2025-9-19T11:37:8Z</time></trkpt>
<trkpt lat="46.39446" lon="7.76059"><ele></ele><time>2025-9-19T11:37:11Z</time></trkpt>
<trkpt lat="46.39446" lon="7.76058"><ele></ele><time>2025-9-19T11:37:14Z</time></trkpt>
<trkpt lat="46.39446" lon="7.76056"><ele></ele><time>2025-9-19T11:37:17Z</time></trkpt>
<trkpt lat="46.39443" lon="7.76054"><ele></ele><time>2025-9-19T11:37:20Z</time></trkpt>
<trkpt lat="46.39441" lon="7.76051"><ele></ele><time>2025-9-19T11:37:23Z</time></trkpt>
<trkpt lat="46.39435" lon="7.76028"><ele></ele><time>2025-9-19T11:37:26Z</time></trkpt>
<trkpt lat="46.3943" lon="7.76011"><ele></ele><time>2025-9-19T11:37:29Z</time></trkpt>
<trkpt lat="46.39427" lon="7.76001"><ele></ele><time>2025-9-19T11:37:32Z</time></trkpt>
<trkpt lat="46.39425" lon="7.75996"><ele></ele><time>2025-9-19T11:37:35Z</time></trkpt>
<trkpt lat="46.39408" lon="7.75964"><ele></ele><time>2025-9-19T11:37:38Z</time></trkpt>
<trkpt lat="46.394" lon="7.75952"><ele></ele><time>2025-9-19T11:37:41Z</time></trkpt>
<trkpt lat="46.39401" lon="7.75949"><ele></ele><time>2025-9-19T11:37:44Z</time></trkpt>
<trkpt lat="46.39404" lon="7.75947"><ele></ele><time>2025-9-19T11:37:47Z</time></trkpt>
<trkpt lat="46.39406" lon="7.75947"><ele></ele><time>2025-9-19T11:37:50Z</time></trkpt>
<trkpt lat="46.3941" lon="7.75949"><ele></ele><time>2025-9-19T11:37:53Z</time></trkpt>
<trkpt lat="46.39411" lon="7.75949"><ele></ele><time>2025-9-19T11:37:56Z</time></trkpt>
<trkpt lat="46.39414" lon="7.75949"><ele></ele><time>2025-9-19T11:37:59Z</time></trkpt>
<trkpt lat="46.39417" lon="7.7595"><ele></ele><time>2025-9-19T11:38:2Z</time></trkpt>
<trkpt lat="46.39422" lon="7.7595"><ele></ele><time>2025-9-19T11:38:5Z</time></trkpt>
<trkpt lat="46.39424" lon="7.75951"><ele></ele><time>2025-9-19T11:38:8Z</time></trkpt>
<trkpt lat="46.39429" lon="7.75953"><ele></ele><time>2025-9-19T11:38:11Z</time></trkpt>
<trkpt lat="46.3943" lon="7.75954"><ele></ele><time>2025-9-19T11:38:14Z</time></trkpt>
<trkpt lat="46.39431" lon="7.75954"><ele></ele><time>2025-9-19T11:38:17Z</time></trkpt>
<trkpt lat="46.39435" lon="7.75957"><ele></ele><time>2025-9-19T11:38:20Z</time></trkpt>
<trkpt lat="46.39438" lon="7.75962"><ele></ele><time>2025-9-19T11:38:23Z</time></trkpt>
<trkpt lat="46.39439" lon="7.75962"><ele></ele><time>2025-9-19T11:38:26Z</time></trkpt>
<trkpt lat="46.3944" lon="7.75962"><ele></ele><time>2025-9-19T11:38:29Z</time></trkpt>
<trkpt lat="46.39442" lon="7.75963"><ele></ele><time>2025-9-19T11:38:32Z</time></trkpt>
<trkpt lat="46.39443" lon="7.75964"><ele></ele><time>2025-9-19T11:38:35Z</time></trkpt>
<trkpt lat="46.39447" lon="7.75964"><ele></ele><time>2025-9-19T11:38:38Z</time></trkpt>
<trkpt lat="46.39449" lon="7.75967"><ele></ele><time>2025-9-19T11:38:41Z</time></trkpt>
<trkpt lat="46.39453" lon="7.7597"><ele></ele><time>2025-9-19T11:38:44Z</time></trkpt>
<trkpt lat="46.39454" lon="7.75971"><ele></ele><time>2025-9-19T11:38:47Z</time></trkpt>
<trkpt lat="46.3946" lon="7.75972"><ele></ele><time>2025-9-19T11:38:50Z</time></trkpt>
<trkpt lat="46.39461" lon="7.75973"><ele></ele><time>2025-9-19T11:38:53Z</time></trkpt>
<trkpt lat="46.39463" lon="7.75976"><ele></ele><time>2025-9-19T11:38:56Z</time></trkpt>
<trkpt lat="46.39465" lon="7.75978"><ele></ele><time>2025-9-19T11:38:59Z</time></trkpt>
<trkpt lat="46.39471" lon="7.75987"><ele></ele><time>2025-9-19T11:39:2Z</time></trkpt>
<trkpt lat="46.39471" lon="7.75989"><ele></ele><time>2025-9-19T11:39:5Z</time></trkpt>
<trkpt lat="46.39474" lon="7.75992"><ele></ele><time>2025-9-19T11:39:8Z</time></trkpt>
<trkpt lat="46.39475" lon="7.75993"><ele></ele><time>2025-9-19T11:39:11Z</time></trkpt>
<trkpt lat="46.39476" lon="7.75995"><ele></ele><time>2025-9-19T11:39:14Z</time></trkpt>
<trkpt lat="46.39478" lon="7.75997"><ele></ele><time>2025-9-19T11:39:17Z</time></trkpt>
<trkpt lat="46.3948" lon="7.75999"><ele></ele><time>2025-9-19T11:39:20Z</time></trkpt>
<trkpt lat="46.39481" lon="7.76001"><ele></ele><time>2025-9-19T11:39:23Z</time></trkpt>
<trkpt lat="46.39483" lon="7.76005"><ele></ele><time>2025-9-19T11:39:26Z</time></trkpt>
<trkpt lat="46.39485" lon="7.76006"><ele></ele><time>2025-9-19T11:39:29Z</time></trkpt>
<trkpt lat="46.39486" lon="7.76006"><ele></ele><time>2025-9-19T11:39:32Z</time></trkpt>
<trkpt lat="46.39487" lon="7.76008"><ele></ele><time>2025-9-19T11:39:35Z</time></trkpt>
<trkpt lat="46.39489" lon="7.7601"><ele></ele><time>2025-9-19T11:39:38Z</time></trkpt>
<trkpt lat="46.39489" lon="7.76009"><ele></ele><time>2025-9-19T11:39:41Z</time></trkpt>
<trkpt lat="46.39488" lon="7.76004"><ele></ele><time>2025-9-19T11:39:44Z</time></trkpt>
<trkpt lat="46.39488" lon="7.76001"><ele></ele><time>2025-9-19T11:39:47Z</time></trkpt>
<trkpt lat="46.39486" lon="7.75996"><ele></ele><time>2025-9-19T11:39:50Z</time></trkpt>
<trkpt lat="46.39481" lon="7.75988"><ele></ele><time>2025-9-19T11:39:53Z</time></trkpt>
<trkpt lat="46.3948" lon="7.75985"><ele></ele><time>2025-9-19T11:39:56Z</time></trkpt>
<trkpt lat="46.39479" lon="7.75981"><ele></ele><time>2025-9-19T11:39:59Z</time></trkpt>
<trkpt lat="46.39479" lon="7.75974"><ele></ele><time>2025-9-19T11:40:2Z</time></trkpt>
<trkpt lat="46.39479" lon="7.75966"><ele></ele><time>2025-9-19T11:40:5Z</time></trkpt>
<trkpt lat="46.39479" lon="7.75961"><ele></ele><time>2025-9-19T11:40:8Z</time></trkpt>
<trkpt lat="46.39478" lon="7.75957"><ele></ele><time>2025-9-19T11:40:11Z</time></trkpt>
<trkpt lat="46.39476" lon="7.75951"><ele></ele><time>2025-9-19T11:40:14Z</time></trkpt>
<trkpt lat="46.39475" lon="7.75943"><ele></ele><time>2025-9-19T11:40:17Z</time></trkpt>
<trkpt lat="46.39475" lon="7.75938"><ele></ele><time>2025-9-19T11:40:20Z</time></trkpt>
<trkpt lat="46.39475" lon="7.75933"><ele></ele><time>2025-9-19T11:40:23Z</time></trkpt>
<trkpt lat="46.39476" lon="7.75923"><ele></ele><time>2025-9-19T11:40:26Z</time></trkpt>
<trkpt lat="46.39478" lon="7.75912"><ele></ele><time>2025-9-19T11:40:29Z</time></trkpt>
<trkpt lat="46.39478" lon="7.7591"><ele></ele><time>2025-9-19T11:40:32Z</time></trkpt>
<trkpt lat="46.39476" lon="7.75897"><ele></ele><time>2025-9-19T11:40:35Z</time></trkpt>
<trkpt lat="46.39476" lon="7.75895"><ele></ele><time>2025-9-19T11:40:38Z</time></trkpt>
<trkpt lat="46.39476" lon="7.75885"><ele></ele><time>2025-9-19T11:40:41Z</time></trkpt>
<trkpt lat="46.39476" lon="7.75882"><ele></ele><time>2025-9-19T11:40:44Z</time></trkpt>
<trkpt lat="46.39475" lon="7.75872"><ele></ele><time>2025-9-19T11:40:47Z</time></trkpt>
<trkpt lat="46.39474" lon="7.75868"><ele></ele><time>2025-9-19T11:40:50Z</time></trkpt>
<trkpt lat="46.39472" lon="7.75864"><ele></ele><time>2025-9-19T11:40:53Z</time></trkpt>
<trkpt lat="46.39471" lon="7.75863"><ele></ele><time>2025-9-19T11:40:56Z</time></trkpt>
<trkpt lat="46.39467" lon="7.75859"><ele></ele><time>2025-9-19T11:40:59Z</time></trkpt>
<trkpt lat="46.39464" lon="7.75857"><ele></ele><time>2025-9-19T11:41:2Z</time></trkpt>
<trkpt lat="46.3946" lon="7.75851"><ele></ele><time>2025-9-19T11:41:5Z</time></trkpt>
<trkpt lat="46.39456" lon="7.75847"><ele></ele><time>2025-9-19T11:41:8Z</time></trkpt>
<trkpt lat="46.39453" lon="7.75842"><ele></ele><time>2025-9-19T11:41:11Z</time></trkpt>
<trkpt lat="46.39449" lon="7.75839"><ele></ele><time>2025-9-19T11:41:14Z</time></trkpt>
<trkpt lat="46.39446" lon="7.75832"><ele></ele><time>2025-9-19T11:41:17Z</time></trkpt>
<trkpt lat="46.39445" lon="7.75831"><ele></ele><time>2025-9-19T11:41:20Z</time></trkpt>
<trkpt lat="46.39439" lon="7.7582"><ele></ele><time>2025-9-19T11:41:23Z</time></trkpt>
<trkpt lat="46.39438" lon="7.75817"><ele></ele><time>2025-9-19T11:41:26Z</time></trkpt>
<trkpt lat="46.39431" lon="7.75811"><ele></ele><time>2025-9-19T11:41:29Z</time></trkpt>
<trkpt lat="46.39431" lon="7.7581"><ele></ele><time>2025-9-19T11:41:32Z</time></trkpt>
<trkpt lat="46.39424" lon="7.75806"><ele></ele><time>2025-9-19T11:41:35Z</time></trkpt>
<trkpt lat="46.39423" lon="7.75805"><ele></ele><time>2025-9-19T11:41:38Z</time></trkpt>
<trkpt lat="46.39413" lon="7.75798"><ele></ele><time>2025-9-19T11:41:41Z</time></trkpt>
<trkpt lat="46.39412" lon="7.75797"><ele></ele><time>2025-9-19T11:41:44Z</time></trkpt>
<trkpt lat="46.39404" lon="7.75792"><ele></ele><time>2025-9-19T11:41:47Z</time></trkpt>
<trkpt lat="46.39395" lon="7.75782"><ele></ele><time>2025-9-19T11:41:50Z</time></trkpt>
<trkpt lat="46.3939" lon="7.7577"><ele></ele><time>2025-9-19T11:41:53Z</time></trkpt>
<trkpt lat="46.3939" lon="7.75768"><ele></ele><time>2025-9-19T11:41:56Z</time></trkpt>
<trkpt lat="46.3939" lon="7.75768"><ele></ele><time>2025-9-19T11:41:59Z</time></trkpt>
<trkpt lat="46.3939" lon="7.75768"><ele></ele><time>2025-9-19T11:42:2Z</time></trkpt>
<trkpt lat="46.3939" lon="7.75769"><ele></ele><time>2025-9-19T11:42:5Z</time></trkpt>
<trkpt lat="46.3939" lon="7.75768"><ele></ele><time>2025-9-19T11:42:8Z</time></trkpt>
<trkpt lat="46.3939" lon="7.75769"><ele></ele><time>2025-9-19T11:42:11Z</time></trkpt>
<trkpt lat="46.39389" lon="7.75769"><ele></ele><time>2025-9-19T11:42:14Z</time></trkpt>
<trkpt lat="46.39388" lon="7.75769"><ele></ele><time>2025-9-19T11:42:17Z</time></trkpt>
<trkpt lat="46.39388" lon="7.75769"><ele></ele><time>2025-9-19T11:42:20Z</time></trkpt>
<trkpt lat="46.39388" lon="7.75769"><ele></ele><time>2025-9-19T11:42:23Z</time></trkpt>
<trkpt lat="46.39388" lon="7.75769"><ele></ele><time>2025-9-19T11:42:26Z</time></trkpt>
<trkpt lat="46.39388" lon="7.75769"><ele></ele><time>2025-9-19T11:42:29Z</time></trkpt>
<trkpt lat="46.39388" lon="7.75769"><ele></ele><time>2025-9-19T11:42:32Z</time></trkpt>
<trkpt lat="46.39388" lon="7.75769"><ele></ele><time>2025-9-19T11:42:35Z</time></trkpt>
<trkpt lat="46.39388" lon="7.75769"><ele></ele><time>2025-9-19T11:42:38Z</time></trkpt>
<trkpt lat="46.39388" lon="7.75769"><ele></ele><time>2025-9-19T11:42:41Z</time></trkpt>
<trkpt lat="46.39388" lon="7.75769"><ele></ele><time>2025-9-19T11:42:44Z</time></trkpt>
<trkpt lat="46.39388" lon="7.75769"><ele></ele><time>2025-9-19T11:42:47Z</time></trkpt>
<trkpt lat="46.39388" lon="7.75769"><ele></ele><time>2025-9-19T11:42:50Z</time></trkpt>
<trkpt lat="46.39389" lon="7.75767"><ele></ele><time>2025-9-19T11:42:53Z</time></trkpt>
<trkpt lat="46.39389" lon="7.75767"><ele></ele><time>2025-9-19T11:42:56Z</time></trkpt>
<trkpt lat="46.39389" lon="7.75767"><ele></ele><time>2025-9-19T11:42:59Z</time></trkpt>
<trkpt lat="46.3939" lon="7.75768"><ele></ele><time>2025-9-19T11:43:2Z</time></trkpt>
<trkpt lat="46.3939" lon="7.75768"><ele></ele><time>2025-9-19T11:43:5Z</time></trkpt>
<trkpt lat="46.3939" lon="7.75768"><ele></ele><time>2025-9-19T11:43:8Z</time></trkpt>
<trkpt lat="46.3939" lon="7.75768"><ele></ele><time>2025-9-19T11:43:11Z</time></trkpt>
<trkpt lat="46.3939" lon="7.75768"><ele></ele><time>2025-9-19T11:43:14Z</time></trkpt>
<trkpt lat="46.3939" lon="7.75768"><ele></ele><time>2025-9-19T11:43:17Z</time></trkpt>
<trkpt lat="46.3939" lon="7.75768"><ele></ele><time>2025-9-19T11:43:20Z</time></trkpt>
<trkpt lat="46.3939" lon="7.75768"><ele></ele><time>2025-9-19T11:43:23Z</time></trkpt>
<trkpt lat="46.3939" lon="7.75768"><ele></ele><time>2025-9-19T11:43:26Z</time></trkpt>
<trkpt lat="46.3939" lon="7.75768"><ele></ele><time>2025-9-19T11:43:29Z</time></trkpt>
<trkpt lat="46.3939" lon="7.75768"><ele></ele><time>2025-9-19T11:43:32Z</time></trkpt>
<trkpt lat="46.3939" lon="7.75768"><ele></ele><time>2025-9-19T11:43:35Z</time></trkpt>
<trkpt lat="46.3939" lon="7.75768"><ele></ele><time>2025-9-19T11:43:38Z</time></trkpt>
<trkpt lat="46.3939" lon="7.75768"><ele></ele><time>2025-9-19T11:43:41Z</time></trkpt>
<trkpt lat="46.3939" lon="7.75768"><ele></ele><time>2025-9-19T11:43:44Z</time></trkpt>
<trkpt lat="46.39391" lon="7.75766"><ele></ele><time>2025-9-19T11:43:47Z</time></trkpt>
<trkpt lat="46.39388" lon="7.75756"><ele></ele><time>2025-9-19T11:43:50Z</time></trkpt>
<trkpt lat="46.39387" lon="7.75755"><ele></ele><time>2025-9-19T11:43:53Z</time></trkpt>
<trkpt lat="46.39384" lon="7.75745"><ele></ele><time>2025-9-19T11:43:56Z</time></trkpt>
<trkpt lat="46.39383" lon="7.75742"><ele></ele><time>2025-9-19T11:43:59Z</time></trkpt>
<trkpt lat="46.39382" lon="7.75739"><ele></ele><time>2025-9-19T11:44:2Z</time></trkpt>
<trkpt lat="46.39382" lon="7.75735"><ele></ele><time>2025-9-19T11:44:5Z</time></trkpt>
<trkpt lat="46.39382" lon="7.75734"><ele></ele><time>2025-9-19T11:44:8Z</time></trkpt>
<trkpt lat="46.39382" lon="7.75734"><ele></ele><time>2025-9-19T11:44:11Z</time></trkpt>
<trkpt lat="46.39379" lon="7.75728"><ele></ele><time>2025-9-19T11:44:14Z</time></trkpt>
<trkpt lat="46.39377" lon="7.75721"><ele></ele><time>2025-9-19T11:44:17Z</time></trkpt>
<trkpt lat="46.39377" lon="7.75719"><ele></ele><time>2025-9-19T11:44:20Z</time></trkpt>
<trkpt lat="46.39375" lon="7.7571"><ele></ele><time>2025-9-19T11:44:23Z</time></trkpt>
<trkpt lat="46.39374" lon="7.75705"><ele></ele><time>2025-9-19T11:44:26Z</time></trkpt>
<trkpt lat="46.39371" lon="7.75698"><ele></ele><time>2025-9-19T11:44:29Z</time></trkpt>
<trkpt lat="46.39368" lon="7.75688"><ele></ele><time>2025-9-19T11:44:32Z</time></trkpt>
<trkpt lat="46.39366" lon="7.75684"><ele></ele><time>2025-9-19T11:44:35Z</time></trkpt>
<trkpt lat="46.39364" lon="7.75679"><ele></ele><time>2025-9-19T11:44:38Z</time></trkpt>
<trkpt lat="46.39362" lon="7.75676"><ele></ele><time>2025-9-19T11:44:41Z</time></trkpt>
<trkpt lat="46.39359" lon="7.75673"><ele></ele><time>2025-9-19T11:44:44Z</time></trkpt>
<trkpt lat="46.39356" lon="7.7567"><ele></ele><time>2025-9-19T11:44:47Z</time></trkpt>
<trkpt lat="46.39351" lon="7.75667"><ele></ele><time>2025-9-19T11:44:50Z</time></trkpt>
<trkpt lat="46.39346" lon="7.75664"><ele></ele><time>2025-9-19T11:44:53Z</time></trkpt>
<trkpt lat="46.39343" lon="7.75664"><ele></ele><time>2025-9-19T11:44:56Z</time></trkpt>
<trkpt lat="46.39342" lon="7.75663"><ele></ele><time>2025-9-19T11:44:59Z</time></trkpt>
<trkpt lat="46.39339" lon="7.75661"><ele></ele><time>2025-9-19T11:45:2Z</time></trkpt>
<trkpt lat="46.39335" lon="7.7566"><ele></ele><time>2025-9-19T11:45:5Z</time></trkpt>
<trkpt lat="46.39331" lon="7.75658"><ele></ele><time>2025-9-19T11:45:8Z</time></trkpt>
<trkpt lat="46.39329" lon="7.75656"><ele></ele><time>2025-9-19T11:45:11Z</time></trkpt>
<trkpt lat="46.39324" lon="7.75654"><ele></ele><time>2025-9-19T11:45:14Z</time></trkpt>
<trkpt lat="46.3932" lon="7.75654"><ele></ele><time>2025-9-19T11:45:17Z</time></trkpt>
<trkpt lat="46.39316" lon="7.75653"><ele></ele><time>2025-9-19T11:45:20Z</time></trkpt>
<trkpt lat="46.39309" lon="7.75652"><ele></ele><time>2025-9-19T11:45:23Z</time></trkpt>
<trkpt lat="46.39308" lon="7.75652"><ele></ele><time>2025-9-19T11:45:26Z</time></trkpt>
<trkpt lat="46.393" lon="7.75649"><ele></ele><time>2025-9-19T11:45:29Z</time></trkpt>
<trkpt lat="46.39298" lon="7.75648"><ele></ele><time>2025-9-19T11:45:32Z</time></trkpt>
<trkpt lat="46.39292" lon="7.75646"><ele></ele><time>2025-9-19T11:45:35Z</time></trkpt>
<trkpt lat="46.39289" lon="7.75644"><ele></ele><time>2025-9-19T11:45:38Z</time></trkpt>
<trkpt lat="46.39285" lon="7.7564"><ele></ele><time>2025-9-19T11:45:41Z</time></trkpt>
<trkpt lat="46.39282" lon="7.75637"><ele></ele><time>2025-9-19T11:45:44Z</time></trkpt>
<trkpt lat="46.3928" lon="7.75633"><ele></ele><time>2025-9-19T11:45:47Z</time></trkpt>
<trkpt lat="46.39274" lon="7.75628"><ele></ele><time>2025-9-19T11:45:50Z</time></trkpt>
<trkpt lat="46.39271" lon="7.75626"><ele></ele><time>2025-9-19T11:45:53Z</time></trkpt>
<trkpt lat="46.39265" lon="7.75624"><ele></ele><time>2025-9-19T11:45:56Z</time></trkpt>
<trkpt lat="46.39262" lon="7.75624"><ele></ele><time>2025-9-19T11:45:59Z</time></trkpt>
<trkpt lat="46.39259" lon="7.75621"><ele></ele><time>2025-9-19T11:46:2Z</time></trkpt>
<trkpt lat="46.39254" lon="7.7562"><ele></ele><time>2025-9-19T11:46:5Z</time></trkpt>
<trkpt lat="46.39253" lon="7.75619"><ele></ele><time>2025-9-19T11:46:8Z</time></trkpt>
<trkpt lat="46.39246" lon="7.75616"><ele></ele><time>2025-9-19T11:46:11Z</time></trkpt>
<trkpt lat="46.39243" lon="7.75614"><ele></ele><time>2025-9-19T11:46:14Z</time></trkpt>
<trkpt lat="46.39238" lon="7.75614"><ele></ele><time>2025-9-19T11:46:17Z</time></trkpt>
<trkpt lat="46.39231" lon="7.75612"><ele></ele><time>2025-9-19T11:46:20Z</time></trkpt>
<trkpt lat="46.39229" lon="7.75612"><ele></ele><time>2025-9-19T11:46:23Z</time></trkpt>
<trkpt lat="46.39228" lon="7.75611"><ele></ele><time>2025-9-19T11:46:26Z</time></trkpt>
<trkpt lat="46.39225" lon="7.75609"><ele></ele><time>2025-9-19T11:46:29Z</time></trkpt>
<trkpt lat="46.39223" lon="7.75608"><ele></ele><time>2025-9-19T11:46:32Z</time></trkpt>
<trkpt lat="46.39216" lon="7.75604"><ele></ele><time>2025-9-19T11:46:35Z</time></trkpt>
<trkpt lat="46.39208" lon="7.75599"><ele></ele><time>2025-9-19T11:46:38Z</time></trkpt>
<trkpt lat="46.39207" lon="7.75598"><ele></ele><time>2025-9-19T11:46:41Z</time></trkpt>
<trkpt lat="46.39201" lon="7.75594"><ele></ele><time>2025-9-19T11:46:44Z</time></trkpt>
<trkpt lat="46.39198" lon="7.75591"><ele></ele><time>2025-9-19T11:46:47Z</time></trkpt>
<trkpt lat="46.39195" lon="7.75586"><ele></ele><time>2025-9-19T11:46:50Z</time></trkpt>
<trkpt lat="46.39191" lon="7.75583"><ele></ele><time>2025-9-19T11:46:53Z</time></trkpt>
<trkpt lat="46.39188" lon="7.7558"><ele></ele><time>2025-9-19T11:46:56Z</time></trkpt>
<trkpt lat="46.39184" lon="7.75576"><ele></ele><time>2025-9-19T11:46:59Z</time></trkpt>
<trkpt lat="46.39182" lon="7.75574"><ele></ele><time>2025-9-19T11:47:2Z</time></trkpt>
<trkpt lat="46.3918" lon="7.7557"><ele></ele><time>2025-9-19T11:47:5Z</time></trkpt>
<trkpt lat="46.39177" lon="7.75563"><ele></ele><time>2025-9-19T11:47:8Z</time></trkpt>
<trkpt lat="46.39176" lon="7.7556"><ele></ele><time>2025-9-19T11:47:11Z</time></trkpt>
<trkpt lat="46.39172" lon="7.75553"><ele></ele><time>2025-9-19T11:47:14Z</time></trkpt>
<trkpt lat="46.39171" lon="7.7555"><ele></ele><time>2025-9-19T11:47:17Z</time></trkpt>
<trkpt lat="46.39168" lon="7.75542"><ele></ele><time>2025-9-19T11:47:20Z</time></trkpt>
<trkpt lat="46.39166" lon="7.75537"><ele></ele><time>2025-9-19T11:47:23Z</time></trkpt>
<trkpt lat="46.39164" lon="7.7553"><ele></ele><time>2025-9-19T11:47:26Z</time></trkpt>
<trkpt lat="46.39162" lon="7.75525"><ele></ele><time>2025-9-19T11:47:29Z</time></trkpt>
<trkpt lat="46.3916" lon="7.7552"><ele></ele><time>2025-9-19T11:47:32Z</time></trkpt>
<trkpt lat="46.39157" lon="7.75516"><ele></ele><time>2025-9-19T11:47:35Z</time></trkpt>
<trkpt lat="46.39155" lon="7.75514"><ele></ele><time>2025-9-19T11:47:38Z</time></trkpt>
<trkpt lat="46.39153" lon="7.75507"><ele></ele><time>2025-9-19T11:47:41Z</time></trkpt>
<trkpt lat="46.39152" lon="7.75503"><ele></ele><time>2025-9-19T11:47:44Z</time></trkpt>
<trkpt lat="46.39149" lon="7.75495"><ele></ele><time>2025-9-19T11:47:47Z</time></trkpt>
<trkpt lat="46.39149" lon="7.75493"><ele></ele><time>2025-9-19T11:47:50Z</time></trkpt>
<trkpt lat="46.39149" lon="7.75483"><ele></ele><time>2025-9-19T11:47:53Z</time></trkpt>
<trkpt lat="46.39149" lon="7.75482"><ele></ele><time>2025-9-19T11:47:56Z</time></trkpt>
<trkpt lat="46.39148" lon="7.75471"><ele></ele><time>2025-9-19T11:47:59Z</time></trkpt>
<trkpt lat="46.39148" lon="7.75467"><ele></ele><time>2025-9-19T11:48:2Z</time></trkpt>
<trkpt lat="46.39148" lon="7.75457"><ele></ele><time>2025-9-19T11:48:5Z</time></trkpt>
<trkpt lat="46.39148" lon="7.75452"><ele></ele><time>2025-9-19T11:48:8Z</time></trkpt>
<trkpt lat="46.39146" lon="7.75442"><ele></ele><time>2025-9-19T11:48:11Z</time></trkpt>
<trkpt lat="46.39146" lon="7.7544"><ele></ele><time>2025-9-19T11:48:14Z</time></trkpt>
<trkpt lat="46.39144" lon="7.75432"><ele></ele><time>2025-9-19T11:48:17Z</time></trkpt>
<trkpt lat="46.39141" lon="7.75422"><ele></ele><time>2025-9-19T11:48:20Z</time></trkpt>
<trkpt lat="46.3914" lon="7.75418"><ele></ele><time>2025-9-19T11:48:23Z</time></trkpt>
<trkpt lat="46.39143" lon="7.75406"><ele></ele><time>2025-9-19T11:48:26Z</time></trkpt>
<trkpt lat="46.39146" lon="7.75404"><ele></ele><time>2025-9-19T11:48:29Z</time></trkpt>
<trkpt lat="46.39151" lon="7.75406"><ele></ele><time>2025-9-19T11:48:32Z</time></trkpt>
<trkpt lat="46.39152" lon="7.75408"><ele></ele><time>2025-9-19T11:48:35Z</time></trkpt>
<trkpt lat="46.39154" lon="7.75411"><ele></ele><time>2025-9-19T11:48:38Z</time></trkpt>
<trkpt lat="46.39154" lon="7.75413"><ele></ele><time>2025-9-19T11:48:41Z</time></trkpt>
<trkpt lat="46.39153" lon="7.75426"><ele></ele><time>2025-9-19T11:48:44Z</time></trkpt>
<trkpt lat="46.39154" lon="7.75428"><ele></ele><time>2025-9-19T11:48:47Z</time></trkpt>
<trkpt lat="46.39155" lon="7.75438"><ele></ele><time>2025-9-19T11:48:50Z</time></trkpt>
<trkpt lat="46.39156" lon="7.75442"><ele></ele><time>2025-9-19T11:48:53Z</time></trkpt>
<trkpt lat="46.39159" lon="7.75454"><ele></ele><time>2025-9-19T11:48:56Z</time></trkpt>
<trkpt lat="46.39159" lon="7.75456"><ele></ele><time>2025-9-19T11:48:59Z</time></trkpt>
<trkpt lat="46.3916" lon="7.75457"><ele></ele><time>2025-9-19T11:49:2Z</time></trkpt>
<trkpt lat="46.39162" lon="7.75471"><ele></ele><time>2025-9-19T11:49:5Z</time></trkpt>
<trkpt lat="46.39162" lon="7.75473"><ele></ele><time>2025-9-19T11:49:8Z</time></trkpt>
<trkpt lat="46.39167" lon="7.75485"><ele></ele><time>2025-9-19T11:49:11Z</time></trkpt>
<trkpt lat="46.39168" lon="7.75488"><ele></ele><time>2025-9-19T11:49:14Z</time></trkpt>
<trkpt lat="46.39176" lon="7.75493"><ele></ele><time>2025-9-19T11:49:17Z</time></trkpt>
<trkpt lat="46.39177" lon="7.75494"><ele></ele><time>2025-9-19T11:49:20Z</time></trkpt>
<trkpt lat="46.39186" lon="7.75498"><ele></ele><time>2025-9-19T11:49:23Z</time></trkpt>
<trkpt lat="46.39187" lon="7.75498"><ele></ele><time>2025-9-19T11:49:26Z</time></trkpt>
<trkpt lat="46.39191" lon="7.75499"><ele></ele><time>2025-9-19T11:49:29Z</time></trkpt>
<trkpt lat="46.39196" lon="7.75499"><ele></ele><time>2025-9-19T11:49:32Z</time></trkpt>
<trkpt lat="46.39204" lon="7.755"><ele></ele><time>2025-9-19T11:49:35Z</time></trkpt>
<trkpt lat="46.39207" lon="7.755"><ele></ele><time>2025-9-19T11:49:38Z</time></trkpt>
<trkpt lat="46.39213" lon="7.755"><ele></ele><time>2025-9-19T11:49:41Z</time></trkpt>
<trkpt lat="46.39217" lon="7.75499"><ele></ele><time>2025-9-19T11:49:44Z</time></trkpt>
<trkpt lat="46.39221" lon="7.75499"><ele></ele><time>2025-9-19T11:49:47Z</time></trkpt>
<trkpt lat="46.39225" lon="7.75499"><ele></ele><time>2025-9-19T11:49:50Z</time></trkpt>
<trkpt lat="46.39232" lon="7.75499"><ele></ele><time>2025-9-19T11:49:53Z</time></trkpt>
<trkpt lat="46.39235" lon="7.75499"><ele></ele><time>2025-9-19T11:49:56Z</time></trkpt>
<trkpt lat="46.39238" lon="7.75499"><ele></ele><time>2025-9-19T11:49:59Z</time></trkpt>
<trkpt lat="46.39243" lon="7.75499"><ele></ele><time>2025-9-19T11:50:2Z</time></trkpt>
<trkpt lat="46.39245" lon="7.755"><ele></ele><time>2025-9-19T11:50:5Z</time></trkpt>
<trkpt lat="46.39249" lon="7.75501"><ele></ele><time>2025-9-19T11:50:8Z</time></trkpt>
<trkpt lat="46.39254" lon="7.75503"><ele></ele><time>2025-9-19T11:50:11Z</time></trkpt>
<trkpt lat="46.39257" lon="7.75504"><ele></ele><time>2025-9-19T11:50:14Z</time></trkpt>
<trkpt lat="46.39262" lon="7.75507"><ele></ele><time>2025-9-19T11:50:17Z</time></trkpt>
<trkpt lat="46.39264" lon="7.75508"><ele></ele><time>2025-9-19T11:50:20Z</time></trkpt>
<trkpt lat="46.3927" lon="7.7551"><ele></ele><time>2025-9-19T11:50:23Z</time></trkpt>
<trkpt lat="46.39272" lon="7.7551"><ele></ele><time>2025-9-19T11:50:26Z</time></trkpt>
<trkpt lat="46.39276" lon="7.75512"><ele></ele><time>2025-9-19T11:50:29Z</time></trkpt>
<trkpt lat="46.3928" lon="7.75512"><ele></ele><time>2025-9-19T11:50:32Z</time></trkpt>
<trkpt lat="46.39285" lon="7.75511"><ele></ele><time>2025-9-19T11:50:35Z</time></trkpt>
<trkpt lat="46.39287" lon="7.7551"><ele></ele><time>2025-9-19T11:50:38Z</time></trkpt>
<trkpt lat="46.39291" lon="7.75509"><ele></ele><time>2025-9-19T11:50:41Z</time></trkpt>
<trkpt lat="46.39295" lon="7.75509"><ele></ele><time>2025-9-19T11:50:44Z</time></trkpt>
<trkpt lat="46.39299" lon="7.7551"><ele></ele><time>2025-9-19T11:50:47Z</time></trkpt>
<trkpt lat="46.39302" lon="7.75509"><ele></ele><time>2025-9-19T11:50:50Z</time></trkpt>
<trkpt lat="46.39305" lon="7.7551"><ele></ele><time>2025-9-19T11:50:53Z</time></trkpt>
<trkpt lat="46.3931" lon="7.75509"><ele></ele><time>2025-9-19T11:50:56Z</time></trkpt>
<trkpt lat="46.39315" lon="7.75511"><ele></ele><time>2025-9-19T11:50:59Z</time></trkpt>
<trkpt lat="46.39319" lon="7.75511"><ele></ele><time>2025-9-19T11:51:2Z</time></trkpt>
<trkpt lat="46.39321" lon="7.75511"><ele></ele><time>2025-9-19T11:51:5Z</time></trkpt>
<trkpt lat="46.39325" lon="7.75511"><ele></ele><time>2025-9-19T11:51:8Z</time></trkpt>
<trkpt lat="46.39329" lon="7.75511"><ele></ele><time>2025-9-19T11:51:11Z</time></trkpt>
<trkpt lat="46.39331" lon="7.75511"><ele></ele><time>2025-9-19T11:51:14Z</time></trkpt>
<trkpt lat="46.39334" lon="7.75513"><ele></ele><time>2025-9-19T11:51:17Z</time></trkpt>
<trkpt lat="46.39335" lon="7.75511"><ele></ele><time>2025-9-19T11:51:20Z</time></trkpt>
<trkpt lat="46.39337" lon="7.75511"><ele></ele><time>2025-9-19T11:51:23Z</time></trkpt>
<trkpt lat="46.39335" lon="7.75511"><ele></ele><time>2025-9-19T11:51:26Z</time></trkpt>
<trkpt lat="46.39334" lon="7.75509"><ele></ele><time>2025-9-19T11:51:29Z</time></trkpt>
<trkpt lat="46.39334" lon="7.75509"><ele></ele><time>2025-9-19T11:51:32Z</time></trkpt>
<trkpt lat="46.39332" lon="7.75507"><ele></ele><time>2025-9-19T11:51:35Z</time></trkpt>
<trkpt lat="46.39333" lon="7.75504"><ele></ele><time>2025-9-19T11:51:38Z</time></trkpt>
<trkpt lat="46.39334" lon="7.75503"><ele></ele><time>2025-9-19T11:51:41Z</time></trkpt>
<trkpt lat="46.39334" lon="7.75503"><ele></ele><time>2025-9-19T11:51:44Z</time></trkpt>
<trkpt lat="46.39335" lon="7.75506"><ele></ele><time>2025-9-19T11:51:47Z</time></trkpt>
<trkpt lat="46.39336" lon="7.75508"><ele></ele><time>2025-9-19T11:51:50Z</time></trkpt>
<trkpt lat="46.39338" lon="7.75509"><ele></ele><time>2025-9-19T11:51:53Z</time></trkpt>
<trkpt lat="46.39341" lon="7.75509"><ele></ele><time>2025-9-19T11:51:56Z</time></trkpt>
<trkpt lat="46.39344" lon="7.7551"><ele></ele><time>2025-9-19T11:51:59Z</time></trkpt>
<trkpt lat="46.39347" lon="7.75511"><ele></ele><time>2025-9-19T11:52:2Z</time></trkpt>
<trkpt lat="46.39352" lon="7.75511"><ele></ele><time>2025-9-19T11:52:5Z</time></trkpt>
<trkpt lat="46.39357" lon="7.75513"><ele></ele><time>2025-9-19T11:52:8Z</time></trkpt>
<trkpt lat="46.39362" lon="7.75513"><ele></ele><time>2025-9-19T11:52:11Z</time></trkpt>
<trkpt lat="46.39367" lon="7.75514"><ele></ele><time>2025-9-19T11:52:14Z</time></trkpt>
<trkpt lat="46.39371" lon="7.75516"><ele></ele><time>2025-9-19T11:52:17Z</time></trkpt>
<trkpt lat="46.39375" lon="7.75518"><ele></ele><time>2025-9-19T11:52:20Z</time></trkpt>
<trkpt lat="46.3938" lon="7.7552"><ele></ele><time>2025-9-19T11:52:23Z</time></trkpt>
<trkpt lat="46.39383" lon="7.75522"><ele></ele><time>2025-9-19T11:52:26Z</time></trkpt>
<trkpt lat="46.39387" lon="7.75524"><ele></ele><time>2025-9-19T11:52:29Z</time></trkpt>
<trkpt lat="46.39392" lon="7.75525"><ele></ele><time>2025-9-19T11:52:32Z</time></trkpt>
<trkpt lat="46.39396" lon="7.75527"><ele></ele><time>2025-9-19T11:52:35Z</time></trkpt>
<trkpt lat="46.394" lon="7.75529"><ele></ele><time>2025-9-19T11:52:38Z</time></trkpt>
<trkpt lat="46.39403" lon="7.7553"><ele></ele><time>2025-9-19T11:52:41Z</time></trkpt>
<trkpt lat="46.3941" lon="7.75531"><ele></ele><time>2025-9-19T11:52:44Z</time></trkpt>
<trkpt lat="46.39413" lon="7.75532"><ele></ele><time>2025-9-19T11:52:47Z</time></trkpt>
<trkpt lat="46.39419" lon="7.75535"><ele></ele><time>2025-9-19T11:52:50Z</time></trkpt>
<trkpt lat="46.39422" lon="7.75536"><ele></ele><time>2025-9-19T11:52:53Z</time></trkpt>
<trkpt lat="46.39427" lon="7.7554"><ele></ele><time>2025-9-19T11:52:56Z</time></trkpt>
<trkpt lat="46.39431" lon="7.75543"><ele></ele><time>2025-9-19T11:52:59Z</time></trkpt>
<trkpt lat="46.39434" lon="7.75547"><ele></ele><time>2025-9-19T11:53:2Z</time></trkpt>
<trkpt lat="46.39439" lon="7.75552"><ele></ele><time>2025-9-19T11:53:5Z</time></trkpt>
<trkpt lat="46.39441" lon="7.75554"><ele></ele><time>2025-9-19T11:53:8Z</time></trkpt>
<trkpt lat="46.39446" lon="7.75561"><ele></ele><time>2025-9-19T11:53:11Z</time></trkpt>
<trkpt lat="46.39449" lon="7.75563"><ele></ele><time>2025-9-19T11:53:14Z</time></trkpt>
<trkpt lat="46.39452" lon="7.75567"><ele></ele><time>2025-9-19T11:53:17Z</time></trkpt>
<trkpt lat="46.39456" lon="7.75569"><ele></ele><time>2025-9-19T11:53:20Z</time></trkpt>
<trkpt lat="46.39461" lon="7.75572"><ele></ele><time>2025-9-19T11:53:23Z</time></trkpt>
<trkpt lat="46.39464" lon="7.75575"><ele></ele><time>2025-9-19T11:53:26Z</time></trkpt>
<trkpt lat="46.39469" lon="7.75579"><ele></ele><time>2025-9-19T11:53:29Z</time></trkpt>
<trkpt lat="46.39472" lon="7.7558"><ele></ele><time>2025-9-19T11:53:32Z</time></trkpt>
<trkpt lat="46.39478" lon="7.75584"><ele></ele><time>2025-9-19T11:53:35Z</time></trkpt>
<trkpt lat="46.39481" lon="7.75585"><ele></ele><time>2025-9-19T11:53:38Z</time></trkpt>
<trkpt lat="46.39486" lon="7.75593"><ele></ele><time>2025-9-19T11:53:41Z</time></trkpt>
<trkpt lat="46.39488" lon="7.75595"><ele></ele><time>2025-9-19T11:53:44Z</time></trkpt>
<trkpt lat="46.39493" lon="7.75604"><ele></ele><time>2025-9-19T11:53:47Z</time></trkpt>
<trkpt lat="46.39497" lon="7.75611"><ele></ele><time>2025-9-19T11:53:50Z</time></trkpt>
<trkpt lat="46.39499" lon="7.75614"><ele></ele><time>2025-9-19T11:53:53Z</time></trkpt>
<trkpt lat="46.39502" lon="7.7562"><ele></ele><time>2025-9-19T11:53:56Z</time></trkpt>
<trkpt lat="46.39506" lon="7.75624"><ele></ele><time>2025-9-19T11:53:59Z</time></trkpt>
<trkpt lat="46.39507" lon="7.75627"><ele></ele><time>2025-9-19T11:54:2Z</time></trkpt>
<trkpt lat="46.39511" lon="7.75635"><ele></ele><time>2025-9-19T11:54:5Z</time></trkpt>
<trkpt lat="46.39512" lon="7.75638"><ele></ele><time>2025-9-19T11:54:8Z</time></trkpt>
<trkpt lat="46.39516" lon="7.75645"><ele></ele><time>2025-9-19T11:54:11Z</time></trkpt>
<trkpt lat="46.39518" lon="7.75647"><ele></ele><time>2025-9-19T11:54:14Z</time></trkpt>
<trkpt lat="46.39524" lon="7.75651"><ele></ele><time>2025-9-19T11:54:17Z</time></trkpt>
<trkpt lat="46.39528" lon="7.75654"><ele></ele><time>2025-9-19T11:54:20Z</time></trkpt>
<trkpt lat="46.39531" lon="7.75654"><ele></ele><time>2025-9-19T11:54:23Z</time></trkpt>
<trkpt lat="46.39536" lon="7.75657"><ele></ele><time>2025-9-19T11:54:26Z</time></trkpt>
<trkpt lat="46.3954" lon="7.7566"><ele></ele><time>2025-9-19T11:54:29Z</time></trkpt>
<trkpt lat="46.39545" lon="7.75664"><ele></ele><time>2025-9-19T11:54:32Z</time></trkpt>
<trkpt lat="46.39548" lon="7.75667"><ele></ele><time>2025-9-19T11:54:35Z</time></trkpt>
<trkpt lat="46.39551" lon="7.75673"><ele></ele><time>2025-9-19T11:54:38Z</time></trkpt>
<trkpt lat="46.39554" lon="7.75677"><ele></ele><time>2025-9-19T11:54:41Z</time></trkpt>
<trkpt lat="46.39559" lon="7.75682"><ele></ele><time>2025-9-19T11:54:44Z</time></trkpt>
<trkpt lat="46.39562" lon="7.75683"><ele></ele><time>2025-9-19T11:54:47Z</time></trkpt>
<trkpt lat="46.39569" lon="7.75685"><ele></ele><time>2025-9-19T11:54:50Z</time></trkpt>
<trkpt lat="46.39572" lon="7.75684"><ele></ele><time>2025-9-19T11:54:53Z</time></trkpt>
<trkpt lat="46.39577" lon="7.75685"><ele></ele><time>2025-9-19T11:54:56Z</time></trkpt>
<trkpt lat="46.39581" lon="7.75687"><ele></ele><time>2025-9-19T11:54:59Z</time></trkpt>
<trkpt lat="46.39585" lon="7.75689"><ele></ele><time>2025-9-19T11:55:2Z</time></trkpt>
<trkpt lat="46.3959" lon="7.75692"><ele></ele><time>2025-9-19T11:55:5Z</time></trkpt>
<trkpt lat="46.39595" lon="7.75695"><ele></ele><time>2025-9-19T11:55:8Z</time></trkpt>
<trkpt lat="46.39599" lon="7.75697"><ele></ele><time>2025-9-19T11:55:11Z</time></trkpt>
<trkpt lat="46.39602" lon="7.757"><ele></ele><time>2025-9-19T11:55:14Z</time></trkpt>
<trkpt lat="46.39607" lon="7.75704"><ele></ele><time>2025-9-19T11:55:17Z</time></trkpt>
<trkpt lat="46.39614" lon="7.75705"><ele></ele><time>2025-9-19T11:55:20Z</time></trkpt>
<trkpt lat="46.39616" lon="7.75707"><ele></ele><time>2025-9-19T11:55:23Z</time></trkpt>
<trkpt lat="46.39618" lon="7.75707"><ele></ele><time>2025-9-19T11:55:26Z</time></trkpt>
<trkpt lat="46.39624" lon="7.75706"><ele></ele><time>2025-9-19T11:55:29Z</time></trkpt>
<trkpt lat="46.39627" lon="7.75707"><ele></ele><time>2025-9-19T11:55:32Z</time></trkpt>
<trkpt lat="46.39631" lon="7.75708"><ele></ele><time>2025-9-19T11:55:35Z</time></trkpt>
<trkpt lat="46.39633" lon="7.75709"><ele></ele><time>2025-9-19T11:55:38Z</time></trkpt>
<trkpt lat="46.39636" lon="7.75712"><ele></ele><time>2025-9-19T11:55:41Z</time></trkpt>
<trkpt lat="46.39638" lon="7.75713"><ele></ele><time>2025-9-19T11:55:44Z</time></trkpt>
<trkpt lat="46.39643" lon="7.75714"><ele></ele><time>2025-9-19T11:55:47Z</time></trkpt>
<trkpt lat="46.39644" lon="7.75714"><ele></ele><time>2025-9-19T11:55:50Z</time></trkpt>
<trkpt lat="46.39647" lon="7.75715"><ele></ele><time>2025-9-19T11:55:53Z</time></trkpt>
<trkpt lat="46.3965" lon="7.75716"><ele></ele><time>2025-9-19T11:55:56Z</time></trkpt>
<trkpt lat="46.39656" lon="7.75719"><ele></ele><time>2025-9-19T11:55:59Z</time></trkpt>
<trkpt lat="46.39659" lon="7.7572"><ele></ele><time>2025-9-19T11:56:2Z</time></trkpt>
<trkpt lat="46.39666" lon="7.75724"><ele></ele><time>2025-9-19T11:56:5Z</time></trkpt>
<trkpt lat="46.39667" lon="7.75724"><ele></ele><time>2025-9-19T11:56:8Z</time></trkpt>
<trkpt lat="46.39673" lon="7.75726"><ele></ele><time>2025-9-19T11:56:11Z</time></trkpt>
<trkpt lat="46.39678" lon="7.75728"><ele></ele><time>2025-9-19T11:56:14Z</time></trkpt>
<trkpt lat="46.39681" lon="7.75729"><ele></ele><time>2025-9-19T11:56:17Z</time></trkpt>
<trkpt lat="46.39688" lon="7.75731"><ele></ele><time>2025-9-19T11:56:20Z</time></trkpt>
<trkpt lat="46.39693" lon="7.75734"><ele></ele><time>2025-9-19T11:56:23Z</time></trkpt>
<trkpt lat="46.39695" lon="7.75734"><ele></ele><time>2025-9-19T11:56:26Z</time></trkpt>
<trkpt lat="46.39701" lon="7.75735"><ele></ele><time>2025-9-19T11:56:29Z</time></trkpt>
<trkpt lat="46.39703" lon="7.75735"><ele></ele><time>2025-9-19T11:56:32Z</time></trkpt>
<trkpt lat="46.39708" lon="7.75735"><ele></ele><time>2025-9-19T11:56:35Z</time></trkpt>
<trkpt lat="46.39713" lon="7.75737"><ele></ele><time>2025-9-19T11:56:38Z</time></trkpt>
<trkpt lat="46.39716" lon="7.75737"><ele></ele><time>2025-9-19T11:56:41Z</time></trkpt>
<trkpt lat="46.39723" lon="7.75739"><ele></ele><time>2025-9-19T11:56:44Z</time></trkpt>
<trkpt lat="46.39724" lon="7.75739"><ele></ele><time>2025-9-19T11:56:47Z</time></trkpt>
<trkpt lat="46.3973" lon="7.7574"><ele></ele><time>2025-9-19T11:56:50Z</time></trkpt>
<trkpt lat="46.39732" lon="7.75741"><ele></ele><time>2025-9-19T11:56:53Z</time></trkpt>
<trkpt lat="46.39736" lon="7.75743"><ele></ele><time>2025-9-19T11:56:56Z</time></trkpt>
<trkpt lat="46.39741" lon="7.75745"><ele></ele><time>2025-9-19T11:56:59Z</time></trkpt>
<trkpt lat="46.39746" lon="7.75746"><ele></ele><time>2025-9-19T11:57:2Z</time></trkpt>
<trkpt lat="46.39748" lon="7.75745"><ele></ele><time>2025-9-19T11:57:5Z</time></trkpt>
<trkpt lat="46.39753" lon="7.75746"><ele></ele><time>2025-9-19T11:57:8Z</time></trkpt>
<trkpt lat="46.39755" lon="7.75746"><ele></ele><time>2025-9-19T11:57:11Z</time></trkpt>
<trkpt lat="46.3976" lon="7.75747"><ele></ele><time>2025-9-19T11:57:14Z</time></trkpt>
<trkpt lat="46.39764" lon="7.75747"><ele></ele><time>2025-9-19T11:57:17Z</time></trkpt>
<trkpt lat="46.39768" lon="7.75746"><ele></ele><time>2025-9-19T11:57:20Z</time></trkpt>
<trkpt lat="46.39772" lon="7.75744"><ele></ele><time>2025-9-19T11:57:23Z</time></trkpt>
<trkpt lat="46.39774" lon="7.75743"><ele></ele><time>2025-9-19T11:57:26Z</time></trkpt>
<trkpt lat="46.39777" lon="7.75742"><ele></ele><time>2025-9-19T11:57:29Z</time></trkpt>
<trkpt lat="46.39779" lon="7.75741"><ele></ele><time>2025-9-19T11:57:32Z</time></trkpt>
<trkpt lat="46.39779" lon="7.7574"><ele></ele><time>2025-9-19T11:57:35Z</time></trkpt>
<trkpt lat="46.39781" lon="7.7574"><ele></ele><time>2025-9-19T11:57:38Z</time></trkpt>
<trkpt lat="46.39785" lon="7.75739"><ele></ele><time>2025-9-19T11:57:41Z</time></trkpt>
<trkpt lat="46.39788" lon="7.75738"><ele></ele><time>2025-9-19T11:57:44Z</time></trkpt>
<trkpt lat="46.39793" lon="7.75736"><ele></ele><time>2025-9-19T11:57:47Z</time></trkpt>
<trkpt lat="46.39797" lon="7.75736"><ele></ele><time>2025-9-19T11:57:50Z</time></trkpt>
<trkpt lat="46.39799" lon="7.75734"><ele></ele><time>2025-9-19T11:57:53Z</time></trkpt>
<trkpt lat="46.39802" lon="7.75732"><ele></ele><time>2025-9-19T11:57:56Z</time></trkpt>
<trkpt lat="46.39803" lon="7.75731"><ele></ele><time>2025-9-19T11:57:59Z</time></trkpt>
<trkpt lat="46.39808" lon="7.75729"><ele></ele><time>2025-9-19T11:58:2Z</time></trkpt>
<trkpt lat="46.39812" lon="7.75727"><ele></ele><time>2025-9-19T11:58:5Z</time></trkpt>
<trkpt lat="46.39814" lon="7.75726"><ele></ele><time>2025-9-19T11:58:8Z</time></trkpt>
<trkpt lat="46.39819" lon="7.75727"><ele></ele><time>2025-9-19T11:58:11Z</time></trkpt>
<trkpt lat="46.39823" lon="7.75731"><ele></ele><time>2025-9-19T11:58:14Z</time></trkpt>
<trkpt lat="46.39827" lon="7.75734"><ele></ele><time>2025-9-19T11:58:17Z</time></trkpt>
<trkpt lat="46.39829" lon="7.75736"><ele></ele><time>2025-9-19T11:58:20Z</time></trkpt>
<trkpt lat="46.39832" lon="7.75739"><ele></ele><time>2025-9-19T11:58:23Z</time></trkpt>
<trkpt lat="46.39835" lon="7.75741"><ele></ele><time>2025-9-19T11:58:26Z</time></trkpt>
<trkpt lat="46.39837" lon="7.75741"><ele></ele><time>2025-9-19T11:58:29Z</time></trkpt>
<trkpt lat="46.39839" lon="7.75741"><ele></ele><time>2025-9-19T11:58:32Z</time></trkpt>
<trkpt lat="46.39843" lon="7.7574"><ele></ele><time>2025-9-19T11:58:35Z</time></trkpt>
<trkpt lat="46.39844" lon="7.75739"><ele></ele><time>2025-9-19T11:58:38Z</time></trkpt>
<trkpt lat="46.39848" lon="7.75734"><ele></ele><time>2025-9-19T11:58:41Z</time></trkpt>
<trkpt lat="46.3985" lon="7.75732"><ele></ele><time>2025-9-19T11:58:44Z</time></trkpt>
<trkpt lat="46.39855" lon="7.75728"><ele></ele><time>2025-9-19T11:58:47Z</time></trkpt>
<trkpt lat="46.39858" lon="7.75727"><ele></ele><time>2025-9-19T11:58:50Z</time></trkpt>
<trkpt lat="46.39865" lon="7.75727"><ele></ele><time>2025-9-19T11:58:53Z</time></trkpt>
<trkpt lat="46.39868" lon="7.75727"><ele></ele><time>2025-9-19T11:58:56Z</time></trkpt>
<trkpt lat="46.39874" lon="7.7573"><ele></ele><time>2025-9-19T11:58:59Z</time></trkpt>
<trkpt lat="46.39878" lon="7.75729"><ele></ele><time>2025-9-19T11:59:2Z</time></trkpt>
<trkpt lat="46.39879" lon="7.75727"><ele></ele><time>2025-9-19T11:59:5Z</time></trkpt>
<trkpt lat="46.3988" lon="7.75725"><ele></ele><time>2025-9-19T11:59:8Z</time></trkpt>
<trkpt lat="46.39879" lon="7.75719"><ele></ele><time>2025-9-19T11:59:11Z</time></trkpt>
<trkpt lat="46.39877" lon="7.75717"><ele></ele><time>2025-9-19T11:59:14Z</time></trkpt>
<trkpt lat="46.39875" lon="7.75714"><ele></ele><time>2025-9-19T11:59:17Z</time></trkpt>
<trkpt lat="46.39872" lon="7.75713"><ele></ele><time>2025-9-19T11:59:20Z</time></trkpt>
<trkpt lat="46.39871" lon="7.75713"><ele></ele><time>2025-9-19T11:59:23Z</time></trkpt>
<trkpt lat="46.39865" lon="7.75715"><ele></ele><time>2025-9-19T11:59:26Z</time></trkpt>
<trkpt lat="46.39864" lon="7.75714"><ele></ele><time>2025-9-19T11:59:29Z</time></trkpt>
<trkpt lat="46.3986" lon="7.75711"><ele></ele><time>2025-9-19T11:59:32Z</time></trkpt>
<trkpt lat="46.39857" lon="7.75712"><ele></ele><time>2025-9-19T11:59:35Z</time></trkpt>
<trkpt lat="46.39855" lon="7.75711"><ele></ele><time>2025-9-19T11:59:38Z</time></trkpt>
<trkpt lat="46.39854" lon="7.7571"><ele></ele><time>2025-9-19T11:59:41Z</time></trkpt>
<trkpt lat="46.39853" lon="7.75708"><ele></ele><time>2025-9-19T11:59:44Z</time></trkpt>
<trkpt lat="46.39851" lon="7.75708"><ele></ele><time>2025-9-19T11:59:47Z</time></trkpt>
<trkpt lat="46.39852" lon="7.75708"><ele></ele><time>2025-9-19T11:59:50Z</time></trkpt>
<trkpt lat="46.3985" lon="7.75707"><ele></ele><time>2025-9-19T11:59:53Z</time></trkpt>
<trkpt lat="46.39845" lon="7.75705"><ele></ele><time>2025-9-19T11:59:56Z</time></trkpt>
<trkpt lat="46.39842" lon="7.75703"><ele></ele><time>2025-9-19T11:59:59Z</time></trkpt>
<trkpt lat="46.3984" lon="7.757"><ele></ele><time>2025-9-19T12:0:2Z</time></trkpt>
<trkpt lat="46.39838" lon="7.75695"><ele></ele><time>2025-9-19T12:0:5Z</time></trkpt>
<trkpt lat="46.39838" lon="7.75694"><ele></ele><time>2025-9-19T12:0:8Z</time></trkpt>
<trkpt lat="46.39834" lon="7.75691"><ele></ele><time>2025-9-19T12:0:11Z</time></trkpt>
<trkpt lat="46.39834" lon="7.7569"><ele></ele><time>2025-9-19T12:0:14Z</time></trkpt>
<trkpt lat="46.39833" lon="7.75688"><ele></ele><time>2025-9-19T12:0:17Z</time></trkpt>
<trkpt lat="46.39829" lon="7.75685"><ele></ele><time>2025-9-19T12:0:20Z</time></trkpt>
<trkpt lat="46.39826" lon="7.75683"><ele></ele><time>2025-9-19T12:0:23Z</time></trkpt>
<trkpt lat="46.39825" lon="7.75684"><ele></ele><time>2025-9-19T12:0:26Z</time></trkpt>
<trkpt lat="46.39822" lon="7.75685"><ele></ele><time>2025-9-19T12:0:29Z</time></trkpt>
<trkpt lat="46.39819" lon="7.75684"><ele></ele><time>2025-9-19T12:0:32Z</time></trkpt>
<trkpt lat="46.39815" lon="7.75684"><ele></ele><time>2025-9-19T12:0:35Z</time></trkpt>
<trkpt lat="46.39812" lon="7.75684"><ele></ele><time>2025-9-19T12:0:38Z</time></trkpt>
<trkpt lat="46.39809" lon="7.75682"><ele></ele><time>2025-9-19T12:0:41Z</time></trkpt>
<trkpt lat="46.39804" lon="7.75683"><ele></ele><time>2025-9-19T12:0:44Z</time></trkpt>
<trkpt lat="46.39801" lon="7.75684"><ele></ele><time>2025-9-19T12:0:47Z</time></trkpt>
<trkpt lat="46.398" lon="7.75683"><ele></ele><time>2025-9-19T12:0:50Z</time></trkpt>
<trkpt lat="46.39796" lon="7.75682"><ele></ele><time>2025-9-19T12:0:53Z</time></trkpt>
<trkpt lat="46.39795" lon="7.75683"><ele></ele><time>2025-9-19T12:0:56Z</time></trkpt>
<trkpt lat="46.39788" lon="7.75683"><ele></ele><time>2025-9-19T12:0:59Z</time></trkpt>
<trkpt lat="46.39786" lon="7.75682"><ele></ele><time>2025-9-19T12:1:2Z</time></trkpt>
<trkpt lat="46.39779" lon="7.7568"><ele></ele><time>2025-9-19T12:1:5Z</time></trkpt>
<trkpt lat="46.39778" lon="7.75679"><ele></ele><time>2025-9-19T12:1:8Z</time></trkpt>
<trkpt lat="46.3977" lon="7.75679"><ele></ele><time>2025-9-19T12:1:11Z</time></trkpt>
<trkpt lat="46.39764" lon="7.75679"><ele></ele><time>2025-9-19T12:1:14Z</time></trkpt>
<trkpt lat="46.39755" lon="7.75678"><ele></ele><time>2025-9-19T12:1:17Z</time></trkpt>
<trkpt lat="46.39754" lon="7.75678"><ele></ele><time>2025-9-19T12:1:20Z</time></trkpt>
<trkpt lat="46.39748" lon="7.75678"><ele></ele><time>2025-9-19T12:1:23Z</time></trkpt>
<trkpt lat="46.3974" lon="7.75673"><ele></ele><time>2025-9-19T12:1:26Z</time></trkpt>
<trkpt lat="46.39734" lon="7.75668"><ele></ele><time>2025-9-19T12:1:29Z</time></trkpt>
<trkpt lat="46.39732" lon="7.75667"><ele></ele><time>2025-9-19T12:1:32Z</time></trkpt>
<trkpt lat="46.39726" lon="7.75664"><ele></ele><time>2025-9-19T12:1:35Z</time></trkpt>
<trkpt lat="46.39724" lon="7.75663"><ele></ele><time>2025-9-19T12:1:38Z</time></trkpt>
<trkpt lat="46.3972" lon="7.75661"><ele></ele><time>2025-9-19T12:1:41Z</time></trkpt>
<trkpt lat="46.39719" lon="7.75661"><ele></ele><time>2025-9-19T12:1:44Z</time></trkpt>
<trkpt lat="46.39713" lon="7.75658"><ele></ele><time>2025-9-19T12:1:47Z</time></trkpt>
<trkpt lat="46.39707" lon="7.75651"><ele></ele><time>2025-9-19T12:1:50Z</time></trkpt>
<trkpt lat="46.39703" lon="7.75643"><ele></ele><time>2025-9-19T12:1:53Z</time></trkpt>
<trkpt lat="46.39703" lon="7.75641"><ele></ele><time>2025-9-19T12:1:56Z</time></trkpt>
<trkpt lat="46.39702" lon="7.75637"><ele></ele><time>2025-9-19T12:1:59Z</time></trkpt>
<trkpt lat="46.39702" lon="7.75636"><ele></ele><time>2025-9-19T12:2:2Z</time></trkpt>
<trkpt lat="46.397" lon="7.75634"><ele></ele><time>2025-9-19T12:2:5Z</time></trkpt>
<trkpt lat="46.39697" lon="7.75626"><ele></ele><time>2025-9-19T12:2:8Z</time></trkpt>
<trkpt lat="46.39696" lon="7.75624"><ele></ele><time>2025-9-19T12:2:11Z</time></trkpt>
<trkpt lat="46.39693" lon="7.75619"><ele></ele><time>2025-9-19T12:2:14Z</time></trkpt>
<trkpt lat="46.39691" lon="7.75616"><ele></ele><time>2025-9-19T12:2:17Z</time></trkpt>
<trkpt lat="46.39688" lon="7.75613"><ele></ele><time>2025-9-19T12:2:20Z</time></trkpt>
<trkpt lat="46.39685" lon="7.7561"><ele></ele><time>2025-9-19T12:2:23Z</time></trkpt>
<trkpt lat="46.39683" lon="7.75609"><ele></ele><time>2025-9-19T12:2:26Z</time></trkpt>
<trkpt lat="46.3968" lon="7.75604"><ele></ele><time>2025-9-19T12:2:29Z</time></trkpt>
<trkpt lat="46.39679" lon="7.756"><ele></ele><time>2025-9-19T12:2:32Z</time></trkpt>
<trkpt lat="46.39676" lon="7.75596"><ele></ele><time>2025-9-19T12:2:35Z</time></trkpt>
<trkpt lat="46.39674" lon="7.75591"><ele></ele><time>2025-9-19T12:2:38Z</time></trkpt>
<trkpt lat="46.39673" lon="7.7559"><ele></ele><time>2025-9-19T12:2:41Z</time></trkpt>
<trkpt lat="46.39671" lon="7.75588"><ele></ele><time>2025-9-19T12:2:44Z</time></trkpt>
<trkpt lat="46.39668" lon="7.75585"><ele></ele><time>2025-9-19T12:2:47Z</time></trkpt>
<trkpt lat="46.39664" lon="7.75581"><ele></ele><time>2025-9-19T12:2:50Z</time></trkpt>
<trkpt lat="46.39661" lon="7.7558"><ele></ele><time>2025-9-19T12:2:53Z</time></trkpt>
<trkpt lat="46.39658" lon="7.75578"><ele></ele><time>2025-9-19T12:2:56Z</time></trkpt>
<trkpt lat="46.39652" lon="7.75573"><ele></ele><time>2025-9-19T12:2:59Z</time></trkpt>
<trkpt lat="46.3965" lon="7.75572"><ele></ele><time>2025-9-19T12:3:2Z</time></trkpt>
<trkpt lat="46.39646" lon="7.7557"><ele></ele><time>2025-9-19T12:3:5Z</time></trkpt>
<trkpt lat="46.39644" lon="7.75565"><ele></ele><time>2025-9-19T12:3:8Z</time></trkpt>
<trkpt lat="46.3964" lon="7.75561"><ele></ele><time>2025-9-19T12:3:11Z</time></trkpt>
<trkpt lat="46.39637" lon="7.7556"><ele></ele><time>2025-9-19T12:3:14Z</time></trkpt>
<trkpt lat="46.39633" lon="7.75556"><ele></ele><time>2025-9-19T12:3:17Z</time></trkpt>
<trkpt lat="46.39633" lon="7.75553"><ele></ele><time>2025-9-19T12:3:20Z</time></trkpt>
<trkpt lat="46.39631" lon="7.75549"><ele></ele><time>2025-9-19T12:3:23Z</time></trkpt>
<trkpt lat="46.3963" lon="7.75545"><ele></ele><time>2025-9-19T12:3:26Z</time></trkpt>
<trkpt lat="46.3963" lon="7.75541"><ele></ele><time>2025-9-19T12:3:29Z</time></trkpt>
<trkpt lat="46.3963" lon="7.75539"><ele></ele><time>2025-9-19T12:3:32Z</time></trkpt>
<trkpt lat="46.3963" lon="7.75532"><ele></ele><time>2025-9-19T12:3:35Z</time></trkpt>
<trkpt lat="46.39629" lon="7.7553"><ele></ele><time>2025-9-19T12:3:38Z</time></trkpt>
<trkpt lat="46.39628" lon="7.75521"><ele></ele><time>2025-9-19T12:3:41Z</time></trkpt>
<trkpt lat="46.39628" lon="7.7552"><ele></ele><time>2025-9-19T12:3:44Z</time></trkpt>
<trkpt lat="46.39626" lon="7.75511"><ele></ele><time>2025-9-19T12:3:47Z</time></trkpt>
<trkpt lat="46.39626" lon="7.75509"><ele></ele><time>2025-9-19T12:3:50Z</time></trkpt>
<trkpt lat="46.39624" lon="7.75502"><ele></ele><time>2025-9-19T12:3:53Z</time></trkpt>
<trkpt lat="46.39623" lon="7.75501"><ele></ele><time>2025-9-19T12:3:56Z</time></trkpt>
<trkpt lat="46.39621" lon="7.75492"><ele></ele><time>2025-9-19T12:3:59Z</time></trkpt>
<trkpt lat="46.39621" lon="7.75491"><ele></ele><time>2025-9-19T12:4:2Z</time></trkpt>
<trkpt lat="46.39619" lon="7.75483"><ele></ele><time>2025-9-19T12:4:5Z</time></trkpt>
<trkpt lat="46.39618" lon="7.7548"><ele></ele><time>2025-9-19T12:4:8Z</time></trkpt>
<trkpt lat="46.39617" lon="7.75473"><ele></ele><time>2025-9-19T12:4:11Z</time></trkpt>
<trkpt lat="46.39616" lon="7.75469"><ele></ele><time>2025-9-19T12:4:14Z</time></trkpt>
<trkpt lat="46.39613" lon="7.75463"><ele></ele><time>2025-9-19T12:4:17Z</time></trkpt>
<trkpt lat="46.39612" lon="7.75459"><ele></ele><time>2025-9-19T12:4:20Z</time></trkpt>
<trkpt lat="46.3961" lon="7.75454"><ele></ele><time>2025-9-19T12:4:23Z</time></trkpt>
<trkpt lat="46.39608" lon="7.75451"><ele></ele><time>2025-9-19T12:4:26Z</time></trkpt>
<trkpt lat="46.39605" lon="7.75444"><ele></ele><time>2025-9-19T12:4:29Z</time></trkpt>
<trkpt lat="46.39604" lon="7.75442"><ele></ele><time>2025-9-19T12:4:32Z</time></trkpt>
<trkpt lat="46.39602" lon="7.75438"><ele></ele><time>2025-9-19T12:4:35Z</time></trkpt>
<trkpt lat="46.39598" lon="7.75432"><ele></ele><time>2025-9-19T12:4:38Z</time></trkpt>
<trkpt lat="46.39596" lon="7.75429"><ele></ele><time>2025-9-19T12:4:41Z</time></trkpt>
<trkpt lat="46.39592" lon="7.75425"><ele></ele><time>2025-9-19T12:4:44Z</time></trkpt>
<trkpt lat="46.39592" lon="7.75424"><ele></ele><time>2025-9-19T12:4:47Z</time></trkpt>
<trkpt lat="46.39589" lon="7.75418"><ele></ele><time>2025-9-19T12:4:50Z</time></trkpt>
<trkpt lat="46.39587" lon="7.75415"><ele></ele><time>2025-9-19T12:4:53Z</time></trkpt>
<trkpt lat="46.39582" lon="7.7541"><ele></ele><time>2025-9-19T12:4:56Z</time></trkpt>
<trkpt lat="46.39581" lon="7.75408"><ele></ele><time>2025-9-19T12:4:59Z</time></trkpt>
<trkpt lat="46.39578" lon="7.75405"><ele></ele><time>2025-9-19T12:5:2Z</time></trkpt>
<trkpt lat="46.39574" lon="7.754"><ele></ele><time>2025-9-19T12:5:5Z</time></trkpt>
<trkpt lat="46.39571" lon="7.75394"><ele></ele><time>2025-9-19T12:5:8Z</time></trkpt>
<trkpt lat="46.39568" lon="7.75393"><ele></ele><time>2025-9-19T12:5:11Z</time></trkpt>
<trkpt lat="46.39563" lon="7.7539"><ele></ele><time>2025-9-19T12:5:14Z</time></trkpt>
<trkpt lat="46.3956" lon="7.7539"><ele></ele><time>2025-9-19T12:5:17Z</time></trkpt>
<trkpt lat="46.39555" lon="7.75389"><ele></ele><time>2025-9-19T12:5:20Z</time></trkpt>
<trkpt lat="46.39553" lon="7.75388"><ele></ele><time>2025-9-19T12:5:23Z</time></trkpt>
<trkpt lat="46.39547" lon="7.75384"><ele></ele><time>2025-9-19T12:5:26Z</time></trkpt>
<trkpt lat="46.3954" lon="7.75378"><ele></ele><time>2025-9-19T12:5:29Z</time></trkpt>
<trkpt lat="46.39535" lon="7.75371"><ele></ele><time>2025-9-19T12:5:32Z</time></trkpt>
<trkpt lat="46.3953" lon="7.75364"><ele></ele><time>2025-9-19T12:5:35Z</time></trkpt>
<trkpt lat="46.39526" lon="7.75358"><ele></ele><time>2025-9-19T12:5:38Z</time></trkpt>
<trkpt lat="46.39525" lon="7.75358"><ele></ele><time>2025-9-19T12:5:41Z</time></trkpt>
<trkpt lat="46.39524" lon="7.75356"><ele></ele><time>2025-9-19T12:5:44Z</time></trkpt>
<trkpt lat="46.39522" lon="7.75353"><ele></ele><time>2025-9-19T12:5:47Z</time></trkpt>
<trkpt lat="46.39518" lon="7.75346"><ele></ele><time>2025-9-19T12:5:50Z</time></trkpt>
<trkpt lat="46.39515" lon="7.7534"><ele></ele><time>2025-9-19T12:5:53Z</time></trkpt>
<trkpt lat="46.39514" lon="7.7534"><ele></ele><time>2025-9-19T12:5:56Z</time></trkpt>
<trkpt lat="46.39512" lon="7.75338"><ele></ele><time>2025-9-19T12:5:59Z</time></trkpt>
<trkpt lat="46.39507" lon="7.75333"><ele></ele><time>2025-9-19T12:6:2Z</time></trkpt>
<trkpt lat="46.39505" lon="7.75331"><ele></ele><time>2025-9-19T12:6:5Z</time></trkpt>
<trkpt lat="46.395" lon="7.75327"><ele></ele><time>2025-9-19T12:6:8Z</time></trkpt>
<trkpt lat="46.39498" lon="7.75326"><ele></ele><time>2025-9-19T12:6:11Z</time></trkpt>
<trkpt lat="46.39495" lon="7.75324"><ele></ele><time>2025-9-19T12:6:14Z</time></trkpt>
<trkpt lat="46.39494" lon="7.75323"><ele></ele><time>2025-9-19T12:6:17Z</time></trkpt>
<trkpt lat="46.39492" lon="7.75321"><ele></ele><time>2025-9-19T12:6:20Z</time></trkpt>
<trkpt lat="46.39487" lon="7.7532"><ele></ele><time>2025-9-19T12:6:23Z</time></trkpt>
<trkpt lat="46.39485" lon="7.75319"><ele></ele><time>2025-9-19T12:6:26Z</time></trkpt>
<trkpt lat="46.3948" lon="7.75315"><ele></ele><time>2025-9-19T12:6:29Z</time></trkpt>
<trkpt lat="46.39478" lon="7.75314"><ele></ele><time>2025-9-19T12:6:32Z</time></trkpt>
<trkpt lat="46.39474" lon="7.7531"><ele></ele><time>2025-9-19T12:6:35Z</time></trkpt>
<trkpt lat="46.39472" lon="7.75308"><ele></ele><time>2025-9-19T12:6:38Z</time></trkpt>
<trkpt lat="46.39467" lon="7.75303"><ele></ele><time>2025-9-19T12:6:41Z</time></trkpt>
<trkpt lat="46.39465" lon="7.75301"><ele></ele><time>2025-9-19T12:6:44Z</time></trkpt>
<trkpt lat="46.39461" lon="7.75295"><ele></ele><time>2025-9-19T12:6:47Z</time></trkpt>
<trkpt lat="46.39461" lon="7.75292"><ele></ele><time>2025-9-19T12:6:50Z</time></trkpt>
<trkpt lat="46.39461" lon="7.75287"><ele></ele><time>2025-9-19T12:6:53Z</time></trkpt>
<trkpt lat="46.39459" lon="7.75278"><ele></ele><time>2025-9-19T12:6:56Z</time></trkpt>
<trkpt lat="46.39459" lon="7.75276"><ele></ele><time>2025-9-19T12:6:59Z</time></trkpt>
<trkpt lat="46.39456" lon="7.75266"><ele></ele><time>2025-9-19T12:7:2Z</time></trkpt>
<trkpt lat="46.39454" lon="7.75259"><ele></ele><time>2025-9-19T12:7:5Z</time></trkpt>
<trkpt lat="46.39453" lon="7.75254"><ele></ele><time>2025-9-19T12:7:8Z</time></trkpt>
<trkpt lat="46.39452" lon="7.75248"><ele></ele><time>2025-9-19T12:7:11Z</time></trkpt>
<trkpt lat="46.39452" lon="7.75245"><ele></ele><time>2025-9-19T12:7:14Z</time></trkpt>
<trkpt lat="46.3945" lon="7.75244"><ele></ele><time>2025-9-19T12:7:17Z</time></trkpt>
<trkpt lat="46.3945" lon="7.75242"><ele></ele><time>2025-9-19T12:7:20Z</time></trkpt>
<trkpt lat="46.39449" lon="7.75239"><ele></ele><time>2025-9-19T12:7:23Z</time></trkpt>
<trkpt lat="46.39449" lon="7.75235"><ele></ele><time>2025-9-19T12:7:26Z</time></trkpt>
<trkpt lat="46.39447" lon="7.7523"><ele></ele><time>2025-9-19T12:7:29Z</time></trkpt>
<trkpt lat="46.39447" lon="7.75229"><ele></ele><time>2025-9-19T12:7:32Z</time></trkpt>
<trkpt lat="46.39447" lon="7.75226"><ele></ele><time>2025-9-19T12:7:35Z</time></trkpt>
<trkpt lat="46.39446" lon="7.75223"><ele></ele><time>2025-9-19T12:7:38Z</time></trkpt>
<trkpt lat="46.39446" lon="7.75219"><ele></ele><time>2025-9-19T12:7:41Z</time></trkpt>
<trkpt lat="46.39446" lon="7.75216"><ele></ele><time>2025-9-19T12:7:44Z</time></trkpt>
<trkpt lat="46.39446" lon="7.75214"><ele></ele><time>2025-9-19T12:7:47Z</time></trkpt>
<trkpt lat="46.39445" lon="7.7521"><ele></ele><time>2025-9-19T12:7:50Z</time></trkpt>
<trkpt lat="46.39445" lon="7.75208"><ele></ele><time>2025-9-19T12:7:53Z</time></trkpt>
<trkpt lat="46.39443" lon="7.75201"><ele></ele><time>2025-9-19T12:7:56Z</time></trkpt>
<trkpt lat="46.39441" lon="7.75198"><ele></ele><time>2025-9-19T12:7:59Z</time></trkpt>
<trkpt lat="46.3944" lon="7.75194"><ele></ele><time>2025-9-19T12:8:2Z</time></trkpt>
<trkpt lat="46.3944" lon="7.75189"><ele></ele><time>2025-9-19T12:8:5Z</time></trkpt>
<trkpt lat="46.39439" lon="7.75188"><ele></ele><time>2025-9-19T12:8:8Z</time></trkpt>
<trkpt lat="46.39438" lon="7.75183"><ele></ele><time>2025-9-19T12:8:11Z</time></trkpt>
<trkpt lat="46.39437" lon="7.7518"><ele></ele><time>2025-9-19T12:8:14Z</time></trkpt>
<trkpt lat="46.39437" lon="7.75177"><ele></ele><time>2025-9-19T12:8:17Z</time></trkpt>
<trkpt lat="46.39436" lon="7.75174"><ele></ele><time>2025-9-19T12:8:20Z</time></trkpt>
<trkpt lat="46.39435" lon="7.75167"><ele></ele><time>2025-9-19T12:8:23Z</time></trkpt>
<trkpt lat="46.39433" lon="7.75158"><ele></ele><time>2025-9-19T12:8:26Z</time></trkpt>
<trkpt lat="46.39432" lon="7.75154"><ele></ele><time>2025-9-19T12:8:29Z</time></trkpt>
<trkpt lat="46.39431" lon="7.75153"><ele></ele><time>2025-9-19T12:8:32Z</time></trkpt>
<trkpt lat="46.39429" lon="7.75144"><ele></ele><time>2025-9-19T12:8:35Z</time></trkpt>
<trkpt lat="46.39427" lon="7.75134"><ele></ele><time>2025-9-19T12:8:38Z</time></trkpt>
<trkpt lat="46.39425" lon="7.75131"><ele></ele><time>2025-9-19T12:8:41Z</time></trkpt>
<trkpt lat="46.39424" lon="7.75123"><ele></ele><time>2025-9-19T12:8:44Z</time></trkpt>
<trkpt lat="46.39422" lon="7.75119"><ele></ele><time>2025-9-19T12:8:47Z</time></trkpt>
<trkpt lat="46.39421" lon="7.75115"><ele></ele><time>2025-9-19T12:8:50Z</time></trkpt>
<trkpt lat="46.39421" lon="7.75111"><ele></ele><time>2025-9-19T12:8:53Z</time></trkpt>
<trkpt lat="46.3942" lon="7.75109"><ele></ele><time>2025-9-19T12:8:56Z</time></trkpt>
<trkpt lat="46.39419" lon="7.751"><ele></ele><time>2025-9-19T12:8:59Z</time></trkpt>
<trkpt lat="46.39419" lon="7.75097"><ele></ele><time>2025-9-19T12:9:2Z</time></trkpt>
<trkpt lat="46.39419" lon="7.7509"><ele></ele><time>2025-9-19T12:9:5Z</time></trkpt>
<trkpt lat="46.39419" lon="7.75086"><ele></ele><time>2025-9-19T12:9:8Z</time></trkpt>
<trkpt lat="46.39419" lon="7.75077"><ele></ele><time>2025-9-19T12:9:11Z</time></trkpt>
<trkpt lat="46.39419" lon="7.75075"><ele></ele><time>2025-9-19T12:9:14Z</time></trkpt>
<trkpt lat="46.39419" lon="7.75074"><ele></ele><time>2025-9-19T12:9:17Z</time></trkpt>
<trkpt lat="46.3942" lon="7.75067"><ele></ele><time>2025-9-19T12:9:20Z</time></trkpt>
<trkpt lat="46.3942" lon="7.75066"><ele></ele><time>2025-9-19T12:9:23Z</time></trkpt>
<trkpt lat="46.3942" lon="7.75059"><ele></ele><time>2025-9-19T12:9:26Z</time></trkpt>
<trkpt lat="46.39421" lon="7.75056"><ele></ele><time>2025-9-19T12:9:29Z</time></trkpt>
<trkpt lat="46.39423" lon="7.75048"><ele></ele><time>2025-9-19T12:9:32Z</time></trkpt>
<trkpt lat="46.39423" lon="7.75045"><ele></ele><time>2025-9-19T12:9:35Z</time></trkpt>
<trkpt lat="46.39424" lon="7.7504"><ele></ele><time>2025-9-19T12:9:38Z</time></trkpt>
<trkpt lat="46.39424" lon="7.75034"><ele></ele><time>2025-9-19T12:9:41Z</time></trkpt>
<trkpt lat="46.39425" lon="7.75031"><ele></ele><time>2025-9-19T12:9:44Z</time></trkpt>
<trkpt lat="46.39427" lon="7.75025"><ele></ele><time>2025-9-19T12:9:47Z</time></trkpt>
<trkpt lat="46.39427" lon="7.75024"><ele></ele><time>2025-9-19T12:9:50Z</time></trkpt>
<trkpt lat="46.39431" lon="7.75013"><ele></ele><time>2025-9-19T12:9:53Z</time></trkpt>
<trkpt lat="46.39431" lon="7.75012"><ele></ele><time>2025-9-19T12:9:56Z</time></trkpt>
<trkpt lat="46.39431" lon="7.7501"><ele></ele><time>2025-9-19T12:9:59Z</time></trkpt>
<trkpt lat="46.39431" lon="7.75004"><ele></ele><time>2025-9-19T12:10:2Z</time></trkpt>
<trkpt lat="46.39431" lon="7.75003"><ele></ele><time>2025-9-19T12:10:5Z</time></trkpt>
<trkpt lat="46.39431" lon="7.74996"><ele></ele><time>2025-9-19T12:10:8Z</time></trkpt>
<trkpt lat="46.39431" lon="7.74994"><ele></ele><time>2025-9-19T12:10:11Z</time></trkpt>
<trkpt lat="46.39431" lon="7.74989"><ele></ele><time>2025-9-19T12:10:14Z</time></trkpt>
<trkpt lat="46.3943" lon="7.74982"><ele></ele><time>2025-9-19T12:10:17Z</time></trkpt>
<trkpt lat="46.39429" lon="7.74978"><ele></ele><time>2025-9-19T12:10:20Z</time></trkpt>
<trkpt lat="46.39429" lon="7.74972"><ele></ele><time>2025-9-19T12:10:23Z</time></trkpt>
<trkpt lat="46.39428" lon="7.74969"><ele></ele><time>2025-9-19T12:10:26Z</time></trkpt>
<trkpt lat="46.39427" lon="7.74965"><ele></ele><time>2025-9-19T12:10:29Z</time></trkpt>
<trkpt lat="46.39427" lon="7.74963"><ele></ele><time>2025-9-19T12:10:32Z</time></trkpt>
<trkpt lat="46.39426" lon="7.74961"><ele></ele><time>2025-9-19T12:10:35Z</time></trkpt>
<trkpt lat="46.39425" lon="7.74958"><ele></ele><time>2025-9-19T12:10:38Z</time></trkpt>
<trkpt lat="46.39424" lon="7.74951"><ele></ele><time>2025-9-19T12:10:41Z</time></trkpt>
<trkpt lat="46.39425" lon="7.74943"><ele></ele><time>2025-9-19T12:10:44Z</time></trkpt>
<trkpt lat="46.39426" lon="7.74939"><ele></ele><time>2025-9-19T12:10:47Z</time></trkpt>
<trkpt lat="46.39429" lon="7.7493"><ele></ele><time>2025-9-19T12:10:50Z</time></trkpt>
<trkpt lat="46.39429" lon="7.74927"><ele></ele><time>2025-9-19T12:10:53Z</time></trkpt>
<trkpt lat="46.3943" lon="7.7492"><ele></ele><time>2025-9-19T12:10:56Z</time></trkpt>
<trkpt lat="46.39432" lon="7.74915"><ele></ele><time>2025-9-19T12:10:59Z</time></trkpt>
<trkpt lat="46.39433" lon="7.74913"><ele></ele><time>2025-9-19T12:11:2Z</time></trkpt>
<trkpt lat="46.39435" lon="7.74905"><ele></ele><time>2025-9-19T12:11:5Z</time></trkpt>
<trkpt lat="46.39437" lon="7.74898"><ele></ele><time>2025-9-19T12:11:8Z</time></trkpt>
<trkpt lat="46.39438" lon="7.74895"><ele></ele><time>2025-9-19T12:11:11Z</time></trkpt>
<trkpt lat="46.39438" lon="7.74887"><ele></ele><time>2025-9-19T12:11:14Z</time></trkpt>
<trkpt lat="46.39437" lon="7.74884"><ele></ele><time>2025-9-19T12:11:17Z</time></trkpt>
<trkpt lat="46.39436" lon="7.74876"><ele></ele><time>2025-9-19T12:11:20Z</time></trkpt>
<trkpt lat="46.39436" lon="7.74874"><ele></ele><time>2025-9-19T12:11:23Z</time></trkpt>
<trkpt lat="46.39436" lon="7.74874"><ele></ele><time>2025-9-19T12:11:26Z</time></trkpt>
<trkpt lat="46.39436" lon="7.74875"><ele></ele><time>2025-9-19T12:11:29Z</time></trkpt>
<trkpt lat="46.39436" lon="7.74874"><ele></ele><time>2025-9-19T12:11:32Z</time></trkpt>
<trkpt lat="46.39435" lon="7.74876"><ele></ele><time>2025-9-19T12:11:35Z</time></trkpt>
<trkpt lat="46.39435" lon="7.74876"><ele></ele><time>2025-9-19T12:11:38Z</time></trkpt>
<trkpt lat="46.39434" lon="7.74878"><ele></ele><time>2025-9-19T12:11:41Z</time></trkpt>
<trkpt lat="46.39435" lon="7.74877"><ele></ele><time>2025-9-19T12:11:44Z</time></trkpt>
<trkpt lat="46.39434" lon="7.74875"><ele></ele><time>2025-9-19T12:11:47Z</time></trkpt>
<trkpt lat="46.39434" lon="7.74875"><ele></ele><time>2025-9-19T12:11:50Z</time></trkpt>
<trkpt lat="46.39434" lon="7.74875"><ele></ele><time>2025-9-19T12:11:53Z</time></trkpt>
<trkpt lat="46.39434" lon="7.74875"><ele></ele><time>2025-9-19T12:11:56Z</time></trkpt>
<trkpt lat="46.39434" lon="7.74874"><ele></ele><time>2025-9-19T12:11:59Z</time></trkpt>
<trkpt lat="46.39434" lon="7.74874"><ele></ele><time>2025-9-19T12:12:2Z</time></trkpt>
<trkpt lat="46.39434" lon="7.74874"><ele></ele><time>2025-9-19T12:12:5Z</time></trkpt>
<trkpt lat="46.39432" lon="7.74869"><ele></ele><time>2025-9-19T12:12:8Z</time></trkpt>
<trkpt lat="46.39431" lon="7.74859"><ele></ele><time>2025-9-19T12:12:11Z</time></trkpt>
<trkpt lat="46.39428" lon="7.7485"><ele></ele><time>2025-9-19T12:12:14Z</time></trkpt>
<trkpt lat="46.39424" lon="7.74844"><ele></ele><time>2025-9-19T12:12:17Z</time></trkpt>
<trkpt lat="46.39422" lon="7.74841"><ele></ele><time>2025-9-19T12:12:20Z</time></trkpt>
<trkpt lat="46.39419" lon="7.74834"><ele></ele><time>2025-9-19T12:12:23Z</time></trkpt>
<trkpt lat="46.39416" lon="7.74829"><ele></ele><time>2025-9-19T12:12:26Z</time></trkpt>
<trkpt lat="46.39415" lon="7.74825"><ele></ele><time>2025-9-19T12:12:29Z</time></trkpt>
<trkpt lat="46.39414" lon="7.74817"><ele></ele><time>2025-9-19T12:12:32Z</time></trkpt>
<trkpt lat="46.39413" lon="7.74815"><ele></ele><time>2025-9-19T12:12:35Z</time></trkpt>
<trkpt lat="46.39412" lon="7.7481"><ele></ele><time>2025-9-19T12:12:38Z</time></trkpt>
<trkpt lat="46.39411" lon="7.74791"><ele></ele><time>2025-9-19T12:12:41Z</time></trkpt>
<trkpt lat="46.3941" lon="7.74782"><ele></ele><time>2025-9-19T12:12:44Z</time></trkpt>
<trkpt lat="46.39409" lon="7.74772"><ele></ele><time>2025-9-19T12:12:47Z</time></trkpt>
<trkpt lat="46.39409" lon="7.7477"><ele></ele><time>2025-9-19T12:12:50Z</time></trkpt>
<trkpt lat="46.39407" lon="7.74761"><ele></ele><time>2025-9-19T12:12:53Z</time></trkpt>
<trkpt lat="46.39404" lon="7.74746"><ele></ele><time>2025-9-19T12:12:56Z</time></trkpt>
<trkpt lat="46.394" lon="7.74732"><ele></ele><time>2025-9-19T12:12:59Z</time></trkpt>
<trkpt lat="46.39399" lon="7.74729"><ele></ele><time>2025-9-19T12:13:2Z</time></trkpt>
<trkpt lat="46.3939" lon="7.74713"><ele></ele><time>2025-9-19T12:13:5Z</time></trkpt>
<trkpt lat="46.39389" lon="7.7471"><ele></ele><time>2025-9-19T12:13:8Z</time></trkpt>
<trkpt lat="46.39373" lon="7.74696"><ele></ele><time>2025-9-19T12:13:11Z</time></trkpt>
<trkpt lat="46.3937" lon="7.74694"><ele></ele><time>2025-9-19T12:13:14Z</time></trkpt>
<trkpt lat="46.39359" lon="7.74686"><ele></ele><time>2025-9-19T12:13:17Z</time></trkpt>
<trkpt lat="46.39352" lon="7.74679"><ele></ele><time>2025-9-19T12:13:20Z</time></trkpt>
<trkpt lat="46.39348" lon="7.74677"><ele></ele><time>2025-9-19T12:13:23Z</time></trkpt>
<trkpt lat="46.39335" lon="7.74664"><ele></ele><time>2025-9-19T12:13:26Z</time></trkpt>
<trkpt lat="46.39321" lon="7.74653"><ele></ele><time>2025-9-19T12:13:29Z</time></trkpt>
<trkpt lat="46.39318" lon="7.74649"><ele></ele><time>2025-9-19T12:13:32Z</time></trkpt>
<trkpt lat="46.39309" lon="7.74635"><ele></ele><time>2025-9-19T12:13:35Z</time></trkpt>
<trkpt lat="46.39308" lon="7.74633"><ele></ele><time>2025-9-19T12:13:38Z</time></trkpt>
<trkpt lat="46.39297" lon="7.7462"><ele></ele><time>2025-9-19T12:13:41Z</time></trkpt>
<trkpt lat="46.39286" lon="7.74616"><ele></ele><time>2025-9-19T12:13:44Z</time></trkpt>
<trkpt lat="46.39284" lon="7.74616"><ele></ele><time>2025-9-19T12:13:47Z</time></trkpt>
<trkpt lat="46.39271" lon="7.74613"><ele></ele><time>2025-9-19T12:13:50Z</time></trkpt>
<trkpt lat="46.39269" lon="7.74612"><ele></ele><time>2025-9-19T12:13:53Z</time></trkpt>
<trkpt lat="46.39258" lon="7.7461"><ele></ele><time>2025-9-19T12:13:56Z</time></trkpt>
<trkpt lat="46.3925" lon="7.74606"><ele></ele><time>2025-9-19T12:13:59Z</time></trkpt>
<trkpt lat="46.39246" lon="7.74602"><ele></ele><time>2025-9-19T12:14:2Z</time></trkpt>
<trkpt lat="46.39235" lon="7.74591"><ele></ele><time>2025-9-19T12:14:5Z</time></trkpt>
<trkpt lat="46.39229" lon="7.74586"><ele></ele><time>2025-9-19T12:14:8Z</time></trkpt>
<trkpt lat="46.39225" lon="7.74584"><ele></ele><time>2025-9-19T12:14:11Z</time></trkpt>
<trkpt lat="46.39216" lon="7.74577"><ele></ele><time>2025-9-19T12:14:14Z</time></trkpt>
<trkpt lat="46.39213" lon="7.74576"><ele></ele><time>2025-9-19T12:14:17Z</time></trkpt>
<trkpt lat="46.39208" lon="7.74573"><ele></ele><time>2025-9-19T12:14:20Z</time></trkpt>
<trkpt lat="46.39198" lon="7.74562"><ele></ele><time>2025-9-19T12:14:23Z</time></trkpt>
<trkpt lat="46.39189" lon="7.74547"><ele></ele><time>2025-9-19T12:14:26Z</time></trkpt>
<trkpt lat="46.39186" lon="7.7454"><ele></ele><time>2025-9-19T12:14:29Z</time></trkpt>
<trkpt lat="46.39184" lon="7.74531"><ele></ele><time>2025-9-19T12:14:32Z</time></trkpt>
<trkpt lat="46.39183" lon="7.7453"><ele></ele><time>2025-9-19T12:14:35Z</time></trkpt>
<trkpt lat="46.39176" lon="7.74524"><ele></ele><time>2025-9-19T12:14:38Z</time></trkpt>
<trkpt lat="46.39163" lon="7.74517"><ele></ele><time>2025-9-19T12:14:41Z</time></trkpt>
<trkpt lat="46.39156" lon="7.74516"><ele></ele><time>2025-9-19T12:14:44Z</time></trkpt>
<trkpt lat="46.3915" lon="7.74517"><ele></ele><time>2025-9-19T12:14:47Z</time></trkpt>
<trkpt lat="46.39148" lon="7.74516"><ele></ele><time>2025-9-19T12:14:50Z</time></trkpt>
<trkpt lat="46.3914" lon="7.74519"><ele></ele><time>2025-9-19T12:14:53Z</time></trkpt>
<trkpt lat="46.39139" lon="7.74531"><ele></ele><time>2025-9-19T12:14:56Z</time></trkpt>
<trkpt lat="46.3914" lon="7.74534"><ele></ele><time>2025-9-19T12:14:59Z</time></trkpt>
<trkpt lat="46.3914" lon="7.74543"><ele></ele><time>2025-9-19T12:15:2Z</time></trkpt>
<trkpt lat="46.39141" lon="7.74558"><ele></ele><time>2025-9-19T12:15:5Z</time></trkpt>
<trkpt lat="46.39142" lon="7.74582"><ele></ele><time>2025-9-19T12:15:8Z</time></trkpt>
<trkpt lat="46.3914" lon="7.74595"><ele></ele><time>2025-9-19T12:15:11Z</time></trkpt>
<trkpt lat="46.39139" lon="7.74599"><ele></ele><time>2025-9-19T12:15:14Z</time></trkpt>
<trkpt lat="46.39136" lon="7.74619"><ele></ele><time>2025-9-19T12:15:17Z</time></trkpt>
<trkpt lat="46.39131" lon="7.7465"><ele></ele><time>2025-9-19T12:15:20Z</time></trkpt>
<trkpt lat="46.39123" lon="7.74678"><ele></ele><time>2025-9-19T12:15:23Z</time></trkpt>
<trkpt lat="46.39122" lon="7.74683"><ele></ele><time>2025-9-19T12:15:26Z</time></trkpt>
<trkpt lat="46.39119" lon="7.74704"><ele></ele><time>2025-9-19T12:15:29Z</time></trkpt>
<trkpt lat="46.39118" lon="7.74715"><ele></ele><time>2025-9-19T12:15:32Z</time></trkpt>
<trkpt lat="46.39117" lon="7.74722"><ele></ele><time>2025-9-19T12:15:35Z</time></trkpt>
<trkpt lat="46.39109" lon="7.74732"><ele></ele><time>2025-9-19T12:15:38Z</time></trkpt>
<trkpt lat="46.39099" lon="7.74731"><ele></ele><time>2025-9-19T12:15:41Z</time></trkpt>
<trkpt lat="46.39093" lon="7.7473"><ele></ele><time>2025-9-19T12:15:44Z</time></trkpt>
<trkpt lat="46.39086" lon="7.74729"><ele></ele><time>2025-9-19T12:15:47Z</time></trkpt>
<trkpt lat="46.39074" lon="7.74726"><ele></ele><time>2025-9-19T12:15:50Z</time></trkpt>
<trkpt lat="46.39072" lon="7.74726"><ele></ele><time>2025-9-19T12:15:53Z</time></trkpt>
<trkpt lat="46.39058" lon="7.7473"><ele></ele><time>2025-9-19T12:15:56Z</time></trkpt>
<trkpt lat="46.39047" lon="7.7473"><ele></ele><time>2025-9-19T12:15:59Z</time></trkpt>
<trkpt lat="46.39045" lon="7.74728"><ele></ele><time>2025-9-19T12:16:2Z</time></trkpt>
<trkpt lat="46.39039" lon="7.74718"><ele></ele><time>2025-9-19T12:16:5Z</time></trkpt>
<trkpt lat="46.39034" lon="7.74713"><ele></ele><time>2025-9-19T12:16:8Z</time></trkpt>
<trkpt lat="46.39027" lon="7.74709"><ele></ele><time>2025-9-19T12:16:11Z</time></trkpt>
<trkpt lat="46.39022" lon="7.74708"><ele></ele><time>2025-9-19T12:16:14Z</time></trkpt>
<trkpt lat="46.39018" lon="7.74707"><ele></ele><time>2025-9-19T12:16:17Z</time></trkpt>
<trkpt lat="46.39012" lon="7.74708"><ele></ele><time>2025-9-19T12:16:20Z</time></trkpt>
<trkpt lat="46.39005" lon="7.74713"><ele></ele><time>2025-9-19T12:16:23Z</time></trkpt>
<trkpt lat="46.39001" lon="7.74718"><ele></ele><time>2025-9-19T12:16:26Z</time></trkpt>
<trkpt lat="46.38999" lon="7.7472"><ele></ele><time>2025-9-19T12:16:29Z</time></trkpt>
<trkpt lat="46.38997" lon="7.74722"><ele></ele><time>2025-9-19T12:16:32Z</time></trkpt>
<trkpt lat="46.38993" lon="7.74725"><ele></ele><time>2025-9-19T12:16:35Z</time></trkpt>
<trkpt lat="46.3899" lon="7.74727"><ele></ele><time>2025-9-19T12:16:38Z</time></trkpt>
<trkpt lat="46.38988" lon="7.74728"><ele></ele><time>2025-9-19T12:16:41Z</time></trkpt>
<trkpt lat="46.38982" lon="7.7473"><ele></ele><time>2025-9-19T12:16:44Z</time></trkpt>
<trkpt lat="46.38977" lon="7.7473"><ele></ele><time>2025-9-19T12:16:47Z</time></trkpt>
<trkpt lat="46.38973" lon="7.74731"><ele></ele><time>2025-9-19T12:16:50Z</time></trkpt>
<trkpt lat="46.38969" lon="7.74728"><ele></ele><time>2025-9-19T12:16:53Z</time></trkpt>
<trkpt lat="46.38967" lon="7.74727"><ele></ele><time>2025-9-19T12:16:56Z</time></trkpt>
<trkpt lat="46.38966" lon="7.74727"><ele></ele><time>2025-9-19T12:16:59Z</time></trkpt>
<trkpt lat="46.38964" lon="7.74727"><ele></ele><time>2025-9-19T12:17:2Z</time></trkpt>
<trkpt lat="46.38958" lon="7.74727"><ele></ele><time>2025-9-19T12:17:5Z</time></trkpt>
<trkpt lat="46.38955" lon="7.74727"><ele></ele><time>2025-9-19T12:17:8Z</time></trkpt>
<trkpt lat="46.3895" lon="7.74726"><ele></ele><time>2025-9-19T12:17:11Z</time></trkpt>
<trkpt lat="46.38946" lon="7.74722"><ele></ele><time>2025-9-19T12:17:14Z</time></trkpt>
<trkpt lat="46.38943" lon="7.74719"><ele></ele><time>2025-9-19T12:17:17Z</time></trkpt>
<trkpt lat="46.38941" lon="7.74718"><ele></ele><time>2025-9-19T12:17:20Z</time></trkpt>
<trkpt lat="46.3894" lon="7.74716"><ele></ele><time>2025-9-19T12:17:23Z</time></trkpt>
<trkpt lat="46.38937" lon="7.74709"><ele></ele><time>2025-9-19T12:17:26Z</time></trkpt>
<trkpt lat="46.38931" lon="7.74701"><ele></ele><time>2025-9-19T12:17:29Z</time></trkpt>
<trkpt lat="46.3893" lon="7.747"><ele></ele><time>2025-9-19T12:17:32Z</time></trkpt>
<trkpt lat="46.38925" lon="7.74696"><ele></ele><time>2025-9-19T12:17:35Z</time></trkpt>
<trkpt lat="46.38922" lon="7.74696"><ele></ele><time>2025-9-19T12:17:38Z</time></trkpt>
<trkpt lat="46.38916" lon="7.74697"><ele></ele><time>2025-9-19T12:17:41Z</time></trkpt>
<trkpt lat="46.38914" lon="7.74699"><ele></ele><time>2025-9-19T12:17:44Z</time></trkpt>
<trkpt lat="46.3891" lon="7.74701"><ele></ele><time>2025-9-19T12:17:47Z</time></trkpt>
<trkpt lat="46.38907" lon="7.74704"><ele></ele><time>2025-9-19T12:17:50Z</time></trkpt>
<trkpt lat="46.38903" lon="7.74709"><ele></ele><time>2025-9-19T12:17:53Z</time></trkpt>
<trkpt lat="46.389" lon="7.74712"><ele></ele><time>2025-9-19T12:17:56Z</time></trkpt>
<trkpt lat="46.38897" lon="7.74714"><ele></ele><time>2025-9-19T12:17:59Z</time></trkpt>
<trkpt lat="46.38894" lon="7.74716"><ele></ele><time>2025-9-19T12:18:2Z</time></trkpt>
<trkpt lat="46.38891" lon="7.74717"><ele></ele><time>2025-9-19T12:18:5Z</time></trkpt>
<trkpt lat="46.38887" lon="7.74721"><ele></ele><time>2025-9-19T12:18:8Z</time></trkpt>
<trkpt lat="46.38885" lon="7.74721"><ele></ele><time>2025-9-19T12:18:11Z</time></trkpt>
<trkpt lat="46.38879" lon="7.74719"><ele></ele><time>2025-9-19T12:18:14Z</time></trkpt>
<trkpt lat="46.38872" lon="7.74719"><ele></ele><time>2025-9-19T12:18:17Z</time></trkpt>
<trkpt lat="46.38869" lon="7.74718"><ele></ele><time>2025-9-19T12:18:20Z</time></trkpt>
<trkpt lat="46.38867" lon="7.74718"><ele></ele><time>2025-9-19T12:18:23Z</time></trkpt>
<trkpt lat="46.38864" lon="7.74717"><ele></ele><time>2025-9-19T12:18:26Z</time></trkpt>
<trkpt lat="46.3886" lon="7.74716"><ele></ele><time>2025-9-19T12:18:29Z</time></trkpt>
<trkpt lat="46.38859" lon="7.74716"><ele></ele><time>2025-9-19T12:18:32Z</time></trkpt>
<trkpt lat="46.38851" lon="7.74717"><ele></ele><time>2025-9-19T12:18:35Z</time></trkpt>
<trkpt lat="46.38849" lon="7.74717"><ele></ele><time>2025-9-19T12:18:38Z</time></trkpt>
<trkpt lat="46.38845" lon="7.74719"><ele></ele><time>2025-9-19T12:18:41Z</time></trkpt>
<trkpt lat="46.38842" lon="7.7472"><ele></ele><time>2025-9-19T12:18:44Z</time></trkpt>
<trkpt lat="46.38837" lon="7.7472"><ele></ele><time>2025-9-19T12:18:47Z</time></trkpt>
<trkpt lat="46.38834" lon="7.74719"><ele></ele><time>2025-9-19T12:18:50Z</time></trkpt>
<trkpt lat="46.3883" lon="7.74719"><ele></ele><time>2025-9-19T12:18:53Z</time></trkpt>
<trkpt lat="46.38829" lon="7.74719"><ele></ele><time>2025-9-19T12:18:56Z</time></trkpt>
<trkpt lat="46.38821" lon="7.7472"><ele></ele><time>2025-9-19T12:18:59Z</time></trkpt>
<trkpt lat="46.38813" lon="7.7472"><ele></ele><time>2025-9-19T12:19:2Z</time></trkpt>
<trkpt lat="46.3881" lon="7.7472"><ele></ele><time>2025-9-19T12:19:5Z</time></trkpt>
<trkpt lat="46.38809" lon="7.7472"><ele></ele><time>2025-9-19T12:19:8Z</time></trkpt>
<trkpt lat="46.38807" lon="7.74719"><ele></ele><time>2025-9-19T12:19:11Z</time></trkpt>
<trkpt lat="46.38802" lon="7.7472"><ele></ele><time>2025-9-19T12:19:14Z</time></trkpt>
<trkpt lat="46.38801" lon="7.74719"><ele></ele><time>2025-9-19T12:19:17Z</time></trkpt>
<trkpt lat="46.38796" lon="7.74719"><ele></ele><time>2025-9-19T12:19:20Z</time></trkpt>
<trkpt lat="46.38791" lon="7.74717"><ele></ele><time>2025-9-19T12:19:23Z</time></trkpt>
<trkpt lat="46.38787" lon="7.74715"><ele></ele><time>2025-9-19T12:19:26Z</time></trkpt>
<trkpt lat="46.38783" lon="7.74712"><ele></ele><time>2025-9-19T12:19:29Z</time></trkpt>
<trkpt lat="46.38778" lon="7.7471"><ele></ele><time>2025-9-19T12:19:32Z</time></trkpt>
<trkpt lat="46.38775" lon="7.74708"><ele></ele><time>2025-9-19T12:19:35Z</time></trkpt>
<trkpt lat="46.38776" lon="7.74707"><ele></ele><time>2025-9-19T12:19:38Z</time></trkpt>
<trkpt lat="46.38776" lon="7.74707"><ele></ele><time>2025-9-19T12:19:41Z</time></trkpt>
<trkpt lat="46.38776" lon="7.74707"><ele></ele><time>2025-9-19T12:19:44Z</time></trkpt>
<trkpt lat="46.38776" lon="7.74707"><ele></ele><time>2025-9-19T12:19:47Z</time></trkpt>
<trkpt lat="46.38776" lon="7.74704"><ele></ele><time>2025-9-19T12:19:50Z</time></trkpt>
<trkpt lat="46.38777" lon="7.74704"><ele></ele><time>2025-9-19T12:19:53Z</time></trkpt>
<trkpt lat="46.38781" lon="7.74707"><ele></ele><time>2025-9-19T12:19:56Z</time></trkpt>
<trkpt lat="46.38789" lon="7.74713"><ele></ele><time>2025-9-19T12:19:59Z</time></trkpt>
<trkpt lat="46.38793" lon="7.74713"><ele></ele><time>2025-9-19T12:20:2Z</time></trkpt>
<trkpt lat="46.38792" lon="7.74714"><ele></ele><time>2025-9-19T12:20:5Z</time></trkpt>
<trkpt lat="46.38792" lon="7.74714"><ele></ele><time>2025-9-19T12:20:8Z</time></trkpt>
<trkpt lat="46.38792" lon="7.74715"><ele></ele><time>2025-9-19T12:20:11Z</time></trkpt>
<trkpt lat="46.38787" lon="7.74713"><ele></ele><time>2025-9-19T12:20:14Z</time></trkpt>
<trkpt lat="46.38782" lon="7.74711"><ele></ele><time>2025-9-19T12:20:17Z</time></trkpt>
<trkpt lat="46.38774" lon="7.74708"><ele></ele><time>2025-9-19T12:20:20Z</time></trkpt>
<trkpt lat="46.3877" lon="7.74703"><ele></ele><time>2025-9-19T12:20:23Z</time></trkpt>
<trkpt lat="46.38771" lon="7.74704"><ele></ele><time>2025-9-19T12:20:26Z</time></trkpt>
<trkpt lat="46.38776" lon="7.74707"><ele></ele><time>2025-9-19T12:20:29Z</time></trkpt>
<trkpt lat="46.38776" lon="7.74707"><ele></ele><time>2025-9-19T12:20:32Z</time></trkpt>
<trkpt lat="46.38777" lon="7.74707"><ele></ele><time>2025-9-19T12:20:35Z</time></trkpt>
<trkpt lat="46.38777" lon="7.74707"><ele></ele><time>2025-9-19T12:20:38Z</time></trkpt>
<trkpt lat="46.38777" lon="7.74708"><ele></ele><time>2025-9-19T12:20:41Z</time></trkpt>
<trkpt lat="46.38777" lon="7.74707"><ele></ele><time>2025-9-19T12:20:44Z</time></trkpt>
<trkpt lat="46.38777" lon="7.74707"><ele></ele><time>2025-9-19T12:20:47Z</time></trkpt>
<trkpt lat="46.38777" lon="7.74707"><ele></ele><time>2025-9-19T12:20:50Z</time></trkpt>
<trkpt lat="46.38777" lon="7.74708"><ele></ele><time>2025-9-19T12:20:53Z</time></trkpt>
<trkpt lat="46.38781" lon="7.74709"><ele></ele><time>2025-9-19T12:20:56Z</time></trkpt>
<trkpt lat="46.38791" lon="7.74714"><ele></ele><time>2025-9-19T12:20:59Z</time></trkpt>
<trkpt lat="46.38791" lon="7.74713"><ele></ele><time>2025-9-19T12:21:2Z</time></trkpt>
<trkpt lat="46.3879" lon="7.74713"><ele></ele><time>2025-9-19T12:21:5Z</time></trkpt>
<trkpt lat="46.38788" lon="7.74713"><ele></ele><time>2025-9-19T12:21:8Z</time></trkpt>
<trkpt lat="46.38782" lon="7.74711"><ele></ele><time>2025-9-19T12:21:11Z</time></trkpt>
<trkpt lat="46.38778" lon="7.7471"><ele></ele><time>2025-9-19T12:21:14Z</time></trkpt>
<trkpt lat="46.38776" lon="7.74709"><ele></ele><time>2025-9-19T12:21:17Z</time></trkpt>
<trkpt lat="46.38768" lon="7.74703"><ele></ele><time>2025-9-19T12:21:20Z</time></trkpt>
<trkpt lat="46.3877" lon="7.74705"><ele></ele><time>2025-9-19T12:21:23Z</time></trkpt>
<trkpt lat="46.38772" lon="7.74706"><ele></ele><time>2025-9-19T12:21:26Z</time></trkpt>
<trkpt lat="46.38776" lon="7.74708"><ele></ele><time>2025-9-19T12:21:29Z</time></trkpt>
<trkpt lat="46.38777" lon="7.74707"><ele></ele><time>2025-9-19T12:21:32Z</time></trkpt>
<trkpt lat="46.38776" lon="7.74708"><ele></ele><time>2025-9-19T12:21:35Z</time></trkpt>
<trkpt lat="46.38776" lon="7.74708"><ele></ele><time>2025-9-19T12:21:38Z</time></trkpt>
<trkpt lat="46.38776" lon="7.74708"><ele></ele><time>2025-9-19T12:21:41Z</time></trkpt>
<trkpt lat="46.38777" lon="7.74708"><ele></ele><time>2025-9-19T12:21:44Z</time></trkpt>
<trkpt lat="46.38779" lon="7.74709"><ele></ele><time>2025-9-19T12:21:47Z</time></trkpt>
<trkpt lat="46.38786" lon="7.74712"><ele></ele><time>2025-9-19T12:21:50Z</time></trkpt>
<trkpt lat="46.38786" lon="7.74712"><ele></ele><time>2025-9-19T12:21:53Z</time></trkpt>
<trkpt lat="46.38786" lon="7.74712"><ele></ele><time>2025-9-19T12:21:56Z</time></trkpt>
<trkpt lat="46.38785" lon="7.74711"><ele></ele><time>2025-9-19T12:21:59Z</time></trkpt>
<trkpt lat="46.38783" lon="7.7471"><ele></ele><time>2025-9-19T12:22:2Z</time></trkpt>
<trkpt lat="46.38781" lon="7.74711"><ele></ele><time>2025-9-19T12:22:5Z</time></trkpt>
<trkpt lat="46.38778" lon="7.7471"><ele></ele><time>2025-9-19T12:22:8Z</time></trkpt>
<trkpt lat="46.38775" lon="7.74708"><ele></ele><time>2025-9-19T12:22:11Z</time></trkpt>
<trkpt lat="46.38768" lon="7.74704"><ele></ele><time>2025-9-19T12:22:14Z</time></trkpt>
<trkpt lat="46.38763" lon="7.74701"><ele></ele><time>2025-9-19T12:22:17Z</time></trkpt>
<trkpt lat="46.3876" lon="7.74697"><ele></ele><time>2025-9-19T12:22:20Z</time></trkpt>
<trkpt lat="46.38757" lon="7.7469"><ele></ele><time>2025-9-19T12:22:23Z</time></trkpt>
<trkpt lat="46.38756" lon="7.74691"><ele></ele><time>2025-9-19T12:22:26Z</time></trkpt>
<trkpt lat="46.38757" lon="7.74693"><ele></ele><time>2025-9-19T12:22:29Z</time></trkpt>
<trkpt lat="46.38762" lon="7.74697"><ele></ele><time>2025-9-19T12:22:32Z</time></trkpt>
<trkpt lat="46.38772" lon="7.74704"><ele></ele><time>2025-9-19T12:22:35Z</time></trkpt>
<trkpt lat="46.38777" lon="7.74707"><ele></ele><time>2025-9-19T12:22:38Z</time></trkpt>
<trkpt lat="46.38778" lon="7.74708"><ele></ele><time>2025-9-19T12:22:41Z</time></trkpt>
<trkpt lat="46.38775" lon="7.74709"><ele></ele><time>2025-9-19T12:22:44Z</time></trkpt>
<trkpt lat="46.38775" lon="7.74708"><ele></ele><time>2025-9-19T12:22:47Z</time></trkpt>
<trkpt lat="46.38774" lon="7.74708"><ele></ele><time>2025-9-19T12:22:50Z</time></trkpt>
<trkpt lat="46.38771" lon="7.74707"><ele></ele><time>2025-9-19T12:22:53Z</time></trkpt>
<trkpt lat="46.38768" lon="7.74706"><ele></ele><time>2025-9-19T12:22:56Z</time></trkpt>
<trkpt lat="46.38763" lon="7.74702"><ele></ele><time>2025-9-19T12:22:59Z</time></trkpt>
<trkpt lat="46.38763" lon="7.74702"><ele></ele><time>2025-9-19T12:23:2Z</time></trkpt>
<trkpt lat="46.38763" lon="7.74702"><ele></ele><time>2025-9-19T12:23:5Z</time></trkpt>
<trkpt lat="46.38763" lon="7.74702"><ele></ele><time>2025-9-19T12:23:8Z</time></trkpt>
<trkpt lat="46.38763" lon="7.74702"><ele></ele><time>2025-9-19T12:23:11Z</time></trkpt>
<trkpt lat="46.38763" lon="7.74702"><ele></ele><time>2025-9-19T12:23:14Z</time></trkpt>
<trkpt lat="46.38763" lon="7.74702"><ele></ele><time>2025-9-19T12:23:17Z</time></trkpt>
<trkpt lat="46.38763" lon="7.74702"><ele></ele><time>2025-9-19T12:23:20Z</time></trkpt>
<trkpt lat="46.38763" lon="7.74702"><ele></ele><time>2025-9-19T12:23:23Z</time></trkpt>
<trkpt lat="46.38761" lon="7.74703"><ele></ele><time>2025-9-19T12:23:26Z</time></trkpt>
<trkpt lat="46.38761" lon="7.747"><ele></ele><time>2025-9-19T12:23:29Z</time></trkpt>
<trkpt lat="46.38758" lon="7.74698"><ele></ele><time>2025-9-19T12:23:32Z</time></trkpt>
<trkpt lat="46.38755" lon="7.74693"><ele></ele><time>2025-9-19T12:23:35Z</time></trkpt>
<trkpt lat="46.38754" lon="7.7469"><ele></ele><time>2025-9-19T12:23:38Z</time></trkpt>
<trkpt lat="46.38751" lon="7.74681"><ele></ele><time>2025-9-19T12:23:41Z</time></trkpt>
<trkpt lat="46.38745" lon="7.74673"><ele></ele><time>2025-9-19T12:23:44Z</time></trkpt>
<trkpt lat="46.38744" lon="7.74671"><ele></ele><time>2025-9-19T12:23:47Z</time></trkpt>
<trkpt lat="46.38744" lon="7.74669"><ele></ele><time>2025-9-19T12:23:50Z</time></trkpt>
<trkpt lat="46.38739" lon="7.74662"><ele></ele><time>2025-9-19T12:23:53Z</time></trkpt>
<trkpt lat="46.38736" lon="7.74659"><ele></ele><time>2025-9-19T12:23:56Z</time></trkpt>
<trkpt lat="46.38732" lon="7.74652"><ele></ele><time>2025-9-19T12:23:59Z</time></trkpt>
<trkpt lat="46.38729" lon="7.74649"><ele></ele><time>2025-9-19T12:24:2Z</time></trkpt>
<trkpt lat="46.38725" lon="7.74641"><ele></ele><time>2025-9-19T12:24:5Z</time></trkpt>
<trkpt lat="46.38723" lon="7.74638"><ele></ele><time>2025-9-19T12:24:8Z</time></trkpt>
<trkpt lat="46.38717" lon="7.74631"><ele></ele><time>2025-9-19T12:24:11Z</time></trkpt>
<trkpt lat="46.38714" lon="7.74625"><ele></ele><time>2025-9-19T12:24:14Z</time></trkpt>
<trkpt lat="46.3871" lon="7.7462"><ele></ele><time>2025-9-19T12:24:17Z</time></trkpt>
<trkpt lat="46.38704" lon="7.74617"><ele></ele><time>2025-9-19T12:24:20Z</time></trkpt>
<trkpt lat="46.38701" lon="7.74615"><ele></ele><time>2025-9-19T12:24:23Z</time></trkpt>
<trkpt lat="46.38695" lon="7.7461"><ele></ele><time>2025-9-19T12:24:26Z</time></trkpt>
<trkpt lat="46.3869" lon="7.74605"><ele></ele><time>2025-9-19T12:24:29Z</time></trkpt>
<trkpt lat="46.38687" lon="7.74602"><ele></ele><time>2025-9-19T12:24:32Z</time></trkpt>
<trkpt lat="46.38678" lon="7.74595"><ele></ele><time>2025-9-19T12:24:35Z</time></trkpt>
<trkpt lat="46.38675" lon="7.74593"><ele></ele><time>2025-9-19T12:24:38Z</time></trkpt>
<trkpt lat="46.38671" lon="7.74589"><ele></ele><time>2025-9-19T12:24:41Z</time></trkpt>
<trkpt lat="46.38668" lon="7.74586"><ele></ele><time>2025-9-19T12:24:44Z</time></trkpt>
<trkpt lat="46.38663" lon="7.74584"><ele></ele><time>2025-9-19T12:24:47Z</time></trkpt>
<trkpt lat="46.38661" lon="7.74582"><ele></ele><time>2025-9-19T12:24:50Z</time></trkpt>
<trkpt lat="46.38656" lon="7.74579"><ele></ele><time>2025-9-19T12:24:53Z</time></trkpt>
<trkpt lat="46.38652" lon="7.74576"><ele></ele><time>2025-9-19T12:24:56Z</time></trkpt>
<trkpt lat="46.38645" lon="7.74572"><ele></ele><time>2025-9-19T12:24:59Z</time></trkpt>
<trkpt lat="46.3864" lon="7.74569"><ele></ele><time>2025-9-19T12:25:2Z</time></trkpt>
<trkpt lat="46.38633" lon="7.74566"><ele></ele><time>2025-9-19T12:25:5Z</time></trkpt>
<trkpt lat="46.38632" lon="7.74564"><ele></ele><time>2025-9-19T12:25:8Z</time></trkpt>
<trkpt lat="46.38625" lon="7.74561"><ele></ele><time>2025-9-19T12:25:11Z</time></trkpt>
<trkpt lat="46.3862" lon="7.74556"><ele></ele><time>2025-9-19T12:25:14Z</time></trkpt>
<trkpt lat="46.38618" lon="7.74555"><ele></ele><time>2025-9-19T12:25:17Z</time></trkpt>
<trkpt lat="46.38609" lon="7.74548"><ele></ele><time>2025-9-19T12:25:20Z</time></trkpt>
<trkpt lat="46.38601" lon="7.74544"><ele></ele><time>2025-9-19T12:25:23Z</time></trkpt>
<trkpt lat="46.38599" lon="7.74542"><ele></ele><time>2025-9-19T12:25:26Z</time></trkpt>
<trkpt lat="46.38595" lon="7.7454"><ele></ele><time>2025-9-19T12:25:29Z</time></trkpt>
<trkpt lat="46.38589" lon="7.74537"><ele></ele><time>2025-9-19T12:25:32Z</time></trkpt>
<trkpt lat="46.38587" lon="7.74535"><ele></ele><time>2025-9-19T12:25:35Z</time></trkpt>
<trkpt lat="46.3858" lon="7.74529"><ele></ele><time>2025-9-19T12:25:38Z</time></trkpt>
<trkpt lat="46.38577" lon="7.74527"><ele></ele><time>2025-9-19T12:25:41Z</time></trkpt>
<trkpt lat="46.38572" lon="7.74525"><ele></ele><time>2025-9-19T12:25:44Z</time></trkpt>
<trkpt lat="46.38565" lon="7.74522"><ele></ele><time>2025-9-19T12:25:47Z</time></trkpt>
<trkpt lat="46.38564" lon="7.74522"><ele></ele><time>2025-9-19T12:25:50Z</time></trkpt>
<trkpt lat="46.38555" lon="7.74518"><ele></ele><time>2025-9-19T12:25:53Z</time></trkpt>
<trkpt lat="46.38553" lon="7.74516"><ele></ele><time>2025-9-19T12:25:56Z</time></trkpt>
<trkpt lat="46.38553" lon="7.74515"><ele></ele><time>2025-9-19T12:25:59Z</time></trkpt>
<trkpt lat="46.38553" lon="7.74515"><ele></ele><time>2025-9-19T12:26:2Z</time></trkpt>
<trkpt lat="46.38552" lon="7.74513"><ele></ele><time>2025-9-19T12:26:5Z</time></trkpt>
<trkpt lat="46.38552" lon="7.74513"><ele></ele><time>2025-9-19T12:26:8Z</time></trkpt>
<trkpt lat="46.38552" lon="7.74513"><ele></ele><time>2025-9-19T12:26:11Z</time></trkpt>
<trkpt lat="46.38552" lon="7.74513"><ele></ele><time>2025-9-19T12:26:14Z</time></trkpt>
<trkpt lat="46.38552" lon="7.74513"><ele></ele><time>2025-9-19T12:26:17Z</time></trkpt>
<trkpt lat="46.38552" lon="7.74513"><ele></ele><time>2025-9-19T12:26:20Z</time></trkpt>
<trkpt lat="46.38552" lon="7.74513"><ele></ele><time>2025-9-19T12:26:23Z</time></trkpt>
<trkpt lat="46.38552" lon="7.74513"><ele></ele><time>2025-9-19T12:26:26Z</time></trkpt>
<trkpt lat="46.38552" lon="7.74513"><ele></ele><time>2025-9-19T12:26:29Z</time></trkpt>
<trkpt lat="46.38552" lon="7.74513"><ele></ele><time>2025-9-19T12:26:32Z</time></trkpt>
<trkpt lat="46.38552" lon="7.74513"><ele></ele><time>2025-9-19T12:26:35Z</time></trkpt>
<trkpt lat="46.38552" lon="7.74512"><ele></ele><time>2025-9-19T12:26:38Z</time></trkpt>
<trkpt lat="46.38552" lon="7.74512"><ele></ele><time>2025-9-19T12:26:41Z</time></trkpt>
<trkpt lat="46.38552" lon="7.74513"><ele></ele><time>2025-9-19T12:26:44Z</time></trkpt>
<trkpt lat="46.38552" lon="7.74513"><ele></ele><time>2025-9-19T12:26:47Z</time></trkpt>
<trkpt lat="46.38552" lon="7.74513"><ele></ele><time>2025-9-19T12:26:50Z</time></trkpt>
<trkpt lat="46.38552" lon="7.74513"><ele></ele><time>2025-9-19T12:26:53Z</time></trkpt>
<trkpt lat="46.38552" lon="7.74513"><ele></ele><time>2025-9-19T12:26:56Z</time></trkpt>
<trkpt lat="46.38552" lon="7.74513"><ele></ele><time>2025-9-19T12:26:59Z</time></trkpt>
<trkpt lat="46.38552" lon="7.74512"><ele></ele><time>2025-9-19T12:27:2Z</time></trkpt>
<trkpt lat="46.38552" lon="7.74513"><ele></ele><time>2025-9-19T12:27:5Z</time></trkpt>
<trkpt lat="46.38552" lon="7.74513"><ele></ele><time>2025-9-19T12:27:8Z</time></trkpt>
<trkpt lat="46.38552" lon="7.74513"><ele></ele><time>2025-9-19T12:27:11Z</time></trkpt>
<trkpt lat="46.38552" lon="7.74513"><ele></ele><time>2025-9-19T12:27:14Z</time></trkpt>
<trkpt lat="46.38551" lon="7.74511"><ele></ele><time>2025-9-19T12:27:17Z</time></trkpt>
<trkpt lat="46.38551" lon="7.7451"><ele></ele><time>2025-9-19T12:27:20Z</time></trkpt>
<trkpt lat="46.38551" lon="7.74511"><ele></ele><time>2025-9-19T12:27:23Z</time></trkpt>
<trkpt lat="46.38551" lon="7.74511"><ele></ele><time>2025-9-19T12:27:26Z</time></trkpt>
<trkpt lat="46.38551" lon="7.74512"><ele></ele><time>2025-9-19T12:27:29Z</time></trkpt>
<trkpt lat="46.38551" lon="7.74511"><ele></ele><time>2025-9-19T12:27:32Z</time></trkpt>
<trkpt lat="46.38551" lon="7.74511"><ele></ele><time>2025-9-19T12:27:35Z</time></trkpt>
<trkpt lat="46.38551" lon="7.74511"><ele></ele><time>2025-9-19T12:27:38Z</time></trkpt>
<trkpt lat="46.38551" lon="7.74511"><ele></ele><time>2025-9-19T12:27:41Z</time></trkpt>
<trkpt lat="46.38551" lon="7.74512"><ele></ele><time>2025-9-19T12:27:44Z</time></trkpt>
<trkpt lat="46.38551" lon="7.74511"><ele></ele><time>2025-9-19T12:27:47Z</time></trkpt>
<trkpt lat="46.38551" lon="7.7451"><ele></ele><time>2025-9-19T12:27:50Z</time></trkpt>
<trkpt lat="46.38551" lon="7.74509"><ele></ele><time>2025-9-19T12:27:53Z</time></trkpt>
<trkpt lat="46.38551" lon="7.7451"><ele></ele><time>2025-9-19T12:27:56Z</time></trkpt>
<trkpt lat="46.38551" lon="7.7451"><ele></ele><time>2025-9-19T12:27:59Z</time></trkpt>
<trkpt lat="46.38551" lon="7.7451"><ele></ele><time>2025-9-19T12:28:2Z</time></trkpt>
<trkpt lat="46.38552" lon="7.7451"><ele></ele><time>2025-9-19T12:28:5Z</time></trkpt>
<trkpt lat="46.38552" lon="7.7451"><ele></ele><time>2025-9-19T12:28:8Z</time></trkpt>
<trkpt lat="46.38551" lon="7.74511"><ele></ele><time>2025-9-19T12:28:11Z</time></trkpt>
<trkpt lat="46.38551" lon="7.74511"><ele></ele><time>2025-9-19T12:28:14Z</time></trkpt>
<trkpt lat="46.38551" lon="7.74511"><ele></ele><time>2025-9-19T12:28:17Z</time></trkpt>
<trkpt lat="46.38551" lon="7.74511"><ele></ele><time>2025-9-19T12:28:20Z</time></trkpt>
<trkpt lat="46.38551" lon="7.74511"><ele></ele><time>2025-9-19T12:28:23Z</time></trkpt>
<trkpt lat="46.38551" lon="7.74512"><ele></ele><time>2025-9-19T12:28:26Z</time></trkpt>
<trkpt lat="46.38551" lon="7.74511"><ele></ele><time>2025-9-19T12:28:29Z</time></trkpt>
<trkpt lat="46.38552" lon="7.74512"><ele></ele><time>2025-9-19T12:28:32Z</time></trkpt>
<trkpt lat="46.38551" lon="7.74511"><ele></ele><time>2025-9-19T12:28:35Z</time></trkpt>
<trkpt lat="46.38551" lon="7.74511"><ele></ele><time>2025-9-19T12:28:38Z</time></trkpt>
<trkpt lat="46.38551" lon="7.74511"><ele></ele><time>2025-9-19T12:28:41Z</time></trkpt>
<trkpt lat="46.38551" lon="7.74511"><ele></ele><time>2025-9-19T12:28:44Z</time></trkpt>
<trkpt lat="46.38551" lon="7.74511"><ele></ele><time>2025-9-19T12:28:47Z</time></trkpt>
<trkpt lat="46.38552" lon="7.74512"><ele></ele><time>2025-9-19T12:28:50Z</time></trkpt>
<trkpt lat="46.38552" lon="7.74512"><ele></ele><time>2025-9-19T12:28:53Z</time></trkpt>
<trkpt lat="46.38554" lon="7.74513"><ele></ele><time>2025-9-19T12:28:56Z</time></trkpt>
<trkpt lat="46.38566" lon="7.74522"><ele></ele><time>2025-9-19T12:28:59Z</time></trkpt>
<trkpt lat="46.38571" lon="7.74524"><ele></ele><time>2025-9-19T12:29:2Z</time></trkpt>
<trkpt lat="46.38569" lon="7.74522"><ele></ele><time>2025-9-19T12:29:5Z</time></trkpt>
<trkpt lat="46.38567" lon="7.74522"><ele></ele><time>2025-9-19T12:29:8Z</time></trkpt>
<trkpt lat="46.38557" lon="7.74517"><ele></ele><time>2025-9-19T12:29:11Z</time></trkpt>
<trkpt lat="46.38556" lon="7.74516"><ele></ele><time>2025-9-19T12:29:14Z</time></trkpt>
<trkpt lat="46.38547" lon="7.74511"><ele></ele><time>2025-9-19T12:29:17Z</time></trkpt>
<trkpt lat="46.38542" lon="7.74509"><ele></ele><time>2025-9-19T12:29:20Z</time></trkpt>
<trkpt lat="46.38538" lon="7.74507"><ele></ele><time>2025-9-19T12:29:23Z</time></trkpt>
<trkpt lat="46.38529" lon="7.74503"><ele></ele><time>2025-9-19T12:29:26Z</time></trkpt>
<trkpt lat="46.38527" lon="7.74501"><ele></ele><time>2025-9-19T12:29:29Z</time></trkpt>
<trkpt lat="46.38525" lon="7.74501"><ele></ele><time>2025-9-19T12:29:32Z</time></trkpt>
<trkpt lat="46.38527" lon="7.74502"><ele></ele><time>2025-9-19T12:29:35Z</time></trkpt>
<trkpt lat="46.38537" lon="7.74505"><ele></ele><time>2025-9-19T12:29:38Z</time></trkpt>
<trkpt lat="46.38548" lon="7.74511"><ele></ele><time>2025-9-19T12:29:41Z</time></trkpt>
<trkpt lat="46.38551" lon="7.74511"><ele></ele><time>2025-9-19T12:29:44Z</time></trkpt>
<trkpt lat="46.38551" lon="7.74511"><ele></ele><time>2025-9-19T12:29:47Z</time></trkpt>
<trkpt lat="46.38551" lon="7.7451"><ele></ele><time>2025-9-19T12:29:50Z</time></trkpt>
<trkpt lat="46.38552" lon="7.74512"><ele></ele><time>2025-9-19T12:29:53Z</time></trkpt>
<trkpt lat="46.38551" lon="7.74514"><ele></ele><time>2025-9-19T12:29:56Z</time></trkpt>
<trkpt lat="46.3855" lon="7.74513"><ele></ele><time>2025-9-19T12:29:59Z</time></trkpt>
<trkpt lat="46.3855" lon="7.74512"><ele></ele><time>2025-9-19T12:30:2Z</time></trkpt>
<trkpt lat="46.38548" lon="7.74509"><ele></ele><time>2025-9-19T12:30:5Z</time></trkpt>
<trkpt lat="46.38549" lon="7.7451"><ele></ele><time>2025-9-19T12:30:8Z</time></trkpt>
<trkpt lat="46.38549" lon="7.7451"><ele></ele><time>2025-9-19T12:30:11Z</time></trkpt>
<trkpt lat="46.38547" lon="7.7451"><ele></ele><time>2025-9-19T12:30:14Z</time></trkpt>
<trkpt lat="46.38538" lon="7.74508"><ele></ele><time>2025-9-19T12:30:17Z</time></trkpt>
<trkpt lat="46.38528" lon="7.74504"><ele></ele><time>2025-9-19T12:30:20Z</time></trkpt>
<trkpt lat="46.38526" lon="7.74502"><ele></ele><time>2025-9-19T12:30:23Z</time></trkpt>
<trkpt lat="46.38522" lon="7.74501"><ele></ele><time>2025-9-19T12:30:26Z</time></trkpt>
<trkpt lat="46.38515" lon="7.74498"><ele></ele><time>2025-9-19T12:30:29Z</time></trkpt>
<trkpt lat="46.38511" lon="7.74497"><ele></ele><time>2025-9-19T12:30:32Z</time></trkpt>
<trkpt lat="46.38502" lon="7.74492"><ele></ele><time>2025-9-19T12:30:35Z</time></trkpt>
<trkpt lat="46.385" lon="7.74491"><ele></ele><time>2025-9-19T12:30:38Z</time></trkpt>
<trkpt lat="46.38492" lon="7.74487"><ele></ele><time>2025-9-19T12:30:41Z</time></trkpt>
<trkpt lat="46.38485" lon="7.74482"><ele></ele><time>2025-9-19T12:30:44Z</time></trkpt>
<trkpt lat="46.38482" lon="7.74482"><ele></ele><time>2025-9-19T12:30:47Z</time></trkpt>
<trkpt lat="46.38471" lon="7.74479"><ele></ele><time>2025-9-19T12:30:50Z</time></trkpt>
<trkpt lat="46.38469" lon="7.74477"><ele></ele><time>2025-9-19T12:30:53Z</time></trkpt>
<trkpt lat="46.38464" lon="7.74474"><ele></ele><time>2025-9-19T12:30:56Z</time></trkpt>
<trkpt lat="46.38455" lon="7.74466"><ele></ele><time>2025-9-19T12:30:59Z</time></trkpt>
<trkpt lat="46.38447" lon="7.74457"><ele></ele><time>2025-9-19T12:31:2Z</time></trkpt>
<trkpt lat="46.38443" lon="7.7445"><ele></ele><time>2025-9-19T12:31:5Z</time></trkpt>
<trkpt lat="46.38442" lon="7.7445"><ele></ele><time>2025-9-19T12:31:8Z</time></trkpt>
<trkpt lat="46.38442" lon="7.74451"><ele></ele><time>2025-9-19T12:31:11Z</time></trkpt>
<trkpt lat="46.38442" lon="7.74451"><ele></ele><time>2025-9-19T12:31:14Z</time></trkpt>
<trkpt lat="46.38442" lon="7.74451"><ele></ele><time>2025-9-19T12:31:17Z</time></trkpt>
<trkpt lat="46.38442" lon="7.74451"><ele></ele><time>2025-9-19T12:31:20Z</time></trkpt>
<trkpt lat="46.38442" lon="7.74451"><ele></ele><time>2025-9-19T12:31:23Z</time></trkpt>
<trkpt lat="46.38442" lon="7.7445"><ele></ele><time>2025-9-19T12:31:26Z</time></trkpt>
<trkpt lat="46.38436" lon="7.74442"><ele></ele><time>2025-9-19T12:31:29Z</time></trkpt>
<trkpt lat="46.38435" lon="7.74442"><ele></ele><time>2025-9-19T12:31:32Z</time></trkpt>
<trkpt lat="46.3843" lon="7.74439"><ele></ele><time>2025-9-19T12:31:35Z</time></trkpt>
<trkpt lat="46.38427" lon="7.74436"><ele></ele><time>2025-9-19T12:31:38Z</time></trkpt>
<trkpt lat="46.38423" lon="7.74434"><ele></ele><time>2025-9-19T12:31:41Z</time></trkpt>
<trkpt lat="46.38422" lon="7.74434"><ele></ele><time>2025-9-19T12:31:44Z</time></trkpt>
<trkpt lat="46.38418" lon="7.74432"><ele></ele><time>2025-9-19T12:31:47Z</time></trkpt>
<trkpt lat="46.38415" lon="7.74429"><ele></ele><time>2025-9-19T12:31:50Z</time></trkpt>
<trkpt lat="46.3841" lon="7.74427"><ele></ele><time>2025-9-19T12:31:53Z</time></trkpt>
<trkpt lat="46.38407" lon="7.74424"><ele></ele><time>2025-9-19T12:31:56Z</time></trkpt>
<trkpt lat="46.38406" lon="7.74423"><ele></ele><time>2025-9-19T12:31:59Z</time></trkpt>
<trkpt lat="46.38403" lon="7.74421"><ele></ele><time>2025-9-19T12:32:2Z</time></trkpt>
<trkpt lat="46.38398" lon="7.74418"><ele></ele><time>2025-9-19T12:32:5Z</time></trkpt>
<trkpt lat="46.38393" lon="7.74414"><ele></ele><time>2025-9-19T12:32:8Z</time></trkpt>
<trkpt lat="46.38388" lon="7.74411"><ele></ele><time>2025-9-19T12:32:11Z</time></trkpt>
<trkpt lat="46.38384" lon="7.74409"><ele></ele><time>2025-9-19T12:32:14Z</time></trkpt>
<trkpt lat="46.38382" lon="7.74408"><ele></ele><time>2025-9-19T12:32:17Z</time></trkpt>
<trkpt lat="46.38376" lon="7.74403"><ele></ele><time>2025-9-19T12:32:20Z</time></trkpt>
<trkpt lat="46.38374" lon="7.74403"><ele></ele><time>2025-9-19T12:32:23Z</time></trkpt>
<trkpt lat="46.38367" lon="7.74398"><ele></ele><time>2025-9-19T12:32:26Z</time></trkpt>
<trkpt lat="46.38358" lon="7.74394"><ele></ele><time>2025-9-19T12:32:29Z</time></trkpt>
<trkpt lat="46.38351" lon="7.74389"><ele></ele><time>2025-9-19T12:32:32Z</time></trkpt>
<trkpt lat="46.38347" lon="7.74389"><ele></ele><time>2025-9-19T12:32:35Z</time></trkpt>
<trkpt lat="46.38343" lon="7.74388"><ele></ele><time>2025-9-19T12:32:38Z</time></trkpt>
<trkpt lat="46.38339" lon="7.74387"><ele></ele><time>2025-9-19T12:32:41Z</time></trkpt>
<trkpt lat="46.38334" lon="7.74384"><ele></ele><time>2025-9-19T12:32:44Z</time></trkpt>
<trkpt lat="46.38331" lon="7.74382"><ele></ele><time>2025-9-19T12:32:47Z</time></trkpt>
<trkpt lat="46.38328" lon="7.7438"><ele></ele><time>2025-9-19T12:32:50Z</time></trkpt>
<trkpt lat="46.38323" lon="7.74377"><ele></ele><time>2025-9-19T12:32:53Z</time></trkpt>
<trkpt lat="46.38321" lon="7.74376"><ele></ele><time>2025-9-19T12:32:56Z</time></trkpt>
<trkpt lat="46.38314" lon="7.74372"><ele></ele><time>2025-9-19T12:32:59Z</time></trkpt>
<trkpt lat="46.38313" lon="7.74371"><ele></ele><time>2025-9-19T12:33:2Z</time></trkpt>
<trkpt lat="46.38306" lon="7.74368"><ele></ele><time>2025-9-19T12:33:5Z</time></trkpt>
<trkpt lat="46.38305" lon="7.74368"><ele></ele><time>2025-9-19T12:33:8Z</time></trkpt>
<trkpt lat="46.38297" lon="7.74365"><ele></ele><time>2025-9-19T12:33:11Z</time></trkpt>
<trkpt lat="46.38295" lon="7.74365"><ele></ele><time>2025-9-19T12:33:14Z</time></trkpt>
<trkpt lat="46.38291" lon="7.74363"><ele></ele><time>2025-9-19T12:33:17Z</time></trkpt>
<trkpt lat="46.38288" lon="7.74363"><ele></ele><time>2025-9-19T12:33:20Z</time></trkpt>
<trkpt lat="46.38286" lon="7.74362"><ele></ele><time>2025-9-19T12:33:23Z</time></trkpt>
<trkpt lat="46.38281" lon="7.7436"><ele></ele><time>2025-9-19T12:33:26Z</time></trkpt>
<trkpt lat="46.38279" lon="7.7436"><ele></ele><time>2025-9-19T12:33:29Z</time></trkpt>
<trkpt lat="46.38273" lon="7.74358"><ele></ele><time>2025-9-19T12:33:32Z</time></trkpt>
<trkpt lat="46.38269" lon="7.74357"><ele></ele><time>2025-9-19T12:33:35Z</time></trkpt>
<trkpt lat="46.38263" lon="7.74355"><ele></ele><time>2025-9-19T12:33:38Z</time></trkpt>
<trkpt lat="46.3826" lon="7.74355"><ele></ele><time>2025-9-19T12:33:41Z</time></trkpt>
<trkpt lat="46.38254" lon="7.74352"><ele></ele><time>2025-9-19T12:33:44Z</time></trkpt>
<trkpt lat="46.38252" lon="7.74351"><ele></ele><time>2025-9-19T12:33:47Z</time></trkpt>
<trkpt lat="46.38246" lon="7.74349"><ele></ele><time>2025-9-19T12:33:50Z</time></trkpt>
<trkpt lat="46.38245" lon="7.74349"><ele></ele><time>2025-9-19T12:33:53Z</time></trkpt>
<trkpt lat="46.38237" lon="7.74346"><ele></ele><time>2025-9-19T12:33:56Z</time></trkpt>
<trkpt lat="46.38236" lon="7.74345"><ele></ele><time>2025-9-19T12:33:59Z</time></trkpt>
<trkpt lat="46.38229" lon="7.74343"><ele></ele><time>2025-9-19T12:34:2Z</time></trkpt>
<trkpt lat="46.38222" lon="7.74336"><ele></ele><time>2025-9-19T12:34:5Z</time></trkpt>
<trkpt lat="46.38221" lon="7.74335"><ele></ele><time>2025-9-19T12:34:8Z</time></trkpt>
<trkpt lat="46.38214" lon="7.74324"><ele></ele><time>2025-9-19T12:34:11Z</time></trkpt>
<trkpt lat="46.38212" lon="7.74321"><ele></ele><time>2025-9-19T12:34:14Z</time></trkpt>
<trkpt lat="46.3821" lon="7.74316"><ele></ele><time>2025-9-19T12:34:17Z</time></trkpt>
<trkpt lat="46.38209" lon="7.7431"><ele></ele><time>2025-9-19T12:34:20Z</time></trkpt>
<trkpt lat="46.38205" lon="7.74303"><ele></ele><time>2025-9-19T12:34:23Z</time></trkpt>
<trkpt lat="46.38203" lon="7.74299"><ele></ele><time>2025-9-19T12:34:26Z</time></trkpt>
<trkpt lat="46.38201" lon="7.74293"><ele></ele><time>2025-9-19T12:34:29Z</time></trkpt>
<trkpt lat="46.38198" lon="7.74286"><ele></ele><time>2025-9-19T12:34:32Z</time></trkpt>
<trkpt lat="46.38198" lon="7.74283"><ele></ele><time>2025-9-19T12:34:35Z</time></trkpt>
<trkpt lat="46.38194" lon="7.74273"><ele></ele><time>2025-9-19T12:34:38Z</time></trkpt>
<trkpt lat="46.38193" lon="7.74271"><ele></ele><time>2025-9-19T12:34:41Z</time></trkpt>
<trkpt lat="46.3819" lon="7.74261"><ele></ele><time>2025-9-19T12:34:44Z</time></trkpt>
<trkpt lat="46.38186" lon="7.74252"><ele></ele><time>2025-9-19T12:34:47Z</time></trkpt>
<trkpt lat="46.38185" lon="7.74251"><ele></ele><time>2025-9-19T12:34:50Z</time></trkpt>
<trkpt lat="46.38181" lon="7.74243"><ele></ele><time>2025-9-19T12:34:53Z</time></trkpt>
<trkpt lat="46.38176" lon="7.74238"><ele></ele><time>2025-9-19T12:34:56Z</time></trkpt>
<trkpt lat="46.3817" lon="7.74233"><ele></ele><time>2025-9-19T12:34:59Z</time></trkpt>
<trkpt lat="46.38169" lon="7.74231"><ele></ele><time>2025-9-19T12:35:2Z</time></trkpt>
<trkpt lat="46.38165" lon="7.74226"><ele></ele><time>2025-9-19T12:35:5Z</time></trkpt>
<trkpt lat="46.38163" lon="7.74224"><ele></ele><time>2025-9-19T12:35:8Z</time></trkpt>
<trkpt lat="46.38158" lon="7.74222"><ele></ele><time>2025-9-19T12:35:11Z</time></trkpt>
<trkpt lat="46.38155" lon="7.7422"><ele></ele><time>2025-9-19T12:35:14Z</time></trkpt>
<trkpt lat="46.38154" lon="7.74218"><ele></ele><time>2025-9-19T12:35:17Z</time></trkpt>
<trkpt lat="46.38152" lon="7.74216"><ele></ele><time>2025-9-19T12:35:20Z</time></trkpt>
<trkpt lat="46.38149" lon="7.74213"><ele></ele><time>2025-9-19T12:35:23Z</time></trkpt>
<trkpt lat="46.38148" lon="7.7421"><ele></ele><time>2025-9-19T12:35:26Z</time></trkpt>
<trkpt lat="46.38145" lon="7.74201"><ele></ele><time>2025-9-19T12:35:29Z</time></trkpt>
<trkpt lat="46.38141" lon="7.74192"><ele></ele><time>2025-9-19T12:35:32Z</time></trkpt>
<trkpt lat="46.38139" lon="7.7419"><ele></ele><time>2025-9-19T12:35:35Z</time></trkpt>
<trkpt lat="46.38133" lon="7.74178"><ele></ele><time>2025-9-19T12:35:38Z</time></trkpt>
<trkpt lat="46.38132" lon="7.74176"><ele></ele><time>2025-9-19T12:35:41Z</time></trkpt>
<trkpt lat="46.38128" lon="7.74171"><ele></ele><time>2025-9-19T12:35:44Z</time></trkpt>
<trkpt lat="46.38126" lon="7.74167"><ele></ele><time>2025-9-19T12:35:47Z</time></trkpt>
<trkpt lat="46.38124" lon="7.74165"><ele></ele><time>2025-9-19T12:35:50Z</time></trkpt>
<trkpt lat="46.38122" lon="7.74163"><ele></ele><time>2025-9-19T12:35:53Z</time></trkpt>
<trkpt lat="46.38119" lon="7.74158"><ele></ele><time>2025-9-19T12:35:56Z</time></trkpt>
<trkpt lat="46.38118" lon="7.74157"><ele></ele><time>2025-9-19T12:35:59Z</time></trkpt>
<trkpt lat="46.38111" lon="7.74149"><ele></ele><time>2025-9-19T12:36:2Z</time></trkpt>
<trkpt lat="46.3811" lon="7.74147"><ele></ele><time>2025-9-19T12:36:5Z</time></trkpt>
<trkpt lat="46.38105" lon="7.7414"><ele></ele><time>2025-9-19T12:36:8Z</time></trkpt>
<trkpt lat="46.38104" lon="7.74139"><ele></ele><time>2025-9-19T12:36:11Z</time></trkpt>
<trkpt lat="46.38099" lon="7.74134"><ele></ele><time>2025-9-19T12:36:14Z</time></trkpt>
<trkpt lat="46.38097" lon="7.74132"><ele></ele><time>2025-9-19T12:36:17Z</time></trkpt>
<trkpt lat="46.38092" lon="7.74128"><ele></ele><time>2025-9-19T12:36:20Z</time></trkpt>
<trkpt lat="46.38089" lon="7.74126"><ele></ele><time>2025-9-19T12:36:23Z</time></trkpt>
<trkpt lat="46.38086" lon="7.74124"><ele></ele><time>2025-9-19T12:36:26Z</time></trkpt>
<trkpt lat="46.38082" lon="7.74121"><ele></ele><time>2025-9-19T12:36:29Z</time></trkpt>
<trkpt lat="46.38079" lon="7.74119"><ele></ele><time>2025-9-19T12:36:32Z</time></trkpt>
<trkpt lat="46.38074" lon="7.74117"><ele></ele><time>2025-9-19T12:36:35Z</time></trkpt>
<trkpt lat="46.38072" lon="7.74113"><ele></ele><time>2025-9-19T12:36:38Z</time></trkpt>
<trkpt lat="46.38066" lon="7.74107"><ele></ele><time>2025-9-19T12:36:41Z</time></trkpt>
<trkpt lat="46.38065" lon="7.74106"><ele></ele><time>2025-9-19T12:36:44Z</time></trkpt>
<trkpt lat="46.38057" lon="7.741"><ele></ele><time>2025-9-19T12:36:47Z</time></trkpt>
<trkpt lat="46.38056" lon="7.74098"><ele></ele><time>2025-9-19T12:36:50Z</time></trkpt>
<trkpt lat="46.38049" lon="7.74092"><ele></ele><time>2025-9-19T12:36:53Z</time></trkpt>
<trkpt lat="46.38046" lon="7.74087"><ele></ele><time>2025-9-19T12:36:56Z</time></trkpt>
<trkpt lat="46.38043" lon="7.74083"><ele></ele><time>2025-9-19T12:36:59Z</time></trkpt>
<trkpt lat="46.38039" lon="7.74077"><ele></ele><time>2025-9-19T12:37:2Z</time></trkpt>
<trkpt lat="46.38037" lon="7.74075"><ele></ele><time>2025-9-19T12:37:5Z</time></trkpt>
<trkpt lat="46.3803" lon="7.74068"><ele></ele><time>2025-9-19T12:37:8Z</time></trkpt>
<trkpt lat="46.38027" lon="7.74067"><ele></ele><time>2025-9-19T12:37:11Z</time></trkpt>
<trkpt lat="46.38022" lon="7.74071"><ele></ele><time>2025-9-19T12:37:14Z</time></trkpt>
<trkpt lat="46.38018" lon="7.7408"><ele></ele><time>2025-9-19T12:37:17Z</time></trkpt>
<trkpt lat="46.38018" lon="7.74081"><ele></ele><time>2025-9-19T12:37:20Z</time></trkpt>
<trkpt lat="46.38015" lon="7.74089"><ele></ele><time>2025-9-19T12:37:23Z</time></trkpt>
<trkpt lat="46.38015" lon="7.7409"><ele></ele><time>2025-9-19T12:37:26Z</time></trkpt>
<trkpt lat="46.38013" lon="7.74099"><ele></ele><time>2025-9-19T12:37:29Z</time></trkpt>
<trkpt lat="46.38012" lon="7.741"><ele></ele><time>2025-9-19T12:37:32Z</time></trkpt>
<trkpt lat="46.38011" lon="7.74103"><ele></ele><time>2025-9-19T12:37:35Z</time></trkpt>
<trkpt lat="46.38011" lon="7.74106"><ele></ele><time>2025-9-19T12:37:38Z</time></trkpt>
<trkpt lat="46.3801" lon="7.74111"><ele></ele><time>2025-9-19T12:37:41Z</time></trkpt>
<trkpt lat="46.38007" lon="7.74118"><ele></ele><time>2025-9-19T12:37:44Z</time></trkpt>
<trkpt lat="46.38006" lon="7.74121"><ele></ele><time>2025-9-19T12:37:47Z</time></trkpt>
<trkpt lat="46.38007" lon="7.74125"><ele></ele><time>2025-9-19T12:37:50Z</time></trkpt>
<trkpt lat="46.38007" lon="7.7413"><ele></ele><time>2025-9-19T12:37:53Z</time></trkpt>
<trkpt lat="46.38006" lon="7.74133"><ele></ele><time>2025-9-19T12:37:56Z</time></trkpt>
<trkpt lat="46.38004" lon="7.7414"><ele></ele><time>2025-9-19T12:37:59Z</time></trkpt>
<trkpt lat="46.38004" lon="7.74142"><ele></ele><time>2025-9-19T12:38:2Z</time></trkpt>
<trkpt lat="46.38005" lon="7.74143"><ele></ele><time>2025-9-19T12:38:5Z</time></trkpt>
<trkpt lat="46.38004" lon="7.74147"><ele></ele><time>2025-9-19T12:38:8Z</time></trkpt>
<trkpt lat="46.38004" lon="7.74151"><ele></ele><time>2025-9-19T12:38:11Z</time></trkpt>
<trkpt lat="46.38004" lon="7.74159"><ele></ele><time>2025-9-19T12:38:14Z</time></trkpt>
<trkpt lat="46.38005" lon="7.74162"><ele></ele><time>2025-9-19T12:38:17Z</time></trkpt>
<trkpt lat="46.38004" lon="7.74169"><ele></ele><time>2025-9-19T12:38:20Z</time></trkpt>
<trkpt lat="46.38004" lon="7.74171"><ele></ele><time>2025-9-19T12:38:23Z</time></trkpt>
<trkpt lat="46.38005" lon="7.74178"><ele></ele><time>2025-9-19T12:38:26Z</time></trkpt>
<trkpt lat="46.38005" lon="7.74179"><ele></ele><time>2025-9-19T12:38:29Z</time></trkpt>
<trkpt lat="46.38005" lon="7.74186"><ele></ele><time>2025-9-19T12:38:32Z</time></trkpt>
<trkpt lat="46.38006" lon="7.74191"><ele></ele><time>2025-9-19T12:38:35Z</time></trkpt>
<trkpt lat="46.38007" lon="7.74197"><ele></ele><time>2025-9-19T12:38:38Z</time></trkpt>
<trkpt lat="46.38006" lon="7.74203"><ele></ele><time>2025-9-19T12:38:41Z</time></trkpt>
<trkpt lat="46.38006" lon="7.74206"><ele></ele><time>2025-9-19T12:38:44Z</time></trkpt>
<trkpt lat="46.38003" lon="7.74215"><ele></ele><time>2025-9-19T12:38:47Z</time></trkpt>
<trkpt lat="46.38003" lon="7.74216"><ele></ele><time>2025-9-19T12:38:50Z</time></trkpt>
<trkpt lat="46.38002" lon="7.74218"><ele></ele><time>2025-9-19T12:38:53Z</time></trkpt>
<trkpt lat="46.38" lon="7.74224"><ele></ele><time>2025-9-19T12:38:56Z</time></trkpt>
<trkpt lat="46.37999" lon="7.74227"><ele></ele><time>2025-9-19T12:38:59Z</time></trkpt>
<trkpt lat="46.37999" lon="7.74233"><ele></ele><time>2025-9-19T12:39:2Z</time></trkpt>
<trkpt lat="46.37999" lon="7.74237"><ele></ele><time>2025-9-19T12:39:5Z</time></trkpt>
<trkpt lat="46.37998" lon="7.74243"><ele></ele><time>2025-9-19T12:39:8Z</time></trkpt>
<trkpt lat="46.37997" lon="7.74249"><ele></ele><time>2025-9-19T12:39:11Z</time></trkpt>
<trkpt lat="46.37997" lon="7.74251"><ele></ele><time>2025-9-19T12:39:14Z</time></trkpt>
<trkpt lat="46.37996" lon="7.74262"><ele></ele><time>2025-9-19T12:39:17Z</time></trkpt>
<trkpt lat="46.37995" lon="7.74272"><ele></ele><time>2025-9-19T12:39:20Z</time></trkpt>
<trkpt lat="46.37995" lon="7.74274"><ele></ele><time>2025-9-19T12:39:23Z</time></trkpt>
<trkpt lat="46.37993" lon="7.74282"><ele></ele><time>2025-9-19T12:39:26Z</time></trkpt>
<trkpt lat="46.37992" lon="7.74284"><ele></ele><time>2025-9-19T12:39:29Z</time></trkpt>
<trkpt lat="46.37991" lon="7.74291"><ele></ele><time>2025-9-19T12:39:32Z</time></trkpt>
<trkpt lat="46.37991" lon="7.74293"><ele></ele><time>2025-9-19T12:39:35Z</time></trkpt>
<trkpt lat="46.37991" lon="7.74295"><ele></ele><time>2025-9-19T12:39:38Z</time></trkpt>
<trkpt lat="46.37989" lon="7.74302"><ele></ele><time>2025-9-19T12:39:41Z</time></trkpt>
<trkpt lat="46.37989" lon="7.74304"><ele></ele><time>2025-9-19T12:39:44Z</time></trkpt>
<trkpt lat="46.37988" lon="7.74314"><ele></ele><time>2025-9-19T12:39:47Z</time></trkpt>
<trkpt lat="46.37987" lon="7.74315"><ele></ele><time>2025-9-19T12:39:50Z</time></trkpt>
<trkpt lat="46.37982" lon="7.7432"><ele></ele><time>2025-9-19T12:39:53Z</time></trkpt>
<trkpt lat="46.37982" lon="7.74322"><ele></ele><time>2025-9-19T12:39:56Z</time></trkpt>
<trkpt lat="46.3798" lon="7.74327"><ele></ele><time>2025-9-19T12:39:59Z</time></trkpt>
<trkpt lat="46.37978" lon="7.74331"><ele></ele><time>2025-9-19T12:40:2Z</time></trkpt>
<trkpt lat="46.37978" lon="7.74335"><ele></ele><time>2025-9-19T12:40:5Z</time></trkpt>
<trkpt lat="46.37977" lon="7.74342"><ele></ele><time>2025-9-19T12:40:8Z</time></trkpt>
<trkpt lat="46.37976" lon="7.74344"><ele></ele><time>2025-9-19T12:40:11Z</time></trkpt>
<trkpt lat="46.37975" lon="7.74353"><ele></ele><time>2025-9-19T12:40:14Z</time></trkpt>
<trkpt lat="46.37975" lon="7.74357"><ele></ele><time>2025-9-19T12:40:17Z</time></trkpt>
<trkpt lat="46.37974" lon="7.74364"><ele></ele><time>2025-9-19T12:40:20Z</time></trkpt>
<trkpt lat="46.37972" lon="7.74369"><ele></ele><time>2025-9-19T12:40:23Z</time></trkpt>
<trkpt lat="46.37971" lon="7.74374"><ele></ele><time>2025-9-19T12:40:26Z</time></trkpt>
<trkpt lat="46.3797" lon="7.74379"><ele></ele><time>2025-9-19T12:40:29Z</time></trkpt>
<trkpt lat="46.37968" lon="7.74384"><ele></ele><time>2025-9-19T12:40:32Z</time></trkpt>
<trkpt lat="46.37967" lon="7.74385"><ele></ele><time>2025-9-19T12:40:35Z</time></trkpt>
<trkpt lat="46.37967" lon="7.74385"><ele></ele><time>2025-9-19T12:40:38Z</time></trkpt>
<trkpt lat="46.37967" lon="7.74385"><ele></ele><time>2025-9-19T12:40:41Z</time></trkpt>
<trkpt lat="46.37964" lon="7.74388"><ele></ele><time>2025-9-19T12:40:44Z</time></trkpt>
<trkpt lat="46.3796" lon="7.74394"><ele></ele><time>2025-9-19T12:40:47Z</time></trkpt>
<trkpt lat="46.37956" lon="7.74398"><ele></ele><time>2025-9-19T12:40:50Z</time></trkpt>
<trkpt lat="46.37951" lon="7.744"><ele></ele><time>2025-9-19T12:40:53Z</time></trkpt>
<trkpt lat="46.37947" lon="7.744"><ele></ele><time>2025-9-19T12:40:56Z</time></trkpt>
<trkpt lat="46.37942" lon="7.744"><ele></ele><time>2025-9-19T12:40:59Z</time></trkpt>
<trkpt lat="46.37937" lon="7.74399"><ele></ele><time>2025-9-19T12:41:2Z</time></trkpt>
<trkpt lat="46.37933" lon="7.74398"><ele></ele><time>2025-9-19T12:41:5Z</time></trkpt>
<trkpt lat="46.37927" lon="7.74397"><ele></ele><time>2025-9-19T12:41:8Z</time></trkpt>
<trkpt lat="46.37926" lon="7.74396"><ele></ele><time>2025-9-19T12:41:11Z</time></trkpt>
<trkpt lat="46.37919" lon="7.74391"><ele></ele><time>2025-9-19T12:41:14Z</time></trkpt>
<trkpt lat="46.37913" lon="7.74387"><ele></ele><time>2025-9-19T12:41:17Z</time></trkpt>
<trkpt lat="46.37911" lon="7.74386"><ele></ele><time>2025-9-19T12:41:20Z</time></trkpt>
<trkpt lat="46.37907" lon="7.74384"><ele></ele><time>2025-9-19T12:41:23Z</time></trkpt>
<trkpt lat="46.37902" lon="7.74383"><ele></ele><time>2025-9-19T12:41:26Z</time></trkpt>
<trkpt lat="46.379" lon="7.74383"><ele></ele><time>2025-9-19T12:41:29Z</time></trkpt>
<trkpt lat="46.37895" lon="7.74383"><ele></ele><time>2025-9-19T12:41:32Z</time></trkpt>
<trkpt lat="46.37894" lon="7.74383"><ele></ele><time>2025-9-19T12:41:35Z</time></trkpt>
<trkpt lat="46.37887" lon="7.7438"><ele></ele><time>2025-9-19T12:41:38Z</time></trkpt>
<trkpt lat="46.37881" lon="7.74375"><ele></ele><time>2025-9-19T12:41:41Z</time></trkpt>
<trkpt lat="46.37877" lon="7.74365"><ele></ele><time>2025-9-19T12:41:44Z</time></trkpt>
<trkpt lat="46.37876" lon="7.74361"><ele></ele><time>2025-9-19T12:41:47Z</time></trkpt>
<trkpt lat="46.37875" lon="7.74356"><ele></ele><time>2025-9-19T12:41:50Z</time></trkpt>
<trkpt lat="46.37874" lon="7.74355"><ele></ele><time>2025-9-19T12:41:53Z</time></trkpt>
<trkpt lat="46.37873" lon="7.74353"><ele></ele><time>2025-9-19T12:41:56Z</time></trkpt>
<trkpt lat="46.37868" lon="7.74346"><ele></ele><time>2025-9-19T12:41:59Z</time></trkpt>
<trkpt lat="46.37867" lon="7.74344"><ele></ele><time>2025-9-19T12:42:2Z</time></trkpt>
<trkpt lat="46.37863" lon="7.74337"><ele></ele><time>2025-9-19T12:42:5Z</time></trkpt>
<trkpt lat="46.37863" lon="7.74337"><ele></ele><time>2025-9-19T12:42:8Z</time></trkpt>
<trkpt lat="46.37863" lon="7.74337"><ele></ele><time>2025-9-19T12:42:11Z</time></trkpt>
<trkpt lat="46.37863" lon="7.74337"><ele></ele><time>2025-9-19T12:42:14Z</time></trkpt>
<trkpt lat="46.37863" lon="7.74336"><ele></ele><time>2025-9-19T12:42:17Z</time></trkpt>
<trkpt lat="46.37863" lon="7.74337"><ele></ele><time>2025-9-19T12:42:20Z</time></trkpt>
<trkpt lat="46.37863" lon="7.74337"><ele></ele><time>2025-9-19T12:42:23Z</time></trkpt>
<trkpt lat="46.37863" lon="7.74337"><ele></ele><time>2025-9-19T12:42:26Z</time></trkpt>
<trkpt lat="46.37863" lon="7.74337"><ele></ele><time>2025-9-19T12:42:29Z</time></trkpt>
<trkpt lat="46.37863" lon="7.74337"><ele></ele><time>2025-9-19T12:42:32Z</time></trkpt>
<trkpt lat="46.37863" lon="7.74337"><ele></ele><time>2025-9-19T12:42:35Z</time></trkpt>
<trkpt lat="46.37863" lon="7.74337"><ele></ele><time>2025-9-19T12:42:38Z</time></trkpt>
<trkpt lat="46.37863" lon="7.74337"><ele></ele><time>2025-9-19T12:42:41Z</time></trkpt>
<trkpt lat="46.37863" lon="7.74337"><ele></ele><time>2025-9-19T12:42:44Z</time></trkpt>
<trkpt lat="46.37863" lon="7.74337"><ele></ele><time>2025-9-19T12:42:47Z</time></trkpt>
<trkpt lat="46.37863" lon="7.74337"><ele></ele><time>2025-9-19T12:42:50Z</time></trkpt>
<trkpt lat="46.37863" lon="7.74337"><ele></ele><time>2025-9-19T12:42:53Z</time></trkpt>
<trkpt lat="46.37863" lon="7.74337"><ele></ele><time>2025-9-19T12:42:56Z</time></trkpt>
<trkpt lat="46.37863" lon="7.74337"><ele></ele><time>2025-9-19T12:42:59Z</time></trkpt>
<trkpt lat="46.37863" lon="7.74337"><ele></ele><time>2025-9-19T12:43:2Z</time></trkpt>
<trkpt lat="46.37862" lon="7.74333"><ele></ele><time>2025-9-19T12:43:5Z</time></trkpt>
<trkpt lat="46.37857" lon="7.74322"><ele></ele><time>2025-9-19T12:43:8Z</time></trkpt>
<trkpt lat="46.37853" lon="7.74314"><ele></ele><time>2025-9-19T12:43:11Z</time></trkpt>
<trkpt lat="46.37849" lon="7.74308"><ele></ele><time>2025-9-19T12:43:14Z</time></trkpt>
<trkpt lat="46.37847" lon="7.74305"><ele></ele><time>2025-9-19T12:43:17Z</time></trkpt>
<trkpt lat="46.37843" lon="7.743"><ele></ele><time>2025-9-19T12:43:20Z</time></trkpt>
<trkpt lat="46.37841" lon="7.74298"><ele></ele><time>2025-9-19T12:43:23Z</time></trkpt>
<trkpt lat="46.37837" lon="7.74293"><ele></ele><time>2025-9-19T12:43:26Z</time></trkpt>
<trkpt lat="46.37837" lon="7.74292"><ele></ele><time>2025-9-19T12:43:29Z</time></trkpt>
<trkpt lat="46.37833" lon="7.74287"><ele></ele><time>2025-9-19T12:43:32Z</time></trkpt>
<trkpt lat="46.37831" lon="7.74285"><ele></ele><time>2025-9-19T12:43:35Z</time></trkpt>
<trkpt lat="46.3783" lon="7.74284"><ele></ele><time>2025-9-19T12:43:38Z</time></trkpt>
<trkpt lat="46.37826" lon="7.74279"><ele></ele><time>2025-9-19T12:43:41Z</time></trkpt>
<trkpt lat="46.37823" lon="7.74275"><ele></ele><time>2025-9-19T12:43:44Z</time></trkpt>
<trkpt lat="46.37821" lon="7.74271"><ele></ele><time>2025-9-19T12:43:47Z</time></trkpt>
<trkpt lat="46.37819" lon="7.74267"><ele></ele><time>2025-9-19T12:43:50Z</time></trkpt>
<trkpt lat="46.37817" lon="7.74264"><ele></ele><time>2025-9-19T12:43:53Z</time></trkpt>
<trkpt lat="46.37814" lon="7.74255"><ele></ele><time>2025-9-19T12:43:56Z</time></trkpt>
<trkpt lat="46.37811" lon="7.74246"><ele></ele><time>2025-9-19T12:43:59Z</time></trkpt>
<trkpt lat="46.3781" lon="7.74245"><ele></ele><time>2025-9-19T12:44:2Z</time></trkpt>
<trkpt lat="46.37806" lon="7.74237"><ele></ele><time>2025-9-19T12:44:5Z</time></trkpt>
<trkpt lat="46.37806" lon="7.74235"><ele></ele><time>2025-9-19T12:44:8Z</time></trkpt>
<trkpt lat="46.37803" lon="7.74228"><ele></ele><time>2025-9-19T12:44:11Z</time></trkpt>
<trkpt lat="46.37802" lon="7.74226"><ele></ele><time>2025-9-19T12:44:14Z</time></trkpt>
<trkpt lat="46.37799" lon="7.74219"><ele></ele><time>2025-9-19T12:44:17Z</time></trkpt>
<trkpt lat="46.37797" lon="7.74214"><ele></ele><time>2025-9-19T12:44:20Z</time></trkpt>
<trkpt lat="46.37795" lon="7.74209"><ele></ele><time>2025-9-19T12:44:23Z</time></trkpt>
<trkpt lat="46.37792" lon="7.74204"><ele></ele><time>2025-9-19T12:44:26Z</time></trkpt>
<trkpt lat="46.37791" lon="7.74202"><ele></ele><time>2025-9-19T12:44:29Z</time></trkpt>
<trkpt lat="46.37786" lon="7.74196"><ele></ele><time>2025-9-19T12:44:32Z</time></trkpt>
<trkpt lat="46.37784" lon="7.74194"><ele></ele><time>2025-9-19T12:44:35Z</time></trkpt>
<trkpt lat="46.37782" lon="7.7419"><ele></ele><time>2025-9-19T12:44:38Z</time></trkpt>
<trkpt lat="46.37781" lon="7.7419"><ele></ele><time>2025-9-19T12:44:41Z</time></trkpt>
<trkpt lat="46.37776" lon="7.74184"><ele></ele><time>2025-9-19T12:44:44Z</time></trkpt>
<trkpt lat="46.37774" lon="7.74181"><ele></ele><time>2025-9-19T12:44:47Z</time></trkpt>
<trkpt lat="46.37772" lon="7.74178"><ele></ele><time>2025-9-19T12:44:50Z</time></trkpt>
<trkpt lat="46.37768" lon="7.74172"><ele></ele><time>2025-9-19T12:44:53Z</time></trkpt>
<trkpt lat="46.37768" lon="7.74171"><ele></ele><time>2025-9-19T12:44:56Z</time></trkpt>
<trkpt lat="46.37763" lon="7.74165"><ele></ele><time>2025-9-19T12:44:59Z</time></trkpt>
<trkpt lat="46.37763" lon="7.74164"><ele></ele><time>2025-9-19T12:45:2Z</time></trkpt>
<trkpt lat="46.37756" lon="7.74157"><ele></ele><time>2025-9-19T12:45:5Z</time></trkpt>
<trkpt lat="46.37753" lon="7.74153"><ele></ele><time>2025-9-19T12:45:8Z</time></trkpt>
<trkpt lat="46.37751" lon="7.7415"><ele></ele><time>2025-9-19T12:45:11Z</time></trkpt>
<trkpt lat="46.37745" lon="7.74144"><ele></ele><time>2025-9-19T12:45:14Z</time></trkpt>
<trkpt lat="46.37743" lon="7.74142"><ele></ele><time>2025-9-19T12:45:17Z</time></trkpt>
<trkpt lat="46.37739" lon="7.74138"><ele></ele><time>2025-9-19T12:45:20Z</time></trkpt>
<trkpt lat="46.37737" lon="7.74136"><ele></ele><time>2025-9-19T12:45:23Z</time></trkpt>
<trkpt lat="46.37732" lon="7.74129"><ele></ele><time>2025-9-19T12:45:26Z</time></trkpt>
<trkpt lat="46.37725" lon="7.74121"><ele></ele><time>2025-9-19T12:45:29Z</time></trkpt>
<trkpt lat="46.37724" lon="7.74121"><ele></ele><time>2025-9-19T12:45:32Z</time></trkpt>
<trkpt lat="46.37719" lon="7.74113"><ele></ele><time>2025-9-19T12:45:35Z</time></trkpt>
<trkpt lat="46.37718" lon="7.74112"><ele></ele><time>2025-9-19T12:45:38Z</time></trkpt>
<trkpt lat="46.37713" lon="7.74105"><ele></ele><time>2025-9-19T12:45:41Z</time></trkpt>
<trkpt lat="46.37712" lon="7.74104"><ele></ele><time>2025-9-19T12:45:44Z</time></trkpt>
<trkpt lat="46.37707" lon="7.74095"><ele></ele><time>2025-9-19T12:45:47Z</time></trkpt>
<trkpt lat="46.37707" lon="7.74093"><ele></ele><time>2025-9-19T12:45:50Z</time></trkpt>
<trkpt lat="46.37701" lon="7.74087"><ele></ele><time>2025-9-19T12:45:53Z</time></trkpt>
<trkpt lat="46.37693" lon="7.74081"><ele></ele><time>2025-9-19T12:45:56Z</time></trkpt>
<trkpt lat="46.37687" lon="7.74078"><ele></ele><time>2025-9-19T12:45:59Z</time></trkpt>
<trkpt lat="46.37684" lon="7.74077"><ele></ele><time>2025-9-19T12:46:2Z</time></trkpt>
<trkpt lat="46.37682" lon="7.74075"><ele></ele><time>2025-9-19T12:46:5Z</time></trkpt>
<trkpt lat="46.37675" lon="7.74072"><ele></ele><time>2025-9-19T12:46:8Z</time></trkpt>
<trkpt lat="46.37674" lon="7.74071"><ele></ele><time>2025-9-19T12:46:11Z</time></trkpt>
<trkpt lat="46.3767" lon="7.74069"><ele></ele><time>2025-9-19T12:46:14Z</time></trkpt>
<trkpt lat="46.37668" lon="7.74068"><ele></ele><time>2025-9-19T12:46:17Z</time></trkpt>
<trkpt lat="46.37662" lon="7.74066"><ele></ele><time>2025-9-19T12:46:20Z</time></trkpt>
<trkpt lat="46.3766" lon="7.74065"><ele></ele><time>2025-9-19T12:46:23Z</time></trkpt>
<trkpt lat="46.37656" lon="7.74064"><ele></ele><time>2025-9-19T12:46:26Z</time></trkpt>
<trkpt lat="46.37651" lon="7.74059"><ele></ele><time>2025-9-19T12:46:29Z</time></trkpt>
<trkpt lat="46.3765" lon="7.74059"><ele></ele><time>2025-9-19T12:46:32Z</time></trkpt>
<trkpt lat="46.37643" lon="7.74054"><ele></ele><time>2025-9-19T12:46:35Z</time></trkpt>
<trkpt lat="46.37642" lon="7.74053"><ele></ele><time>2025-9-19T12:46:38Z</time></trkpt>
<trkpt lat="46.37635" lon="7.74049"><ele></ele><time>2025-9-19T12:46:41Z</time></trkpt>
<trkpt lat="46.37634" lon="7.74049"><ele></ele><time>2025-9-19T12:46:44Z</time></trkpt>
<trkpt lat="46.37628" lon="7.74044"><ele></ele><time>2025-9-19T12:46:47Z</time></trkpt>
<trkpt lat="46.37621" lon="7.74041"><ele></ele><time>2025-9-19T12:46:50Z</time></trkpt>
<trkpt lat="46.37619" lon="7.7404"><ele></ele><time>2025-9-19T12:46:53Z</time></trkpt>
<trkpt lat="46.37615" lon="7.74038"><ele></ele><time>2025-9-19T12:46:56Z</time></trkpt>
<trkpt lat="46.37611" lon="7.74038"><ele></ele><time>2025-9-19T12:46:59Z</time></trkpt>
<trkpt lat="46.37605" lon="7.74036"><ele></ele><time>2025-9-19T12:47:2Z</time></trkpt>
<trkpt lat="46.37603" lon="7.74034"><ele></ele><time>2025-9-19T12:47:5Z</time></trkpt>
<trkpt lat="46.37598" lon="7.74033"><ele></ele><time>2025-9-19T12:47:8Z</time></trkpt>
<trkpt lat="46.37596" lon="7.74032"><ele></ele><time>2025-9-19T12:47:11Z</time></trkpt>
<trkpt lat="46.37591" lon="7.74028"><ele></ele><time>2025-9-19T12:47:14Z</time></trkpt>
<trkpt lat="46.37588" lon="7.74025"><ele></ele><time>2025-9-19T12:47:17Z</time></trkpt>
<trkpt lat="46.37587" lon="7.74025"><ele></ele><time>2025-9-19T12:47:20Z</time></trkpt>
<trkpt lat="46.37585" lon="7.74023"><ele></ele><time>2025-9-19T12:47:23Z</time></trkpt>
<trkpt lat="46.3758" lon="7.74018"><ele></ele><time>2025-9-19T12:47:26Z</time></trkpt>
<trkpt lat="46.37575" lon="7.74014"><ele></ele><time>2025-9-19T12:47:29Z</time></trkpt>
<trkpt lat="46.37572" lon="7.74012"><ele></ele><time>2025-9-19T12:47:32Z</time></trkpt>
<trkpt lat="46.37568" lon="7.74011"><ele></ele><time>2025-9-19T12:47:35Z</time></trkpt>
<trkpt lat="46.37564" lon="7.7401"><ele></ele><time>2025-9-19T12:47:38Z</time></trkpt>
<trkpt lat="46.37561" lon="7.7401"><ele></ele><time>2025-9-19T12:47:41Z</time></trkpt>
<trkpt lat="46.37554" lon="7.74009"><ele></ele><time>2025-9-19T12:47:44Z</time></trkpt>
<trkpt lat="46.37553" lon="7.74009"><ele></ele><time>2025-9-19T12:47:47Z</time></trkpt>
<trkpt lat="46.37546" lon="7.74008"><ele></ele><time>2025-9-19T12:47:50Z</time></trkpt>
<trkpt lat="46.37545" lon="7.74008"><ele></ele><time>2025-9-19T12:47:53Z</time></trkpt>
<trkpt lat="46.37537" lon="7.7401"><ele></ele><time>2025-9-19T12:47:56Z</time></trkpt>
<trkpt lat="46.37534" lon="7.7401"><ele></ele><time>2025-9-19T12:47:59Z</time></trkpt>
<trkpt lat="46.3753" lon="7.74011"><ele></ele><time>2025-9-19T12:48:2Z</time></trkpt>
<trkpt lat="46.37527" lon="7.74011"><ele></ele><time>2025-9-19T12:48:5Z</time></trkpt>
<trkpt lat="46.37519" lon="7.7401"><ele></ele><time>2025-9-19T12:48:8Z</time></trkpt>
<trkpt lat="46.37517" lon="7.7401"><ele></ele><time>2025-9-19T12:48:11Z</time></trkpt>
<trkpt lat="46.37508" lon="7.74008"><ele></ele><time>2025-9-19T12:48:14Z</time></trkpt>
<trkpt lat="46.37507" lon="7.74008"><ele></ele><time>2025-9-19T12:48:17Z</time></trkpt>
<trkpt lat="46.37498" lon="7.74008"><ele></ele><time>2025-9-19T12:48:20Z</time></trkpt>
<trkpt lat="46.3749" lon="7.74009"><ele></ele><time>2025-9-19T12:48:23Z</time></trkpt>
<trkpt lat="46.37486" lon="7.74008"><ele></ele><time>2025-9-19T12:48:26Z</time></trkpt>
<trkpt lat="46.37482" lon="7.74008"><ele></ele><time>2025-9-19T12:48:29Z</time></trkpt>
<trkpt lat="46.37477" lon="7.74008"><ele></ele><time>2025-9-19T12:48:32Z</time></trkpt>
<trkpt lat="46.37473" lon="7.74008"><ele></ele><time>2025-9-19T12:48:35Z</time></trkpt>
<trkpt lat="46.37468" lon="7.74008"><ele></ele><time>2025-9-19T12:48:38Z</time></trkpt>
<trkpt lat="46.37465" lon="7.74008"><ele></ele><time>2025-9-19T12:48:41Z</time></trkpt>
<trkpt lat="46.37459" lon="7.74005"><ele></ele><time>2025-9-19T12:48:44Z</time></trkpt>
<trkpt lat="46.37457" lon="7.74005"><ele></ele><time>2025-9-19T12:48:47Z</time></trkpt>
<trkpt lat="46.37451" lon="7.74007"><ele></ele><time>2025-9-19T12:48:50Z</time></trkpt>
<trkpt lat="46.37445" lon="7.74008"><ele></ele><time>2025-9-19T12:48:53Z</time></trkpt>
<trkpt lat="46.3744" lon="7.74006"><ele></ele><time>2025-9-19T12:48:56Z</time></trkpt>
<trkpt lat="46.37438" lon="7.74003"><ele></ele><time>2025-9-19T12:48:59Z</time></trkpt>
<trkpt lat="46.37438" lon="7.73997"><ele></ele><time>2025-9-19T12:49:2Z</time></trkpt>
<trkpt lat="46.3744" lon="7.73993"><ele></ele><time>2025-9-19T12:49:5Z</time></trkpt>
<trkpt lat="46.37444" lon="7.73991"><ele></ele><time>2025-9-19T12:49:8Z</time></trkpt>
<trkpt lat="46.37449" lon="7.73992"><ele></ele><time>2025-9-19T12:49:11Z</time></trkpt>
<trkpt lat="46.37455" lon="7.73995"><ele></ele><time>2025-9-19T12:49:14Z</time></trkpt>
<trkpt lat="46.37459" lon="7.73994"><ele></ele><time>2025-9-19T12:49:17Z</time></trkpt>
<trkpt lat="46.37463" lon="7.73994"><ele></ele><time>2025-9-19T12:49:20Z</time></trkpt>
<trkpt lat="46.37469" lon="7.73994"><ele></ele><time>2025-9-19T12:49:23Z</time></trkpt>
<trkpt lat="46.37471" lon="7.73992"><ele></ele><time>2025-9-19T12:49:26Z</time></trkpt>
<trkpt lat="46.37478" lon="7.7399"><ele></ele><time>2025-9-19T12:49:29Z</time></trkpt>
<trkpt lat="46.37483" lon="7.73989"><ele></ele><time>2025-9-19T12:49:32Z</time></trkpt>
<trkpt lat="46.37484" lon="7.73989"><ele></ele><time>2025-9-19T12:49:35Z</time></trkpt>
<trkpt lat="46.37489" lon="7.73986"><ele></ele><time>2025-9-19T12:49:38Z</time></trkpt>
<trkpt lat="46.3749" lon="7.73986"><ele></ele><time>2025-9-19T12:49:41Z</time></trkpt>
<trkpt lat="46.37492" lon="7.73985"><ele></ele><time>2025-9-19T12:49:44Z</time></trkpt>
<trkpt lat="46.37498" lon="7.73979"><ele></ele><time>2025-9-19T12:49:47Z</time></trkpt>
<trkpt lat="46.37499" lon="7.73979"><ele></ele><time>2025-9-19T12:49:50Z</time></trkpt>
<trkpt lat="46.37504" lon="7.73979"><ele></ele><time>2025-9-19T12:49:53Z</time></trkpt>
<trkpt lat="46.37507" lon="7.73976"><ele></ele><time>2025-9-19T12:49:56Z</time></trkpt>
<trkpt lat="46.3751" lon="7.73975"><ele></ele><time>2025-9-19T12:49:59Z</time></trkpt>
<trkpt lat="46.37517" lon="7.73973"><ele></ele><time>2025-9-19T12:50:2Z</time></trkpt>
<trkpt lat="46.37521" lon="7.73972"><ele></ele><time>2025-9-19T12:50:5Z</time></trkpt>
<trkpt lat="46.37524" lon="7.73971"><ele></ele><time>2025-9-19T12:50:8Z</time></trkpt>
<trkpt lat="46.37529" lon="7.73969"><ele></ele><time>2025-9-19T12:50:11Z</time></trkpt>
<trkpt lat="46.37533" lon="7.73967"><ele></ele><time>2025-9-19T12:50:14Z</time></trkpt>
<trkpt lat="46.37539" lon="7.73962"><ele></ele><time>2025-9-19T12:50:17Z</time></trkpt>
<trkpt lat="46.37543" lon="7.73959"><ele></ele><time>2025-9-19T12:50:20Z</time></trkpt>
<trkpt lat="46.37547" lon="7.73958"><ele></ele><time>2025-9-19T12:50:23Z</time></trkpt>
<trkpt lat="46.37552" lon="7.73955"><ele></ele><time>2025-9-19T12:50:26Z</time></trkpt>
<trkpt lat="46.37555" lon="7.73955"><ele></ele><time>2025-9-19T12:50:29Z</time></trkpt>
<trkpt lat="46.37558" lon="7.73954"><ele></ele><time>2025-9-19T12:50:32Z</time></trkpt>
<trkpt lat="46.37559" lon="7.73954"><ele></ele><time>2025-9-19T12:50:35Z</time></trkpt>
<trkpt lat="46.37562" lon="7.73953"><ele></ele><time>2025-9-19T12:50:38Z</time></trkpt>
<trkpt lat="46.37562" lon="7.73952"><ele></ele><time>2025-9-19T12:50:41Z</time></trkpt>
<trkpt lat="46.37563" lon="7.73952"><ele></ele><time>2025-9-19T12:50:44Z</time></trkpt>
<trkpt lat="46.37567" lon="7.73949"><ele></ele><time>2025-9-19T12:50:47Z</time></trkpt>
<trkpt lat="46.37571" lon="7.73949"><ele></ele><time>2025-9-19T12:50:50Z</time></trkpt>
<trkpt lat="46.37575" lon="7.73949"><ele></ele><time>2025-9-19T12:50:53Z</time></trkpt>
<trkpt lat="46.37581" lon="7.73951"><ele></ele><time>2025-9-19T12:50:56Z</time></trkpt>
<trkpt lat="46.37587" lon="7.73952"><ele></ele><time>2025-9-19T12:50:59Z</time></trkpt>
<trkpt lat="46.3759" lon="7.73952"><ele></ele><time>2025-9-19T12:51:2Z</time></trkpt>
<trkpt lat="46.37594" lon="7.73952"><ele></ele><time>2025-9-19T12:51:5Z</time></trkpt>
<trkpt lat="46.376" lon="7.73953"><ele></ele><time>2025-9-19T12:51:8Z</time></trkpt>
<trkpt lat="46.37606" lon="7.73954"><ele></ele><time>2025-9-19T12:51:11Z</time></trkpt>
<trkpt lat="46.37613" lon="7.73955"><ele></ele><time>2025-9-19T12:51:14Z</time></trkpt>
<trkpt lat="46.37616" lon="7.73955"><ele></ele><time>2025-9-19T12:51:17Z</time></trkpt>
<trkpt lat="46.37621" lon="7.73958"><ele></ele><time>2025-9-19T12:51:20Z</time></trkpt>
<trkpt lat="46.37622" lon="7.73958"><ele></ele><time>2025-9-19T12:51:23Z</time></trkpt>
<trkpt lat="46.37626" lon="7.73958"><ele></ele><time>2025-9-19T12:51:26Z</time></trkpt>
<trkpt lat="46.37629" lon="7.73957"><ele></ele><time>2025-9-19T12:51:29Z</time></trkpt>
<trkpt lat="46.37634" lon="7.73955"><ele></ele><time>2025-9-19T12:51:32Z</time></trkpt>
<trkpt lat="46.37636" lon="7.73955"><ele></ele><time>2025-9-19T12:51:35Z</time></trkpt>
<trkpt lat="46.3764" lon="7.73953"><ele></ele><time>2025-9-19T12:51:38Z</time></trkpt>
<trkpt lat="46.37646" lon="7.73952"><ele></ele><time>2025-9-19T12:51:41Z</time></trkpt>
<trkpt lat="46.37652" lon="7.7395"><ele></ele><time>2025-9-19T12:51:44Z</time></trkpt>
<trkpt lat="46.37656" lon="7.73949"><ele></ele><time>2025-9-19T12:51:47Z</time></trkpt>
<trkpt lat="46.37659" lon="7.73948"><ele></ele><time>2025-9-19T12:51:50Z</time></trkpt>
<trkpt lat="46.37665" lon="7.73946"><ele></ele><time>2025-9-19T12:51:53Z</time></trkpt>
<trkpt lat="46.37667" lon="7.73945"><ele></ele><time>2025-9-19T12:51:56Z</time></trkpt>
<trkpt lat="46.37673" lon="7.73943"><ele></ele><time>2025-9-19T12:51:59Z</time></trkpt>
<trkpt lat="46.37674" lon="7.73943"><ele></ele><time>2025-9-19T12:52:2Z</time></trkpt>
<trkpt lat="46.3768" lon="7.73944"><ele></ele><time>2025-9-19T12:52:5Z</time></trkpt>
<trkpt lat="46.37681" lon="7.73944"><ele></ele><time>2025-9-19T12:52:8Z</time></trkpt>
<trkpt lat="46.37685" lon="7.73947"><ele></ele><time>2025-9-19T12:52:11Z</time></trkpt>
<trkpt lat="46.37689" lon="7.73948"><ele></ele><time>2025-9-19T12:52:14Z</time></trkpt>
<trkpt lat="46.3769" lon="7.73948"><ele></ele><time>2025-9-19T12:52:17Z</time></trkpt>
<trkpt lat="46.37696" lon="7.73952"><ele></ele><time>2025-9-19T12:52:20Z</time></trkpt>
<trkpt lat="46.37698" lon="7.73953"><ele></ele><time>2025-9-19T12:52:23Z</time></trkpt>
<trkpt lat="46.37702" lon="7.73957"><ele></ele><time>2025-9-19T12:52:26Z</time></trkpt>
<trkpt lat="46.37707" lon="7.73959"><ele></ele><time>2025-9-19T12:52:29Z</time></trkpt>
<trkpt lat="46.37709" lon="7.73959"><ele></ele><time>2025-9-19T12:52:32Z</time></trkpt>
<trkpt lat="46.37715" lon="7.7396"><ele></ele><time>2025-9-19T12:52:35Z</time></trkpt>
<trkpt lat="46.37722" lon="7.73961"><ele></ele><time>2025-9-19T12:52:38Z</time></trkpt>
<trkpt lat="46.37726" lon="7.73963"><ele></ele><time>2025-9-19T12:52:41Z</time></trkpt>
<trkpt lat="46.37728" lon="7.73964"><ele></ele><time>2025-9-19T12:52:44Z</time></trkpt>
<trkpt lat="46.3773" lon="7.73965"><ele></ele><time>2025-9-19T12:52:47Z</time></trkpt>
<trkpt lat="46.3773" lon="7.73965"><ele></ele><time>2025-9-19T12:52:50Z</time></trkpt>
<trkpt lat="46.3773" lon="7.73965"><ele></ele><time>2025-9-19T12:52:53Z</time></trkpt>
<trkpt lat="46.3773" lon="7.73965"><ele></ele><time>2025-9-19T12:52:56Z</time></trkpt>
<trkpt lat="46.3773" lon="7.73965"><ele></ele><time>2025-9-19T12:52:59Z</time></trkpt>
<trkpt lat="46.3773" lon="7.73965"><ele></ele><time>2025-9-19T12:53:2Z</time></trkpt>
<trkpt lat="46.3773" lon="7.73965"><ele></ele><time>2025-9-19T12:53:5Z</time></trkpt>
<trkpt lat="46.3773" lon="7.73965"><ele></ele><time>2025-9-19T12:53:8Z</time></trkpt>
<trkpt lat="46.3773" lon="7.73965"><ele></ele><time>2025-9-19T12:53:11Z</time></trkpt>
<trkpt lat="46.3773" lon="7.73965"><ele></ele><time>2025-9-19T12:53:14Z</time></trkpt>
<trkpt lat="46.3773" lon="7.73965"><ele></ele><time>2025-9-19T12:53:17Z</time></trkpt>
<trkpt lat="46.3773" lon="7.73965"><ele></ele><time>2025-9-19T12:53:20Z</time></trkpt>
<trkpt lat="46.3773" lon="7.73965"><ele></ele><time>2025-9-19T12:53:23Z</time></trkpt>
<trkpt lat="46.3773" lon="7.73965"><ele></ele><time>2025-9-19T12:53:26Z</time></trkpt>
<trkpt lat="46.3773" lon="7.73965"><ele></ele><time>2025-9-19T12:53:29Z</time></trkpt>
<trkpt lat="46.3773" lon="7.73965"><ele></ele><time>2025-9-19T12:53:32Z</time></trkpt>
<trkpt lat="46.37732" lon="7.73963"><ele></ele><time>2025-9-19T12:53:35Z</time></trkpt>
<trkpt lat="46.37733" lon="7.73961"><ele></ele><time>2025-9-19T12:53:38Z</time></trkpt>
<trkpt lat="46.37741" lon="7.73963"><ele></ele><time>2025-9-19T12:53:41Z</time></trkpt>
<trkpt lat="46.37746" lon="7.73964"><ele></ele><time>2025-9-19T12:53:44Z</time></trkpt>
<trkpt lat="46.37751" lon="7.73963"><ele></ele><time>2025-9-19T12:53:47Z</time></trkpt>
<trkpt lat="46.37754" lon="7.73963"><ele></ele><time>2025-9-19T12:53:50Z</time></trkpt>
<trkpt lat="46.37761" lon="7.73961"><ele></ele><time>2025-9-19T12:53:53Z</time></trkpt>
<trkpt lat="46.37765" lon="7.73959"><ele></ele><time>2025-9-19T12:53:56Z</time></trkpt>
<trkpt lat="46.37769" lon="7.73958"><ele></ele><time>2025-9-19T12:53:59Z</time></trkpt>
<trkpt lat="46.37775" lon="7.73955"><ele></ele><time>2025-9-19T12:54:2Z</time></trkpt>
<trkpt lat="46.37776" lon="7.73954"><ele></ele><time>2025-9-19T12:54:5Z</time></trkpt>
<trkpt lat="46.37784" lon="7.73954"><ele></ele><time>2025-9-19T12:54:8Z</time></trkpt>
<trkpt lat="46.37787" lon="7.73954"><ele></ele><time>2025-9-19T12:54:11Z</time></trkpt>
<trkpt lat="46.3779" lon="7.73954"><ele></ele><time>2025-9-19T12:54:14Z</time></trkpt>
<trkpt lat="46.37796" lon="7.73954"><ele></ele><time>2025-9-19T12:54:17Z</time></trkpt>
<trkpt lat="46.37798" lon="7.73954"><ele></ele><time>2025-9-19T12:54:20Z</time></trkpt>
<trkpt lat="46.37804" lon="7.73956"><ele></ele><time>2025-9-19T12:54:23Z</time></trkpt>
<trkpt lat="46.37808" lon="7.73956"><ele></ele><time>2025-9-19T12:54:26Z</time></trkpt>
<trkpt lat="46.37812" lon="7.73957"><ele></ele><time>2025-9-19T12:54:29Z</time></trkpt>
<trkpt lat="46.37817" lon="7.73959"><ele></ele><time>2025-9-19T12:54:32Z</time></trkpt>
<trkpt lat="46.37818" lon="7.73959"><ele></ele><time>2025-9-19T12:54:35Z</time></trkpt>
<trkpt lat="46.37823" lon="7.73957"><ele></ele><time>2025-9-19T12:54:38Z</time></trkpt>
<trkpt lat="46.37825" lon="7.73956"><ele></ele><time>2025-9-19T12:54:41Z</time></trkpt>
<trkpt lat="46.37832" lon="7.73953"><ele></ele><time>2025-9-19T12:54:44Z</time></trkpt>
<trkpt lat="46.37834" lon="7.73952"><ele></ele><time>2025-9-19T12:54:47Z</time></trkpt>
<trkpt lat="46.3784" lon="7.73952"><ele></ele><time>2025-9-19T12:54:50Z</time></trkpt>
<trkpt lat="46.37847" lon="7.7395"><ele></ele><time>2025-9-19T12:54:53Z</time></trkpt>
<trkpt lat="46.3785" lon="7.73941"><ele></ele><time>2025-9-19T12:54:56Z</time></trkpt>
<trkpt lat="46.3785" lon="7.73939"><ele></ele><time>2025-9-19T12:54:59Z</time></trkpt>
<trkpt lat="46.37848" lon="7.73934"><ele></ele><time>2025-9-19T12:55:2Z</time></trkpt>
<trkpt lat="46.37843" lon="7.73929"><ele></ele><time>2025-9-19T12:55:5Z</time></trkpt>
<trkpt lat="46.37843" lon="7.73928"><ele></ele><time>2025-9-19T12:55:8Z</time></trkpt>
<trkpt lat="46.37837" lon="7.73923"><ele></ele><time>2025-9-19T12:55:11Z</time></trkpt>
<trkpt lat="46.37836" lon="7.73922"><ele></ele><time>2025-9-19T12:55:14Z</time></trkpt>
<trkpt lat="46.37832" lon="7.73918"><ele></ele><time>2025-9-19T12:55:17Z</time></trkpt>
<trkpt lat="46.37828" lon="7.73916"><ele></ele><time>2025-9-19T12:55:20Z</time></trkpt>
<trkpt lat="46.37823" lon="7.73911"><ele></ele><time>2025-9-19T12:55:23Z</time></trkpt>
<trkpt lat="46.37822" lon="7.7391"><ele></ele><time>2025-9-19T12:55:26Z</time></trkpt>
<trkpt lat="46.37816" lon="7.73908"><ele></ele><time>2025-9-19T12:55:29Z</time></trkpt>
<trkpt lat="46.37811" lon="7.73905"><ele></ele><time>2025-9-19T12:55:32Z</time></trkpt>
<trkpt lat="46.37809" lon="7.73903"><ele></ele><time>2025-9-19T12:55:35Z</time></trkpt>
<trkpt lat="46.37807" lon="7.73903"><ele></ele><time>2025-9-19T12:55:38Z</time></trkpt>
<trkpt lat="46.37806" lon="7.73903"><ele></ele><time>2025-9-19T12:55:41Z</time></trkpt>
<trkpt lat="46.37805" lon="7.73904"><ele></ele><time>2025-9-19T12:55:44Z</time></trkpt>
<trkpt lat="46.37805" lon="7.73904"><ele></ele><time>2025-9-19T12:55:47Z</time></trkpt>
<trkpt lat="46.37805" lon="7.73904"><ele></ele><time>2025-9-19T12:55:50Z</time></trkpt>
<trkpt lat="46.37805" lon="7.73904"><ele></ele><time>2025-9-19T12:55:53Z</time></trkpt>
<trkpt lat="46.37805" lon="7.73904"><ele></ele><time>2025-9-19T12:55:56Z</time></trkpt>
<trkpt lat="46.37805" lon="7.73904"><ele></ele><time>2025-9-19T12:55:59Z</time></trkpt>
<trkpt lat="46.37805" lon="7.73904"><ele></ele><time>2025-9-19T12:56:2Z</time></trkpt>
<trkpt lat="46.37805" lon="7.73904"><ele></ele><time>2025-9-19T12:56:5Z</time></trkpt>
<trkpt lat="46.37805" lon="7.73904"><ele></ele><time>2025-9-19T12:56:8Z</time></trkpt>
<trkpt lat="46.37805" lon="7.73904"><ele></ele><time>2025-9-19T12:56:11Z</time></trkpt>
<trkpt lat="46.37805" lon="7.73904"><ele></ele><time>2025-9-19T12:56:14Z</time></trkpt>
<trkpt lat="46.37805" lon="7.73904"><ele></ele><time>2025-9-19T12:56:17Z</time></trkpt>
<trkpt lat="46.37805" lon="7.73904"><ele></ele><time>2025-9-19T12:56:20Z</time></trkpt>
<trkpt lat="46.37805" lon="7.73904"><ele></ele><time>2025-9-19T12:56:23Z</time></trkpt>
<trkpt lat="46.37805" lon="7.73904"><ele></ele><time>2025-9-19T12:56:26Z</time></trkpt>
<trkpt lat="46.37806" lon="7.73903"><ele></ele><time>2025-9-19T12:56:29Z</time></trkpt>
<trkpt lat="46.37806" lon="7.73903"><ele></ele><time>2025-9-19T12:56:32Z</time></trkpt>
<trkpt lat="46.37807" lon="7.73901"><ele></ele><time>2025-9-19T12:56:35Z</time></trkpt>
<trkpt lat="46.37807" lon="7.73901"><ele></ele><time>2025-9-19T12:56:38Z</time></trkpt>
<trkpt lat="46.37807" lon="7.73901"><ele></ele><time>2025-9-19T12:56:41Z</time></trkpt>
<trkpt lat="46.37807" lon="7.73901"><ele></ele><time>2025-9-19T12:56:44Z</time></trkpt>
<trkpt lat="46.37808" lon="7.73901"><ele></ele><time>2025-9-19T12:56:47Z</time></trkpt>
<trkpt lat="46.37809" lon="7.739"><ele></ele><time>2025-9-19T12:56:50Z</time></trkpt>
<trkpt lat="46.37809" lon="7.739"><ele></ele><time>2025-9-19T12:56:53Z</time></trkpt>
<trkpt lat="46.37809" lon="7.739"><ele></ele><time>2025-9-19T12:56:56Z</time></trkpt>
<trkpt lat="46.37811" lon="7.73899"><ele></ele><time>2025-9-19T12:56:59Z</time></trkpt>
<trkpt lat="46.37809" lon="7.739"><ele></ele><time>2025-9-19T12:57:2Z</time></trkpt>
<trkpt lat="46.37812" lon="7.73901"><ele></ele><time>2025-9-19T12:57:5Z</time></trkpt>
<trkpt lat="46.37823" lon="7.73911"><ele></ele><time>2025-9-19T12:57:8Z</time></trkpt>
<trkpt lat="46.37828" lon="7.73915"><ele></ele><time>2025-9-19T12:57:11Z</time></trkpt>
<trkpt lat="46.3783" lon="7.73916"><ele></ele><time>2025-9-19T12:57:14Z</time></trkpt>
<trkpt lat="46.37831" lon="7.73916"><ele></ele><time>2025-9-19T12:57:17Z</time></trkpt>
<trkpt lat="46.37829" lon="7.73915"><ele></ele><time>2025-9-19T12:57:20Z</time></trkpt>
<trkpt lat="46.37824" lon="7.73912"><ele></ele><time>2025-9-19T12:57:23Z</time></trkpt>
<trkpt lat="46.37815" lon="7.73907"><ele></ele><time>2025-9-19T12:57:26Z</time></trkpt>
<trkpt lat="46.37811" lon="7.73905"><ele></ele><time>2025-9-19T12:57:29Z</time></trkpt>
<trkpt lat="46.37805" lon="7.73902"><ele></ele><time>2025-9-19T12:57:32Z</time></trkpt>
<trkpt lat="46.37799" lon="7.73898"><ele></ele><time>2025-9-19T12:57:35Z</time></trkpt>
<trkpt lat="46.37797" lon="7.73897"><ele></ele><time>2025-9-19T12:57:38Z</time></trkpt>
<trkpt lat="46.37795" lon="7.73895"><ele></ele><time>2025-9-19T12:57:41Z</time></trkpt>
<trkpt lat="46.37795" lon="7.73892"><ele></ele><time>2025-9-19T12:57:44Z</time></trkpt>
<trkpt lat="46.37796" lon="7.7389"><ele></ele><time>2025-9-19T12:57:47Z</time></trkpt>
<trkpt lat="46.37798" lon="7.73891"><ele></ele><time>2025-9-19T12:57:50Z</time></trkpt>
<trkpt lat="46.37799" lon="7.73897"><ele></ele><time>2025-9-19T12:57:53Z</time></trkpt>
<trkpt lat="46.37799" lon="7.739"><ele></ele><time>2025-9-19T12:57:56Z</time></trkpt>
<trkpt lat="46.378" lon="7.73902"><ele></ele><time>2025-9-19T12:57:59Z</time></trkpt>
<trkpt lat="46.37804" lon="7.73905"><ele></ele><time>2025-9-19T12:58:2Z</time></trkpt>
<trkpt lat="46.37808" lon="7.73904"><ele></ele><time>2025-9-19T12:58:5Z</time></trkpt>
<trkpt lat="46.3781" lon="7.73901"><ele></ele><time>2025-9-19T12:58:8Z</time></trkpt>
<trkpt lat="46.3781" lon="7.73901"><ele></ele><time>2025-9-19T12:58:11Z</time></trkpt>
<trkpt lat="46.3781" lon="7.73901"><ele></ele><time>2025-9-19T12:58:14Z</time></trkpt>
<trkpt lat="46.37808" lon="7.73902"><ele></ele><time>2025-9-19T12:58:17Z</time></trkpt>
<trkpt lat="46.37808" lon="7.73903"><ele></ele><time>2025-9-19T12:58:20Z</time></trkpt>
<trkpt lat="46.37807" lon="7.73905"><ele></ele><time>2025-9-19T12:58:23Z</time></trkpt>
<trkpt lat="46.37806" lon="7.73906"><ele></ele><time>2025-9-19T12:58:26Z</time></trkpt>
<trkpt lat="46.37806" lon="7.73907"><ele></ele><time>2025-9-19T12:58:29Z</time></trkpt>
<trkpt lat="46.37805" lon="7.73908"><ele></ele><time>2025-9-19T12:58:32Z</time></trkpt>
<trkpt lat="46.37805" lon="7.73908"><ele></ele><time>2025-9-19T12:58:35Z</time></trkpt>
<trkpt lat="46.37805" lon="7.73908"><ele></ele><time>2025-9-19T12:58:38Z</time></trkpt>
<trkpt lat="46.37805" lon="7.73908"><ele></ele><time>2025-9-19T12:58:41Z</time></trkpt>
<trkpt lat="46.37805" lon="7.73908"><ele></ele><time>2025-9-19T12:58:44Z</time></trkpt>
<trkpt lat="46.37807" lon="7.73904"><ele></ele><time>2025-9-19T12:58:47Z</time></trkpt>
<trkpt lat="46.37807" lon="7.73903"><ele></ele><time>2025-9-19T12:58:50Z</time></trkpt>
<trkpt lat="46.37805" lon="7.73899"><ele></ele><time>2025-9-19T12:58:53Z</time></trkpt>
<trkpt lat="46.37803" lon="7.73904"><ele></ele><time>2025-9-19T12:58:56Z</time></trkpt>
<trkpt lat="46.37809" lon="7.73912"><ele></ele><time>2025-9-19T12:58:59Z</time></trkpt>
<trkpt lat="46.37811" lon="7.73915"><ele></ele><time>2025-9-19T12:59:2Z</time></trkpt>
<trkpt lat="46.37814" lon="7.73919"><ele></ele><time>2025-9-19T12:59:5Z</time></trkpt>
<trkpt lat="46.37816" lon="7.7392"><ele></ele><time>2025-9-19T12:59:8Z</time></trkpt>
<trkpt lat="46.37819" lon="7.73921"><ele></ele><time>2025-9-19T12:59:11Z</time></trkpt>
<trkpt lat="46.37823" lon="7.7392"><ele></ele><time>2025-9-19T12:59:14Z</time></trkpt>
<trkpt lat="46.37824" lon="7.7392"><ele></ele><time>2025-9-19T12:59:17Z</time></trkpt>
<trkpt lat="46.37824" lon="7.7392"><ele></ele><time>2025-9-19T12:59:20Z</time></trkpt>
<trkpt lat="46.37824" lon="7.7392"><ele></ele><time>2025-9-19T12:59:23Z</time></trkpt>
<trkpt lat="46.37824" lon="7.7392"><ele></ele><time>2025-9-19T12:59:26Z</time></trkpt>
<trkpt lat="46.37824" lon="7.7392"><ele></ele><time>2025-9-19T12:59:29Z</time></trkpt>
<trkpt lat="46.37824" lon="7.7392"><ele></ele><time>2025-9-19T12:59:32Z</time></trkpt>
<trkpt lat="46.37824" lon="7.7392"><ele></ele><time>2025-9-19T12:59:35Z</time></trkpt>
<trkpt lat="46.37824" lon="7.7392"><ele></ele><time>2025-9-19T12:59:38Z</time></trkpt>
<trkpt lat="46.37824" lon="7.7392"><ele></ele><time>2025-9-19T12:59:41Z</time></trkpt>
<trkpt lat="46.37824" lon="7.7392"><ele></ele><time>2025-9-19T12:59:44Z</time></trkpt>
<trkpt lat="46.37823" lon="7.73923"><ele></ele><time>2025-9-19T12:59:47Z</time></trkpt>
<trkpt lat="46.37817" lon="7.73922"><ele></ele><time>2025-9-19T12:59:50Z</time></trkpt>
<trkpt lat="46.37813" lon="7.73919"><ele></ele><time>2025-9-19T12:59:53Z</time></trkpt>
<trkpt lat="46.3781" lon="7.73915"><ele></ele><time>2025-9-19T12:59:56Z</time></trkpt>
<trkpt lat="46.37803" lon="7.73906"><ele></ele><time>2025-9-19T12:59:59Z</time></trkpt>
<trkpt lat="46.37796" lon="7.73894"><ele></ele><time>2025-9-19T13:0:2Z</time></trkpt>
<trkpt lat="46.3779" lon="7.73886"><ele></ele><time>2025-9-19T13:0:5Z</time></trkpt>
<trkpt lat="46.37789" lon="7.73882"><ele></ele><time>2025-9-19T13:0:8Z</time></trkpt>
<trkpt lat="46.37786" lon="7.73875"><ele></ele><time>2025-9-19T13:0:11Z</time></trkpt>
<trkpt lat="46.37784" lon="7.7387"><ele></ele><time>2025-9-19T13:0:14Z</time></trkpt>
<trkpt lat="46.37782" lon="7.73865"><ele></ele><time>2025-9-19T13:0:17Z</time></trkpt>
<trkpt lat="46.37779" lon="7.73859"><ele></ele><time>2025-9-19T13:0:20Z</time></trkpt>
<trkpt lat="46.37778" lon="7.73858"><ele></ele><time>2025-9-19T13:0:23Z</time></trkpt>
<trkpt lat="46.37774" lon="7.73851"><ele></ele><time>2025-9-19T13:0:26Z</time></trkpt>
<trkpt lat="46.37772" lon="7.73848"><ele></ele><time>2025-9-19T13:0:29Z</time></trkpt>
<trkpt lat="46.37768" lon="7.73841"><ele></ele><time>2025-9-19T13:0:32Z</time></trkpt>
<trkpt lat="46.37767" lon="7.73839"><ele></ele><time>2025-9-19T13:0:35Z</time></trkpt>
<trkpt lat="46.37763" lon="7.73833"><ele></ele><time>2025-9-19T13:0:38Z</time></trkpt>
<trkpt lat="46.37761" lon="7.73828"><ele></ele><time>2025-9-19T13:0:41Z</time></trkpt>
<trkpt lat="46.37757" lon="7.73822"><ele></ele><time>2025-9-19T13:0:44Z</time></trkpt>
<trkpt lat="46.37756" lon="7.73819"><ele></ele><time>2025-9-19T13:0:47Z</time></trkpt>
<trkpt lat="46.37755" lon="7.73817"><ele></ele><time>2025-9-19T13:0:50Z</time></trkpt>
<trkpt lat="46.37752" lon="7.73809"><ele></ele><time>2025-9-19T13:0:53Z</time></trkpt>
<trkpt lat="46.37751" lon="7.73807"><ele></ele><time>2025-9-19T13:0:56Z</time></trkpt>
<trkpt lat="46.3775" lon="7.73802"><ele></ele><time>2025-9-19T13:0:59Z</time></trkpt>
<trkpt lat="46.37748" lon="7.73796"><ele></ele><time>2025-9-19T13:1:2Z</time></trkpt>
<trkpt lat="46.37747" lon="7.73794"><ele></ele><time>2025-9-19T13:1:5Z</time></trkpt>
<trkpt lat="46.37744" lon="7.73786"><ele></ele><time>2025-9-19T13:1:8Z</time></trkpt>
<trkpt lat="46.37744" lon="7.73784"><ele></ele><time>2025-9-19T13:1:11Z</time></trkpt>
<trkpt lat="46.37743" lon="7.73774"><ele></ele><time>2025-9-19T13:1:14Z</time></trkpt>
<trkpt lat="46.37743" lon="7.73767"><ele></ele><time>2025-9-19T13:1:17Z</time></trkpt>
<trkpt lat="46.37743" lon="7.73763"><ele></ele><time>2025-9-19T13:1:20Z</time></trkpt>
<trkpt lat="46.37741" lon="7.73751"><ele></ele><time>2025-9-19T13:1:23Z</time></trkpt>
<trkpt lat="46.37741" lon="7.73749"><ele></ele><time>2025-9-19T13:1:26Z</time></trkpt>
<trkpt lat="46.37739" lon="7.73745"><ele></ele><time>2025-9-19T13:1:29Z</time></trkpt>
<trkpt lat="46.37735" lon="7.73746"><ele></ele><time>2025-9-19T13:1:32Z</time></trkpt>
<trkpt lat="46.37734" lon="7.73749"><ele></ele><time>2025-9-19T13:1:35Z</time></trkpt>
<trkpt lat="46.37735" lon="7.73756"><ele></ele><time>2025-9-19T13:1:38Z</time></trkpt>
<trkpt lat="46.37735" lon="7.73761"><ele></ele><time>2025-9-19T13:1:41Z</time></trkpt>
<trkpt lat="46.37735" lon="7.73763"><ele></ele><time>2025-9-19T13:1:44Z</time></trkpt>
<trkpt lat="46.37735" lon="7.73767"><ele></ele><time>2025-9-19T13:1:47Z</time></trkpt>
<trkpt lat="46.37735" lon="7.73777"><ele></ele><time>2025-9-19T13:1:50Z</time></trkpt>
<trkpt lat="46.37735" lon="7.73779"><ele></ele><time>2025-9-19T13:1:53Z</time></trkpt>
<trkpt lat="46.37735" lon="7.73787"><ele></ele><time>2025-9-19T13:1:56Z</time></trkpt>
<trkpt lat="46.37735" lon="7.73788"><ele></ele><time>2025-9-19T13:1:59Z</time></trkpt>
<trkpt lat="46.37734" lon="7.73801"><ele></ele><time>2025-9-19T13:2:2Z</time></trkpt>
<trkpt lat="46.37734" lon="7.73804"><ele></ele><time>2025-9-19T13:2:5Z</time></trkpt>
<trkpt lat="46.37733" lon="7.73815"><ele></ele><time>2025-9-19T13:2:8Z</time></trkpt>
<trkpt lat="46.37732" lon="7.73816"><ele></ele><time>2025-9-19T13:2:11Z</time></trkpt>
<trkpt lat="46.3773" lon="7.73827"><ele></ele><time>2025-9-19T13:2:14Z</time></trkpt>
<trkpt lat="46.37725" lon="7.73836"><ele></ele><time>2025-9-19T13:2:17Z</time></trkpt>
<trkpt lat="46.37716" lon="7.73842"><ele></ele><time>2025-9-19T13:2:20Z</time></trkpt>
<trkpt lat="46.37714" lon="7.73843"><ele></ele><time>2025-9-19T13:2:23Z</time></trkpt>
<trkpt lat="46.37711" lon="7.73842"><ele></ele><time>2025-9-19T13:2:26Z</time></trkpt>
<trkpt lat="46.37709" lon="7.73841"><ele></ele><time>2025-9-19T13:2:29Z</time></trkpt>
<trkpt lat="46.37702" lon="7.73838"><ele></ele><time>2025-9-19T13:2:32Z</time></trkpt>
<trkpt lat="46.37701" lon="7.73837"><ele></ele><time>2025-9-19T13:2:35Z</time></trkpt>
<trkpt lat="46.37694" lon="7.73829"><ele></ele><time>2025-9-19T13:2:38Z</time></trkpt>
<trkpt lat="46.37693" lon="7.73828"><ele></ele><time>2025-9-19T13:2:41Z</time></trkpt>
<trkpt lat="46.37686" lon="7.73823"><ele></ele><time>2025-9-19T13:2:44Z</time></trkpt>
<trkpt lat="46.37685" lon="7.73822"><ele></ele><time>2025-9-19T13:2:47Z</time></trkpt>
<trkpt lat="46.3768" lon="7.73816"><ele></ele><time>2025-9-19T13:2:50Z</time></trkpt>
<trkpt lat="46.37673" lon="7.73812"><ele></ele><time>2025-9-19T13:2:53Z</time></trkpt>
<trkpt lat="46.37672" lon="7.73811"><ele></ele><time>2025-9-19T13:2:56Z</time></trkpt>
<trkpt lat="46.37666" lon="7.73806"><ele></ele><time>2025-9-19T13:2:59Z</time></trkpt>
<trkpt lat="46.3766" lon="7.73802"><ele></ele><time>2025-9-19T13:3:2Z</time></trkpt>
<trkpt lat="46.37658" lon="7.73802"><ele></ele><time>2025-9-19T13:3:5Z</time></trkpt>
<trkpt lat="46.37651" lon="7.73799"><ele></ele><time>2025-9-19T13:3:8Z</time></trkpt>
<trkpt lat="46.3765" lon="7.73799"><ele></ele><time>2025-9-19T13:3:11Z</time></trkpt>
<trkpt lat="46.37642" lon="7.73799"><ele></ele><time>2025-9-19T13:3:14Z</time></trkpt>
<trkpt lat="46.3764" lon="7.73799"><ele></ele><time>2025-9-19T13:3:17Z</time></trkpt>
<trkpt lat="46.37635" lon="7.73799"><ele></ele><time>2025-9-19T13:3:20Z</time></trkpt>
<trkpt lat="46.37632" lon="7.73799"><ele></ele><time>2025-9-19T13:3:23Z</time></trkpt>
<trkpt lat="46.37625" lon="7.73799"><ele></ele><time>2025-9-19T13:3:26Z</time></trkpt>
<trkpt lat="46.37622" lon="7.738"><ele></ele><time>2025-9-19T13:3:29Z</time></trkpt>
<trkpt lat="46.37612" lon="7.738"><ele></ele><time>2025-9-19T13:3:32Z</time></trkpt>
<trkpt lat="46.37606" lon="7.73798"><ele></ele><time>2025-9-19T13:3:35Z</time></trkpt>
<trkpt lat="46.37602" lon="7.73796"><ele></ele><time>2025-9-19T13:3:38Z</time></trkpt>
<trkpt lat="46.37599" lon="7.73792"><ele></ele><time>2025-9-19T13:3:41Z</time></trkpt>
<trkpt lat="46.37596" lon="7.73788"><ele></ele><time>2025-9-19T13:3:44Z</time></trkpt>
<trkpt lat="46.37592" lon="7.73785"><ele></ele><time>2025-9-19T13:3:47Z</time></trkpt>
<trkpt lat="46.37591" lon="7.73783"><ele></ele><time>2025-9-19T13:3:50Z</time></trkpt>
<trkpt lat="46.37586" lon="7.73775"><ele></ele><time>2025-9-19T13:3:53Z</time></trkpt>
<trkpt lat="46.37579" lon="7.7377"><ele></ele><time>2025-9-19T13:3:56Z</time></trkpt>
<trkpt lat="46.37578" lon="7.7377"><ele></ele><time>2025-9-19T13:3:59Z</time></trkpt>
<trkpt lat="46.37569" lon="7.73769"><ele></ele><time>2025-9-19T13:4:2Z</time></trkpt>
<trkpt lat="46.37562" lon="7.73769"><ele></ele><time>2025-9-19T13:4:5Z</time></trkpt>
<trkpt lat="46.3756" lon="7.73769"><ele></ele><time>2025-9-19T13:4:8Z</time></trkpt>
<trkpt lat="46.37554" lon="7.73768"><ele></ele><time>2025-9-19T13:4:11Z</time></trkpt>
<trkpt lat="46.3755" lon="7.73768"><ele></ele><time>2025-9-19T13:4:14Z</time></trkpt>
<trkpt lat="46.37544" lon="7.73767"><ele></ele><time>2025-9-19T13:4:17Z</time></trkpt>
<trkpt lat="46.37541" lon="7.73769"><ele></ele><time>2025-9-19T13:4:20Z</time></trkpt>
<trkpt lat="46.37536" lon="7.73769"><ele></ele><time>2025-9-19T13:4:23Z</time></trkpt>
<trkpt lat="46.37533" lon="7.7377"><ele></ele><time>2025-9-19T13:4:26Z</time></trkpt>
<trkpt lat="46.37526" lon="7.7377"><ele></ele><time>2025-9-19T13:4:29Z</time></trkpt>
<trkpt lat="46.37525" lon="7.7377"><ele></ele><time>2025-9-19T13:4:32Z</time></trkpt>
<trkpt lat="46.37518" lon="7.73767"><ele></ele><time>2025-9-19T13:4:35Z</time></trkpt>
<trkpt lat="46.37512" lon="7.73766"><ele></ele><time>2025-9-19T13:4:38Z</time></trkpt>
<trkpt lat="46.37509" lon="7.73765"><ele></ele><time>2025-9-19T13:4:41Z</time></trkpt>
<trkpt lat="46.37503" lon="7.73765"><ele></ele><time>2025-9-19T13:4:44Z</time></trkpt>
<trkpt lat="46.37501" lon="7.73765"><ele></ele><time>2025-9-19T13:4:47Z</time></trkpt>
<trkpt lat="46.37495" lon="7.73764"><ele></ele><time>2025-9-19T13:4:50Z</time></trkpt>
<trkpt lat="46.37494" lon="7.73764"><ele></ele><time>2025-9-19T13:4:53Z</time></trkpt>
<trkpt lat="46.37487" lon="7.7376"><ele></ele><time>2025-9-19T13:4:56Z</time></trkpt>
<trkpt lat="46.37485" lon="7.73759"><ele></ele><time>2025-9-19T13:4:59Z</time></trkpt>
<trkpt lat="46.37482" lon="7.73757"><ele></ele><time>2025-9-19T13:5:2Z</time></trkpt>
<trkpt lat="46.37479" lon="7.73753"><ele></ele><time>2025-9-19T13:5:5Z</time></trkpt>
<trkpt lat="46.37475" lon="7.7375"><ele></ele><time>2025-9-19T13:5:8Z</time></trkpt>
<trkpt lat="46.37467" lon="7.73746"><ele></ele><time>2025-9-19T13:5:11Z</time></trkpt>
<trkpt lat="46.37462" lon="7.73746"><ele></ele><time>2025-9-19T13:5:14Z</time></trkpt>
<trkpt lat="46.37459" lon="7.73747"><ele></ele><time>2025-9-19T13:5:17Z</time></trkpt>
<trkpt lat="46.37455" lon="7.73745"><ele></ele><time>2025-9-19T13:5:20Z</time></trkpt>
<trkpt lat="46.37449" lon="7.73747"><ele></ele><time>2025-9-19T13:5:23Z</time></trkpt>
<trkpt lat="46.37443" lon="7.73748"><ele></ele><time>2025-9-19T13:5:26Z</time></trkpt>
<trkpt lat="46.3744" lon="7.73749"><ele></ele><time>2025-9-19T13:5:29Z</time></trkpt>
<trkpt lat="46.37437" lon="7.7375"><ele></ele><time>2025-9-19T13:5:32Z</time></trkpt>
<trkpt lat="46.37434" lon="7.7375"><ele></ele><time>2025-9-19T13:5:35Z</time></trkpt>
<trkpt lat="46.3743" lon="7.73751"><ele></ele><time>2025-9-19T13:5:38Z</time></trkpt>
<trkpt lat="46.37426" lon="7.73752"><ele></ele><time>2025-9-19T13:5:41Z</time></trkpt>
<trkpt lat="46.37422" lon="7.73753"><ele></ele><time>2025-9-19T13:5:44Z</time></trkpt>
<trkpt lat="46.37418" lon="7.73754"><ele></ele><time>2025-9-19T13:5:47Z</time></trkpt>
<trkpt lat="46.37413" lon="7.73755"><ele></ele><time>2025-9-19T13:5:50Z</time></trkpt>
<trkpt lat="46.37409" lon="7.73757"><ele></ele><time>2025-9-19T13:5:53Z</time></trkpt>
<trkpt lat="46.37408" lon="7.73757"><ele></ele><time>2025-9-19T13:5:56Z</time></trkpt>
<trkpt lat="46.37406" lon="7.73758"><ele></ele><time>2025-9-19T13:5:59Z</time></trkpt>
<trkpt lat="46.37403" lon="7.73758"><ele></ele><time>2025-9-19T13:6:2Z</time></trkpt>
<trkpt lat="46.37398" lon="7.73758"><ele></ele><time>2025-9-19T13:6:5Z</time></trkpt>
<trkpt lat="46.37396" lon="7.73758"><ele></ele><time>2025-9-19T13:6:8Z</time></trkpt>
<trkpt lat="46.37394" lon="7.73759"><ele></ele><time>2025-9-19T13:6:11Z</time></trkpt>
<trkpt lat="46.37393" lon="7.73759"><ele></ele><time>2025-9-19T13:6:14Z</time></trkpt>
<trkpt lat="46.37387" lon="7.73755"><ele></ele><time>2025-9-19T13:6:17Z</time></trkpt>
<trkpt lat="46.37385" lon="7.73755"><ele></ele><time>2025-9-19T13:6:20Z</time></trkpt>
<trkpt lat="46.3738" lon="7.73751"><ele></ele><time>2025-9-19T13:6:23Z</time></trkpt>
<trkpt lat="46.37374" lon="7.73747"><ele></ele><time>2025-9-19T13:6:26Z</time></trkpt>
<trkpt lat="46.37364" lon="7.73743"><ele></ele><time>2025-9-19T13:6:29Z</time></trkpt>
<trkpt lat="46.37355" lon="7.73742"><ele></ele><time>2025-9-19T13:6:32Z</time></trkpt>
<trkpt lat="46.37349" lon="7.73743"><ele></ele><time>2025-9-19T13:6:35Z</time></trkpt>
<trkpt lat="46.37348" lon="7.73744"><ele></ele><time>2025-9-19T13:6:38Z</time></trkpt>
<trkpt lat="46.37347" lon="7.73745"><ele></ele><time>2025-9-19T13:6:41Z</time></trkpt>
<trkpt lat="46.37344" lon="7.73746"><ele></ele><time>2025-9-19T13:6:44Z</time></trkpt>
<trkpt lat="46.37339" lon="7.73748"><ele></ele><time>2025-9-19T13:6:47Z</time></trkpt>
<trkpt lat="46.37337" lon="7.73749"><ele></ele><time>2025-9-19T13:6:50Z</time></trkpt>
<trkpt lat="46.37334" lon="7.7375"><ele></ele><time>2025-9-19T13:6:53Z</time></trkpt>
<trkpt lat="46.37329" lon="7.73753"><ele></ele><time>2025-9-19T13:6:56Z</time></trkpt>
<trkpt lat="46.37325" lon="7.73755"><ele></ele><time>2025-9-19T13:6:59Z</time></trkpt>
<trkpt lat="46.37319" lon="7.73757"><ele></ele><time>2025-9-19T13:7:2Z</time></trkpt>
<trkpt lat="46.37313" lon="7.73758"><ele></ele><time>2025-9-19T13:7:5Z</time></trkpt>
<trkpt lat="46.37309" lon="7.73759"><ele></ele><time>2025-9-19T13:7:8Z</time></trkpt>
<trkpt lat="46.37301" lon="7.73759"><ele></ele><time>2025-9-19T13:7:11Z</time></trkpt>
<trkpt lat="46.37293" lon="7.7376"><ele></ele><time>2025-9-19T13:7:14Z</time></trkpt>
<trkpt lat="46.37288" lon="7.7376"><ele></ele><time>2025-9-19T13:7:17Z</time></trkpt>
<trkpt lat="46.37283" lon="7.73761"><ele></ele><time>2025-9-19T13:7:20Z</time></trkpt>
<trkpt lat="46.37281" lon="7.7376"><ele></ele><time>2025-9-19T13:7:23Z</time></trkpt>
<trkpt lat="46.37275" lon="7.73759"><ele></ele><time>2025-9-19T13:7:26Z</time></trkpt>
<trkpt lat="46.37274" lon="7.73759"><ele></ele><time>2025-9-19T13:7:29Z</time></trkpt>
<trkpt lat="46.37268" lon="7.7376"><ele></ele><time>2025-9-19T13:7:32Z</time></trkpt>
<trkpt lat="46.37267" lon="7.7376"><ele></ele><time>2025-9-19T13:7:35Z</time></trkpt>
<trkpt lat="46.37265" lon="7.7376"><ele></ele><time>2025-9-19T13:7:38Z</time></trkpt>
<trkpt lat="46.3726" lon="7.73757"><ele></ele><time>2025-9-19T13:7:41Z</time></trkpt>
<trkpt lat="46.37259" lon="7.73756"><ele></ele><time>2025-9-19T13:7:44Z</time></trkpt>
<trkpt lat="46.37256" lon="7.73754"><ele></ele><time>2025-9-19T13:7:47Z</time></trkpt>
<trkpt lat="46.37255" lon="7.73754"><ele></ele><time>2025-9-19T13:7:50Z</time></trkpt>
<trkpt lat="46.37251" lon="7.73752"><ele></ele><time>2025-9-19T13:7:53Z</time></trkpt>
<trkpt lat="46.37246" lon="7.7375"><ele></ele><time>2025-9-19T13:7:56Z</time></trkpt>
<trkpt lat="46.37243" lon="7.73749"><ele></ele><time>2025-9-19T13:7:59Z</time></trkpt>
<trkpt lat="46.37238" lon="7.7375"><ele></ele><time>2025-9-19T13:8:2Z</time></trkpt>
<trkpt lat="46.37235" lon="7.7375"><ele></ele><time>2025-9-19T13:8:5Z</time></trkpt>
<trkpt lat="46.37232" lon="7.7375"><ele></ele><time>2025-9-19T13:8:8Z</time></trkpt>
<trkpt lat="46.37227" lon="7.73751"><ele></ele><time>2025-9-19T13:8:11Z</time></trkpt>
<trkpt lat="46.3722" lon="7.73752"><ele></ele><time>2025-9-19T13:8:14Z</time></trkpt>
<trkpt lat="46.37214" lon="7.73753"><ele></ele><time>2025-9-19T13:8:17Z</time></trkpt>
<trkpt lat="46.37216" lon="7.73752"><ele></ele><time>2025-9-19T13:8:20Z</time></trkpt>
<trkpt lat="46.37216" lon="7.73753"><ele></ele><time>2025-9-19T13:8:23Z</time></trkpt>
<trkpt lat="46.37216" lon="7.73753"><ele></ele><time>2025-9-19T13:8:26Z</time></trkpt>
<trkpt lat="46.37216" lon="7.73753"><ele></ele><time>2025-9-19T13:8:29Z</time></trkpt>
<trkpt lat="46.37216" lon="7.73753"><ele></ele><time>2025-9-19T13:8:32Z</time></trkpt>
<trkpt lat="46.37216" lon="7.73753"><ele></ele><time>2025-9-19T13:8:35Z</time></trkpt>
<trkpt lat="46.37216" lon="7.73753"><ele></ele><time>2025-9-19T13:8:38Z</time></trkpt>
<trkpt lat="46.37216" lon="7.73753"><ele></ele><time>2025-9-19T13:8:41Z</time></trkpt>
<trkpt lat="46.37216" lon="7.73753"><ele></ele><time>2025-9-19T13:8:44Z</time></trkpt>
<trkpt lat="46.37213" lon="7.73754"><ele></ele><time>2025-9-19T13:8:47Z</time></trkpt>
<trkpt lat="46.37211" lon="7.73755"><ele></ele><time>2025-9-19T13:8:50Z</time></trkpt>
<trkpt lat="46.3721" lon="7.73755"><ele></ele><time>2025-9-19T13:8:53Z</time></trkpt>
<trkpt lat="46.37205" lon="7.73756"><ele></ele><time>2025-9-19T13:8:56Z</time></trkpt>
<trkpt lat="46.37203" lon="7.73756"><ele></ele><time>2025-9-19T13:8:59Z</time></trkpt>
<trkpt lat="46.37195" lon="7.73758"><ele></ele><time>2025-9-19T13:9:2Z</time></trkpt>
<trkpt lat="46.37192" lon="7.73759"><ele></ele><time>2025-9-19T13:9:5Z</time></trkpt>
<trkpt lat="46.37189" lon="7.7376"><ele></ele><time>2025-9-19T13:9:8Z</time></trkpt>
<trkpt lat="46.37188" lon="7.73761"><ele></ele><time>2025-9-19T13:9:11Z</time></trkpt>
<trkpt lat="46.37183" lon="7.73763"><ele></ele><time>2025-9-19T13:9:14Z</time></trkpt>
<trkpt lat="46.37181" lon="7.73764"><ele></ele><time>2025-9-19T13:9:17Z</time></trkpt>
<trkpt lat="46.37176" lon="7.73768"><ele></ele><time>2025-9-19T13:9:20Z</time></trkpt>
<trkpt lat="46.37173" lon="7.73768"><ele></ele><time>2025-9-19T13:9:23Z</time></trkpt>
<trkpt lat="46.37169" lon="7.73768"><ele></ele><time>2025-9-19T13:9:26Z</time></trkpt>
<trkpt lat="46.37169" lon="7.73769"><ele></ele><time>2025-9-19T13:9:29Z</time></trkpt>
<trkpt lat="46.37167" lon="7.73767"><ele></ele><time>2025-9-19T13:9:32Z</time></trkpt>
<trkpt lat="46.37166" lon="7.73766"><ele></ele><time>2025-9-19T13:9:35Z</time></trkpt>
<trkpt lat="46.37163" lon="7.73764"><ele></ele><time>2025-9-19T13:9:38Z</time></trkpt>
<trkpt lat="46.37161" lon="7.73763"><ele></ele><time>2025-9-19T13:9:41Z</time></trkpt>
<trkpt lat="46.37158" lon="7.73762"><ele></ele><time>2025-9-19T13:9:44Z</time></trkpt>
<trkpt lat="46.37152" lon="7.7376"><ele></ele><time>2025-9-19T13:9:47Z</time></trkpt>
<trkpt lat="46.37149" lon="7.73765"><ele></ele><time>2025-9-19T13:9:50Z</time></trkpt>
<trkpt lat="46.37146" lon="7.73773"><ele></ele><time>2025-9-19T13:9:53Z</time></trkpt>
<trkpt lat="46.37144" lon="7.73775"><ele></ele><time>2025-9-19T13:9:56Z</time></trkpt>
<trkpt lat="46.37144" lon="7.73775"><ele></ele><time>2025-9-19T13:9:59Z</time></trkpt>
<trkpt lat="46.37144" lon="7.73775"><ele></ele><time>2025-9-19T13:10:2Z</time></trkpt>
<trkpt lat="46.37144" lon="7.73775"><ele></ele><time>2025-9-19T13:10:5Z</time></trkpt>
<trkpt lat="46.37144" lon="7.73775"><ele></ele><time>2025-9-19T13:10:8Z</time></trkpt>
<trkpt lat="46.37142" lon="7.73776"><ele></ele><time>2025-9-19T13:10:11Z</time></trkpt>
<trkpt lat="46.37136" lon="7.73778"><ele></ele><time>2025-9-19T13:10:14Z</time></trkpt>
<trkpt lat="46.37133" lon="7.73778"><ele></ele><time>2025-9-19T13:10:17Z</time></trkpt>
<trkpt lat="46.37129" lon="7.73777"><ele></ele><time>2025-9-19T13:10:20Z</time></trkpt>
<trkpt lat="46.37125" lon="7.73777"><ele></ele><time>2025-9-19T13:10:23Z</time></trkpt>
<trkpt lat="46.37123" lon="7.73776"><ele></ele><time>2025-9-19T13:10:26Z</time></trkpt>
<trkpt lat="46.37118" lon="7.73775"><ele></ele><time>2025-9-19T13:10:29Z</time></trkpt>
<trkpt lat="46.37113" lon="7.73775"><ele></ele><time>2025-9-19T13:10:32Z</time></trkpt>
<trkpt lat="46.37111" lon="7.73775"><ele></ele><time>2025-9-19T13:10:35Z</time></trkpt>
<trkpt lat="46.37104" lon="7.73774"><ele></ele><time>2025-9-19T13:10:38Z</time></trkpt>
<trkpt lat="46.37103" lon="7.73773"><ele></ele><time>2025-9-19T13:10:41Z</time></trkpt>
<trkpt lat="46.37096" lon="7.7377"><ele></ele><time>2025-9-19T13:10:44Z</time></trkpt>
<trkpt lat="46.37091" lon="7.73769"><ele></ele><time>2025-9-19T13:10:47Z</time></trkpt>
<trkpt lat="46.37088" lon="7.73768"><ele></ele><time>2025-9-19T13:10:50Z</time></trkpt>
<trkpt lat="46.37086" lon="7.73768"><ele></ele><time>2025-9-19T13:10:53Z</time></trkpt>
<trkpt lat="46.37081" lon="7.73767"><ele></ele><time>2025-9-19T13:10:56Z</time></trkpt>
<trkpt lat="46.37078" lon="7.73765"><ele></ele><time>2025-9-19T13:10:59Z</time></trkpt>
<trkpt lat="46.37075" lon="7.73764"><ele></ele><time>2025-9-19T13:11:2Z</time></trkpt>
<trkpt lat="46.3707" lon="7.73763"><ele></ele><time>2025-9-19T13:11:5Z</time></trkpt>
<trkpt lat="46.37068" lon="7.73763"><ele></ele><time>2025-9-19T13:11:8Z</time></trkpt>
<trkpt lat="46.37062" lon="7.73763"><ele></ele><time>2025-9-19T13:11:11Z</time></trkpt>
<trkpt lat="46.37057" lon="7.73766"><ele></ele><time>2025-9-19T13:11:14Z</time></trkpt>
<trkpt lat="46.37055" lon="7.73767"><ele></ele><time>2025-9-19T13:11:17Z</time></trkpt>
<trkpt lat="46.37052" lon="7.73769"><ele></ele><time>2025-9-19T13:11:20Z</time></trkpt>
<trkpt lat="46.37047" lon="7.73771"><ele></ele><time>2025-9-19T13:11:23Z</time></trkpt>
<trkpt lat="46.37046" lon="7.73771"><ele></ele><time>2025-9-19T13:11:26Z</time></trkpt>
<trkpt lat="46.3704" lon="7.7377"><ele></ele><time>2025-9-19T13:11:29Z</time></trkpt>
<trkpt lat="46.37038" lon="7.73769"><ele></ele><time>2025-9-19T13:11:32Z</time></trkpt>
<trkpt lat="46.37033" lon="7.73762"><ele></ele><time>2025-9-19T13:11:35Z</time></trkpt>
<trkpt lat="46.37031" lon="7.73758"><ele></ele><time>2025-9-19T13:11:38Z</time></trkpt>
<trkpt lat="46.37027" lon="7.73753"><ele></ele><time>2025-9-19T13:11:41Z</time></trkpt>
<trkpt lat="46.37018" lon="7.7375"><ele></ele><time>2025-9-19T13:11:44Z</time></trkpt>
<trkpt lat="46.37015" lon="7.73749"><ele></ele><time>2025-9-19T13:11:47Z</time></trkpt>
<trkpt lat="46.37013" lon="7.7375"><ele></ele><time>2025-9-19T13:11:50Z</time></trkpt>
<trkpt lat="46.37012" lon="7.73749"><ele></ele><time>2025-9-19T13:11:53Z</time></trkpt>
<trkpt lat="46.37009" lon="7.73745"><ele></ele><time>2025-9-19T13:11:56Z</time></trkpt>
<trkpt lat="46.37006" lon="7.73743"><ele></ele><time>2025-9-19T13:11:59Z</time></trkpt>
<trkpt lat="46.37005" lon="7.73742"><ele></ele><time>2025-9-19T13:12:2Z</time></trkpt>
<trkpt lat="46.37001" lon="7.73738"><ele></ele><time>2025-9-19T13:12:5Z</time></trkpt>
<trkpt lat="46.36999" lon="7.73737"><ele></ele><time>2025-9-19T13:12:8Z</time></trkpt>
<trkpt lat="46.36995" lon="7.73737"><ele></ele><time>2025-9-19T13:12:11Z</time></trkpt>
<trkpt lat="46.3699" lon="7.73737"><ele></ele><time>2025-9-19T13:12:14Z</time></trkpt>
<trkpt lat="46.36987" lon="7.73737"><ele></ele><time>2025-9-19T13:12:17Z</time></trkpt>
<trkpt lat="46.36982" lon="7.73737"><ele></ele><time>2025-9-19T13:12:20Z</time></trkpt>
<trkpt lat="46.3698" lon="7.73737"><ele></ele><time>2025-9-19T13:12:23Z</time></trkpt>
<trkpt lat="46.36976" lon="7.73738"><ele></ele><time>2025-9-19T13:12:26Z</time></trkpt>
<trkpt lat="46.36974" lon="7.73738"><ele></ele><time>2025-9-19T13:12:29Z</time></trkpt>
<trkpt lat="46.36968" lon="7.73738"><ele></ele><time>2025-9-19T13:12:32Z</time></trkpt>
<trkpt lat="46.36967" lon="7.73738"><ele></ele><time>2025-9-19T13:12:35Z</time></trkpt>
<trkpt lat="46.36962" lon="7.73739"><ele></ele><time>2025-9-19T13:12:38Z</time></trkpt>
<trkpt lat="46.36957" lon="7.73738"><ele></ele><time>2025-9-19T13:12:41Z</time></trkpt>
<trkpt lat="46.36956" lon="7.73738"><ele></ele><time>2025-9-19T13:12:44Z</time></trkpt>
<trkpt lat="46.3695" lon="7.73737"><ele></ele><time>2025-9-19T13:12:47Z</time></trkpt>
<trkpt lat="46.36949" lon="7.73737"><ele></ele><time>2025-9-19T13:12:50Z</time></trkpt>
<trkpt lat="46.36945" lon="7.73736"><ele></ele><time>2025-9-19T13:12:53Z</time></trkpt>
<trkpt lat="46.3694" lon="7.73733"><ele></ele><time>2025-9-19T13:12:56Z</time></trkpt>
<trkpt lat="46.36939" lon="7.73733"><ele></ele><time>2025-9-19T13:12:59Z</time></trkpt>
<trkpt lat="46.36936" lon="7.7373"><ele></ele><time>2025-9-19T13:13:2Z</time></trkpt>
<trkpt lat="46.3693" lon="7.73729"><ele></ele><time>2025-9-19T13:13:5Z</time></trkpt>
<trkpt lat="46.36929" lon="7.73728"><ele></ele><time>2025-9-19T13:13:8Z</time></trkpt>
<trkpt lat="46.36925" lon="7.73726"><ele></ele><time>2025-9-19T13:13:11Z</time></trkpt>
<trkpt lat="46.36925" lon="7.73727"><ele></ele><time>2025-9-19T13:13:14Z</time></trkpt>
<trkpt lat="46.36925" lon="7.73727"><ele></ele><time>2025-9-19T13:13:17Z</time></trkpt>
<trkpt lat="46.36925" lon="7.73727"><ele></ele><time>2025-9-19T13:13:20Z</time></trkpt>
<trkpt lat="46.36925" lon="7.73727"><ele></ele><time>2025-9-19T13:13:23Z</time></trkpt>
<trkpt lat="46.36925" lon="7.73727"><ele></ele><time>2025-9-19T13:13:26Z</time></trkpt>
<trkpt lat="46.36926" lon="7.73727"><ele></ele><time>2025-9-19T13:13:29Z</time></trkpt>
<trkpt lat="46.36924" lon="7.73725"><ele></ele><time>2025-9-19T13:13:32Z</time></trkpt>
<trkpt lat="46.36922" lon="7.73722"><ele></ele><time>2025-9-19T13:13:35Z</time></trkpt>
<trkpt lat="46.36916" lon="7.7372"><ele></ele><time>2025-9-19T13:13:38Z</time></trkpt>
<trkpt lat="46.36915" lon="7.7372"><ele></ele><time>2025-9-19T13:13:41Z</time></trkpt>
<trkpt lat="46.3691" lon="7.73718"><ele></ele><time>2025-9-19T13:13:44Z</time></trkpt>
<trkpt lat="46.36909" lon="7.73718"><ele></ele><time>2025-9-19T13:13:47Z</time></trkpt>
<trkpt lat="46.36904" lon="7.73717"><ele></ele><time>2025-9-19T13:13:50Z</time></trkpt>
<trkpt lat="46.36903" lon="7.73717"><ele></ele><time>2025-9-19T13:13:53Z</time></trkpt>
<trkpt lat="46.369" lon="7.73718"><ele></ele><time>2025-9-19T13:13:56Z</time></trkpt>
<trkpt lat="46.36896" lon="7.73717"><ele></ele><time>2025-9-19T13:13:59Z</time></trkpt>
<trkpt lat="46.36895" lon="7.73717"><ele></ele><time>2025-9-19T13:14:2Z</time></trkpt>
<trkpt lat="46.36889" lon="7.73718"><ele></ele><time>2025-9-19T13:14:5Z</time></trkpt>
<trkpt lat="46.36885" lon="7.73718"><ele></ele><time>2025-9-19T13:14:8Z</time></trkpt>
<trkpt lat="46.36881" lon="7.73718"><ele></ele><time>2025-9-19T13:14:11Z</time></trkpt>
<trkpt lat="46.36879" lon="7.73718"><ele></ele><time>2025-9-19T13:14:14Z</time></trkpt>
<trkpt lat="46.36875" lon="7.73718"><ele></ele><time>2025-9-19T13:14:17Z</time></trkpt>
<trkpt lat="46.36874" lon="7.73718"><ele></ele><time>2025-9-19T13:14:20Z</time></trkpt>
<trkpt lat="46.36868" lon="7.7372"><ele></ele><time>2025-9-19T13:14:23Z</time></trkpt>
<trkpt lat="46.36867" lon="7.7372"><ele></ele><time>2025-9-19T13:14:26Z</time></trkpt>
<trkpt lat="46.36865" lon="7.7372"><ele></ele><time>2025-9-19T13:14:29Z</time></trkpt>
<trkpt lat="46.3686" lon="7.7372"><ele></ele><time>2025-9-19T13:14:32Z</time></trkpt>
<trkpt lat="46.36856" lon="7.73721"><ele></ele><time>2025-9-19T13:14:35Z</time></trkpt>
<trkpt lat="46.36855" lon="7.73721"><ele></ele><time>2025-9-19T13:14:38Z</time></trkpt>
<trkpt lat="46.36853" lon="7.73722"><ele></ele><time>2025-9-19T13:14:41Z</time></trkpt>
<trkpt lat="46.3685" lon="7.73726"><ele></ele><time>2025-9-19T13:14:44Z</time></trkpt>
<trkpt lat="46.36846" lon="7.73729"><ele></ele><time>2025-9-19T13:14:47Z</time></trkpt>
<trkpt lat="46.36843" lon="7.73731"><ele></ele><time>2025-9-19T13:14:50Z</time></trkpt>
<trkpt lat="46.36839" lon="7.73731"><ele></ele><time>2025-9-19T13:14:53Z</time></trkpt>
<trkpt lat="46.36836" lon="7.7373"><ele></ele><time>2025-9-19T13:14:56Z</time></trkpt>
<trkpt lat="46.36832" lon="7.7373"><ele></ele><time>2025-9-19T13:14:59Z</time></trkpt>
<trkpt lat="46.3683" lon="7.73729"><ele></ele><time>2025-9-19T13:15:2Z</time></trkpt>
<trkpt lat="46.36825" lon="7.73728"><ele></ele><time>2025-9-19T13:15:5Z</time></trkpt>
<trkpt lat="46.36824" lon="7.73728"><ele></ele><time>2025-9-19T13:15:8Z</time></trkpt>
<trkpt lat="46.3682" lon="7.73727"><ele></ele><time>2025-9-19T13:15:11Z</time></trkpt>
<trkpt lat="46.36819" lon="7.73726"><ele></ele><time>2025-9-19T13:15:14Z</time></trkpt>
<trkpt lat="46.36814" lon="7.73724"><ele></ele><time>2025-9-19T13:15:17Z</time></trkpt>
<trkpt lat="46.36811" lon="7.73724"><ele></ele><time>2025-9-19T13:15:20Z</time></trkpt>
<trkpt lat="46.36809" lon="7.73723"><ele></ele><time>2025-9-19T13:15:23Z</time></trkpt>
<trkpt lat="46.36804" lon="7.7372"><ele></ele><time>2025-9-19T13:15:26Z</time></trkpt>
<trkpt lat="46.36802" lon="7.73719"><ele></ele><time>2025-9-19T13:15:29Z</time></trkpt>
<trkpt lat="46.36797" lon="7.7372"><ele></ele><time>2025-9-19T13:15:32Z</time></trkpt>
<trkpt lat="46.36795" lon="7.7372"><ele></ele><time>2025-9-19T13:15:35Z</time></trkpt>
<trkpt lat="46.36794" lon="7.73721"><ele></ele><time>2025-9-19T13:15:38Z</time></trkpt>
<trkpt lat="46.36794" lon="7.73721"><ele></ele><time>2025-9-19T13:15:41Z</time></trkpt>
<trkpt lat="46.36794" lon="7.73721"><ele></ele><time>2025-9-19T13:15:44Z</time></trkpt>
<trkpt lat="46.36794" lon="7.73721"><ele></ele><time>2025-9-19T13:15:47Z</time></trkpt>
<trkpt lat="46.36794" lon="7.73721"><ele></ele><time>2025-9-19T13:15:50Z</time></trkpt>
<trkpt lat="46.36794" lon="7.73721"><ele></ele><time>2025-9-19T13:15:53Z</time></trkpt>
<trkpt lat="46.36794" lon="7.73721"><ele></ele><time>2025-9-19T13:15:56Z</time></trkpt>
<trkpt lat="46.36794" lon="7.73721"><ele></ele><time>2025-9-19T13:15:59Z</time></trkpt>
<trkpt lat="46.36794" lon="7.73721"><ele></ele><time>2025-9-19T13:16:2Z</time></trkpt>
<trkpt lat="46.36793" lon="7.73719"><ele></ele><time>2025-9-19T13:16:5Z</time></trkpt>
<trkpt lat="46.36792" lon="7.73717"><ele></ele><time>2025-9-19T13:16:8Z</time></trkpt>
<trkpt lat="46.36791" lon="7.73714"><ele></ele><time>2025-9-19T13:16:11Z</time></trkpt>
<trkpt lat="46.36787" lon="7.73713"><ele></ele><time>2025-9-19T13:16:14Z</time></trkpt>
<trkpt lat="46.36784" lon="7.73713"><ele></ele><time>2025-9-19T13:16:17Z</time></trkpt>
<trkpt lat="46.36779" lon="7.73713"><ele></ele><time>2025-9-19T13:16:20Z</time></trkpt>
<trkpt lat="46.36777" lon="7.73713"><ele></ele><time>2025-9-19T13:16:23Z</time></trkpt>
<trkpt lat="46.36772" lon="7.73713"><ele></ele><time>2025-9-19T13:16:26Z</time></trkpt>
<trkpt lat="46.3677" lon="7.73712"><ele></ele><time>2025-9-19T13:16:29Z</time></trkpt>
<trkpt lat="46.36766" lon="7.73709"><ele></ele><time>2025-9-19T13:16:32Z</time></trkpt>
<trkpt lat="46.3676" lon="7.73703"><ele></ele><time>2025-9-19T13:16:35Z</time></trkpt>
<trkpt lat="46.36758" lon="7.737"><ele></ele><time>2025-9-19T13:16:38Z</time></trkpt>
<trkpt lat="46.36757" lon="7.73698"><ele></ele><time>2025-9-19T13:16:41Z</time></trkpt>
<trkpt lat="46.36755" lon="7.73696"><ele></ele><time>2025-9-19T13:16:44Z</time></trkpt>
<trkpt lat="46.36753" lon="7.73693"><ele></ele><time>2025-9-19T13:16:47Z</time></trkpt>
<trkpt lat="46.3675" lon="7.73691"><ele></ele><time>2025-9-19T13:16:50Z</time></trkpt>
<trkpt lat="46.36749" lon="7.7369"><ele></ele><time>2025-9-19T13:16:53Z</time></trkpt>
<trkpt lat="46.36744" lon="7.73687"><ele></ele><time>2025-9-19T13:16:56Z</time></trkpt>
<trkpt lat="46.3674" lon="7.73686"><ele></ele><time>2025-9-19T13:16:59Z</time></trkpt>
<trkpt lat="46.36738" lon="7.73686"><ele></ele><time>2025-9-19T13:17:2Z</time></trkpt>
<trkpt lat="46.36735" lon="7.73686"><ele></ele><time>2025-9-19T13:17:5Z</time></trkpt>
<trkpt lat="46.36731" lon="7.73687"><ele></ele><time>2025-9-19T13:17:8Z</time></trkpt>
<trkpt lat="46.3673" lon="7.73686"><ele></ele><time>2025-9-19T13:17:11Z</time></trkpt>
<trkpt lat="46.36724" lon="7.73684"><ele></ele><time>2025-9-19T13:17:14Z</time></trkpt>
<trkpt lat="46.36722" lon="7.73683"><ele></ele><time>2025-9-19T13:17:17Z</time></trkpt>
<trkpt lat="46.3672" lon="7.73682"><ele></ele><time>2025-9-19T13:17:20Z</time></trkpt>
<trkpt lat="46.36718" lon="7.73681"><ele></ele><time>2025-9-19T13:17:23Z</time></trkpt>
<trkpt lat="46.36717" lon="7.73682"><ele></ele><time>2025-9-19T13:17:26Z</time></trkpt>
<trkpt lat="46.36715" lon="7.73682"><ele></ele><time>2025-9-19T13:17:29Z</time></trkpt>
<trkpt lat="46.36711" lon="7.73684"><ele></ele><time>2025-9-19T13:17:32Z</time></trkpt>
<trkpt lat="46.36709" lon="7.73685"><ele></ele><time>2025-9-19T13:17:35Z</time></trkpt>
<trkpt lat="46.36704" lon="7.73689"><ele></ele><time>2025-9-19T13:17:38Z</time></trkpt>
<trkpt lat="46.36702" lon="7.7369"><ele></ele><time>2025-9-19T13:17:41Z</time></trkpt>
<trkpt lat="46.36697" lon="7.73693"><ele></ele><time>2025-9-19T13:17:44Z</time></trkpt>
<trkpt lat="46.36694" lon="7.73693"><ele></ele><time>2025-9-19T13:17:47Z</time></trkpt>
<trkpt lat="46.36691" lon="7.73692"><ele></ele><time>2025-9-19T13:17:50Z</time></trkpt>
<trkpt lat="46.36686" lon="7.73691"><ele></ele><time>2025-9-19T13:17:53Z</time></trkpt>
<trkpt lat="46.36685" lon="7.73691"><ele></ele><time>2025-9-19T13:17:56Z</time></trkpt>
<trkpt lat="46.36681" lon="7.73687"><ele></ele><time>2025-9-19T13:17:59Z</time></trkpt>
<trkpt lat="46.3668" lon="7.73686"><ele></ele><time>2025-9-19T13:18:2Z</time></trkpt>
<trkpt lat="46.36674" lon="7.73682"><ele></ele><time>2025-9-19T13:18:5Z</time></trkpt>
<trkpt lat="46.36673" lon="7.73681"><ele></ele><time>2025-9-19T13:18:8Z</time></trkpt>
<trkpt lat="46.36669" lon="7.7368"><ele></ele><time>2025-9-19T13:18:11Z</time></trkpt>
<trkpt lat="46.36667" lon="7.73679"><ele></ele><time>2025-9-19T13:18:14Z</time></trkpt>
<trkpt lat="46.36663" lon="7.73676"><ele></ele><time>2025-9-19T13:18:17Z</time></trkpt>
<trkpt lat="46.36662" lon="7.73676"><ele></ele><time>2025-9-19T13:18:20Z</time></trkpt>
<trkpt lat="46.36658" lon="7.73676"><ele></ele><time>2025-9-19T13:18:23Z</time></trkpt>
<trkpt lat="46.36656" lon="7.73676"><ele></ele><time>2025-9-19T13:18:26Z</time></trkpt>
<trkpt lat="46.36655" lon="7.73675"><ele></ele><time>2025-9-19T13:18:29Z</time></trkpt>
<trkpt lat="46.36655" lon="7.73675"><ele></ele><time>2025-9-19T13:18:32Z</time></trkpt>
<trkpt lat="46.36655" lon="7.73675"><ele></ele><time>2025-9-19T13:18:35Z</time></trkpt>
<trkpt lat="46.36655" lon="7.73675"><ele></ele><time>2025-9-19T13:18:38Z</time></trkpt>
<trkpt lat="46.36655" lon="7.73674"><ele></ele><time>2025-9-19T13:18:41Z</time></trkpt>
<trkpt lat="46.36655" lon="7.73675"><ele></ele><time>2025-9-19T13:18:44Z</time></trkpt>
<trkpt lat="46.36655" lon="7.73675"><ele></ele><time>2025-9-19T13:18:47Z</time></trkpt>
<trkpt lat="46.36652" lon="7.73674"><ele></ele><time>2025-9-19T13:18:50Z</time></trkpt>
<trkpt lat="46.36645" lon="7.73672"><ele></ele><time>2025-9-19T13:18:53Z</time></trkpt>
<trkpt lat="46.36644" lon="7.73673"><ele></ele><time>2025-9-19T13:18:56Z</time></trkpt>
<trkpt lat="46.36635" lon="7.73674"><ele></ele><time>2025-9-19T13:18:59Z</time></trkpt>
<trkpt lat="46.36631" lon="7.73673"><ele></ele><time>2025-9-19T13:19:2Z</time></trkpt>
<trkpt lat="46.36621" lon="7.7367"><ele></ele><time>2025-9-19T13:19:5Z</time></trkpt>
<trkpt lat="46.36613" lon="7.73667"><ele></ele><time>2025-9-19T13:19:8Z</time></trkpt>
<trkpt lat="46.36608" lon="7.73665"><ele></ele><time>2025-9-19T13:19:11Z</time></trkpt>
<trkpt lat="46.36606" lon="7.73665"><ele></ele><time>2025-9-19T13:19:14Z</time></trkpt>
<trkpt lat="46.366" lon="7.73663"><ele></ele><time>2025-9-19T13:19:17Z</time></trkpt>
<trkpt lat="46.36598" lon="7.73662"><ele></ele><time>2025-9-19T13:19:20Z</time></trkpt>
<trkpt lat="46.36594" lon="7.7366"><ele></ele><time>2025-9-19T13:19:23Z</time></trkpt>
<trkpt lat="46.36591" lon="7.73659"><ele></ele><time>2025-9-19T13:19:26Z</time></trkpt>
<trkpt lat="46.36588" lon="7.73656"><ele></ele><time>2025-9-19T13:19:29Z</time></trkpt>
<trkpt lat="46.36585" lon="7.73652"><ele></ele><time>2025-9-19T13:19:32Z</time></trkpt>
<trkpt lat="46.36583" lon="7.73649"><ele></ele><time>2025-9-19T13:19:35Z</time></trkpt>
<trkpt lat="46.3658" lon="7.73644"><ele></ele><time>2025-9-19T13:19:38Z</time></trkpt>
<trkpt lat="46.36577" lon="7.7364"><ele></ele><time>2025-9-19T13:19:41Z</time></trkpt>
<trkpt lat="46.36577" lon="7.73641"><ele></ele><time>2025-9-19T13:19:44Z</time></trkpt>
<trkpt lat="46.36578" lon="7.73642"><ele></ele><time>2025-9-19T13:19:47Z</time></trkpt>
<trkpt lat="46.36578" lon="7.73641"><ele></ele><time>2025-9-19T13:19:50Z</time></trkpt>
<trkpt lat="46.36578" lon="7.73641"><ele></ele><time>2025-9-19T13:19:53Z</time></trkpt>
<trkpt lat="46.36577" lon="7.73636"><ele></ele><time>2025-9-19T13:19:56Z</time></trkpt>
<trkpt lat="46.36577" lon="7.73635"><ele></ele><time>2025-9-19T13:19:59Z</time></trkpt>
<trkpt lat="46.36577" lon="7.73627"><ele></ele><time>2025-9-19T13:20:2Z</time></trkpt>
<trkpt lat="46.36576" lon="7.73621"><ele></ele><time>2025-9-19T13:20:5Z</time></trkpt>
<trkpt lat="46.36576" lon="7.73617"><ele></ele><time>2025-9-19T13:20:8Z</time></trkpt>
<trkpt lat="46.36575" lon="7.73608"><ele></ele><time>2025-9-19T13:20:11Z</time></trkpt>
<trkpt lat="46.36574" lon="7.73607"><ele></ele><time>2025-9-19T13:20:14Z</time></trkpt>
<trkpt lat="46.36573" lon="7.73606"><ele></ele><time>2025-9-19T13:20:17Z</time></trkpt>
<trkpt lat="46.36569" lon="7.73601"><ele></ele><time>2025-9-19T13:20:20Z</time></trkpt>
<trkpt lat="46.36569" lon="7.736"><ele></ele><time>2025-9-19T13:20:23Z</time></trkpt>
<trkpt lat="46.36565" lon="7.73595"><ele></ele><time>2025-9-19T13:20:26Z</time></trkpt>
<trkpt lat="46.36563" lon="7.73592"><ele></ele><time>2025-9-19T13:20:29Z</time></trkpt>
<trkpt lat="46.36558" lon="7.73585"><ele></ele><time>2025-9-19T13:20:32Z</time></trkpt>
<trkpt lat="46.36552" lon="7.7358"><ele></ele><time>2025-9-19T13:20:35Z</time></trkpt>
<trkpt lat="46.3655" lon="7.73579"><ele></ele><time>2025-9-19T13:20:38Z</time></trkpt>
<trkpt lat="46.36544" lon="7.73576"><ele></ele><time>2025-9-19T13:20:41Z</time></trkpt>
<trkpt lat="46.36539" lon="7.73573"><ele></ele><time>2025-9-19T13:20:44Z</time></trkpt>
<trkpt lat="46.36532" lon="7.73567"><ele></ele><time>2025-9-19T13:20:47Z</time></trkpt>
<trkpt lat="46.36526" lon="7.73562"><ele></ele><time>2025-9-19T13:20:50Z</time></trkpt>
<trkpt lat="46.36522" lon="7.73559"><ele></ele><time>2025-9-19T13:20:53Z</time></trkpt>
<trkpt lat="46.36516" lon="7.73556"><ele></ele><time>2025-9-19T13:20:56Z</time></trkpt>
<trkpt lat="46.36509" lon="7.73555"><ele></ele><time>2025-9-19T13:20:59Z</time></trkpt>
<trkpt lat="46.36508" lon="7.73555"><ele></ele><time>2025-9-19T13:21:2Z</time></trkpt>
<trkpt lat="46.36502" lon="7.73554"><ele></ele><time>2025-9-19T13:21:5Z</time></trkpt>
<trkpt lat="46.36497" lon="7.73554"><ele></ele><time>2025-9-19T13:21:8Z</time></trkpt>
<trkpt lat="46.36486" lon="7.73553"><ele></ele><time>2025-9-19T13:21:11Z</time></trkpt>
<trkpt lat="46.36479" lon="7.73552"><ele></ele><time>2025-9-19T13:21:14Z</time></trkpt>
<trkpt lat="46.36478" lon="7.73553"><ele></ele><time>2025-9-19T13:21:17Z</time></trkpt>
<trkpt lat="46.36477" lon="7.73553"><ele></ele><time>2025-9-19T13:21:20Z</time></trkpt>
<trkpt lat="46.36477" lon="7.73553"><ele></ele><time>2025-9-19T13:21:23Z</time></trkpt>
<trkpt lat="46.36477" lon="7.73553"><ele></ele><time>2025-9-19T13:21:26Z</time></trkpt>
<trkpt lat="46.36477" lon="7.73553"><ele></ele><time>2025-9-19T13:21:29Z</time></trkpt>
<trkpt lat="46.36477" lon="7.73553"><ele></ele><time>2025-9-19T13:21:32Z</time></trkpt>
<trkpt lat="46.36476" lon="7.73553"><ele></ele><time>2025-9-19T13:21:35Z</time></trkpt>
<trkpt lat="46.36469" lon="7.73551"><ele></ele><time>2025-9-19T13:21:38Z</time></trkpt>
<trkpt lat="46.36464" lon="7.7355"><ele></ele><time>2025-9-19T13:21:41Z</time></trkpt>
<trkpt lat="46.36462" lon="7.73548"><ele></ele><time>2025-9-19T13:21:44Z</time></trkpt>
<trkpt lat="46.36461" lon="7.73547"><ele></ele><time>2025-9-19T13:21:47Z</time></trkpt>
<trkpt lat="46.36459" lon="7.73544"><ele></ele><time>2025-9-19T13:21:50Z</time></trkpt>
<trkpt lat="46.36455" lon="7.73538"><ele></ele><time>2025-9-19T13:21:53Z</time></trkpt>
<trkpt lat="46.36454" lon="7.73534"><ele></ele><time>2025-9-19T13:21:56Z</time></trkpt>
<trkpt lat="46.36452" lon="7.73529"><ele></ele><time>2025-9-19T13:21:59Z</time></trkpt>
<trkpt lat="46.36446" lon="7.7352"><ele></ele><time>2025-9-19T13:22:2Z</time></trkpt>
<trkpt lat="46.36443" lon="7.73514"><ele></ele><time>2025-9-19T13:22:5Z</time></trkpt>
<trkpt lat="46.36439" lon="7.73506"><ele></ele><time>2025-9-19T13:22:8Z</time></trkpt>
<trkpt lat="46.36435" lon="7.73499"><ele></ele><time>2025-9-19T13:22:11Z</time></trkpt>
<trkpt lat="46.36434" lon="7.73495"><ele></ele><time>2025-9-19T13:22:14Z</time></trkpt>
<trkpt lat="46.36432" lon="7.73482"><ele></ele><time>2025-9-19T13:22:17Z</time></trkpt>
<trkpt lat="46.36429" lon="7.73475"><ele></ele><time>2025-9-19T13:22:20Z</time></trkpt>
<trkpt lat="46.36427" lon="7.73473"><ele></ele><time>2025-9-19T13:22:23Z</time></trkpt>
<trkpt lat="46.36424" lon="7.7347"><ele></ele><time>2025-9-19T13:22:26Z</time></trkpt>
<trkpt lat="46.36419" lon="7.73468"><ele></ele><time>2025-9-19T13:22:29Z</time></trkpt>
<trkpt lat="46.36412" lon="7.73471"><ele></ele><time>2025-9-19T13:22:32Z</time></trkpt>
<trkpt lat="46.36411" lon="7.73472"><ele></ele><time>2025-9-19T13:22:35Z</time></trkpt>
<trkpt lat="46.36407" lon="7.73478"><ele></ele><time>2025-9-19T13:22:38Z</time></trkpt>
<trkpt lat="46.36406" lon="7.73482"><ele></ele><time>2025-9-19T13:22:41Z</time></trkpt>
<trkpt lat="46.36404" lon="7.73489"><ele></ele><time>2025-9-19T13:22:44Z</time></trkpt>
<trkpt lat="46.36401" lon="7.73493"><ele></ele><time>2025-9-19T13:22:47Z</time></trkpt>
<trkpt lat="46.36398" lon="7.73496"><ele></ele><time>2025-9-19T13:22:50Z</time></trkpt>
<trkpt lat="46.36395" lon="7.73499"><ele></ele><time>2025-9-19T13:22:53Z</time></trkpt>
<trkpt lat="46.36388" lon="7.735"><ele></ele><time>2025-9-19T13:22:56Z</time></trkpt>
<trkpt lat="46.36385" lon="7.73498"><ele></ele><time>2025-9-19T13:22:59Z</time></trkpt>
<trkpt lat="46.3638" lon="7.73498"><ele></ele><time>2025-9-19T13:23:2Z</time></trkpt>
<trkpt lat="46.36375" lon="7.73497"><ele></ele><time>2025-9-19T13:23:5Z</time></trkpt>
<trkpt lat="46.36375" lon="7.73497"><ele></ele><time>2025-9-19T13:23:8Z</time></trkpt>
<trkpt lat="46.36375" lon="7.73497"><ele></ele><time>2025-9-19T13:23:11Z</time></trkpt>
<trkpt lat="46.36375" lon="7.73497"><ele></ele><time>2025-9-19T13:23:14Z</time></trkpt>
<trkpt lat="46.36375" lon="7.73497"><ele></ele><time>2025-9-19T13:23:17Z</time></trkpt>
<trkpt lat="46.36376" lon="7.73497"><ele></ele><time>2025-9-19T13:23:20Z</time></trkpt>
<trkpt lat="46.36375" lon="7.73498"><ele></ele><time>2025-9-19T13:23:23Z</time></trkpt>
<trkpt lat="46.36364" lon="7.73498"><ele></ele><time>2025-9-19T13:23:26Z</time></trkpt>
<trkpt lat="46.36348" lon="7.73499"><ele></ele><time>2025-9-19T13:23:29Z</time></trkpt>
<trkpt lat="46.36344" lon="7.73502"><ele></ele><time>2025-9-19T13:23:32Z</time></trkpt>
<trkpt lat="46.36335" lon="7.73507"><ele></ele><time>2025-9-19T13:23:35Z</time></trkpt>
<trkpt lat="46.36325" lon="7.73507"><ele></ele><time>2025-9-19T13:23:38Z</time></trkpt>
<trkpt lat="46.3632" lon="7.73504"><ele></ele><time>2025-9-19T13:23:41Z</time></trkpt>
<trkpt lat="46.36319" lon="7.73503"><ele></ele><time>2025-9-19T13:23:44Z</time></trkpt>
<trkpt lat="46.36312" lon="7.73497"><ele></ele><time>2025-9-19T13:23:47Z</time></trkpt>
<trkpt lat="46.36308" lon="7.73494"><ele></ele><time>2025-9-19T13:23:50Z</time></trkpt>
<trkpt lat="46.36303" lon="7.73492"><ele></ele><time>2025-9-19T13:23:53Z</time></trkpt>
<trkpt lat="46.36296" lon="7.7349"><ele></ele><time>2025-9-19T13:23:56Z</time></trkpt>
<trkpt lat="46.36289" lon="7.73491"><ele></ele><time>2025-9-19T13:23:59Z</time></trkpt>
<trkpt lat="46.36271" lon="7.73492"><ele></ele><time>2025-9-19T13:24:2Z</time></trkpt>
<trkpt lat="46.36266" lon="7.73492"><ele></ele><time>2025-9-19T13:24:5Z</time></trkpt>
<trkpt lat="46.36259" lon="7.73494"><ele></ele><time>2025-9-19T13:24:8Z</time></trkpt>
<trkpt lat="46.36258" lon="7.73494"><ele></ele><time>2025-9-19T13:24:11Z</time></trkpt>
<trkpt lat="46.36258" lon="7.73494"><ele></ele><time>2025-9-19T13:24:14Z</time></trkpt>
<trkpt lat="46.36258" lon="7.73494"><ele></ele><time>2025-9-19T13:24:17Z</time></trkpt>
<trkpt lat="46.36258" lon="7.73494"><ele></ele><time>2025-9-19T13:24:20Z</time></trkpt>
<trkpt lat="46.36258" lon="7.73494"><ele></ele><time>2025-9-19T13:24:23Z</time></trkpt>
<trkpt lat="46.36258" lon="7.73494"><ele></ele><time>2025-9-19T13:24:26Z</time></trkpt>
<trkpt lat="46.36258" lon="7.73494"><ele></ele><time>2025-9-19T13:24:29Z</time></trkpt>
<trkpt lat="46.36258" lon="7.73494"><ele></ele><time>2025-9-19T13:24:32Z</time></trkpt>
<trkpt lat="46.36258" lon="7.73494"><ele></ele><time>2025-9-19T13:24:35Z</time></trkpt>
<trkpt lat="46.36258" lon="7.73494"><ele></ele><time>2025-9-19T13:24:38Z</time></trkpt>
<trkpt lat="46.36257" lon="7.73495"><ele></ele><time>2025-9-19T13:24:41Z</time></trkpt>
<trkpt lat="46.36258" lon="7.73494"><ele></ele><time>2025-9-19T13:24:44Z</time></trkpt>
<trkpt lat="46.36258" lon="7.73494"><ele></ele><time>2025-9-19T13:24:47Z</time></trkpt>
<trkpt lat="46.36258" lon="7.73494"><ele></ele><time>2025-9-19T13:24:50Z</time></trkpt>
<trkpt lat="46.36258" lon="7.73494"><ele></ele><time>2025-9-19T13:24:53Z</time></trkpt>
<trkpt lat="46.36258" lon="7.73494"><ele></ele><time>2025-9-19T13:24:56Z</time></trkpt>
<trkpt lat="46.36257" lon="7.73496"><ele></ele><time>2025-9-19T13:24:59Z</time></trkpt>
<trkpt lat="46.36257" lon="7.73496"><ele></ele><time>2025-9-19T13:25:2Z</time></trkpt>
<trkpt lat="46.36257" lon="7.73496"><ele></ele><time>2025-9-19T13:25:5Z</time></trkpt>
<trkpt lat="46.36257" lon="7.73496"><ele></ele><time>2025-9-19T13:25:8Z</time></trkpt>
<trkpt lat="46.36257" lon="7.73496"><ele></ele><time>2025-9-19T13:25:11Z</time></trkpt>
<trkpt lat="46.36257" lon="7.73496"><ele></ele><time>2025-9-19T13:25:14Z</time></trkpt>
<trkpt lat="46.36257" lon="7.73496"><ele></ele><time>2025-9-19T13:25:17Z</time></trkpt>
<trkpt lat="46.36257" lon="7.73496"><ele></ele><time>2025-9-19T13:25:20Z</time></trkpt>
<trkpt lat="46.36257" lon="7.73496"><ele></ele><time>2025-9-19T13:25:23Z</time></trkpt>
<trkpt lat="46.36257" lon="7.73496"><ele></ele><time>2025-9-19T13:25:26Z</time></trkpt>
<trkpt lat="46.36257" lon="7.73496"><ele></ele><time>2025-9-19T13:25:29Z</time></trkpt>
<trkpt lat="46.36257" lon="7.73496"><ele></ele><time>2025-9-19T13:25:32Z</time></trkpt>
<trkpt lat="46.36257" lon="7.73496"><ele></ele><time>2025-9-19T13:25:35Z</time></trkpt>
<trkpt lat="46.36257" lon="7.73496"><ele></ele><time>2025-9-19T13:25:38Z</time></trkpt>
<trkpt lat="46.36257" lon="7.73496"><ele></ele><time>2025-9-19T13:25:41Z</time></trkpt>
<trkpt lat="46.36257" lon="7.73496"><ele></ele><time>2025-9-19T13:25:44Z</time></trkpt>
<trkpt lat="46.36257" lon="7.73496"><ele></ele><time>2025-9-19T13:25:47Z</time></trkpt>
<trkpt lat="46.36257" lon="7.73496"><ele></ele><time>2025-9-19T13:25:50Z</time></trkpt>
<trkpt lat="46.36257" lon="7.73496"><ele></ele><time>2025-9-19T13:25:53Z</time></trkpt>
<trkpt lat="46.36257" lon="7.73496"><ele></ele><time>2025-9-19T13:25:56Z</time></trkpt>
<trkpt lat="46.36257" lon="7.73496"><ele></ele><time>2025-9-19T13:25:59Z</time></trkpt>
<trkpt lat="46.36257" lon="7.73496"><ele></ele><time>2025-9-19T13:26:2Z</time></trkpt>
<trkpt lat="46.36257" lon="7.73496"><ele></ele><time>2025-9-19T13:26:5Z</time></trkpt>
<trkpt lat="46.36257" lon="7.73496"><ele></ele><time>2025-9-19T13:26:8Z</time></trkpt>
<trkpt lat="46.36257" lon="7.73496"><ele></ele><time>2025-9-19T13:26:11Z</time></trkpt>
<trkpt lat="46.36257" lon="7.73496"><ele></ele><time>2025-9-19T13:26:14Z</time></trkpt>
<trkpt lat="46.36257" lon="7.73496"><ele></ele><time>2025-9-19T13:26:17Z</time></trkpt>
<trkpt lat="46.36257" lon="7.73496"><ele></ele><time>2025-9-19T13:26:20Z</time></trkpt>
<trkpt lat="46.36257" lon="7.73496"><ele></ele><time>2025-9-19T13:26:23Z</time></trkpt>
<trkpt lat="46.36257" lon="7.73496"><ele></ele><time>2025-9-19T13:26:26Z</time></trkpt>
<trkpt lat="46.36257" lon="7.73496"><ele></ele><time>2025-9-19T13:26:29Z</time></trkpt>
<trkpt lat="46.36257" lon="7.73496"><ele></ele><time>2025-9-19T13:26:32Z</time></trkpt>
<trkpt lat="46.36257" lon="7.73496"><ele></ele><time>2025-9-19T13:26:35Z</time></trkpt>
<trkpt lat="46.36257" lon="7.73496"><ele></ele><time>2025-9-19T13:26:38Z</time></trkpt>
<trkpt lat="46.36257" lon="7.73496"><ele></ele><time>2025-9-19T13:26:41Z</time></trkpt>
<trkpt lat="46.36257" lon="7.73496"><ele></ele><time>2025-9-19T13:26:44Z</time></trkpt>
<trkpt lat="46.36257" lon="7.73496"><ele></ele><time>2025-9-19T13:26:47Z</time></trkpt>
<trkpt lat="46.36257" lon="7.73496"><ele></ele><time>2025-9-19T13:26:50Z</time></trkpt>
<trkpt lat="46.36257" lon="7.73496"><ele></ele><time>2025-9-19T13:26:53Z</time></trkpt>
<trkpt lat="46.36257" lon="7.73496"><ele></ele><time>2025-9-19T13:26:56Z</time></trkpt>
<trkpt lat="46.36257" lon="7.73496"><ele></ele><time>2025-9-19T13:26:59Z</time></trkpt>
<trkpt lat="46.36257" lon="7.73496"><ele></ele><time>2025-9-19T13:27:2Z</time></trkpt>
<trkpt lat="46.36257" lon="7.73496"><ele></ele><time>2025-9-19T13:27:5Z</time></trkpt>
<trkpt lat="46.36257" lon="7.73496"><ele></ele><time>2025-9-19T13:27:8Z</time></trkpt>
<trkpt lat="46.36257" lon="7.73496"><ele></ele><time>2025-9-19T13:27:11Z</time></trkpt>
<trkpt lat="46.36257" lon="7.73496"><ele></ele><time>2025-9-19T13:27:14Z</time></trkpt>
<trkpt lat="46.36257" lon="7.73496"><ele></ele><time>2025-9-19T13:27:17Z</time></trkpt>
<trkpt lat="46.36257" lon="7.73496"><ele></ele><time>2025-9-19T13:27:20Z</time></trkpt>
<trkpt lat="46.36257" lon="7.73496"><ele></ele><time>2025-9-19T13:27:23Z</time></trkpt>
<trkpt lat="46.36257" lon="7.73496"><ele></ele><time>2025-9-19T13:27:26Z</time></trkpt>
<trkpt lat="46.36257" lon="7.73496"><ele></ele><time>2025-9-19T13:27:29Z</time></trkpt>
<trkpt lat="46.36257" lon="7.73496"><ele></ele><time>2025-9-19T13:27:32Z</time></trkpt>
<trkpt lat="46.36257" lon="7.73496"><ele></ele><time>2025-9-19T13:27:35Z</time></trkpt>
<trkpt lat="46.36257" lon="7.73496"><ele></ele><time>2025-9-19T13:27:38Z</time></trkpt>
<trkpt lat="46.36257" lon="7.73496"><ele></ele><time>2025-9-19T13:27:41Z</time></trkpt>
<trkpt lat="46.36257" lon="7.73496"><ele></ele><time>2025-9-19T13:27:44Z</time></trkpt>
<trkpt lat="46.36257" lon="7.73496"><ele></ele><time>2025-9-19T13:27:47Z</time></trkpt>
<trkpt lat="46.36257" lon="7.73496"><ele></ele><time>2025-9-19T13:27:50Z</time></trkpt>
<trkpt lat="46.36257" lon="7.73496"><ele></ele><time>2025-9-19T13:27:53Z</time></trkpt>
<trkpt lat="46.36257" lon="7.73496"><ele></ele><time>2025-9-19T13:27:56Z</time></trkpt>
<trkpt lat="46.36257" lon="7.73496"><ele></ele><time>2025-9-19T13:27:59Z</time></trkpt>
<trkpt lat="46.36257" lon="7.73496"><ele></ele><time>2025-9-19T13:28:2Z</time></trkpt>
<trkpt lat="46.36257" lon="7.73496"><ele></ele><time>2025-9-19T13:28:5Z</time></trkpt>
<trkpt lat="46.36257" lon="7.73496"><ele></ele><time>2025-9-19T13:28:8Z</time></trkpt>
<trkpt lat="46.36257" lon="7.73496"><ele></ele><time>2025-9-19T13:28:11Z</time></trkpt>
<trkpt lat="46.36257" lon="7.73496"><ele></ele><time>2025-9-19T13:28:14Z</time></trkpt>
<trkpt lat="46.36257" lon="7.73496"><ele></ele><time>2025-9-19T13:28:17Z</time></trkpt>
<trkpt lat="46.36257" lon="7.73496"><ele></ele><time>2025-9-19T13:28:20Z</time></trkpt>
<trkpt lat="46.36257" lon="7.73496"><ele></ele><time>2025-9-19T13:28:23Z</time></trkpt>
<trkpt lat="46.36257" lon="7.73497"><ele></ele><time>2025-9-19T13:28:26Z</time></trkpt>
<trkpt lat="46.36256" lon="7.73497"><ele></ele><time>2025-9-19T13:28:29Z</time></trkpt>
<trkpt lat="46.36254" lon="7.735"><ele></ele><time>2025-9-19T13:28:32Z</time></trkpt>
<trkpt lat="46.36244" lon="7.73507"><ele></ele><time>2025-9-19T13:28:35Z</time></trkpt>
<trkpt lat="46.36233" lon="7.73523"><ele></ele><time>2025-9-19T13:28:38Z</time></trkpt>
<trkpt lat="46.36233" lon="7.73528"><ele></ele><time>2025-9-19T13:28:41Z</time></trkpt>
<trkpt lat="46.36232" lon="7.73549"><ele></ele><time>2025-9-19T13:28:44Z</time></trkpt>
<trkpt lat="46.36225" lon="7.7357"><ele></ele><time>2025-9-19T13:28:47Z</time></trkpt>
<trkpt lat="46.3622" lon="7.73579"><ele></ele><time>2025-9-19T13:28:50Z</time></trkpt>
<trkpt lat="46.36213" lon="7.7359"><ele></ele><time>2025-9-19T13:28:53Z</time></trkpt>
<trkpt lat="46.36211" lon="7.73594"><ele></ele><time>2025-9-19T13:28:56Z</time></trkpt>
<trkpt lat="46.36203" lon="7.736"><ele></ele><time>2025-9-19T13:28:59Z</time></trkpt>
<trkpt lat="46.36198" lon="7.73604"><ele></ele><time>2025-9-19T13:29:2Z</time></trkpt>
<trkpt lat="46.36188" lon="7.73606"><ele></ele><time>2025-9-19T13:29:5Z</time></trkpt>
<trkpt lat="46.36183" lon="7.73606"><ele></ele><time>2025-9-19T13:29:8Z</time></trkpt>
<trkpt lat="46.36179" lon="7.73606"><ele></ele><time>2025-9-19T13:29:11Z</time></trkpt>
<trkpt lat="46.36174" lon="7.73606"><ele></ele><time>2025-9-19T13:29:14Z</time></trkpt>
<trkpt lat="46.36159" lon="7.73609"><ele></ele><time>2025-9-19T13:29:17Z</time></trkpt>
<trkpt lat="46.36147" lon="7.73614"><ele></ele><time>2025-9-19T13:29:20Z</time></trkpt>
<trkpt lat="46.36126" lon="7.73619"><ele></ele><time>2025-9-19T13:29:23Z</time></trkpt>
<trkpt lat="46.36112" lon="7.73614"><ele></ele><time>2025-9-19T13:29:26Z</time></trkpt>
<trkpt lat="46.36109" lon="7.73612"><ele></ele><time>2025-9-19T13:29:29Z</time></trkpt>
<trkpt lat="46.361" lon="7.73604"><ele></ele><time>2025-9-19T13:29:32Z</time></trkpt>
<trkpt lat="46.36098" lon="7.73602"><ele></ele><time>2025-9-19T13:29:35Z</time></trkpt>
<trkpt lat="46.36096" lon="7.736"><ele></ele><time>2025-9-19T13:29:38Z</time></trkpt>
<trkpt lat="46.36095" lon="7.736"><ele></ele><time>2025-9-19T13:29:41Z</time></trkpt>
<trkpt lat="46.36095" lon="7.736"><ele></ele><time>2025-9-19T13:29:44Z</time></trkpt>
<trkpt lat="46.36095" lon="7.736"><ele></ele><time>2025-9-19T13:29:47Z</time></trkpt>
<trkpt lat="46.36095" lon="7.736"><ele></ele><time>2025-9-19T13:29:50Z</time></trkpt>
<trkpt lat="46.36095" lon="7.73599"><ele></ele><time>2025-9-19T13:29:53Z</time></trkpt>
<trkpt lat="46.36095" lon="7.736"><ele></ele><time>2025-9-19T13:29:56Z</time></trkpt>
<trkpt lat="46.36092" lon="7.73598"><ele></ele><time>2025-9-19T13:29:59Z</time></trkpt>
<trkpt lat="46.36085" lon="7.7359"><ele></ele><time>2025-9-19T13:30:2Z</time></trkpt>
<trkpt lat="46.36082" lon="7.73586"><ele></ele><time>2025-9-19T13:30:5Z</time></trkpt>
<trkpt lat="46.36073" lon="7.73577"><ele></ele><time>2025-9-19T13:30:8Z</time></trkpt>
<trkpt lat="46.36068" lon="7.73573"><ele></ele><time>2025-9-19T13:30:11Z</time></trkpt>
<trkpt lat="46.36062" lon="7.73569"><ele></ele><time>2025-9-19T13:30:14Z</time></trkpt>
<trkpt lat="46.36056" lon="7.73565"><ele></ele><time>2025-9-19T13:30:17Z</time></trkpt>
<trkpt lat="46.36051" lon="7.73563"><ele></ele><time>2025-9-19T13:30:20Z</time></trkpt>
<trkpt lat="46.36043" lon="7.73569"><ele></ele><time>2025-9-19T13:30:23Z</time></trkpt>
<trkpt lat="46.36044" lon="7.73582"><ele></ele><time>2025-9-19T13:30:26Z</time></trkpt>
<trkpt lat="46.36051" lon="7.7362"><ele></ele><time>2025-9-19T13:30:29Z</time></trkpt>
<trkpt lat="46.36044" lon="7.73634"><ele></ele><time>2025-9-19T13:30:32Z</time></trkpt>
<trkpt lat="46.36042" lon="7.73643"><ele></ele><time>2025-9-19T13:30:35Z</time></trkpt>
<trkpt lat="46.36042" lon="7.73644"><ele></ele><time>2025-9-19T13:30:38Z</time></trkpt>
<trkpt lat="46.36042" lon="7.73644"><ele></ele><time>2025-9-19T13:30:41Z</time></trkpt>
<trkpt lat="46.36042" lon="7.73644"><ele></ele><time>2025-9-19T13:30:44Z</time></trkpt>
<trkpt lat="46.36042" lon="7.73644"><ele></ele><time>2025-9-19T13:30:47Z</time></trkpt>
<trkpt lat="46.36042" lon="7.73644"><ele></ele><time>2025-9-19T13:30:50Z</time></trkpt>
<trkpt lat="46.36042" lon="7.73644"><ele></ele><time>2025-9-19T13:30:53Z</time></trkpt>
<trkpt lat="46.36042" lon="7.73644"><ele></ele><time>2025-9-19T13:30:56Z</time></trkpt>
<trkpt lat="46.36042" lon="7.73644"><ele></ele><time>2025-9-19T13:30:59Z</time></trkpt>
<trkpt lat="46.36042" lon="7.73644"><ele></ele><time>2025-9-19T13:31:2Z</time></trkpt>
<trkpt lat="46.36042" lon="7.73644"><ele></ele><time>2025-9-19T13:31:5Z</time></trkpt>
<trkpt lat="46.36043" lon="7.73641"><ele></ele><time>2025-9-19T13:31:8Z</time></trkpt>
<trkpt lat="46.36043" lon="7.73641"><ele></ele><time>2025-9-19T13:31:11Z</time></trkpt>
<trkpt lat="46.36043" lon="7.73641"><ele></ele><time>2025-9-19T13:31:14Z</time></trkpt>
<trkpt lat="46.36043" lon="7.73641"><ele></ele><time>2025-9-19T13:31:17Z</time></trkpt>
<trkpt lat="46.36043" lon="7.73641"><ele></ele><time>2025-9-19T13:31:20Z</time></trkpt>
<trkpt lat="46.36043" lon="7.73641"><ele></ele><time>2025-9-19T13:31:23Z</time></trkpt>
<trkpt lat="46.36043" lon="7.73641"><ele></ele><time>2025-9-19T13:31:26Z</time></trkpt>
<trkpt lat="46.36042" lon="7.73643"><ele></ele><time>2025-9-19T13:31:29Z</time></trkpt>
<trkpt lat="46.36041" lon="7.73644"><ele></ele><time>2025-9-19T13:31:32Z</time></trkpt>
<trkpt lat="46.3604" lon="7.73643"><ele></ele><time>2025-9-19T13:31:35Z</time></trkpt>
<trkpt lat="46.36038" lon="7.73643"><ele></ele><time>2025-9-19T13:31:38Z</time></trkpt>
<trkpt lat="46.36037" lon="7.73643"><ele></ele><time>2025-9-19T13:31:41Z</time></trkpt>
<trkpt lat="46.36033" lon="7.7364"><ele></ele><time>2025-9-19T13:31:44Z</time></trkpt>
<trkpt lat="46.36032" lon="7.7364"><ele></ele><time>2025-9-19T13:31:47Z</time></trkpt>
<trkpt lat="46.36029" lon="7.73639"><ele></ele><time>2025-9-19T13:31:50Z</time></trkpt>
<trkpt lat="46.36027" lon="7.73639"><ele></ele><time>2025-9-19T13:31:53Z</time></trkpt>
<trkpt lat="46.36026" lon="7.73638"><ele></ele><time>2025-9-19T13:31:56Z</time></trkpt>
<trkpt lat="46.36022" lon="7.73636"><ele></ele><time>2025-9-19T13:31:59Z</time></trkpt>
<trkpt lat="46.36021" lon="7.73636"><ele></ele><time>2025-9-19T13:32:2Z</time></trkpt>
<trkpt lat="46.3602" lon="7.73632"><ele></ele><time>2025-9-19T13:32:5Z</time></trkpt>
<trkpt lat="46.36019" lon="7.73631"><ele></ele><time>2025-9-19T13:32:8Z</time></trkpt>
<trkpt lat="46.36018" lon="7.7363"><ele></ele><time>2025-9-19T13:32:11Z</time></trkpt>
<trkpt lat="46.36016" lon="7.7363"><ele></ele><time>2025-9-19T13:32:14Z</time></trkpt>
<trkpt lat="46.36014" lon="7.7363"><ele></ele><time>2025-9-19T13:32:17Z</time></trkpt>
<trkpt lat="46.36013" lon="7.7363"><ele></ele><time>2025-9-19T13:32:20Z</time></trkpt>
<trkpt lat="46.36011" lon="7.73628"><ele></ele><time>2025-9-19T13:32:23Z</time></trkpt>
<trkpt lat="46.3601" lon="7.73628"><ele></ele><time>2025-9-19T13:32:26Z</time></trkpt>
<trkpt lat="46.3601" lon="7.73627"><ele></ele><time>2025-9-19T13:32:29Z</time></trkpt>
<trkpt lat="46.36006" lon="7.73623"><ele></ele><time>2025-9-19T13:32:32Z</time></trkpt>
<trkpt lat="46.36005" lon="7.73621"><ele></ele><time>2025-9-19T13:32:35Z</time></trkpt>
<trkpt lat="46.36002" lon="7.73617"><ele></ele><time>2025-9-19T13:32:38Z</time></trkpt>
<trkpt lat="46.36" lon="7.73615"><ele></ele><time>2025-9-19T13:32:41Z</time></trkpt>
<trkpt lat="46.35999" lon="7.73613"><ele></ele><time>2025-9-19T13:32:44Z</time></trkpt>
<trkpt lat="46.35999" lon="7.73612"><ele></ele><time>2025-9-19T13:32:47Z</time></trkpt>
<trkpt lat="46.35996" lon="7.7361"><ele></ele><time>2025-9-19T13:32:50Z</time></trkpt>
<trkpt lat="46.35994" lon="7.73606"><ele></ele><time>2025-9-19T13:32:53Z</time></trkpt>
<trkpt lat="46.35993" lon="7.73605"><ele></ele><time>2025-9-19T13:32:56Z</time></trkpt>
<trkpt lat="46.35991" lon="7.736"><ele></ele><time>2025-9-19T13:32:59Z</time></trkpt>
<trkpt lat="46.3599" lon="7.736"><ele></ele><time>2025-9-19T13:33:2Z</time></trkpt>
<trkpt lat="46.35988" lon="7.73604"><ele></ele><time>2025-9-19T13:33:5Z</time></trkpt>
<trkpt lat="46.35987" lon="7.73605"><ele></ele><time>2025-9-19T13:33:8Z</time></trkpt>
<trkpt lat="46.35984" lon="7.73605"><ele></ele><time>2025-9-19T13:33:11Z</time></trkpt>
<trkpt lat="46.35982" lon="7.73604"><ele></ele><time>2025-9-19T13:33:14Z</time></trkpt>
<trkpt lat="46.35979" lon="7.73599"><ele></ele><time>2025-9-19T13:33:17Z</time></trkpt>
<trkpt lat="46.35978" lon="7.73598"><ele></ele><time>2025-9-19T13:33:20Z</time></trkpt>
<trkpt lat="46.35976" lon="7.73592"><ele></ele><time>2025-9-19T13:33:23Z</time></trkpt>
<trkpt lat="46.35976" lon="7.7359"><ele></ele><time>2025-9-19T13:33:26Z</time></trkpt>
<trkpt lat="46.35974" lon="7.73586"><ele></ele><time>2025-9-19T13:33:29Z</time></trkpt>
<trkpt lat="46.35973" lon="7.73584"><ele></ele><time>2025-9-19T13:33:32Z</time></trkpt>
<trkpt lat="46.35971" lon="7.73581"><ele></ele><time>2025-9-19T13:33:35Z</time></trkpt>
<trkpt lat="46.3597" lon="7.7358"><ele></ele><time>2025-9-19T13:33:38Z</time></trkpt>
<trkpt lat="46.35967" lon="7.73576"><ele></ele><time>2025-9-19T13:33:41Z</time></trkpt>
<trkpt lat="46.35967" lon="7.73575"><ele></ele><time>2025-9-19T13:33:44Z</time></trkpt>
<trkpt lat="46.35967" lon="7.73577"><ele></ele><time>2025-9-19T13:33:47Z</time></trkpt>
<trkpt lat="46.35968" lon="7.7358"><ele></ele><time>2025-9-19T13:33:50Z</time></trkpt>
<trkpt lat="46.35967" lon="7.73583"><ele></ele><time>2025-9-19T13:33:53Z</time></trkpt>
<trkpt lat="46.35965" lon="7.73584"><ele></ele><time>2025-9-19T13:33:56Z</time></trkpt>
<trkpt lat="46.35963" lon="7.73582"><ele></ele><time>2025-9-19T13:33:59Z</time></trkpt>
<trkpt lat="46.35959" lon="7.73574"><ele></ele><time>2025-9-19T13:34:2Z</time></trkpt>
<trkpt lat="46.35955" lon="7.73573"><ele></ele><time>2025-9-19T13:34:5Z</time></trkpt>
<trkpt lat="46.35955" lon="7.73572"><ele></ele><time>2025-9-19T13:34:8Z</time></trkpt>
<trkpt lat="46.35949" lon="7.7357"><ele></ele><time>2025-9-19T13:34:11Z</time></trkpt>
<trkpt lat="46.35947" lon="7.73567"><ele></ele><time>2025-9-19T13:34:14Z</time></trkpt>
<trkpt lat="46.35946" lon="7.73567"><ele></ele><time>2025-9-19T13:34:17Z</time></trkpt>
<trkpt lat="46.35945" lon="7.73565"><ele></ele><time>2025-9-19T13:34:20Z</time></trkpt>
<trkpt lat="46.35945" lon="7.73565"><ele></ele><time>2025-9-19T13:34:23Z</time></trkpt>
<trkpt lat="46.35945" lon="7.73565"><ele></ele><time>2025-9-19T13:34:26Z</time></trkpt>
<trkpt lat="46.35945" lon="7.73561"><ele></ele><time>2025-9-19T13:34:29Z</time></trkpt>
<trkpt lat="46.35944" lon="7.7356"><ele></ele><time>2025-9-19T13:34:32Z</time></trkpt>
<trkpt lat="46.35943" lon="7.73555"><ele></ele><time>2025-9-19T13:34:35Z</time></trkpt>
<trkpt lat="46.3594" lon="7.73553"><ele></ele><time>2025-9-19T13:34:38Z</time></trkpt>
<trkpt lat="46.3594" lon="7.73552"><ele></ele><time>2025-9-19T13:34:41Z</time></trkpt>
<trkpt lat="46.35937" lon="7.73556"><ele></ele><time>2025-9-19T13:34:44Z</time></trkpt>
<trkpt lat="46.35937" lon="7.73556"><ele></ele><time>2025-9-19T13:34:47Z</time></trkpt>
<trkpt lat="46.35936" lon="7.73562"><ele></ele><time>2025-9-19T13:34:50Z</time></trkpt>
<trkpt lat="46.35935" lon="7.73565"><ele></ele><time>2025-9-19T13:34:53Z</time></trkpt>
<trkpt lat="46.35934" lon="7.73567"><ele></ele><time>2025-9-19T13:34:56Z</time></trkpt>
<trkpt lat="46.35934" lon="7.73568"><ele></ele><time>2025-9-19T13:34:59Z</time></trkpt>
<trkpt lat="46.35933" lon="7.7357"><ele></ele><time>2025-9-19T13:35:2Z</time></trkpt>
<trkpt lat="46.35935" lon="7.73573"><ele></ele><time>2025-9-19T13:35:5Z</time></trkpt>
<trkpt lat="46.35935" lon="7.73575"><ele></ele><time>2025-9-19T13:35:8Z</time></trkpt>
<trkpt lat="46.35935" lon="7.73575"><ele></ele><time>2025-9-19T13:35:11Z</time></trkpt>
<trkpt lat="46.35933" lon="7.73573"><ele></ele><time>2025-9-19T13:35:14Z</time></trkpt>
<trkpt lat="46.35933" lon="7.73573"><ele></ele><time>2025-9-19T13:35:17Z</time></trkpt>
<trkpt lat="46.35933" lon="7.73572"><ele></ele><time>2025-9-19T13:35:20Z</time></trkpt>
<trkpt lat="46.35933" lon="7.73571"><ele></ele><time>2025-9-19T13:35:23Z</time></trkpt>
<trkpt lat="46.35933" lon="7.73571"><ele></ele><time>2025-9-19T13:35:26Z</time></trkpt>
<trkpt lat="46.35933" lon="7.73571"><ele></ele><time>2025-9-19T13:35:29Z</time></trkpt>
<trkpt lat="46.35934" lon="7.73572"><ele></ele><time>2025-9-19T13:35:32Z</time></trkpt>
<trkpt lat="46.35934" lon="7.73573"><ele></ele><time>2025-9-19T13:35:35Z</time></trkpt>
<trkpt lat="46.35935" lon="7.73574"><ele></ele><time>2025-9-19T13:35:38Z</time></trkpt>
<trkpt lat="46.35937" lon="7.73577"><ele></ele><time>2025-9-19T13:35:41Z</time></trkpt>
<trkpt lat="46.35937" lon="7.73577"><ele></ele><time>2025-9-19T13:35:44Z</time></trkpt>
<trkpt lat="46.35937" lon="7.73579"><ele></ele><time>2025-9-19T13:35:47Z</time></trkpt>
<trkpt lat="46.35935" lon="7.73575"><ele></ele><time>2025-9-19T13:35:50Z</time></trkpt>
<trkpt lat="46.35934" lon="7.73575"><ele></ele><time>2025-9-19T13:35:53Z</time></trkpt>
<trkpt lat="46.35935" lon="7.73576"><ele></ele><time>2025-9-19T13:35:56Z</time></trkpt>
<trkpt lat="46.35936" lon="7.73575"><ele></ele><time>2025-9-19T13:35:59Z</time></trkpt>
<trkpt lat="46.35937" lon="7.73576"><ele></ele><time>2025-9-19T13:36:2Z</time></trkpt>
<trkpt lat="46.35938" lon="7.73576"><ele></ele><time>2025-9-19T13:36:5Z</time></trkpt>
<trkpt lat="46.35939" lon="7.73576"><ele></ele><time>2025-9-19T13:36:8Z</time></trkpt>
<trkpt lat="46.35938" lon="7.73576"><ele></ele><time>2025-9-19T13:36:11Z</time></trkpt>
<trkpt lat="46.35938" lon="7.73576"><ele></ele><time>2025-9-19T13:36:14Z</time></trkpt>
<trkpt lat="46.35938" lon="7.73576"><ele></ele><time>2025-9-19T13:36:17Z</time></trkpt>
<trkpt lat="46.35938" lon="7.73576"><ele></ele><time>2025-9-19T13:36:20Z</time></trkpt>
<trkpt lat="46.35938" lon="7.73576"><ele></ele><time>2025-9-19T13:36:23Z</time></trkpt>
<trkpt lat="46.35938" lon="7.73576"><ele></ele><time>2025-9-19T13:36:26Z</time></trkpt>
<trkpt lat="46.35939" lon="7.73573"><ele></ele><time>2025-9-19T13:36:29Z</time></trkpt>
<trkpt lat="46.35939" lon="7.73573"><ele></ele><time>2025-9-19T13:36:32Z</time></trkpt>
<trkpt lat="46.35939" lon="7.73573"><ele></ele><time>2025-9-19T13:36:35Z</time></trkpt>
<trkpt lat="46.35939" lon="7.73573"><ele></ele><time>2025-9-19T13:36:38Z</time></trkpt>
<trkpt lat="46.35939" lon="7.73573"><ele></ele><time>2025-9-19T13:36:41Z</time></trkpt>
<trkpt lat="46.35939" lon="7.73573"><ele></ele><time>2025-9-19T13:36:44Z</time></trkpt>
<trkpt lat="46.35937" lon="7.73575"><ele></ele><time>2025-9-19T13:36:47Z</time></trkpt>
<trkpt lat="46.35937" lon="7.73575"><ele></ele><time>2025-9-19T13:36:50Z</time></trkpt>
<trkpt lat="46.35937" lon="7.73575"><ele></ele><time>2025-9-19T13:36:53Z</time></trkpt>
<trkpt lat="46.35937" lon="7.73575"><ele></ele><time>2025-9-19T13:36:56Z</time></trkpt>
<trkpt lat="46.35937" lon="7.73575"><ele></ele><time>2025-9-19T13:36:59Z</time></trkpt>
<trkpt lat="46.35937" lon="7.73575"><ele></ele><time>2025-9-19T13:37:2Z</time></trkpt>
<trkpt lat="46.35937" lon="7.73575"><ele></ele><time>2025-9-19T13:37:5Z</time></trkpt>
<trkpt lat="46.35937" lon="7.73575"><ele></ele><time>2025-9-19T13:37:8Z</time></trkpt>
<trkpt lat="46.35937" lon="7.73575"><ele></ele><time>2025-9-19T13:37:11Z</time></trkpt>
<trkpt lat="46.35937" lon="7.73575"><ele></ele><time>2025-9-19T13:37:14Z</time></trkpt>
<trkpt lat="46.35937" lon="7.73575"><ele></ele><time>2025-9-19T13:37:17Z</time></trkpt>
<trkpt lat="46.35937" lon="7.73575"><ele></ele><time>2025-9-19T13:37:20Z</time></trkpt>
<trkpt lat="46.35937" lon="7.73575"><ele></ele><time>2025-9-19T13:37:23Z</time></trkpt>
<trkpt lat="46.35937" lon="7.73575"><ele></ele><time>2025-9-19T13:37:26Z</time></trkpt>
<trkpt lat="46.35937" lon="7.73575"><ele></ele><time>2025-9-19T13:37:29Z</time></trkpt>
<trkpt lat="46.35937" lon="7.73575"><ele></ele><time>2025-9-19T13:37:32Z</time></trkpt>
<trkpt lat="46.35937" lon="7.73575"><ele></ele><time>2025-9-19T13:37:35Z</time></trkpt>
<trkpt lat="46.35938" lon="7.73576"><ele></ele><time>2025-9-19T13:37:38Z</time></trkpt>
<trkpt lat="46.35938" lon="7.73576"><ele></ele><time>2025-9-19T13:37:41Z</time></trkpt>
<trkpt lat="46.35937" lon="7.73577"><ele></ele><time>2025-9-19T13:37:44Z</time></trkpt>
<trkpt lat="46.35936" lon="7.73577"><ele></ele><time>2025-9-19T13:37:47Z</time></trkpt>
<trkpt lat="46.35935" lon="7.73577"><ele></ele><time>2025-9-19T13:37:50Z</time></trkpt>
<trkpt lat="46.35937" lon="7.73575"><ele></ele><time>2025-9-19T13:37:53Z</time></trkpt>
<trkpt lat="46.35937" lon="7.73576"><ele></ele><time>2025-9-19T13:37:56Z</time></trkpt>
<trkpt lat="46.35937" lon="7.73575"><ele></ele><time>2025-9-19T13:37:59Z</time></trkpt>
<trkpt lat="46.35937" lon="7.73575"><ele></ele><time>2025-9-19T13:38:2Z</time></trkpt>
<trkpt lat="46.35937" lon="7.73575"><ele></ele><time>2025-9-19T13:38:5Z</time></trkpt>
<trkpt lat="46.35937" lon="7.73575"><ele></ele><time>2025-9-19T13:38:8Z</time></trkpt>
<trkpt lat="46.35937" lon="7.73575"><ele></ele><time>2025-9-19T13:38:11Z</time></trkpt>
<trkpt lat="46.35937" lon="7.73575"><ele></ele><time>2025-9-19T13:38:14Z</time></trkpt>
<trkpt lat="46.35937" lon="7.73575"><ele></ele><time>2025-9-19T13:38:17Z</time></trkpt>
<trkpt lat="46.35938" lon="7.73576"><ele></ele><time>2025-9-19T13:38:20Z</time></trkpt>
<trkpt lat="46.35937" lon="7.73575"><ele></ele><time>2025-9-19T13:38:23Z</time></trkpt>
<trkpt lat="46.35937" lon="7.73575"><ele></ele><time>2025-9-19T13:38:26Z</time></trkpt>
<trkpt lat="46.35937" lon="7.73575"><ele></ele><time>2025-9-19T13:38:29Z</time></trkpt>
<trkpt lat="46.35937" lon="7.73575"><ele></ele><time>2025-9-19T13:38:32Z</time></trkpt>
<trkpt lat="46.35937" lon="7.73576"><ele></ele><time>2025-9-19T13:38:35Z</time></trkpt>
<trkpt lat="46.35937" lon="7.73575"><ele></ele><time>2025-9-19T13:38:38Z</time></trkpt>
<trkpt lat="46.35937" lon="7.73575"><ele></ele><time>2025-9-19T13:38:41Z</time></trkpt>
<trkpt lat="46.35937" lon="7.73575"><ele></ele><time>2025-9-19T13:38:44Z</time></trkpt>
<trkpt lat="46.35937" lon="7.73575"><ele></ele><time>2025-9-19T13:38:47Z</time></trkpt>
<trkpt lat="46.35937" lon="7.73575"><ele></ele><time>2025-9-19T13:38:50Z</time></trkpt>
<trkpt lat="46.35937" lon="7.73575"><ele></ele><time>2025-9-19T13:38:53Z</time></trkpt>
<trkpt lat="46.35937" lon="7.73575"><ele></ele><time>2025-9-19T13:38:56Z</time></trkpt>
<trkpt lat="46.35937" lon="7.73575"><ele></ele><time>2025-9-19T13:38:59Z</time></trkpt>
<trkpt lat="46.35937" lon="7.73575"><ele></ele><time>2025-9-19T13:39:2Z</time></trkpt>
<trkpt lat="46.35937" lon="7.73575"><ele></ele><time>2025-9-19T13:39:5Z</time></trkpt>
<trkpt lat="46.35937" lon="7.73575"><ele></ele><time>2025-9-19T13:39:8Z</time></trkpt>
<trkpt lat="46.35937" lon="7.73575"><ele></ele><time>2025-9-19T13:39:11Z</time></trkpt>
<trkpt lat="46.35937" lon="7.73575"><ele></ele><time>2025-9-19T13:39:14Z</time></trkpt>
<trkpt lat="46.35937" lon="7.73575"><ele></ele><time>2025-9-19T13:39:17Z</time></trkpt>
<trkpt lat="46.35937" lon="7.73575"><ele></ele><time>2025-9-19T13:39:20Z</time></trkpt>
<trkpt lat="46.35937" lon="7.73575"><ele></ele><time>2025-9-19T13:39:23Z</time></trkpt>
<trkpt lat="46.35937" lon="7.73575"><ele></ele><time>2025-9-19T13:39:26Z</time></trkpt>
<trkpt lat="46.35937" lon="7.73575"><ele></ele><time>2025-9-19T13:39:29Z</time></trkpt>
<trkpt lat="46.35937" lon="7.73575"><ele></ele><time>2025-9-19T13:39:32Z</time></trkpt>
<trkpt lat="46.35938" lon="7.73575"><ele></ele><time>2025-9-19T13:39:35Z</time></trkpt>
<trkpt lat="46.35937" lon="7.73575"><ele></ele><time>2025-9-19T13:39:38Z</time></trkpt>
<trkpt lat="46.35938" lon="7.73575"><ele></ele><time>2025-9-19T13:39:41Z</time></trkpt>
<trkpt lat="46.35937" lon="7.73575"><ele></ele><time>2025-9-19T13:39:44Z</time></trkpt>
<trkpt lat="46.35937" lon="7.73575"><ele></ele><time>2025-9-19T13:39:47Z</time></trkpt>
<trkpt lat="46.35937" lon="7.73575"><ele></ele><time>2025-9-19T13:39:50Z</time></trkpt>
<trkpt lat="46.35937" lon="7.73575"><ele></ele><time>2025-9-19T13:39:53Z</time></trkpt>
<trkpt lat="46.35937" lon="7.73575"><ele></ele><time>2025-9-19T13:39:56Z</time></trkpt>
<trkpt lat="46.35937" lon="7.73575"><ele></ele><time>2025-9-19T13:39:59Z</time></trkpt>
<trkpt lat="46.35937" lon="7.73575"><ele></ele><time>2025-9-19T13:40:2Z</time></trkpt>
<trkpt lat="46.35937" lon="7.73575"><ele></ele><time>2025-9-19T13:40:5Z</time></trkpt>
<trkpt lat="46.35937" lon="7.73575"><ele></ele><time>2025-9-19T13:40:8Z</time></trkpt>
<trkpt lat="46.35937" lon="7.73575"><ele></ele><time>2025-9-19T13:40:11Z</time></trkpt>
<trkpt lat="46.35937" lon="7.73575"><ele></ele><time>2025-9-19T13:40:14Z</time></trkpt>
<trkpt lat="46.35938" lon="7.73577"><ele></ele><time>2025-9-19T13:40:17Z</time></trkpt>
<trkpt lat="46.35938" lon="7.73576"><ele></ele><time>2025-9-19T13:40:20Z</time></trkpt>
<trkpt lat="46.35937" lon="7.73575"><ele></ele><time>2025-9-19T13:40:23Z</time></trkpt>
<trkpt lat="46.35937" lon="7.73575"><ele></ele><time>2025-9-19T13:40:26Z</time></trkpt>
<trkpt lat="46.35937" lon="7.73575"><ele></ele><time>2025-9-19T13:40:29Z</time></trkpt>
<trkpt lat="46.35937" lon="7.73575"><ele></ele><time>2025-9-19T13:40:32Z</time></trkpt>
<trkpt lat="46.35937" lon="7.73575"><ele></ele><time>2025-9-19T13:40:35Z</time></trkpt>
<trkpt lat="46.35937" lon="7.73575"><ele></ele><time>2025-9-19T13:40:38Z</time></trkpt>
<trkpt lat="46.35937" lon="7.73575"><ele></ele><time>2025-9-19T13:40:41Z</time></trkpt>
<trkpt lat="46.35937" lon="7.73575"><ele></ele><time>2025-9-19T13:40:44Z</time></trkpt>
<trkpt lat="46.35937" lon="7.73575"><ele></ele><time>2025-9-19T13:40:47Z</time></trkpt>
<trkpt lat="46.35937" lon="7.73575"><ele></ele><time>2025-9-19T13:40:50Z</time></trkpt>
<trkpt lat="46.35937" lon="7.73575"><ele></ele><time>2025-9-19T13:40:53Z</time></trkpt>
<trkpt lat="46.35937" lon="7.73575"><ele></ele><time>2025-9-19T13:40:56Z</time></trkpt>
<trkpt lat="46.35937" lon="7.73575"><ele></ele><time>2025-9-19T13:40:59Z</time></trkpt>
<trkpt lat="46.35937" lon="7.73575"><ele></ele><time>2025-9-19T13:41:2Z</time></trkpt>
<trkpt lat="46.35937" lon="7.73575"><ele></ele><time>2025-9-19T13:41:5Z</time></trkpt>
<trkpt lat="46.35937" lon="7.73575"><ele></ele><time>2025-9-19T13:41:8Z</time></trkpt>
<trkpt lat="46.35937" lon="7.73575"><ele></ele><time>2025-9-19T13:41:11Z</time></trkpt>
<trkpt lat="46.35937" lon="7.73575"><ele></ele><time>2025-9-19T13:41:14Z</time></trkpt>
<trkpt lat="46.35937" lon="7.73575"><ele></ele><time>2025-9-19T13:41:17Z</time></trkpt>
<trkpt lat="46.35937" lon="7.73575"><ele></ele><time>2025-9-19T13:41:20Z</time></trkpt>
<trkpt lat="46.35937" lon="7.73575"><ele></ele><time>2025-9-19T13:41:23Z</time></trkpt>
<trkpt lat="46.35937" lon="7.73575"><ele></ele><time>2025-9-19T13:41:26Z</time></trkpt>
<trkpt lat="46.35937" lon="7.73575"><ele></ele><time>2025-9-19T13:41:29Z</time></trkpt>
<trkpt lat="46.35937" lon="7.73575"><ele></ele><time>2025-9-19T13:41:32Z</time></trkpt>
<trkpt lat="46.35937" lon="7.73575"><ele></ele><time>2025-9-19T13:41:35Z</time></trkpt>
<trkpt lat="46.35937" lon="7.73575"><ele></ele><time>2025-9-19T13:41:38Z</time></trkpt>
<trkpt lat="46.35937" lon="7.73575"><ele></ele><time>2025-9-19T13:41:41Z</time></trkpt>
<trkpt lat="46.35937" lon="7.73575"><ele></ele><time>2025-9-19T13:41:44Z</time></trkpt>
<trkpt lat="46.35937" lon="7.73575"><ele></ele><time>2025-9-19T13:41:47Z</time></trkpt>
<trkpt lat="46.35937" lon="7.73575"><ele></ele><time>2025-9-19T13:41:50Z</time></trkpt>
<trkpt lat="46.35937" lon="7.73575"><ele></ele><time>2025-9-19T13:41:53Z</time></trkpt>
<trkpt lat="46.35937" lon="7.73575"><ele></ele><time>2025-9-19T13:41:56Z</time></trkpt>
<trkpt lat="46.35937" lon="7.73576"><ele></ele><time>2025-9-19T13:41:59Z</time></trkpt>
<trkpt lat="46.35937" lon="7.73577"><ele></ele><time>2025-9-19T13:42:2Z</time></trkpt>
<trkpt lat="46.35937" lon="7.73577"><ele></ele><time>2025-9-19T13:42:5Z</time></trkpt>
<trkpt lat="46.35938" lon="7.73577"><ele></ele><time>2025-9-19T13:42:8Z</time></trkpt>
<trkpt lat="46.35938" lon="7.73577"><ele></ele><time>2025-9-19T13:42:11Z</time></trkpt>
<trkpt lat="46.35939" lon="7.73576"><ele></ele><time>2025-9-19T13:42:14Z</time></trkpt>
<trkpt lat="46.35937" lon="7.73577"><ele></ele><time>2025-9-19T13:42:17Z</time></trkpt>
<trkpt lat="46.35936" lon="7.73573"><ele></ele><time>2025-9-19T13:42:20Z</time></trkpt>
<trkpt lat="46.35936" lon="7.73573"><ele></ele><time>2025-9-19T13:42:23Z</time></trkpt>
<trkpt lat="46.35936" lon="7.73573"><ele></ele><time>2025-9-19T13:42:26Z</time></trkpt>
<trkpt lat="46.35937" lon="7.73576"><ele></ele><time>2025-9-19T13:42:29Z</time></trkpt>
<trkpt lat="46.35937" lon="7.73577"><ele></ele><time>2025-9-19T13:42:32Z</time></trkpt>
<trkpt lat="46.35936" lon="7.73578"><ele></ele><time>2025-9-19T13:42:35Z</time></trkpt>
<trkpt lat="46.35936" lon="7.73578"><ele></ele><time>2025-9-19T13:42:38Z</time></trkpt>
<trkpt lat="46.35936" lon="7.73578"><ele></ele><time>2025-9-19T13:42:41Z</time></trkpt>
<trkpt lat="46.35936" lon="7.73578"><ele></ele><time>2025-9-19T13:42:44Z</time></trkpt>
<trkpt lat="46.35936" lon="7.73578"><ele></ele><time>2025-9-19T13:42:47Z</time></trkpt>
<trkpt lat="46.35936" lon="7.73578"><ele></ele><time>2025-9-19T13:42:50Z</time></trkpt>
<trkpt lat="46.35936" lon="7.73578"><ele></ele><time>2025-9-19T13:42:53Z</time></trkpt>
<trkpt lat="46.35936" lon="7.73578"><ele></ele><time>2025-9-19T13:42:56Z</time></trkpt>
<trkpt lat="46.35938" lon="7.73576"><ele></ele><time>2025-9-19T13:42:59Z</time></trkpt>
<trkpt lat="46.35938" lon="7.73575"><ele></ele><time>2025-9-19T13:43:2Z</time></trkpt>
<trkpt lat="46.35938" lon="7.73575"><ele></ele><time>2025-9-19T13:43:5Z</time></trkpt>
<trkpt lat="46.35938" lon="7.73575"><ele></ele><time>2025-9-19T13:43:8Z</time></trkpt>
<trkpt lat="46.35938" lon="7.73575"><ele></ele><time>2025-9-19T13:43:11Z</time></trkpt>
<trkpt lat="46.35938" lon="7.73575"><ele></ele><time>2025-9-19T13:43:14Z</time></trkpt>
<trkpt lat="46.35938" lon="7.73575"><ele></ele><time>2025-9-19T13:43:17Z</time></trkpt>
<trkpt lat="46.35938" lon="7.73575"><ele></ele><time>2025-9-19T13:43:20Z</time></trkpt>
<trkpt lat="46.35938" lon="7.73575"><ele></ele><time>2025-9-19T13:43:23Z</time></trkpt>
<trkpt lat="46.35938" lon="7.73575"><ele></ele><time>2025-9-19T13:43:26Z</time></trkpt>
<trkpt lat="46.35938" lon="7.73575"><ele></ele><time>2025-9-19T13:43:29Z</time></trkpt>
<trkpt lat="46.35938" lon="7.73575"><ele></ele><time>2025-9-19T13:43:32Z</time></trkpt>
<trkpt lat="46.35938" lon="7.73575"><ele></ele><time>2025-9-19T13:43:35Z</time></trkpt>
<trkpt lat="46.35938" lon="7.73575"><ele></ele><time>2025-9-19T13:43:38Z</time></trkpt>
<trkpt lat="46.35937" lon="7.73576"><ele></ele><time>2025-9-19T13:43:41Z</time></trkpt>
<trkpt lat="46.35937" lon="7.73576"><ele></ele><time>2025-9-19T13:43:44Z</time></trkpt>
<trkpt lat="46.35937" lon="7.73576"><ele></ele><time>2025-9-19T13:43:47Z</time></trkpt>
<trkpt lat="46.35937" lon="7.73576"><ele></ele><time>2025-9-19T13:43:50Z</time></trkpt>
<trkpt lat="46.35937" lon="7.73576"><ele></ele><time>2025-9-19T13:43:53Z</time></trkpt>
<trkpt lat="46.35937" lon="7.73576"><ele></ele><time>2025-9-19T13:43:56Z</time></trkpt>
<trkpt lat="46.35937" lon="7.73577"><ele></ele><time>2025-9-19T13:43:59Z</time></trkpt>
<trkpt lat="46.35937" lon="7.73576"><ele></ele><time>2025-9-19T13:44:2Z</time></trkpt>
<trkpt lat="46.35937" lon="7.73576"><ele></ele><time>2025-9-19T13:44:5Z</time></trkpt>
<trkpt lat="46.35937" lon="7.73576"><ele></ele><time>2025-9-19T13:44:8Z</time></trkpt>
<trkpt lat="46.35937" lon="7.73576"><ele></ele><time>2025-9-19T13:44:11Z</time></trkpt>
<trkpt lat="46.35937" lon="7.73576"><ele></ele><time>2025-9-19T13:44:14Z</time></trkpt>
<trkpt lat="46.35937" lon="7.73576"><ele></ele><time>2025-9-19T13:44:17Z</time></trkpt>
<trkpt lat="46.35937" lon="7.73576"><ele></ele><time>2025-9-19T13:44:20Z</time></trkpt>
<trkpt lat="46.35937" lon="7.73576"><ele></ele><time>2025-9-19T13:44:23Z</time></trkpt>
<trkpt lat="46.35937" lon="7.73576"><ele></ele><time>2025-9-19T13:44:26Z</time></trkpt>
<trkpt lat="46.35938" lon="7.73575"><ele></ele><time>2025-9-19T13:44:29Z</time></trkpt>
<trkpt lat="46.35937" lon="7.73576"><ele></ele><time>2025-9-19T13:44:32Z</time></trkpt>
<trkpt lat="46.35937" lon="7.73576"><ele></ele><time>2025-9-19T13:44:35Z</time></trkpt>
<trkpt lat="46.35937" lon="7.73576"><ele></ele><time>2025-9-19T13:44:38Z</time></trkpt>
<trkpt lat="46.35937" lon="7.73576"><ele></ele><time>2025-9-19T13:44:41Z</time></trkpt>
<trkpt lat="46.35937" lon="7.73576"><ele></ele><time>2025-9-19T13:44:44Z</time></trkpt>
<trkpt lat="46.35937" lon="7.73576"><ele></ele><time>2025-9-19T13:44:47Z</time></trkpt>
<trkpt lat="46.35937" lon="7.73576"><ele></ele><time>2025-9-19T13:44:50Z</time></trkpt>
<trkpt lat="46.35937" lon="7.73576"><ele></ele><time>2025-9-19T13:44:53Z</time></trkpt>
<trkpt lat="46.35937" lon="7.73576"><ele></ele><time>2025-9-19T13:44:56Z</time></trkpt>
<trkpt lat="46.35937" lon="7.73576"><ele></ele><time>2025-9-19T13:44:59Z</time></trkpt>
<trkpt lat="46.35937" lon="7.73576"><ele></ele><time>2025-9-19T13:45:2Z</time></trkpt>
<trkpt lat="46.35937" lon="7.73576"><ele></ele><time>2025-9-19T13:45:5Z</time></trkpt>
<trkpt lat="46.35937" lon="7.73576"><ele></ele><time>2025-9-19T13:45:8Z</time></trkpt>
<trkpt lat="46.35937" lon="7.73576"><ele></ele><time>2025-9-19T13:45:11Z</time></trkpt>
<trkpt lat="46.35937" lon="7.73575"><ele></ele><time>2025-9-19T13:45:14Z</time></trkpt>
<trkpt lat="46.35937" lon="7.73576"><ele></ele><time>2025-9-19T13:45:17Z</time></trkpt>
<trkpt lat="46.35937" lon="7.73576"><ele></ele><time>2025-9-19T13:45:20Z</time></trkpt>
<trkpt lat="46.35937" lon="7.73576"><ele></ele><time>2025-9-19T13:45:23Z</time></trkpt>
<trkpt lat="46.35937" lon="7.73576"><ele></ele><time>2025-9-19T13:45:26Z</time></trkpt>
<trkpt lat="46.35937" lon="7.73576"><ele></ele><time>2025-9-19T13:45:29Z</time></trkpt>
<trkpt lat="46.35937" lon="7.73576"><ele></ele><time>2025-9-19T13:45:32Z</time></trkpt>
<trkpt lat="46.35937" lon="7.73576"><ele></ele><time>2025-9-19T13:45:35Z</time></trkpt>
<trkpt lat="46.35938" lon="7.73577"><ele></ele><time>2025-9-19T13:45:38Z</time></trkpt>
<trkpt lat="46.35939" lon="7.73577"><ele></ele><time>2025-9-19T13:45:41Z</time></trkpt>
<trkpt lat="46.35939" lon="7.73577"><ele></ele><time>2025-9-19T13:45:44Z</time></trkpt>
<trkpt lat="46.35939" lon="7.73577"><ele></ele><time>2025-9-19T13:45:47Z</time></trkpt>
<trkpt lat="46.35939" lon="7.73577"><ele></ele><time>2025-9-19T13:45:50Z</time></trkpt>
<trkpt lat="46.35939" lon="7.73577"><ele></ele><time>2025-9-19T13:45:53Z</time></trkpt>
<trkpt lat="46.35937" lon="7.73577"><ele></ele><time>2025-9-19T13:45:56Z</time></trkpt>
<trkpt lat="46.35937" lon="7.73578"><ele></ele><time>2025-9-19T13:45:59Z</time></trkpt>
<trkpt lat="46.35937" lon="7.73577"><ele></ele><time>2025-9-19T13:46:2Z</time></trkpt>
<trkpt lat="46.35937" lon="7.73577"><ele></ele><time>2025-9-19T13:46:5Z</time></trkpt>
<trkpt lat="46.35938" lon="7.73576"><ele></ele><time>2025-9-19T13:46:8Z</time></trkpt>
<trkpt lat="46.35938" lon="7.73576"><ele></ele><time>2025-9-19T13:46:11Z</time></trkpt>
<trkpt lat="46.35938" lon="7.73576"><ele></ele><time>2025-9-19T13:46:14Z</time></trkpt>
<trkpt lat="46.35938" lon="7.73576"><ele></ele><time>2025-9-19T13:46:17Z</time></trkpt>
<trkpt lat="46.35938" lon="7.73576"><ele></ele><time>2025-9-19T13:46:20Z</time></trkpt>
<trkpt lat="46.35938" lon="7.73576"><ele></ele><time>2025-9-19T13:46:23Z</time></trkpt>
<trkpt lat="46.35938" lon="7.73576"><ele></ele><time>2025-9-19T13:46:26Z</time></trkpt>
<trkpt lat="46.35938" lon="7.73576"><ele></ele><time>2025-9-19T13:46:29Z</time></trkpt>
<trkpt lat="46.35938" lon="7.73576"><ele></ele><time>2025-9-19T13:46:32Z</time></trkpt>
<trkpt lat="46.35938" lon="7.73576"><ele></ele><time>2025-9-19T13:46:35Z</time></trkpt>
<trkpt lat="46.35938" lon="7.73576"><ele></ele><time>2025-9-19T13:46:38Z</time></trkpt>
<trkpt lat="46.35938" lon="7.73576"><ele></ele><time>2025-9-19T13:46:41Z</time></trkpt>
<trkpt lat="46.35938" lon="7.73576"><ele></ele><time>2025-9-19T13:46:44Z</time></trkpt>
<trkpt lat="46.35938" lon="7.73576"><ele></ele><time>2025-9-19T13:46:47Z</time></trkpt>
<trkpt lat="46.35938" lon="7.73576"><ele></ele><time>2025-9-19T13:46:50Z</time></trkpt>
<trkpt lat="46.35938" lon="7.73576"><ele></ele><time>2025-9-19T13:46:53Z</time></trkpt>
<trkpt lat="46.35938" lon="7.73576"><ele></ele><time>2025-9-19T13:46:56Z</time></trkpt>
<trkpt lat="46.35938" lon="7.73576"><ele></ele><time>2025-9-19T13:46:59Z</time></trkpt>
<trkpt lat="46.35938" lon="7.73576"><ele></ele><time>2025-9-19T13:47:2Z</time></trkpt>
<trkpt lat="46.35938" lon="7.73576"><ele></ele><time>2025-9-19T13:47:5Z</time></trkpt>
<trkpt lat="46.35938" lon="7.73576"><ele></ele><time>2025-9-19T13:47:8Z</time></trkpt>
<trkpt lat="46.35938" lon="7.73576"><ele></ele><time>2025-9-19T13:47:11Z</time></trkpt>
<trkpt lat="46.35938" lon="7.73576"><ele></ele><time>2025-9-19T13:47:14Z</time></trkpt>
<trkpt lat="46.35938" lon="7.73577"><ele></ele><time>2025-9-19T13:47:17Z</time></trkpt>
<trkpt lat="46.35938" lon="7.73576"><ele></ele><time>2025-9-19T13:47:20Z</time></trkpt>
<trkpt lat="46.35937" lon="7.73577"><ele></ele><time>2025-9-19T13:47:23Z</time></trkpt>
<trkpt lat="46.35937" lon="7.73578"><ele></ele><time>2025-9-19T13:47:26Z</time></trkpt>
<trkpt lat="46.35937" lon="7.73578"><ele></ele><time>2025-9-19T13:47:29Z</time></trkpt>
<trkpt lat="46.35937" lon="7.73578"><ele></ele><time>2025-9-19T13:47:32Z</time></trkpt>
<trkpt lat="46.35937" lon="7.73578"><ele></ele><time>2025-9-19T13:47:35Z</time></trkpt>
<trkpt lat="46.35937" lon="7.73578"><ele></ele><time>2025-9-19T13:47:38Z</time></trkpt>
<trkpt lat="46.35937" lon="7.73578"><ele></ele><time>2025-9-19T13:47:41Z</time></trkpt>
<trkpt lat="46.35937" lon="7.73578"><ele></ele><time>2025-9-19T13:47:44Z</time></trkpt>
<trkpt lat="46.35937" lon="7.73578"><ele></ele><time>2025-9-19T13:47:47Z</time></trkpt>
<trkpt lat="46.35937" lon="7.73578"><ele></ele><time>2025-9-19T13:47:50Z</time></trkpt>
<trkpt lat="46.35937" lon="7.73578"><ele></ele><time>2025-9-19T13:47:53Z</time></trkpt>
<trkpt lat="46.35937" lon="7.73578"><ele></ele><time>2025-9-19T13:47:56Z</time></trkpt>
<trkpt lat="46.35937" lon="7.73578"><ele></ele><time>2025-9-19T13:47:59Z</time></trkpt>
<trkpt lat="46.35937" lon="7.73578"><ele></ele><time>2025-9-19T13:48:2Z</time></trkpt>
<trkpt lat="46.35937" lon="7.73578"><ele></ele><time>2025-9-19T13:48:5Z</time></trkpt>
<trkpt lat="46.35937" lon="7.73578"><ele></ele><time>2025-9-19T13:48:8Z</time></trkpt>
<trkpt lat="46.35937" lon="7.73578"><ele></ele><time>2025-9-19T13:48:11Z</time></trkpt>
<trkpt lat="46.35937" lon="7.73578"><ele></ele><time>2025-9-19T13:48:14Z</time></trkpt>
<trkpt lat="46.35938" lon="7.73577"><ele></ele><time>2025-9-19T13:48:17Z</time></trkpt>
<trkpt lat="46.35937" lon="7.73578"><ele></ele><time>2025-9-19T13:48:20Z</time></trkpt>
<trkpt lat="46.35937" lon="7.73577"><ele></ele><time>2025-9-19T13:48:23Z</time></trkpt>
<trkpt lat="46.35937" lon="7.73578"><ele></ele><time>2025-9-19T13:48:26Z</time></trkpt>
<trkpt lat="46.35937" lon="7.73578"><ele></ele><time>2025-9-19T13:48:29Z</time></trkpt>
<trkpt lat="46.35937" lon="7.73578"><ele></ele><time>2025-9-19T13:48:32Z</time></trkpt>
<trkpt lat="46.35937" lon="7.73578"><ele></ele><time>2025-9-19T13:48:35Z</time></trkpt>
<trkpt lat="46.35937" lon="7.73578"><ele></ele><time>2025-9-19T13:48:38Z</time></trkpt>
<trkpt lat="46.35937" lon="7.73578"><ele></ele><time>2025-9-19T13:48:41Z</time></trkpt>
<trkpt lat="46.35937" lon="7.73578"><ele></ele><time>2025-9-19T13:48:44Z</time></trkpt>
<trkpt lat="46.35937" lon="7.73578"><ele></ele><time>2025-9-19T13:48:47Z</time></trkpt>
<trkpt lat="46.35937" lon="7.73578"><ele></ele><time>2025-9-19T13:48:50Z</time></trkpt>
<trkpt lat="46.35937" lon="7.73578"><ele></ele><time>2025-9-19T13:48:53Z</time></trkpt>
<trkpt lat="46.35937" lon="7.73578"><ele></ele><time>2025-9-19T13:48:56Z</time></trkpt>
<trkpt lat="46.35937" lon="7.73578"><ele></ele><time>2025-9-19T13:48:59Z</time></trkpt>
<trkpt lat="46.35937" lon="7.73578"><ele></ele><time>2025-9-19T13:49:2Z</time></trkpt>
<trkpt lat="46.35937" lon="7.73578"><ele></ele><time>2025-9-19T13:49:5Z</time></trkpt>
<trkpt lat="46.35937" lon="7.73578"><ele></ele><time>2025-9-19T13:49:8Z</time></trkpt>
<trkpt lat="46.35937" lon="7.73578"><ele></ele><time>2025-9-19T13:49:11Z</time></trkpt>
<trkpt lat="46.35937" lon="7.73578"><ele></ele><time>2025-9-19T13:49:14Z</time></trkpt>
<trkpt lat="46.35937" lon="7.73578"><ele></ele><time>2025-9-19T13:49:17Z</time></trkpt>
<trkpt lat="46.35937" lon="7.73578"><ele></ele><time>2025-9-19T13:49:20Z</time></trkpt>
<trkpt lat="46.35937" lon="7.73578"><ele></ele><time>2025-9-19T13:49:23Z</time></trkpt>
<trkpt lat="46.35937" lon="7.73578"><ele></ele><time>2025-9-19T13:49:26Z</time></trkpt>
<trkpt lat="46.35937" lon="7.73578"><ele></ele><time>2025-9-19T13:49:29Z</time></trkpt>
<trkpt lat="46.35937" lon="7.73578"><ele></ele><time>2025-9-19T13:49:32Z</time></trkpt>
<trkpt lat="46.35937" lon="7.73578"><ele></ele><time>2025-9-19T13:49:35Z</time></trkpt>
<trkpt lat="46.35937" lon="7.73578"><ele></ele><time>2025-9-19T13:49:38Z</time></trkpt>
<trkpt lat="46.35937" lon="7.73578"><ele></ele><time>2025-9-19T13:49:41Z</time></trkpt>
<trkpt lat="46.35937" lon="7.73578"><ele></ele><time>2025-9-19T13:49:44Z</time></trkpt>
<trkpt lat="46.35937" lon="7.73578"><ele></ele><time>2025-9-19T13:49:47Z</time></trkpt>
<trkpt lat="46.35937" lon="7.73578"><ele></ele><time>2025-9-19T13:49:50Z</time></trkpt>
<trkpt lat="46.35937" lon="7.73578"><ele></ele><time>2025-9-19T13:49:53Z</time></trkpt>
<trkpt lat="46.35937" lon="7.73578"><ele></ele><time>2025-9-19T13:49:56Z</time></trkpt>
<trkpt lat="46.35937" lon="7.73578"><ele></ele><time>2025-9-19T13:49:59Z</time></trkpt>
<trkpt lat="46.35937" lon="7.73578"><ele></ele><time>2025-9-19T13:50:2Z</time></trkpt>
<trkpt lat="46.35937" lon="7.73578"><ele></ele><time>2025-9-19T13:50:5Z</time></trkpt>
<trkpt lat="46.35937" lon="7.73578"><ele></ele><time>2025-9-19T13:50:8Z</time></trkpt>
<trkpt lat="46.35937" lon="7.73578"><ele></ele><time>2025-9-19T13:50:11Z</time></trkpt>
<trkpt lat="46.35937" lon="7.73578"><ele></ele><time>2025-9-19T13:50:14Z</time></trkpt>
<trkpt lat="46.35937" lon="7.73578"><ele></ele><time>2025-9-19T13:50:17Z</time></trkpt>
<trkpt lat="46.35937" lon="7.73578"><ele></ele><time>2025-9-19T13:50:20Z</time></trkpt>
<trkpt lat="46.35937" lon="7.73578"><ele></ele><time>2025-9-19T13:50:23Z</time></trkpt>
<trkpt lat="46.35937" lon="7.73578"><ele></ele><time>2025-9-19T13:50:26Z</time></trkpt>
<trkpt lat="46.35937" lon="7.73578"><ele></ele><time>2025-9-19T13:50:29Z</time></trkpt>
<trkpt lat="46.35937" lon="7.73578"><ele></ele><time>2025-9-19T13:50:32Z</time></trkpt>
<trkpt lat="46.35937" lon="7.73578"><ele></ele><time>2025-9-19T13:50:35Z</time></trkpt>
<trkpt lat="46.35937" lon="7.73578"><ele></ele><time>2025-9-19T13:50:38Z</time></trkpt>
<trkpt lat="46.35936" lon="7.73578"><ele></ele><time>2025-9-19T13:50:41Z</time></trkpt>
<trkpt lat="46.35936" lon="7.73577"><ele></ele><time>2025-9-19T13:50:44Z</time></trkpt>
<trkpt lat="46.35935" lon="7.73575"><ele></ele><time>2025-9-19T13:50:47Z</time></trkpt>
<trkpt lat="46.35935" lon="7.73575"><ele></ele><time>2025-9-19T13:50:50Z</time></trkpt>
<trkpt lat="46.35935" lon="7.73575"><ele></ele><time>2025-9-19T13:50:53Z</time></trkpt>
<trkpt lat="46.35935" lon="7.73575"><ele></ele><time>2025-9-19T13:50:56Z</time></trkpt>
<trkpt lat="46.35936" lon="7.73576"><ele></ele><time>2025-9-19T13:50:59Z</time></trkpt>
<trkpt lat="46.35938" lon="7.73576"><ele></ele><time>2025-9-19T13:51:2Z</time></trkpt>
<trkpt lat="46.35938" lon="7.73576"><ele></ele><time>2025-9-19T13:51:5Z</time></trkpt>
<trkpt lat="46.35938" lon="7.73576"><ele></ele><time>2025-9-19T13:51:8Z</time></trkpt>
<trkpt lat="46.35938" lon="7.73576"><ele></ele><time>2025-9-19T13:51:11Z</time></trkpt>
<trkpt lat="46.35938" lon="7.73576"><ele></ele><time>2025-9-19T13:51:14Z</time></trkpt>
<trkpt lat="46.35938" lon="7.73576"><ele></ele><time>2025-9-19T13:51:17Z</time></trkpt>
<trkpt lat="46.35938" lon="7.73576"><ele></ele><time>2025-9-19T13:51:20Z</time></trkpt>
<trkpt lat="46.35938" lon="7.73576"><ele></ele><time>2025-9-19T13:51:23Z</time></trkpt>
<trkpt lat="46.35938" lon="7.73576"><ele></ele><time>2025-9-19T13:51:26Z</time></trkpt>
<trkpt lat="46.35938" lon="7.73576"><ele></ele><time>2025-9-19T13:51:29Z</time></trkpt>
<trkpt lat="46.35938" lon="7.73576"><ele></ele><time>2025-9-19T13:51:32Z</time></trkpt>
<trkpt lat="46.35938" lon="7.73576"><ele></ele><time>2025-9-19T13:51:35Z</time></trkpt>
<trkpt lat="46.35938" lon="7.73576"><ele></ele><time>2025-9-19T13:51:38Z</time></trkpt>
<trkpt lat="46.35938" lon="7.73576"><ele></ele><time>2025-9-19T13:51:41Z</time></trkpt>
<trkpt lat="46.35937" lon="7.73576"><ele></ele><time>2025-9-19T13:51:44Z</time></trkpt>
<trkpt lat="46.35937" lon="7.73576"><ele></ele><time>2025-9-19T13:51:47Z</time></trkpt>
<trkpt lat="46.35936" lon="7.73578"><ele></ele><time>2025-9-19T13:51:50Z</time></trkpt>
<trkpt lat="46.35938" lon="7.73579"><ele></ele><time>2025-9-19T13:51:53Z</time></trkpt>
<trkpt lat="46.35938" lon="7.73577"><ele></ele><time>2025-9-19T13:51:56Z</time></trkpt>
<trkpt lat="46.35938" lon="7.73576"><ele></ele><time>2025-9-19T13:51:59Z</time></trkpt>
<trkpt lat="46.35938" lon="7.73579"><ele></ele><time>2025-9-19T13:52:2Z</time></trkpt>
<trkpt lat="46.35938" lon="7.73579"><ele></ele><time>2025-9-19T13:52:5Z</time></trkpt>
<trkpt lat="46.35938" lon="7.73579"><ele></ele><time>2025-9-19T13:52:8Z</time></trkpt>
<trkpt lat="46.35938" lon="7.73579"><ele></ele><time>2025-9-19T13:52:11Z</time></trkpt>
<trkpt lat="46.35938" lon="7.73579"><ele></ele><time>2025-9-19T13:52:14Z</time></trkpt>
<trkpt lat="46.35938" lon="7.73579"><ele></ele><time>2025-9-19T13:52:17Z</time></trkpt>
<trkpt lat="46.35938" lon="7.73579"><ele></ele><time>2025-9-19T13:52:20Z</time></trkpt>
<trkpt lat="46.35938" lon="7.73579"><ele></ele><time>2025-9-19T13:52:23Z</time></trkpt>
<trkpt lat="46.35938" lon="7.73579"><ele></ele><time>2025-9-19T13:52:26Z</time></trkpt>
<trkpt lat="46.35938" lon="7.73579"><ele></ele><time>2025-9-19T13:52:29Z</time></trkpt>
<trkpt lat="46.35937" lon="7.73577"><ele></ele><time>2025-9-19T13:52:32Z</time></trkpt>
<trkpt lat="46.35937" lon="7.73577"><ele></ele><time>2025-9-19T13:52:35Z</time></trkpt>
<trkpt lat="46.35937" lon="7.73576"><ele></ele><time>2025-9-19T13:52:38Z</time></trkpt>
<trkpt lat="46.35937" lon="7.73576"><ele></ele><time>2025-9-19T13:52:41Z</time></trkpt>
<trkpt lat="46.35937" lon="7.73577"><ele></ele><time>2025-9-19T13:52:44Z</time></trkpt>
<trkpt lat="46.35938" lon="7.73576"><ele></ele><time>2025-9-19T13:52:47Z</time></trkpt>
<trkpt lat="46.35939" lon="7.73576"><ele></ele><time>2025-9-19T13:52:50Z</time></trkpt>
<trkpt lat="46.35939" lon="7.73578"><ele></ele><time>2025-9-19T13:52:53Z</time></trkpt>
<trkpt lat="46.35939" lon="7.73578"><ele></ele><time>2025-9-19T13:52:56Z</time></trkpt>
<trkpt lat="46.35938" lon="7.73575"><ele></ele><time>2025-9-19T13:52:59Z</time></trkpt>
<trkpt lat="46.35938" lon="7.73575"><ele></ele><time>2025-9-19T13:53:2Z</time></trkpt>
<trkpt lat="46.35938" lon="7.73575"><ele></ele><time>2025-9-19T13:53:5Z</time></trkpt>
<trkpt lat="46.35936" lon="7.73575"><ele></ele><time>2025-9-19T13:53:8Z</time></trkpt>
<trkpt lat="46.35934" lon="7.73575"><ele></ele><time>2025-9-19T13:53:11Z</time></trkpt>
<trkpt lat="46.35934" lon="7.73575"><ele></ele><time>2025-9-19T13:53:14Z</time></trkpt>
<trkpt lat="46.35934" lon="7.73575"><ele></ele><time>2025-9-19T13:53:17Z</time></trkpt>
<trkpt lat="46.35934" lon="7.73576"><ele></ele><time>2025-9-19T13:53:20Z</time></trkpt>
<trkpt lat="46.35936" lon="7.73576"><ele></ele><time>2025-9-19T13:53:23Z</time></trkpt>
<trkpt lat="46.35936" lon="7.73576"><ele></ele><time>2025-9-19T13:53:26Z</time></trkpt>
<trkpt lat="46.35935" lon="7.73575"><ele></ele><time>2025-9-19T13:53:29Z</time></trkpt>
<trkpt lat="46.35936" lon="7.73575"><ele></ele><time>2025-9-19T13:53:32Z</time></trkpt>
<trkpt lat="46.35936" lon="7.73576"><ele></ele><time>2025-9-19T13:53:35Z</time></trkpt>
<trkpt lat="46.35937" lon="7.73577"><ele></ele><time>2025-9-19T13:53:38Z</time></trkpt>
<trkpt lat="46.35938" lon="7.73578"><ele></ele><time>2025-9-19T13:53:41Z</time></trkpt>
<trkpt lat="46.35938" lon="7.73577"><ele></ele><time>2025-9-19T13:53:44Z</time></trkpt>
<trkpt lat="46.35938" lon="7.73577"><ele></ele><time>2025-9-19T13:53:47Z</time></trkpt>
<trkpt lat="46.35937" lon="7.73576"><ele></ele><time>2025-9-19T13:53:50Z</time></trkpt>
<trkpt lat="46.35934" lon="7.73572"><ele></ele><time>2025-9-19T13:53:53Z</time></trkpt>
<trkpt lat="46.35935" lon="7.73572"><ele></ele><time>2025-9-19T13:53:56Z</time></trkpt>
<trkpt lat="46.35936" lon="7.73574"><ele></ele><time>2025-9-19T13:53:59Z</time></trkpt>
<trkpt lat="46.35938" lon="7.73577"><ele></ele><time>2025-9-19T13:54:2Z</time></trkpt>
<trkpt lat="46.35938" lon="7.73577"><ele></ele><time>2025-9-19T13:54:5Z</time></trkpt>
<trkpt lat="46.35936" lon="7.73575"><ele></ele><time>2025-9-19T13:54:8Z</time></trkpt>
<trkpt lat="46.35935" lon="7.73574"><ele></ele><time>2025-9-19T13:54:11Z</time></trkpt>
<trkpt lat="46.35934" lon="7.73573"><ele></ele><time>2025-9-19T13:54:14Z</time></trkpt>
<trkpt lat="46.35934" lon="7.73573"><ele></ele><time>2025-9-19T13:54:17Z</time></trkpt>
<trkpt lat="46.35934" lon="7.73573"><ele></ele><time>2025-9-19T13:54:20Z</time></trkpt>
<trkpt lat="46.35934" lon="7.73573"><ele></ele><time>2025-9-19T13:54:23Z</time></trkpt>
<trkpt lat="46.35934" lon="7.73572"><ele></ele><time>2025-9-19T13:54:26Z</time></trkpt>
<trkpt lat="46.35934" lon="7.73572"><ele></ele><time>2025-9-19T13:54:29Z</time></trkpt>
<trkpt lat="46.35934" lon="7.73572"><ele></ele><time>2025-9-19T13:54:32Z</time></trkpt>
<trkpt lat="46.35934" lon="7.73572"><ele></ele><time>2025-9-19T13:54:35Z</time></trkpt>
<trkpt lat="46.35936" lon="7.73574"><ele></ele><time>2025-9-19T13:54:38Z</time></trkpt>
<trkpt lat="46.35937" lon="7.73574"><ele></ele><time>2025-9-19T13:54:41Z</time></trkpt>
<trkpt lat="46.35936" lon="7.73573"><ele></ele><time>2025-9-19T13:54:44Z</time></trkpt>
<trkpt lat="46.35936" lon="7.73573"><ele></ele><time>2025-9-19T13:54:47Z</time></trkpt>
<trkpt lat="46.35936" lon="7.73573"><ele></ele><time>2025-9-19T13:54:50Z</time></trkpt>
<trkpt lat="46.35936" lon="7.73573"><ele></ele><time>2025-9-19T13:54:53Z</time></trkpt>
<trkpt lat="46.35936" lon="7.73573"><ele></ele><time>2025-9-19T13:54:56Z</time></trkpt>
<trkpt lat="46.35936" lon="7.73573"><ele></ele><time>2025-9-19T13:54:59Z</time></trkpt>
<trkpt lat="46.35936" lon="7.73573"><ele></ele><time>2025-9-19T13:55:2Z</time></trkpt>
<trkpt lat="46.35936" lon="7.73572"><ele></ele><time>2025-9-19T13:55:5Z</time></trkpt>
<trkpt lat="46.35936" lon="7.73573"><ele></ele><time>2025-9-19T13:55:8Z</time></trkpt>
<trkpt lat="46.35936" lon="7.73573"><ele></ele><time>2025-9-19T13:55:11Z</time></trkpt>
<trkpt lat="46.35936" lon="7.73573"><ele></ele><time>2025-9-19T13:55:14Z</time></trkpt>
<trkpt lat="46.35935" lon="7.73574"><ele></ele><time>2025-9-19T13:55:17Z</time></trkpt>
<trkpt lat="46.35936" lon="7.73573"><ele></ele><time>2025-9-19T13:55:20Z</time></trkpt>
<trkpt lat="46.35936" lon="7.73573"><ele></ele><time>2025-9-19T13:55:23Z</time></trkpt>
<trkpt lat="46.35935" lon="7.73573"><ele></ele><time>2025-9-19T13:55:26Z</time></trkpt>
<trkpt lat="46.35934" lon="7.73572"><ele></ele><time>2025-9-19T13:55:29Z</time></trkpt>
<trkpt lat="46.35934" lon="7.73572"><ele></ele><time>2025-9-19T13:55:32Z</time></trkpt>
<trkpt lat="46.35934" lon="7.73572"><ele></ele><time>2025-9-19T13:55:35Z</time></trkpt>
<trkpt lat="46.35934" lon="7.73572"><ele></ele><time>2025-9-19T13:55:38Z</time></trkpt>
<trkpt lat="46.35934" lon="7.73572"><ele></ele><time>2025-9-19T13:55:41Z</time></trkpt>
<trkpt lat="46.35934" lon="7.73572"><ele></ele><time>2025-9-19T13:55:44Z</time></trkpt>
<trkpt lat="46.35934" lon="7.73573"><ele></ele><time>2025-9-19T13:55:47Z</time></trkpt>
<trkpt lat="46.35934" lon="7.73572"><ele></ele><time>2025-9-19T13:55:50Z</time></trkpt>
<trkpt lat="46.35934" lon="7.73572"><ele></ele><time>2025-9-19T13:55:53Z</time></trkpt>
<trkpt lat="46.35934" lon="7.73572"><ele></ele><time>2025-9-19T13:55:56Z</time></trkpt>
<trkpt lat="46.35934" lon="7.73572"><ele></ele><time>2025-9-19T13:55:59Z</time></trkpt>
<trkpt lat="46.35934" lon="7.7357"><ele></ele><time>2025-9-19T13:56:2Z</time></trkpt>
<trkpt lat="46.35934" lon="7.7357"><ele></ele><time>2025-9-19T13:56:5Z</time></trkpt>
<trkpt lat="46.35934" lon="7.73572"><ele></ele><time>2025-9-19T13:56:8Z</time></trkpt>
<trkpt lat="46.35934" lon="7.73572"><ele></ele><time>2025-9-19T13:56:11Z</time></trkpt>
<trkpt lat="46.35934" lon="7.73572"><ele></ele><time>2025-9-19T13:56:14Z</time></trkpt>
<trkpt lat="46.35934" lon="7.73572"><ele></ele><time>2025-9-19T13:56:17Z</time></trkpt>
<trkpt lat="46.35934" lon="7.73572"><ele></ele><time>2025-9-19T13:56:20Z</time></trkpt>
<trkpt lat="46.35934" lon="7.73571"><ele></ele><time>2025-9-19T13:56:23Z</time></trkpt>
<trkpt lat="46.35934" lon="7.73572"><ele></ele><time>2025-9-19T13:56:26Z</time></trkpt>
<trkpt lat="46.35934" lon="7.73572"><ele></ele><time>2025-9-19T13:56:29Z</time></trkpt>
<trkpt lat="46.35934" lon="7.73572"><ele></ele><time>2025-9-19T13:56:32Z</time></trkpt>
<trkpt lat="46.35934" lon="7.73572"><ele></ele><time>2025-9-19T13:56:35Z</time></trkpt>
<trkpt lat="46.35934" lon="7.73572"><ele></ele><time>2025-9-19T13:56:38Z</time></trkpt>
<trkpt lat="46.35934" lon="7.73572"><ele></ele><time>2025-9-19T13:56:41Z</time></trkpt>
<trkpt lat="46.35933" lon="7.73573"><ele></ele><time>2025-9-19T13:56:44Z</time></trkpt>
<trkpt lat="46.35933" lon="7.73573"><ele></ele><time>2025-9-19T13:56:47Z</time></trkpt>
<trkpt lat="46.35933" lon="7.73573"><ele></ele><time>2025-9-19T13:56:50Z</time></trkpt>
<trkpt lat="46.35933" lon="7.73573"><ele></ele><time>2025-9-19T13:56:53Z</time></trkpt>
<trkpt lat="46.35933" lon="7.73573"><ele></ele><time>2025-9-19T13:56:56Z</time></trkpt>
<trkpt lat="46.35933" lon="7.73573"><ele></ele><time>2025-9-19T13:56:59Z</time></trkpt>
<trkpt lat="46.35933" lon="7.73573"><ele></ele><time>2025-9-19T13:57:2Z</time></trkpt>
<trkpt lat="46.35933" lon="7.73573"><ele></ele><time>2025-9-19T13:57:5Z</time></trkpt>
<trkpt lat="46.35933" lon="7.73573"><ele></ele><time>2025-9-19T13:57:8Z</time></trkpt>
<trkpt lat="46.35933" lon="7.73573"><ele></ele><time>2025-9-19T13:57:11Z</time></trkpt>
<trkpt lat="46.35934" lon="7.73572"><ele></ele><time>2025-9-19T13:57:14Z</time></trkpt>
<trkpt lat="46.35934" lon="7.73572"><ele></ele><time>2025-9-19T13:57:17Z</time></trkpt>
<trkpt lat="46.35934" lon="7.73572"><ele></ele><time>2025-9-19T13:57:20Z</time></trkpt>
<trkpt lat="46.35934" lon="7.73572"><ele></ele><time>2025-9-19T13:57:23Z</time></trkpt>
<trkpt lat="46.35934" lon="7.73572"><ele></ele><time>2025-9-19T13:57:26Z</time></trkpt>
<trkpt lat="46.35934" lon="7.73572"><ele></ele><time>2025-9-19T13:57:29Z</time></trkpt>
<trkpt lat="46.35934" lon="7.73573"><ele></ele><time>2025-9-19T13:57:32Z</time></trkpt>
<trkpt lat="46.35934" lon="7.73571"><ele></ele><time>2025-9-19T13:57:35Z</time></trkpt>
<trkpt lat="46.35934" lon="7.73572"><ele></ele><time>2025-9-19T13:57:38Z</time></trkpt>
<trkpt lat="46.35934" lon="7.73572"><ele></ele><time>2025-9-19T13:57:41Z</time></trkpt>
<trkpt lat="46.35934" lon="7.73572"><ele></ele><time>2025-9-19T13:57:44Z</time></trkpt>
<trkpt lat="46.35934" lon="7.73572"><ele></ele><time>2025-9-19T13:57:47Z</time></trkpt>
<trkpt lat="46.35934" lon="7.73572"><ele></ele><time>2025-9-19T13:57:50Z</time></trkpt>
<trkpt lat="46.35934" lon="7.73572"><ele></ele><time>2025-9-19T13:57:53Z</time></trkpt>
<trkpt lat="46.35934" lon="7.73572"><ele></ele><time>2025-9-19T13:57:56Z</time></trkpt>
<trkpt lat="46.35934" lon="7.73572"><ele></ele><time>2025-9-19T13:57:59Z</time></trkpt>
<trkpt lat="46.35934" lon="7.7357"><ele></ele><time>2025-9-19T13:58:2Z</time></trkpt>
<trkpt lat="46.35934" lon="7.7357"><ele></ele><time>2025-9-19T13:58:5Z</time></trkpt>
<trkpt lat="46.35934" lon="7.7357"><ele></ele><time>2025-9-19T13:58:8Z</time></trkpt>
<trkpt lat="46.35934" lon="7.7357"><ele></ele><time>2025-9-19T13:58:11Z</time></trkpt>
<trkpt lat="46.35934" lon="7.7357"><ele></ele><time>2025-9-19T13:58:14Z</time></trkpt>
<trkpt lat="46.35935" lon="7.7357"><ele></ele><time>2025-9-19T13:58:17Z</time></trkpt>
<trkpt lat="46.35934" lon="7.7357"><ele></ele><time>2025-9-19T13:58:20Z</time></trkpt>
<trkpt lat="46.35935" lon="7.73573"><ele></ele><time>2025-9-19T13:58:23Z</time></trkpt>
<trkpt lat="46.35935" lon="7.73572"><ele></ele><time>2025-9-19T13:58:26Z</time></trkpt>
<trkpt lat="46.35936" lon="7.73571"><ele></ele><time>2025-9-19T13:58:29Z</time></trkpt>
<trkpt lat="46.35936" lon="7.73571"><ele></ele><time>2025-9-19T13:58:32Z</time></trkpt>
<trkpt lat="46.35936" lon="7.73571"><ele></ele><time>2025-9-19T13:58:35Z</time></trkpt>
<trkpt lat="46.35936" lon="7.73571"><ele></ele><time>2025-9-19T13:58:38Z</time></trkpt>
<trkpt lat="46.35936" lon="7.73573"><ele></ele><time>2025-9-19T13:58:41Z</time></trkpt>
<trkpt lat="46.35936" lon="7.73573"><ele></ele><time>2025-9-19T13:58:44Z</time></trkpt>
<trkpt lat="46.35936" lon="7.73573"><ele></ele><time>2025-9-19T13:58:47Z</time></trkpt>
<trkpt lat="46.35936" lon="7.73572"><ele></ele><time>2025-9-19T13:58:50Z</time></trkpt>
<trkpt lat="46.35935" lon="7.73572"><ele></ele><time>2025-9-19T13:58:53Z</time></trkpt>
<trkpt lat="46.35935" lon="7.73571"><ele></ele><time>2025-9-19T13:58:56Z</time></trkpt>
<trkpt lat="46.35935" lon="7.73571"><ele></ele><time>2025-9-19T13:58:59Z</time></trkpt>
<trkpt lat="46.35935" lon="7.73571"><ele></ele><time>2025-9-19T13:59:2Z</time></trkpt>
<trkpt lat="46.35935" lon="7.73571"><ele></ele><time>2025-9-19T13:59:5Z</time></trkpt>
<trkpt lat="46.35935" lon="7.73571"><ele></ele><time>2025-9-19T13:59:8Z</time></trkpt>
<trkpt lat="46.35935" lon="7.73571"><ele></ele><time>2025-9-19T13:59:11Z</time></trkpt>
<trkpt lat="46.35935" lon="7.7357"><ele></ele><time>2025-9-19T13:59:14Z</time></trkpt>
<trkpt lat="46.35935" lon="7.73571"><ele></ele><time>2025-9-19T13:59:17Z</time></trkpt>
<trkpt lat="46.35933" lon="7.73569"><ele></ele><time>2025-9-19T13:59:20Z</time></trkpt>
<trkpt lat="46.35935" lon="7.73554"><ele></ele><time>2025-9-19T13:59:23Z</time></trkpt>
<trkpt lat="46.35939" lon="7.7355"><ele></ele><time>2025-9-19T13:59:26Z</time></trkpt>
<trkpt lat="46.35942" lon="7.73552"><ele></ele><time>2025-9-19T13:59:29Z</time></trkpt>
<trkpt lat="46.35943" lon="7.73557"><ele></ele><time>2025-9-19T13:59:32Z</time></trkpt>
<trkpt lat="46.35947" lon="7.73564"><ele></ele><time>2025-9-19T13:59:35Z</time></trkpt>
<trkpt lat="46.3595" lon="7.73567"><ele></ele><time>2025-9-19T13:59:38Z</time></trkpt>
<trkpt lat="46.35953" lon="7.73568"><ele></ele><time>2025-9-19T13:59:41Z</time></trkpt>
<trkpt lat="46.35959" lon="7.73568"><ele></ele><time>2025-9-19T13:59:44Z</time></trkpt>
<trkpt lat="46.35961" lon="7.7357"><ele></ele><time>2025-9-19T13:59:47Z</time></trkpt>
<trkpt lat="46.35965" lon="7.7358"><ele></ele><time>2025-9-19T13:59:50Z</time></trkpt>
<trkpt lat="46.35967" lon="7.73581"><ele></ele><time>2025-9-19T13:59:53Z</time></trkpt>
<trkpt lat="46.35967" lon="7.73579"><ele></ele><time>2025-9-19T13:59:56Z</time></trkpt>
<trkpt lat="46.35967" lon="7.73576"><ele></ele><time>2025-9-19T13:59:59Z</time></trkpt>
<trkpt lat="46.35967" lon="7.73574"><ele></ele><time>2025-9-19T14:0:2Z</time></trkpt>
<trkpt lat="46.35968" lon="7.73573"><ele></ele><time>2025-9-19T14:0:5Z</time></trkpt>
<trkpt lat="46.35969" lon="7.73573"><ele></ele><time>2025-9-19T14:0:8Z</time></trkpt>
<trkpt lat="46.35971" lon="7.73577"><ele></ele><time>2025-9-19T14:0:11Z</time></trkpt>
<trkpt lat="46.35973" lon="7.73579"><ele></ele><time>2025-9-19T14:0:14Z</time></trkpt>
<trkpt lat="46.35976" lon="7.73586"><ele></ele><time>2025-9-19T14:0:17Z</time></trkpt>
<trkpt lat="46.35979" lon="7.73595"><ele></ele><time>2025-9-19T14:0:20Z</time></trkpt>
<trkpt lat="46.35983" lon="7.73603"><ele></ele><time>2025-9-19T14:0:23Z</time></trkpt>
<trkpt lat="46.35985" lon="7.73604"><ele></ele><time>2025-9-19T14:0:26Z</time></trkpt>
<trkpt lat="46.35986" lon="7.73602"><ele></ele><time>2025-9-19T14:0:29Z</time></trkpt>
<trkpt lat="46.35992" lon="7.73599"><ele></ele><time>2025-9-19T14:0:32Z</time></trkpt>
<trkpt lat="46.35995" lon="7.73601"><ele></ele><time>2025-9-19T14:0:35Z</time></trkpt>
<trkpt lat="46.35998" lon="7.73605"><ele></ele><time>2025-9-19T14:0:38Z</time></trkpt>
<trkpt lat="46.36004" lon="7.73616"><ele></ele><time>2025-9-19T14:0:41Z</time></trkpt>
<trkpt lat="46.36007" lon="7.73621"><ele></ele><time>2025-9-19T14:0:44Z</time></trkpt>
<trkpt lat="46.36014" lon="7.73627"><ele></ele><time>2025-9-19T14:0:47Z</time></trkpt>
<trkpt lat="46.36018" lon="7.73629"><ele></ele><time>2025-9-19T14:0:50Z</time></trkpt>
<trkpt lat="46.36023" lon="7.73635"><ele></ele><time>2025-9-19T14:0:53Z</time></trkpt>
<trkpt lat="46.36031" lon="7.73639"><ele></ele><time>2025-9-19T14:0:56Z</time></trkpt>
<trkpt lat="46.36038" lon="7.7364"><ele></ele><time>2025-9-19T14:0:59Z</time></trkpt>
<trkpt lat="46.36042" lon="7.73639"><ele></ele><time>2025-9-19T14:1:2Z</time></trkpt>
<trkpt lat="46.36044" lon="7.73636"><ele></ele><time>2025-9-19T14:1:5Z</time></trkpt>
<trkpt lat="46.36046" lon="7.73633"><ele></ele><time>2025-9-19T14:1:8Z</time></trkpt>
<trkpt lat="46.36052" lon="7.73624"><ele></ele><time>2025-9-19T14:1:11Z</time></trkpt>
<trkpt lat="46.36054" lon="7.73625"><ele></ele><time>2025-9-19T14:1:14Z</time></trkpt>
<trkpt lat="46.36052" lon="7.73626"><ele></ele><time>2025-9-19T14:1:17Z</time></trkpt>
<trkpt lat="46.36052" lon="7.73626"><ele></ele><time>2025-9-19T14:1:20Z</time></trkpt>
<trkpt lat="46.36052" lon="7.73626"><ele></ele><time>2025-9-19T14:1:23Z</time></trkpt>
<trkpt lat="46.36052" lon="7.73626"><ele></ele><time>2025-9-19T14:1:26Z</time></trkpt>
<trkpt lat="46.36054" lon="7.73625"><ele></ele><time>2025-9-19T14:1:29Z</time></trkpt>
<trkpt lat="46.36053" lon="7.73625"><ele></ele><time>2025-9-19T14:1:32Z</time></trkpt>
<trkpt lat="46.36053" lon="7.73624"><ele></ele><time>2025-9-19T14:1:35Z</time></trkpt>
<trkpt lat="46.36053" lon="7.73623"><ele></ele><time>2025-9-19T14:1:38Z</time></trkpt>
<trkpt lat="46.36053" lon="7.73623"><ele></ele><time>2025-9-19T14:1:41Z</time></trkpt>
<trkpt lat="46.36053" lon="7.73623"><ele></ele><time>2025-9-19T14:1:44Z</time></trkpt>
<trkpt lat="46.36053" lon="7.73623"><ele></ele><time>2025-9-19T14:1:47Z</time></trkpt>
<trkpt lat="46.36053" lon="7.73623"><ele></ele><time>2025-9-19T14:1:50Z</time></trkpt>
<trkpt lat="46.36053" lon="7.73623"><ele></ele><time>2025-9-19T14:1:53Z</time></trkpt>
<trkpt lat="46.36054" lon="7.73624"><ele></ele><time>2025-9-19T14:1:56Z</time></trkpt>
<trkpt lat="46.36053" lon="7.73625"><ele></ele><time>2025-9-19T14:1:59Z</time></trkpt>
<trkpt lat="46.36053" lon="7.73625"><ele></ele><time>2025-9-19T14:2:2Z</time></trkpt>
<trkpt lat="46.36053" lon="7.73625"><ele></ele><time>2025-9-19T14:2:5Z</time></trkpt>
<trkpt lat="46.36053" lon="7.73625"><ele></ele><time>2025-9-19T14:2:8Z</time></trkpt>
<trkpt lat="46.36053" lon="7.73625"><ele></ele><time>2025-9-19T14:2:11Z</time></trkpt>
<trkpt lat="46.36053" lon="7.73623"><ele></ele><time>2025-9-19T14:2:14Z</time></trkpt>
<trkpt lat="46.36053" lon="7.73623"><ele></ele><time>2025-9-19T14:2:17Z</time></trkpt>
<trkpt lat="46.36053" lon="7.73623"><ele></ele><time>2025-9-19T14:2:20Z</time></trkpt>
<trkpt lat="46.36053" lon="7.73623"><ele></ele><time>2025-9-19T14:2:23Z</time></trkpt>
<trkpt lat="46.36053" lon="7.73623"><ele></ele><time>2025-9-19T14:2:26Z</time></trkpt>
<trkpt lat="46.36053" lon="7.73623"><ele></ele><time>2025-9-19T14:2:29Z</time></trkpt>
<trkpt lat="46.36053" lon="7.73623"><ele></ele><time>2025-9-19T14:2:32Z</time></trkpt>
<trkpt lat="46.36054" lon="7.73621"><ele></ele><time>2025-9-19T14:2:35Z</time></trkpt>
<trkpt lat="46.3605" lon="7.73611"><ele></ele><time>2025-9-19T14:2:38Z</time></trkpt>
<trkpt lat="46.36045" lon="7.73586"><ele></ele><time>2025-9-19T14:2:41Z</time></trkpt>
<trkpt lat="46.36044" lon="7.73576"><ele></ele><time>2025-9-19T14:2:44Z</time></trkpt>
<trkpt lat="46.36047" lon="7.73563"><ele></ele><time>2025-9-19T14:2:47Z</time></trkpt>
<trkpt lat="46.36051" lon="7.7356"><ele></ele><time>2025-9-19T14:2:50Z</time></trkpt>
<trkpt lat="46.36055" lon="7.73562"><ele></ele><time>2025-9-19T14:2:53Z</time></trkpt>
<trkpt lat="46.36058" lon="7.73564"><ele></ele><time>2025-9-19T14:2:56Z</time></trkpt>
<trkpt lat="46.36062" lon="7.73565"><ele></ele><time>2025-9-19T14:2:59Z</time></trkpt>
<trkpt lat="46.36065" lon="7.73567"><ele></ele><time>2025-9-19T14:3:2Z</time></trkpt>
<trkpt lat="46.3607" lon="7.7357"><ele></ele><time>2025-9-19T14:3:5Z</time></trkpt>
<trkpt lat="46.36075" lon="7.73573"><ele></ele><time>2025-9-19T14:3:8Z</time></trkpt>
<trkpt lat="46.36076" lon="7.73574"><ele></ele><time>2025-9-19T14:3:11Z</time></trkpt>
<trkpt lat="46.36081" lon="7.73579"><ele></ele><time>2025-9-19T14:3:14Z</time></trkpt>
<trkpt lat="46.36085" lon="7.73585"><ele></ele><time>2025-9-19T14:3:17Z</time></trkpt>
<trkpt lat="46.36085" lon="7.73586"><ele></ele><time>2025-9-19T14:3:20Z</time></trkpt>
<trkpt lat="46.36091" lon="7.73592"><ele></ele><time>2025-9-19T14:3:23Z</time></trkpt>
<trkpt lat="46.36097" lon="7.73597"><ele></ele><time>2025-9-19T14:3:26Z</time></trkpt>
<trkpt lat="46.36098" lon="7.73597"><ele></ele><time>2025-9-19T14:3:29Z</time></trkpt>
<trkpt lat="46.36107" lon="7.73605"><ele></ele><time>2025-9-19T14:3:32Z</time></trkpt>
<trkpt lat="46.36119" lon="7.73613"><ele></ele><time>2025-9-19T14:3:35Z</time></trkpt>
<trkpt lat="46.36121" lon="7.73614"><ele></ele><time>2025-9-19T14:3:38Z</time></trkpt>
<trkpt lat="46.36135" lon="7.73615"><ele></ele><time>2025-9-19T14:3:41Z</time></trkpt>
<trkpt lat="46.36152" lon="7.73609"><ele></ele><time>2025-9-19T14:3:44Z</time></trkpt>
<trkpt lat="46.36162" lon="7.73605"><ele></ele><time>2025-9-19T14:3:47Z</time></trkpt>
<trkpt lat="46.36173" lon="7.73602"><ele></ele><time>2025-9-19T14:3:50Z</time></trkpt>
<trkpt lat="46.36184" lon="7.73601"><ele></ele><time>2025-9-19T14:3:53Z</time></trkpt>
<trkpt lat="46.3619" lon="7.73601"><ele></ele><time>2025-9-19T14:3:56Z</time></trkpt>
<trkpt lat="46.36192" lon="7.73601"><ele></ele><time>2025-9-19T14:3:59Z</time></trkpt>
<trkpt lat="46.36198" lon="7.73599"><ele></ele><time>2025-9-19T14:4:2Z</time></trkpt>
<trkpt lat="46.36199" lon="7.73598"><ele></ele><time>2025-9-19T14:4:5Z</time></trkpt>
<trkpt lat="46.36206" lon="7.73595"><ele></ele><time>2025-9-19T14:4:8Z</time></trkpt>
<trkpt lat="46.36208" lon="7.73593"><ele></ele><time>2025-9-19T14:4:11Z</time></trkpt>
<trkpt lat="46.36212" lon="7.73588"><ele></ele><time>2025-9-19T14:4:14Z</time></trkpt>
<trkpt lat="46.36214" lon="7.73585"><ele></ele><time>2025-9-19T14:4:17Z</time></trkpt>
<trkpt lat="46.36215" lon="7.73584"><ele></ele><time>2025-9-19T14:4:20Z</time></trkpt>
<trkpt lat="46.36219" lon="7.73579"><ele></ele><time>2025-9-19T14:4:23Z</time></trkpt>
<trkpt lat="46.3622" lon="7.73577"><ele></ele><time>2025-9-19T14:4:26Z</time></trkpt>
<trkpt lat="46.36223" lon="7.73572"><ele></ele><time>2025-9-19T14:4:29Z</time></trkpt>
<trkpt lat="46.36225" lon="7.73569"><ele></ele><time>2025-9-19T14:4:32Z</time></trkpt>
<trkpt lat="46.36227" lon="7.73563"><ele></ele><time>2025-9-19T14:4:35Z</time></trkpt>
<trkpt lat="46.36229" lon="7.73561"><ele></ele><time>2025-9-19T14:4:38Z</time></trkpt>
<trkpt lat="46.36229" lon="7.73559"><ele></ele><time>2025-9-19T14:4:41Z</time></trkpt>
<trkpt lat="46.3623" lon="7.73558"><ele></ele><time>2025-9-19T14:4:44Z</time></trkpt>
<trkpt lat="46.36231" lon="7.73553"><ele></ele><time>2025-9-19T14:4:47Z</time></trkpt>
<trkpt lat="46.36232" lon="7.73551"><ele></ele><time>2025-9-19T14:4:50Z</time></trkpt>
<trkpt lat="46.36232" lon="7.73534"><ele></ele><time>2025-9-19T14:4:53Z</time></trkpt>
<trkpt lat="46.36237" lon="7.73514"><ele></ele><time>2025-9-19T14:4:56Z</time></trkpt>
<trkpt lat="46.3625" lon="7.73499"><ele></ele><time>2025-9-19T14:4:59Z</time></trkpt>
<trkpt lat="46.36267" lon="7.73488"><ele></ele><time>2025-9-19T14:5:2Z</time></trkpt>
<trkpt lat="46.36281" lon="7.73486"><ele></ele><time>2025-9-19T14:5:5Z</time></trkpt>
<trkpt lat="46.36302" lon="7.73485"><ele></ele><time>2025-9-19T14:5:8Z</time></trkpt>
<trkpt lat="46.36309" lon="7.73488"><ele></ele><time>2025-9-19T14:5:11Z</time></trkpt>
<trkpt lat="46.36311" lon="7.7349"><ele></ele><time>2025-9-19T14:5:14Z</time></trkpt>
<trkpt lat="46.36316" lon="7.73495"><ele></ele><time>2025-9-19T14:5:17Z</time></trkpt>
<trkpt lat="46.36316" lon="7.73496"><ele></ele><time>2025-9-19T14:5:20Z</time></trkpt>
<trkpt lat="46.3632" lon="7.735"><ele></ele><time>2025-9-19T14:5:23Z</time></trkpt>
<trkpt lat="46.36321" lon="7.735"><ele></ele><time>2025-9-19T14:5:26Z</time></trkpt>
<trkpt lat="46.36324" lon="7.73503"><ele></ele><time>2025-9-19T14:5:29Z</time></trkpt>
<trkpt lat="46.36326" lon="7.73504"><ele></ele><time>2025-9-19T14:5:32Z</time></trkpt>
<trkpt lat="46.36329" lon="7.73505"><ele></ele><time>2025-9-19T14:5:35Z</time></trkpt>
<trkpt lat="46.36329" lon="7.73505"><ele></ele><time>2025-9-19T14:5:38Z</time></trkpt>
<trkpt lat="46.36331" lon="7.73505"><ele></ele><time>2025-9-19T14:5:41Z</time></trkpt>
<trkpt lat="46.36336" lon="7.73501"><ele></ele><time>2025-9-19T14:5:44Z</time></trkpt>
<trkpt lat="46.36339" lon="7.73499"><ele></ele><time>2025-9-19T14:5:47Z</time></trkpt>
<trkpt lat="46.36342" lon="7.73497"><ele></ele><time>2025-9-19T14:5:50Z</time></trkpt>
<trkpt lat="46.36347" lon="7.73496"><ele></ele><time>2025-9-19T14:5:53Z</time></trkpt>
<trkpt lat="46.36348" lon="7.73495"><ele></ele><time>2025-9-19T14:5:56Z</time></trkpt>
<trkpt lat="46.36357" lon="7.73493"><ele></ele><time>2025-9-19T14:5:59Z</time></trkpt>
<trkpt lat="46.3637" lon="7.73494"><ele></ele><time>2025-9-19T14:6:2Z</time></trkpt>
<trkpt lat="46.36389" lon="7.73497"><ele></ele><time>2025-9-19T14:6:5Z</time></trkpt>
<trkpt lat="46.36398" lon="7.73492"><ele></ele><time>2025-9-19T14:6:8Z</time></trkpt>
<trkpt lat="46.36405" lon="7.73482"><ele></ele><time>2025-9-19T14:6:11Z</time></trkpt>
<trkpt lat="46.36414" lon="7.73469"><ele></ele><time>2025-9-19T14:6:14Z</time></trkpt>
<trkpt lat="46.3642" lon="7.73467"><ele></ele><time>2025-9-19T14:6:17Z</time></trkpt>
<trkpt lat="46.36425" lon="7.73469"><ele></ele><time>2025-9-19T14:6:20Z</time></trkpt>
<trkpt lat="46.36429" lon="7.73473"><ele></ele><time>2025-9-19T14:6:23Z</time></trkpt>
<trkpt lat="46.36431" lon="7.7348"><ele></ele><time>2025-9-19T14:6:26Z</time></trkpt>
<trkpt lat="46.36432" lon="7.73488"><ele></ele><time>2025-9-19T14:6:29Z</time></trkpt>
<trkpt lat="46.36434" lon="7.73498"><ele></ele><time>2025-9-19T14:6:32Z</time></trkpt>
<trkpt lat="46.36444" lon="7.73514"><ele></ele><time>2025-9-19T14:6:35Z</time></trkpt>
<trkpt lat="46.36449" lon="7.73522"><ele></ele><time>2025-9-19T14:6:38Z</time></trkpt>
<trkpt lat="46.36453" lon="7.73532"><ele></ele><time>2025-9-19T14:6:41Z</time></trkpt>
<trkpt lat="46.36465" lon="7.73544"><ele></ele><time>2025-9-19T14:6:44Z</time></trkpt>
<trkpt lat="46.36472" lon="7.73546"><ele></ele><time>2025-9-19T14:6:47Z</time></trkpt>
<trkpt lat="46.36478" lon="7.73547"><ele></ele><time>2025-9-19T14:6:50Z</time></trkpt>
<trkpt lat="46.36496" lon="7.73549"><ele></ele><time>2025-9-19T14:6:53Z</time></trkpt>
<trkpt lat="46.36502" lon="7.73549"><ele></ele><time>2025-9-19T14:6:56Z</time></trkpt>
<trkpt lat="46.36515" lon="7.7355"><ele></ele><time>2025-9-19T14:6:59Z</time></trkpt>
<trkpt lat="46.36522" lon="7.73553"><ele></ele><time>2025-9-19T14:7:2Z</time></trkpt>
<trkpt lat="46.3653" lon="7.73557"><ele></ele><time>2025-9-19T14:7:5Z</time></trkpt>
<trkpt lat="46.36537" lon="7.73564"><ele></ele><time>2025-9-19T14:7:8Z</time></trkpt>
<trkpt lat="46.36545" lon="7.73569"><ele></ele><time>2025-9-19T14:7:11Z</time></trkpt>
<trkpt lat="46.36561" lon="7.73581"><ele></ele><time>2025-9-19T14:7:14Z</time></trkpt>
<trkpt lat="46.36573" lon="7.73598"><ele></ele><time>2025-9-19T14:7:17Z</time></trkpt>
<trkpt lat="46.36577" lon="7.73618"><ele></ele><time>2025-9-19T14:7:20Z</time></trkpt>
<trkpt lat="46.36578" lon="7.73627"><ele></ele><time>2025-9-19T14:7:23Z</time></trkpt>
<trkpt lat="46.36579" lon="7.73634"><ele></ele><time>2025-9-19T14:7:26Z</time></trkpt>
<trkpt lat="46.36582" lon="7.7364"><ele></ele><time>2025-9-19T14:7:29Z</time></trkpt>
<trkpt lat="46.36585" lon="7.73647"><ele></ele><time>2025-9-19T14:7:32Z</time></trkpt>
<trkpt lat="46.36589" lon="7.73652"><ele></ele><time>2025-9-19T14:7:35Z</time></trkpt>
<trkpt lat="46.36597" lon="7.73658"><ele></ele><time>2025-9-19T14:7:38Z</time></trkpt>
<trkpt lat="46.36602" lon="7.7366"><ele></ele><time>2025-9-19T14:7:41Z</time></trkpt>
<trkpt lat="46.36608" lon="7.73661"><ele></ele><time>2025-9-19T14:7:44Z</time></trkpt>
<trkpt lat="46.36614" lon="7.73664"><ele></ele><time>2025-9-19T14:7:47Z</time></trkpt>
<trkpt lat="46.3662" lon="7.73667"><ele></ele><time>2025-9-19T14:7:50Z</time></trkpt>
<trkpt lat="46.36628" lon="7.73669"><ele></ele><time>2025-9-19T14:7:53Z</time></trkpt>
<trkpt lat="46.36635" lon="7.73671"><ele></ele><time>2025-9-19T14:7:56Z</time></trkpt>
<trkpt lat="46.36643" lon="7.73669"><ele></ele><time>2025-9-19T14:7:59Z</time></trkpt>
<trkpt lat="46.3666" lon="7.7367"><ele></ele><time>2025-9-19T14:8:2Z</time></trkpt>
<trkpt lat="46.36673" lon="7.73678"><ele></ele><time>2025-9-19T14:8:5Z</time></trkpt>
<trkpt lat="46.3668" lon="7.73683"><ele></ele><time>2025-9-19T14:8:8Z</time></trkpt>
<trkpt lat="46.36686" lon="7.73685"><ele></ele><time>2025-9-19T14:8:11Z</time></trkpt>
<trkpt lat="46.36698" lon="7.73685"><ele></ele><time>2025-9-19T14:8:14Z</time></trkpt>
<trkpt lat="46.36712" lon="7.73678"><ele></ele><time>2025-9-19T14:8:17Z</time></trkpt>
<trkpt lat="46.3672" lon="7.73678"><ele></ele><time>2025-9-19T14:8:20Z</time></trkpt>
<trkpt lat="46.36727" lon="7.73679"><ele></ele><time>2025-9-19T14:8:23Z</time></trkpt>
<trkpt lat="46.36741" lon="7.7368"><ele></ele><time>2025-9-19T14:8:26Z</time></trkpt>
<trkpt lat="46.36748" lon="7.73682"><ele></ele><time>2025-9-19T14:8:29Z</time></trkpt>
<trkpt lat="46.36753" lon="7.73686"><ele></ele><time>2025-9-19T14:8:32Z</time></trkpt>
<trkpt lat="46.36758" lon="7.73692"><ele></ele><time>2025-9-19T14:8:35Z</time></trkpt>
<trkpt lat="46.36763" lon="7.73701"><ele></ele><time>2025-9-19T14:8:38Z</time></trkpt>
<trkpt lat="46.36766" lon="7.73704"><ele></ele><time>2025-9-19T14:8:41Z</time></trkpt>
<trkpt lat="46.36769" lon="7.73707"><ele></ele><time>2025-9-19T14:8:44Z</time></trkpt>
<trkpt lat="46.36769" lon="7.73707"><ele></ele><time>2025-9-19T14:8:47Z</time></trkpt>
<trkpt lat="46.36769" lon="7.73707"><ele></ele><time>2025-9-19T14:8:50Z</time></trkpt>
<trkpt lat="46.36769" lon="7.73707"><ele></ele><time>2025-9-19T14:8:53Z</time></trkpt>
<trkpt lat="46.36769" lon="7.73707"><ele></ele><time>2025-9-19T14:8:56Z</time></trkpt>
<trkpt lat="46.36769" lon="7.73707"><ele></ele><time>2025-9-19T14:8:59Z</time></trkpt>
<trkpt lat="46.36769" lon="7.73707"><ele></ele><time>2025-9-19T14:9:2Z</time></trkpt>
<trkpt lat="46.36769" lon="7.73707"><ele></ele><time>2025-9-19T14:9:5Z</time></trkpt>
<trkpt lat="46.36769" lon="7.73707"><ele></ele><time>2025-9-19T14:9:8Z</time></trkpt>
<trkpt lat="46.36769" lon="7.73707"><ele></ele><time>2025-9-19T14:9:11Z</time></trkpt>
<trkpt lat="46.36769" lon="7.73707"><ele></ele><time>2025-9-19T14:9:14Z</time></trkpt>
<trkpt lat="46.3677" lon="7.73707"><ele></ele><time>2025-9-19T14:9:17Z</time></trkpt>
<trkpt lat="46.36775" lon="7.73707"><ele></ele><time>2025-9-19T14:9:20Z</time></trkpt>
<trkpt lat="46.36788" lon="7.7371"><ele></ele><time>2025-9-19T14:9:23Z</time></trkpt>
<trkpt lat="46.36793" lon="7.73712"><ele></ele><time>2025-9-19T14:9:26Z</time></trkpt>
<trkpt lat="46.36798" lon="7.73714"><ele></ele><time>2025-9-19T14:9:29Z</time></trkpt>
<trkpt lat="46.36802" lon="7.73715"><ele></ele><time>2025-9-19T14:9:32Z</time></trkpt>
<trkpt lat="46.36811" lon="7.73718"><ele></ele><time>2025-9-19T14:9:35Z</time></trkpt>
<trkpt lat="46.36813" lon="7.73719"><ele></ele><time>2025-9-19T14:9:38Z</time></trkpt>
<trkpt lat="46.36816" lon="7.7372"><ele></ele><time>2025-9-19T14:9:41Z</time></trkpt>
<trkpt lat="46.36817" lon="7.7372"><ele></ele><time>2025-9-19T14:9:44Z</time></trkpt>
<trkpt lat="46.36817" lon="7.7372"><ele></ele><time>2025-9-19T14:9:47Z</time></trkpt>
<trkpt lat="46.36817" lon="7.7372"><ele></ele><time>2025-9-19T14:9:50Z</time></trkpt>
<trkpt lat="46.36817" lon="7.7372"><ele></ele><time>2025-9-19T14:9:53Z</time></trkpt>
<trkpt lat="46.36817" lon="7.7372"><ele></ele><time>2025-9-19T14:9:56Z</time></trkpt>
<trkpt lat="46.36817" lon="7.7372"><ele></ele><time>2025-9-19T14:9:59Z</time></trkpt>
<trkpt lat="46.36817" lon="7.7372"><ele></ele><time>2025-9-19T14:10:2Z</time></trkpt>
<trkpt lat="46.36817" lon="7.7372"><ele></ele><time>2025-9-19T14:10:5Z</time></trkpt>
<trkpt lat="46.36817" lon="7.7372"><ele></ele><time>2025-9-19T14:10:8Z</time></trkpt>
<trkpt lat="46.36817" lon="7.7372"><ele></ele><time>2025-9-19T14:10:11Z</time></trkpt>
<trkpt lat="46.36817" lon="7.7372"><ele></ele><time>2025-9-19T14:10:14Z</time></trkpt>
<trkpt lat="46.36817" lon="7.7372"><ele></ele><time>2025-9-19T14:10:17Z</time></trkpt>
<trkpt lat="46.36817" lon="7.7372"><ele></ele><time>2025-9-19T14:10:20Z</time></trkpt>
<trkpt lat="46.36817" lon="7.7372"><ele></ele><time>2025-9-19T14:10:23Z</time></trkpt>
<trkpt lat="46.36817" lon="7.7372"><ele></ele><time>2025-9-19T14:10:26Z</time></trkpt>
<trkpt lat="46.36817" lon="7.7372"><ele></ele><time>2025-9-19T14:10:29Z</time></trkpt>
<trkpt lat="46.36817" lon="7.7372"><ele></ele><time>2025-9-19T14:10:32Z</time></trkpt>
<trkpt lat="46.36817" lon="7.7372"><ele></ele><time>2025-9-19T14:10:35Z</time></trkpt>
<trkpt lat="46.36817" lon="7.7372"><ele></ele><time>2025-9-19T14:10:38Z</time></trkpt>
<trkpt lat="46.36817" lon="7.7372"><ele></ele><time>2025-9-19T14:10:41Z</time></trkpt>
<trkpt lat="46.36817" lon="7.7372"><ele></ele><time>2025-9-19T14:10:44Z</time></trkpt>
<trkpt lat="46.36817" lon="7.7372"><ele></ele><time>2025-9-19T14:10:47Z</time></trkpt>
<trkpt lat="46.36817" lon="7.7372"><ele></ele><time>2025-9-19T14:10:50Z</time></trkpt>
<trkpt lat="46.36817" lon="7.7372"><ele></ele><time>2025-9-19T14:10:53Z</time></trkpt>
<trkpt lat="46.36817" lon="7.7372"><ele></ele><time>2025-9-19T14:10:56Z</time></trkpt>
<trkpt lat="46.36817" lon="7.7372"><ele></ele><time>2025-9-19T14:10:59Z</time></trkpt>
<trkpt lat="46.36817" lon="7.7372"><ele></ele><time>2025-9-19T14:11:2Z</time></trkpt>
<trkpt lat="46.36816" lon="7.7372"><ele></ele><time>2025-9-19T14:11:5Z</time></trkpt>
<trkpt lat="46.36816" lon="7.73719"><ele></ele><time>2025-9-19T14:11:8Z</time></trkpt>
<trkpt lat="46.36822" lon="7.73719"><ele></ele><time>2025-9-19T14:11:11Z</time></trkpt>
<trkpt lat="46.36827" lon="7.73722"><ele></ele><time>2025-9-19T14:11:14Z</time></trkpt>
<trkpt lat="46.36834" lon="7.73726"><ele></ele><time>2025-9-19T14:11:17Z</time></trkpt>
<trkpt lat="46.36838" lon="7.73727"><ele></ele><time>2025-9-19T14:11:20Z</time></trkpt>
<trkpt lat="46.36843" lon="7.73726"><ele></ele><time>2025-9-19T14:11:23Z</time></trkpt>
<trkpt lat="46.36851" lon="7.73719"><ele></ele><time>2025-9-19T14:11:26Z</time></trkpt>
<trkpt lat="46.36856" lon="7.73715"><ele></ele><time>2025-9-19T14:11:29Z</time></trkpt>
<trkpt lat="46.36862" lon="7.73713"><ele></ele><time>2025-9-19T14:11:32Z</time></trkpt>
<trkpt lat="46.36868" lon="7.73713"><ele></ele><time>2025-9-19T14:11:35Z</time></trkpt>
<trkpt lat="46.36881" lon="7.73712"><ele></ele><time>2025-9-19T14:11:38Z</time></trkpt>
<trkpt lat="46.36888" lon="7.73712"><ele></ele><time>2025-9-19T14:11:41Z</time></trkpt>
<trkpt lat="46.36895" lon="7.73712"><ele></ele><time>2025-9-19T14:11:44Z</time></trkpt>
<trkpt lat="46.3691" lon="7.73713"><ele></ele><time>2025-9-19T14:11:47Z</time></trkpt>
<trkpt lat="46.36917" lon="7.73716"><ele></ele><time>2025-9-19T14:11:50Z</time></trkpt>
<trkpt lat="46.36933" lon="7.73726"><ele></ele><time>2025-9-19T14:11:53Z</time></trkpt>
<trkpt lat="46.36938" lon="7.73728"><ele></ele><time>2025-9-19T14:11:56Z</time></trkpt>
<trkpt lat="46.36942" lon="7.73729"><ele></ele><time>2025-9-19T14:11:59Z</time></trkpt>
<trkpt lat="46.36952" lon="7.73731"><ele></ele><time>2025-9-19T14:12:2Z</time></trkpt>
<trkpt lat="46.36957" lon="7.73732"><ele></ele><time>2025-9-19T14:12:5Z</time></trkpt>
<trkpt lat="46.36962" lon="7.73732"><ele></ele><time>2025-9-19T14:12:8Z</time></trkpt>
<trkpt lat="46.36967" lon="7.73733"><ele></ele><time>2025-9-19T14:12:11Z</time></trkpt>
<trkpt lat="46.36973" lon="7.73732"><ele></ele><time>2025-9-19T14:12:14Z</time></trkpt>
<trkpt lat="46.36979" lon="7.73731"><ele></ele><time>2025-9-19T14:12:17Z</time></trkpt>
<trkpt lat="46.36992" lon="7.7373"><ele></ele><time>2025-9-19T14:12:20Z</time></trkpt>
<trkpt lat="46.36998" lon="7.73732"><ele></ele><time>2025-9-19T14:12:23Z</time></trkpt>
<trkpt lat="46.37004" lon="7.73735"><ele></ele><time>2025-9-19T14:12:26Z</time></trkpt>
<trkpt lat="46.37009" lon="7.7374"><ele></ele><time>2025-9-19T14:12:29Z</time></trkpt>
<trkpt lat="46.37015" lon="7.73743"><ele></ele><time>2025-9-19T14:12:32Z</time></trkpt>
<trkpt lat="46.37027" lon="7.7375"><ele></ele><time>2025-9-19T14:12:35Z</time></trkpt>
<trkpt lat="46.37031" lon="7.73755"><ele></ele><time>2025-9-19T14:12:38Z</time></trkpt>
<trkpt lat="46.37033" lon="7.73759"><ele></ele><time>2025-9-19T14:12:41Z</time></trkpt>
<trkpt lat="46.37039" lon="7.73767"><ele></ele><time>2025-9-19T14:12:44Z</time></trkpt>
<trkpt lat="46.37041" lon="7.73769"><ele></ele><time>2025-9-19T14:12:47Z</time></trkpt>
<trkpt lat="46.37044" lon="7.73769"><ele></ele><time>2025-9-19T14:12:50Z</time></trkpt>
<trkpt lat="46.37047" lon="7.73768"><ele></ele><time>2025-9-19T14:12:53Z</time></trkpt>
<trkpt lat="46.37051" lon="7.73766"><ele></ele><time>2025-9-19T14:12:56Z</time></trkpt>
<trkpt lat="46.37055" lon="7.73762"><ele></ele><time>2025-9-19T14:12:59Z</time></trkpt>
<trkpt lat="46.37061" lon="7.7376"><ele></ele><time>2025-9-19T14:13:2Z</time></trkpt>
<trkpt lat="46.37066" lon="7.73759"><ele></ele><time>2025-9-19T14:13:5Z</time></trkpt>
<trkpt lat="46.37073" lon="7.7376"><ele></ele><time>2025-9-19T14:13:8Z</time></trkpt>
<trkpt lat="46.3708" lon="7.73762"><ele></ele><time>2025-9-19T14:13:11Z</time></trkpt>
<trkpt lat="46.37105" lon="7.73771"><ele></ele><time>2025-9-19T14:13:14Z</time></trkpt>
<trkpt lat="46.37111" lon="7.73772"><ele></ele><time>2025-9-19T14:13:17Z</time></trkpt>
<trkpt lat="46.37117" lon="7.73772"><ele></ele><time>2025-9-19T14:13:20Z</time></trkpt>
<trkpt lat="46.37128" lon="7.73773"><ele></ele><time>2025-9-19T14:13:23Z</time></trkpt>
<trkpt lat="46.37134" lon="7.73772"><ele></ele><time>2025-9-19T14:13:26Z</time></trkpt>
<trkpt lat="46.37138" lon="7.73769"><ele></ele><time>2025-9-19T14:13:29Z</time></trkpt>
<trkpt lat="46.37143" lon="7.73766"><ele></ele><time>2025-9-19T14:13:32Z</time></trkpt>
<trkpt lat="46.37147" lon="7.7376"><ele></ele><time>2025-9-19T14:13:35Z</time></trkpt>
<trkpt lat="46.3715" lon="7.73756"><ele></ele><time>2025-9-19T14:13:38Z</time></trkpt>
<trkpt lat="46.37155" lon="7.73755"><ele></ele><time>2025-9-19T14:13:41Z</time></trkpt>
<trkpt lat="46.3716" lon="7.73757"><ele></ele><time>2025-9-19T14:13:44Z</time></trkpt>
<trkpt lat="46.37167" lon="7.73763"><ele></ele><time>2025-9-19T14:13:47Z</time></trkpt>
<trkpt lat="46.37171" lon="7.73764"><ele></ele><time>2025-9-19T14:13:50Z</time></trkpt>
<trkpt lat="46.37175" lon="7.73763"><ele></ele><time>2025-9-19T14:13:53Z</time></trkpt>
<trkpt lat="46.37179" lon="7.73762"><ele></ele><time>2025-9-19T14:13:56Z</time></trkpt>
<trkpt lat="46.37183" lon="7.73759"><ele></ele><time>2025-9-19T14:13:59Z</time></trkpt>
<trkpt lat="46.37192" lon="7.73754"><ele></ele><time>2025-9-19T14:14:2Z</time></trkpt>
<trkpt lat="46.37198" lon="7.73753"><ele></ele><time>2025-9-19T14:14:5Z</time></trkpt>
<trkpt lat="46.37203" lon="7.73753"><ele></ele><time>2025-9-19T14:14:8Z</time></trkpt>
<trkpt lat="46.37209" lon="7.73752"><ele></ele><time>2025-9-19T14:14:11Z</time></trkpt>
<trkpt lat="46.37219" lon="7.73749"><ele></ele><time>2025-9-19T14:14:14Z</time></trkpt>
<trkpt lat="46.37227" lon="7.73745"><ele></ele><time>2025-9-19T14:14:17Z</time></trkpt>
<trkpt lat="46.37231" lon="7.73744"><ele></ele><time>2025-9-19T14:14:20Z</time></trkpt>
<trkpt lat="46.37238" lon="7.73743"><ele></ele><time>2025-9-19T14:14:23Z</time></trkpt>
<trkpt lat="46.37243" lon="7.73743"><ele></ele><time>2025-9-19T14:14:26Z</time></trkpt>
<trkpt lat="46.37244" lon="7.73743"><ele></ele><time>2025-9-19T14:14:29Z</time></trkpt>
<trkpt lat="46.37244" lon="7.73743"><ele></ele><time>2025-9-19T14:14:32Z</time></trkpt>
<trkpt lat="46.37247" lon="7.73745"><ele></ele><time>2025-9-19T14:14:35Z</time></trkpt>
<trkpt lat="46.37259" lon="7.7375"><ele></ele><time>2025-9-19T14:14:38Z</time></trkpt>
<trkpt lat="46.37279" lon="7.73755"><ele></ele><time>2025-9-19T14:14:41Z</time></trkpt>
<trkpt lat="46.37287" lon="7.73755"><ele></ele><time>2025-9-19T14:14:44Z</time></trkpt>
<trkpt lat="46.37295" lon="7.73755"><ele></ele><time>2025-9-19T14:14:47Z</time></trkpt>
<trkpt lat="46.37304" lon="7.73756"><ele></ele><time>2025-9-19T14:14:50Z</time></trkpt>
<trkpt lat="46.3732" lon="7.73753"><ele></ele><time>2025-9-19T14:14:53Z</time></trkpt>
<trkpt lat="46.37327" lon="7.73749"><ele></ele><time>2025-9-19T14:14:56Z</time></trkpt>
<trkpt lat="46.37335" lon="7.73745"><ele></ele><time>2025-9-19T14:14:59Z</time></trkpt>
<trkpt lat="46.37352" lon="7.73738"><ele></ele><time>2025-9-19T14:15:2Z</time></trkpt>
<trkpt lat="46.37361" lon="7.73739"><ele></ele><time>2025-9-19T14:15:5Z</time></trkpt>
<trkpt lat="46.37369" lon="7.73742"><ele></ele><time>2025-9-19T14:15:8Z</time></trkpt>
<trkpt lat="46.37384" lon="7.73752"><ele></ele><time>2025-9-19T14:15:11Z</time></trkpt>
<trkpt lat="46.37391" lon="7.73755"><ele></ele><time>2025-9-19T14:15:14Z</time></trkpt>
<trkpt lat="46.37399" lon="7.73755"><ele></ele><time>2025-9-19T14:15:17Z</time></trkpt>
<trkpt lat="46.37406" lon="7.73753"><ele></ele><time>2025-9-19T14:15:20Z</time></trkpt>
<trkpt lat="46.37413" lon="7.7375"><ele></ele><time>2025-9-19T14:15:23Z</time></trkpt>
<trkpt lat="46.37421" lon="7.73748"><ele></ele><time>2025-9-19T14:15:26Z</time></trkpt>
<trkpt lat="46.37439" lon="7.73743"><ele></ele><time>2025-9-19T14:15:29Z</time></trkpt>
<trkpt lat="46.37448" lon="7.7374"><ele></ele><time>2025-9-19T14:15:32Z</time></trkpt>
<trkpt lat="46.37457" lon="7.7374"><ele></ele><time>2025-9-19T14:15:35Z</time></trkpt>
<trkpt lat="46.37466" lon="7.73744"><ele></ele><time>2025-9-19T14:15:38Z</time></trkpt>
<trkpt lat="46.37474" lon="7.73749"><ele></ele><time>2025-9-19T14:15:41Z</time></trkpt>
<trkpt lat="46.37487" lon="7.73758"><ele></ele><time>2025-9-19T14:15:44Z</time></trkpt>
<trkpt lat="46.37494" lon="7.73761"><ele></ele><time>2025-9-19T14:15:47Z</time></trkpt>
<trkpt lat="46.37501" lon="7.73763"><ele></ele><time>2025-9-19T14:15:50Z</time></trkpt>
<trkpt lat="46.37509" lon="7.73763"><ele></ele><time>2025-9-19T14:15:53Z</time></trkpt>
<trkpt lat="46.37517" lon="7.73764"><ele></ele><time>2025-9-19T14:15:56Z</time></trkpt>
<trkpt lat="46.37536" lon="7.73763"><ele></ele><time>2025-9-19T14:15:59Z</time></trkpt>
<trkpt lat="46.37545" lon="7.73761"><ele></ele><time>2025-9-19T14:16:2Z</time></trkpt>
<trkpt lat="46.37553" lon="7.73762"><ele></ele><time>2025-9-19T14:16:5Z</time></trkpt>
<trkpt lat="46.37562" lon="7.73762"><ele></ele><time>2025-9-19T14:16:8Z</time></trkpt>
<trkpt lat="46.37571" lon="7.73761"><ele></ele><time>2025-9-19T14:16:11Z</time></trkpt>
<trkpt lat="46.37579" lon="7.73763"><ele></ele><time>2025-9-19T14:16:14Z</time></trkpt>
<trkpt lat="46.37586" lon="7.73768"><ele></ele><time>2025-9-19T14:16:17Z</time></trkpt>
<trkpt lat="46.37591" lon="7.73775"><ele></ele><time>2025-9-19T14:16:20Z</time></trkpt>
<trkpt lat="46.37599" lon="7.7379"><ele></ele><time>2025-9-19T14:16:23Z</time></trkpt>
<trkpt lat="46.37609" lon="7.73797"><ele></ele><time>2025-9-19T14:16:26Z</time></trkpt>
<trkpt lat="46.37615" lon="7.73797"><ele></ele><time>2025-9-19T14:16:29Z</time></trkpt>
<trkpt lat="46.3762" lon="7.73796"><ele></ele><time>2025-9-19T14:16:32Z</time></trkpt>
<trkpt lat="46.37624" lon="7.73795"><ele></ele><time>2025-9-19T14:16:35Z</time></trkpt>
<trkpt lat="46.37628" lon="7.73794"><ele></ele><time>2025-9-19T14:16:38Z</time></trkpt>
<trkpt lat="46.37632" lon="7.73794"><ele></ele><time>2025-9-19T14:16:41Z</time></trkpt>
<trkpt lat="46.37638" lon="7.73795"><ele></ele><time>2025-9-19T14:16:44Z</time></trkpt>
<trkpt lat="46.37638" lon="7.73796"><ele></ele><time>2025-9-19T14:16:47Z</time></trkpt>
<trkpt lat="46.37638" lon="7.73796"><ele></ele><time>2025-9-19T14:16:50Z</time></trkpt>
<trkpt lat="46.37638" lon="7.73796"><ele></ele><time>2025-9-19T14:16:53Z</time></trkpt>
<trkpt lat="46.37638" lon="7.73795"><ele></ele><time>2025-9-19T14:16:56Z</time></trkpt>
<trkpt lat="46.37639" lon="7.73795"><ele></ele><time>2025-9-19T14:16:59Z</time></trkpt>
<trkpt lat="46.37641" lon="7.73795"><ele></ele><time>2025-9-19T14:17:2Z</time></trkpt>
<trkpt lat="46.37655" lon="7.73796"><ele></ele><time>2025-9-19T14:17:5Z</time></trkpt>
<trkpt lat="46.37665" lon="7.73801"><ele></ele><time>2025-9-19T14:17:8Z</time></trkpt>
<trkpt lat="46.3767" lon="7.73805"><ele></ele><time>2025-9-19T14:17:11Z</time></trkpt>
<trkpt lat="46.37672" lon="7.73806"><ele></ele><time>2025-9-19T14:17:14Z</time></trkpt>
<trkpt lat="46.37674" lon="7.73809"><ele></ele><time>2025-9-19T14:17:17Z</time></trkpt>
<trkpt lat="46.37674" lon="7.73809"><ele></ele><time>2025-9-19T14:17:20Z</time></trkpt>
<trkpt lat="46.37674" lon="7.73809"><ele></ele><time>2025-9-19T14:17:23Z</time></trkpt>
<trkpt lat="46.37677" lon="7.7381"><ele></ele><time>2025-9-19T14:17:26Z</time></trkpt>
<trkpt lat="46.37686" lon="7.73817"><ele></ele><time>2025-9-19T14:17:29Z</time></trkpt>
<trkpt lat="46.3769" lon="7.73822"><ele></ele><time>2025-9-19T14:17:32Z</time></trkpt>
<trkpt lat="46.37695" lon="7.73827"><ele></ele><time>2025-9-19T14:17:35Z</time></trkpt>
<trkpt lat="46.37701" lon="7.73832"><ele></ele><time>2025-9-19T14:17:38Z</time></trkpt>
<trkpt lat="46.37707" lon="7.73836"><ele></ele><time>2025-9-19T14:17:41Z</time></trkpt>
<trkpt lat="46.37713" lon="7.73838"><ele></ele><time>2025-9-19T14:17:44Z</time></trkpt>
<trkpt lat="46.37719" lon="7.73838"><ele></ele><time>2025-9-19T14:17:47Z</time></trkpt>
<trkpt lat="46.37727" lon="7.73832"><ele></ele><time>2025-9-19T14:17:50Z</time></trkpt>
<trkpt lat="46.37729" lon="7.73826"><ele></ele><time>2025-9-19T14:17:53Z</time></trkpt>
<trkpt lat="46.37731" lon="7.73818"><ele></ele><time>2025-9-19T14:17:56Z</time></trkpt>
<trkpt lat="46.37732" lon="7.73809"><ele></ele><time>2025-9-19T14:17:59Z</time></trkpt>
<trkpt lat="46.37733" lon="7.73798"><ele></ele><time>2025-9-19T14:18:2Z</time></trkpt>
<trkpt lat="46.37733" lon="7.73787"><ele></ele><time>2025-9-19T14:18:5Z</time></trkpt>
<trkpt lat="46.37733" lon="7.73775"><ele></ele><time>2025-9-19T14:18:8Z</time></trkpt>
<trkpt lat="46.37732" lon="7.73763"><ele></ele><time>2025-9-19T14:18:11Z</time></trkpt>
<trkpt lat="46.37732" lon="7.73745"><ele></ele><time>2025-9-19T14:18:14Z</time></trkpt>
<trkpt lat="46.37735" lon="7.7374"><ele></ele><time>2025-9-19T14:18:17Z</time></trkpt>
<trkpt lat="46.37739" lon="7.7374"><ele></ele><time>2025-9-19T14:18:20Z</time></trkpt>
<trkpt lat="46.37741" lon="7.73745"><ele></ele><time>2025-9-19T14:18:23Z</time></trkpt>
<trkpt lat="46.37742" lon="7.73759"><ele></ele><time>2025-9-19T14:18:26Z</time></trkpt>
<trkpt lat="46.37742" lon="7.73768"><ele></ele><time>2025-9-19T14:18:29Z</time></trkpt>
<trkpt lat="46.37744" lon="7.73778"><ele></ele><time>2025-9-19T14:18:32Z</time></trkpt>
<trkpt lat="46.37747" lon="7.7379"><ele></ele><time>2025-9-19T14:18:35Z</time></trkpt>
<trkpt lat="46.37751" lon="7.738"><ele></ele><time>2025-9-19T14:18:38Z</time></trkpt>
<trkpt lat="46.37755" lon="7.73811"><ele></ele><time>2025-9-19T14:18:41Z</time></trkpt>
<trkpt lat="46.37761" lon="7.73821"><ele></ele><time>2025-9-19T14:18:44Z</time></trkpt>
<trkpt lat="46.37766" lon="7.73831"><ele></ele><time>2025-9-19T14:18:47Z</time></trkpt>
<trkpt lat="46.37771" lon="7.7384"><ele></ele><time>2025-9-19T14:18:50Z</time></trkpt>
<trkpt lat="46.37775" lon="7.73849"><ele></ele><time>2025-9-19T14:18:53Z</time></trkpt>
<trkpt lat="46.37782" lon="7.73864"><ele></ele><time>2025-9-19T14:18:56Z</time></trkpt>
<trkpt lat="46.37785" lon="7.73871"><ele></ele><time>2025-9-19T14:18:59Z</time></trkpt>
<trkpt lat="46.37789" lon="7.73878"><ele></ele><time>2025-9-19T14:19:2Z</time></trkpt>
<trkpt lat="46.37792" lon="7.73885"><ele></ele><time>2025-9-19T14:19:5Z</time></trkpt>
<trkpt lat="46.37796" lon="7.73893"><ele></ele><time>2025-9-19T14:19:8Z</time></trkpt>
<trkpt lat="46.37805" lon="7.73906"><ele></ele><time>2025-9-19T14:19:11Z</time></trkpt>
<trkpt lat="46.37809" lon="7.7391"><ele></ele><time>2025-9-19T14:19:14Z</time></trkpt>
<trkpt lat="46.37812" lon="7.73909"><ele></ele><time>2025-9-19T14:19:17Z</time></trkpt>
<trkpt lat="46.37814" lon="7.73907"><ele></ele><time>2025-9-19T14:19:20Z</time></trkpt>
<trkpt lat="46.37814" lon="7.73908"><ele></ele><time>2025-9-19T14:19:23Z</time></trkpt>
<trkpt lat="46.37816" lon="7.73908"><ele></ele><time>2025-9-19T14:19:26Z</time></trkpt>
<trkpt lat="46.37817" lon="7.73909"><ele></ele><time>2025-9-19T14:19:29Z</time></trkpt>
<trkpt lat="46.37817" lon="7.73908"><ele></ele><time>2025-9-19T14:19:32Z</time></trkpt>
<trkpt lat="46.37817" lon="7.73908"><ele></ele><time>2025-9-19T14:19:35Z</time></trkpt>
<trkpt lat="46.37817" lon="7.73908"><ele></ele><time>2025-9-19T14:19:38Z</time></trkpt>
<trkpt lat="46.37817" lon="7.73908"><ele></ele><time>2025-9-19T14:19:41Z</time></trkpt>
<trkpt lat="46.37814" lon="7.73905"><ele></ele><time>2025-9-19T14:19:44Z</time></trkpt>
<trkpt lat="46.37814" lon="7.73906"><ele></ele><time>2025-9-19T14:19:47Z</time></trkpt>
<trkpt lat="46.37814" lon="7.73906"><ele></ele><time>2025-9-19T14:19:50Z</time></trkpt>
<trkpt lat="46.37814" lon="7.73906"><ele></ele><time>2025-9-19T14:19:53Z</time></trkpt>
<trkpt lat="46.37814" lon="7.73906"><ele></ele><time>2025-9-19T14:19:56Z</time></trkpt>
<trkpt lat="46.37814" lon="7.73906"><ele></ele><time>2025-9-19T14:19:59Z</time></trkpt>
<trkpt lat="46.37814" lon="7.73906"><ele></ele><time>2025-9-19T14:20:2Z</time></trkpt>
<trkpt lat="46.37814" lon="7.73906"><ele></ele><time>2025-9-19T14:20:5Z</time></trkpt>
<trkpt lat="46.37814" lon="7.73906"><ele></ele><time>2025-9-19T14:20:8Z</time></trkpt>
<trkpt lat="46.37814" lon="7.73906"><ele></ele><time>2025-9-19T14:20:11Z</time></trkpt>
<trkpt lat="46.37814" lon="7.73906"><ele></ele><time>2025-9-19T14:20:14Z</time></trkpt>
<trkpt lat="46.37814" lon="7.73906"><ele></ele><time>2025-9-19T14:20:17Z</time></trkpt>
<trkpt lat="46.37814" lon="7.73906"><ele></ele><time>2025-9-19T14:20:20Z</time></trkpt>
<trkpt lat="46.37814" lon="7.73906"><ele></ele><time>2025-9-19T14:20:23Z</time></trkpt>
<trkpt lat="46.37814" lon="7.73906"><ele></ele><time>2025-9-19T14:20:26Z</time></trkpt>
<trkpt lat="46.37813" lon="7.73904"><ele></ele><time>2025-9-19T14:20:29Z</time></trkpt>
<trkpt lat="46.37814" lon="7.73901"><ele></ele><time>2025-9-19T14:20:32Z</time></trkpt>
<trkpt lat="46.37815" lon="7.739"><ele></ele><time>2025-9-19T14:20:35Z</time></trkpt>
<trkpt lat="46.37815" lon="7.739"><ele></ele><time>2025-9-19T14:20:38Z</time></trkpt>
<trkpt lat="46.37815" lon="7.739"><ele></ele><time>2025-9-19T14:20:41Z</time></trkpt>
<trkpt lat="46.37815" lon="7.739"><ele></ele><time>2025-9-19T14:20:44Z</time></trkpt>
<trkpt lat="46.37815" lon="7.739"><ele></ele><time>2025-9-19T14:20:47Z</time></trkpt>
<trkpt lat="46.37815" lon="7.73898"><ele></ele><time>2025-9-19T14:20:50Z</time></trkpt>
<trkpt lat="46.37815" lon="7.73887"><ele></ele><time>2025-9-19T14:20:53Z</time></trkpt>
<trkpt lat="46.37815" lon="7.73881"><ele></ele><time>2025-9-19T14:20:56Z</time></trkpt>
<trkpt lat="46.37815" lon="7.73867"><ele></ele><time>2025-9-19T14:20:59Z</time></trkpt>
<trkpt lat="46.37814" lon="7.73859"><ele></ele><time>2025-9-19T14:21:2Z</time></trkpt>
<trkpt lat="46.37813" lon="7.73853"><ele></ele><time>2025-9-19T14:21:5Z</time></trkpt>
<trkpt lat="46.37812" lon="7.73847"><ele></ele><time>2025-9-19T14:21:8Z</time></trkpt>
<trkpt lat="46.37812" lon="7.73832"><ele></ele><time>2025-9-19T14:21:11Z</time></trkpt>
<trkpt lat="46.37812" lon="7.73826"><ele></ele><time>2025-9-19T14:21:14Z</time></trkpt>
<trkpt lat="46.37811" lon="7.73815"><ele></ele><time>2025-9-19T14:21:17Z</time></trkpt>
<trkpt lat="46.37811" lon="7.73803"><ele></ele><time>2025-9-19T14:21:20Z</time></trkpt>
<trkpt lat="46.37813" lon="7.73798"><ele></ele><time>2025-9-19T14:21:23Z</time></trkpt>
<trkpt lat="46.37814" lon="7.73794"><ele></ele><time>2025-9-19T14:21:26Z</time></trkpt>
<trkpt lat="46.37815" lon="7.73789"><ele></ele><time>2025-9-19T14:21:29Z</time></trkpt>
<trkpt lat="46.37817" lon="7.73778"><ele></ele><time>2025-9-19T14:21:32Z</time></trkpt>
<trkpt lat="46.37818" lon="7.73771"><ele></ele><time>2025-9-19T14:21:35Z</time></trkpt>
<trkpt lat="46.37819" lon="7.73768"><ele></ele><time>2025-9-19T14:21:38Z</time></trkpt>
<trkpt lat="46.3782" lon="7.73756"><ele></ele><time>2025-9-19T14:21:41Z</time></trkpt>
<trkpt lat="46.37822" lon="7.73748"><ele></ele><time>2025-9-19T14:21:44Z</time></trkpt>
<trkpt lat="46.37823" lon="7.73745"><ele></ele><time>2025-9-19T14:21:47Z</time></trkpt>
<trkpt lat="46.37827" lon="7.73736"><ele></ele><time>2025-9-19T14:21:50Z</time></trkpt>
<trkpt lat="46.37827" lon="7.73732"><ele></ele><time>2025-9-19T14:21:53Z</time></trkpt>
<trkpt lat="46.3783" lon="7.73725"><ele></ele><time>2025-9-19T14:21:56Z</time></trkpt>
<trkpt lat="46.37831" lon="7.73721"><ele></ele><time>2025-9-19T14:21:59Z</time></trkpt>
<trkpt lat="46.37833" lon="7.73718"><ele></ele><time>2025-9-19T14:22:2Z</time></trkpt>
<trkpt lat="46.37835" lon="7.73716"><ele></ele><time>2025-9-19T14:22:5Z</time></trkpt>
<trkpt lat="46.37836" lon="7.73714"><ele></ele><time>2025-9-19T14:22:8Z</time></trkpt>
<trkpt lat="46.37839" lon="7.73705"><ele></ele><time>2025-9-19T14:22:11Z</time></trkpt>
<trkpt lat="46.3784" lon="7.73703"><ele></ele><time>2025-9-19T14:22:14Z</time></trkpt>
<trkpt lat="46.37841" lon="7.73697"><ele></ele><time>2025-9-19T14:22:17Z</time></trkpt>
<trkpt lat="46.37841" lon="7.73696"><ele></ele><time>2025-9-19T14:22:20Z</time></trkpt>
<trkpt lat="46.37841" lon="7.73695"><ele></ele><time>2025-9-19T14:22:23Z</time></trkpt>
<trkpt lat="46.37841" lon="7.73692"><ele></ele><time>2025-9-19T14:22:26Z</time></trkpt>
<trkpt lat="46.37841" lon="7.7369"><ele></ele><time>2025-9-19T14:22:29Z</time></trkpt>
<trkpt lat="46.3784" lon="7.73687"><ele></ele><time>2025-9-19T14:22:32Z</time></trkpt>
<trkpt lat="46.37839" lon="7.73684"><ele></ele><time>2025-9-19T14:22:35Z</time></trkpt>
<trkpt lat="46.37839" lon="7.73681"><ele></ele><time>2025-9-19T14:22:38Z</time></trkpt>
<trkpt lat="46.37837" lon="7.73674"><ele></ele><time>2025-9-19T14:22:41Z</time></trkpt>
<trkpt lat="46.37837" lon="7.73667"><ele></ele><time>2025-9-19T14:22:44Z</time></trkpt>
<trkpt lat="46.37838" lon="7.73666"><ele></ele><time>2025-9-19T14:22:47Z</time></trkpt>
<trkpt lat="46.37844" lon="7.73663"><ele></ele><time>2025-9-19T14:22:50Z</time></trkpt>
<trkpt lat="46.3785" lon="7.73661"><ele></ele><time>2025-9-19T14:22:53Z</time></trkpt>
<trkpt lat="46.37854" lon="7.7366"><ele></ele><time>2025-9-19T14:22:56Z</time></trkpt>
<trkpt lat="46.37868" lon="7.73659"><ele></ele><time>2025-9-19T14:22:59Z</time></trkpt>
<trkpt lat="46.37872" lon="7.7366"><ele></ele><time>2025-9-19T14:23:2Z</time></trkpt>
<trkpt lat="46.37877" lon="7.73664"><ele></ele><time>2025-9-19T14:23:5Z</time></trkpt>
<trkpt lat="46.37881" lon="7.73665"><ele></ele><time>2025-9-19T14:23:8Z</time></trkpt>
<trkpt lat="46.37886" lon="7.73667"><ele></ele><time>2025-9-19T14:23:11Z</time></trkpt>
<trkpt lat="46.37889" lon="7.73667"><ele></ele><time>2025-9-19T14:23:14Z</time></trkpt>
<trkpt lat="46.3789" lon="7.73667"><ele></ele><time>2025-9-19T14:23:17Z</time></trkpt>
<trkpt lat="46.3789" lon="7.73669"><ele></ele><time>2025-9-19T14:23:20Z</time></trkpt>
<trkpt lat="46.37892" lon="7.73669"><ele></ele><time>2025-9-19T14:23:23Z</time></trkpt>
<trkpt lat="46.37894" lon="7.73671"><ele></ele><time>2025-9-19T14:23:26Z</time></trkpt>
<trkpt lat="46.37896" lon="7.73672"><ele></ele><time>2025-9-19T14:23:29Z</time></trkpt>
<trkpt lat="46.37898" lon="7.73673"><ele></ele><time>2025-9-19T14:23:32Z</time></trkpt>
<trkpt lat="46.379" lon="7.73675"><ele></ele><time>2025-9-19T14:23:35Z</time></trkpt>
<trkpt lat="46.379" lon="7.73677"><ele></ele><time>2025-9-19T14:23:38Z</time></trkpt>
<trkpt lat="46.379" lon="7.73677"><ele></ele><time>2025-9-19T14:23:41Z</time></trkpt>
<trkpt lat="46.379" lon="7.73677"><ele></ele><time>2025-9-19T14:23:44Z</time></trkpt>
<trkpt lat="46.379" lon="7.73677"><ele></ele><time>2025-9-19T14:23:47Z</time></trkpt>
<trkpt lat="46.379" lon="7.73677"><ele></ele><time>2025-9-19T14:23:50Z</time></trkpt>
<trkpt lat="46.379" lon="7.73677"><ele></ele><time>2025-9-19T14:23:53Z</time></trkpt>
<trkpt lat="46.379" lon="7.73677"><ele></ele><time>2025-9-19T14:23:56Z</time></trkpt>
<trkpt lat="46.37906" lon="7.7368"><ele></ele><time>2025-9-19T14:23:59Z</time></trkpt>
<trkpt lat="46.37918" lon="7.73694"><ele></ele><time>2025-9-19T14:24:2Z</time></trkpt>
<trkpt lat="46.37922" lon="7.73698"><ele></ele><time>2025-9-19T14:24:5Z</time></trkpt>
<trkpt lat="46.37924" lon="7.73704"><ele></ele><time>2025-9-19T14:24:8Z</time></trkpt>
<trkpt lat="46.37926" lon="7.73709"><ele></ele><time>2025-9-19T14:24:11Z</time></trkpt>
<trkpt lat="46.37927" lon="7.73713"><ele></ele><time>2025-9-19T14:24:14Z</time></trkpt>
<trkpt lat="46.37929" lon="7.73716"><ele></ele><time>2025-9-19T14:24:17Z</time></trkpt>
<trkpt lat="46.37934" lon="7.73724"><ele></ele><time>2025-9-19T14:24:20Z</time></trkpt>
<trkpt lat="46.37942" lon="7.73728"><ele></ele><time>2025-9-19T14:24:23Z</time></trkpt>
<trkpt lat="46.37946" lon="7.73731"><ele></ele><time>2025-9-19T14:24:26Z</time></trkpt>
<trkpt lat="46.37949" lon="7.73736"><ele></ele><time>2025-9-19T14:24:29Z</time></trkpt>
<trkpt lat="46.37952" lon="7.7374"><ele></ele><time>2025-9-19T14:24:32Z</time></trkpt>
<trkpt lat="46.37959" lon="7.73747"><ele></ele><time>2025-9-19T14:24:35Z</time></trkpt>
<trkpt lat="46.37961" lon="7.7375"><ele></ele><time>2025-9-19T14:24:38Z</time></trkpt>
<trkpt lat="46.37967" lon="7.73758"><ele></ele><time>2025-9-19T14:24:41Z</time></trkpt>
<trkpt lat="46.37973" lon="7.73765"><ele></ele><time>2025-9-19T14:24:44Z</time></trkpt>
<trkpt lat="46.37975" lon="7.73767"><ele></ele><time>2025-9-19T14:24:47Z</time></trkpt>
<trkpt lat="46.37982" lon="7.73773"><ele></ele><time>2025-9-19T14:24:50Z</time></trkpt>
<trkpt lat="46.37986" lon="7.73775"><ele></ele><time>2025-9-19T14:24:53Z</time></trkpt>
<trkpt lat="46.37989" lon="7.73778"><ele></ele><time>2025-9-19T14:24:56Z</time></trkpt>
<trkpt lat="46.37994" lon="7.73781"><ele></ele><time>2025-9-19T14:24:59Z</time></trkpt>
<trkpt lat="46.37996" lon="7.73783"><ele></ele><time>2025-9-19T14:25:2Z</time></trkpt>
<trkpt lat="46.37997" lon="7.73787"><ele></ele><time>2025-9-19T14:25:5Z</time></trkpt>
<trkpt lat="46.37996" lon="7.73788"><ele></ele><time>2025-9-19T14:25:8Z</time></trkpt>
<trkpt lat="46.37993" lon="7.73787"><ele></ele><time>2025-9-19T14:25:11Z</time></trkpt>
<trkpt lat="46.37987" lon="7.73788"><ele></ele><time>2025-9-19T14:25:14Z</time></trkpt>
<trkpt lat="46.37984" lon="7.73788"><ele></ele><time>2025-9-19T14:25:17Z</time></trkpt>
<trkpt lat="46.37981" lon="7.73786"><ele></ele><time>2025-9-19T14:25:20Z</time></trkpt>
<trkpt lat="46.37981" lon="7.73787"><ele></ele><time>2025-9-19T14:25:23Z</time></trkpt>
<trkpt lat="46.37981" lon="7.73786"><ele></ele><time>2025-9-19T14:25:26Z</time></trkpt>
<trkpt lat="46.37973" lon="7.7379"><ele></ele><time>2025-9-19T14:25:29Z</time></trkpt>
<trkpt lat="46.37969" lon="7.7379"><ele></ele><time>2025-9-19T14:25:32Z</time></trkpt>
<trkpt lat="46.37962" lon="7.7379"><ele></ele><time>2025-9-19T14:25:35Z</time></trkpt>
<trkpt lat="46.37957" lon="7.73787"><ele></ele><time>2025-9-19T14:25:38Z</time></trkpt>
<trkpt lat="46.37956" lon="7.73786"><ele></ele><time>2025-9-19T14:25:41Z</time></trkpt>
<trkpt lat="46.37951" lon="7.73784"><ele></ele><time>2025-9-19T14:25:44Z</time></trkpt>
<trkpt lat="46.37949" lon="7.73784"><ele></ele><time>2025-9-19T14:25:47Z</time></trkpt>
<trkpt lat="46.37949" lon="7.73788"><ele></ele><time>2025-9-19T14:25:50Z</time></trkpt>
<trkpt lat="46.37952" lon="7.73793"><ele></ele><time>2025-9-19T14:25:53Z</time></trkpt>
<trkpt lat="46.37953" lon="7.73794"><ele></ele><time>2025-9-19T14:25:56Z</time></trkpt>
<trkpt lat="46.37954" lon="7.73796"><ele></ele><time>2025-9-19T14:25:59Z</time></trkpt>
<trkpt lat="46.37958" lon="7.73803"><ele></ele><time>2025-9-19T14:26:2Z</time></trkpt>
<trkpt lat="46.37959" lon="7.73805"><ele></ele><time>2025-9-19T14:26:5Z</time></trkpt>
<trkpt lat="46.37962" lon="7.73808"><ele></ele><time>2025-9-19T14:26:8Z</time></trkpt>
<trkpt lat="46.37966" lon="7.73811"><ele></ele><time>2025-9-19T14:26:11Z</time></trkpt>
<trkpt lat="46.37968" lon="7.73813"><ele></ele><time>2025-9-19T14:26:14Z</time></trkpt>
<trkpt lat="46.37973" lon="7.73815"><ele></ele><time>2025-9-19T14:26:17Z</time></trkpt>
<trkpt lat="46.37979" lon="7.73819"><ele></ele><time>2025-9-19T14:26:20Z</time></trkpt>
<trkpt lat="46.37983" lon="7.73822"><ele></ele><time>2025-9-19T14:26:23Z</time></trkpt>
<trkpt lat="46.37986" lon="7.73824"><ele></ele><time>2025-9-19T14:26:26Z</time></trkpt>
<trkpt lat="46.37988" lon="7.73828"><ele></ele><time>2025-9-19T14:26:29Z</time></trkpt>
<trkpt lat="46.37991" lon="7.73833"><ele></ele><time>2025-9-19T14:26:32Z</time></trkpt>
<trkpt lat="46.37996" lon="7.73837"><ele></ele><time>2025-9-19T14:26:35Z</time></trkpt>
<trkpt lat="46.37998" lon="7.73839"><ele></ele><time>2025-9-19T14:26:38Z</time></trkpt>
<trkpt lat="46.38" lon="7.73842"><ele></ele><time>2025-9-19T14:26:41Z</time></trkpt>
<trkpt lat="46.38004" lon="7.73849"><ele></ele><time>2025-9-19T14:26:44Z</time></trkpt>
<trkpt lat="46.38009" lon="7.73856"><ele></ele><time>2025-9-19T14:26:47Z</time></trkpt>
<trkpt lat="46.38011" lon="7.73859"><ele></ele><time>2025-9-19T14:26:50Z</time></trkpt>
<trkpt lat="46.38013" lon="7.73863"><ele></ele><time>2025-9-19T14:26:53Z</time></trkpt>
<trkpt lat="46.38016" lon="7.73868"><ele></ele><time>2025-9-19T14:26:56Z</time></trkpt>
<trkpt lat="46.38016" lon="7.7387"><ele></ele><time>2025-9-19T14:26:59Z</time></trkpt>
<trkpt lat="46.38017" lon="7.73873"><ele></ele><time>2025-9-19T14:27:2Z</time></trkpt>
<trkpt lat="46.3802" lon="7.7388"><ele></ele><time>2025-9-19T14:27:5Z</time></trkpt>
<trkpt lat="46.38022" lon="7.73883"><ele></ele><time>2025-9-19T14:27:8Z</time></trkpt>
<trkpt lat="46.38022" lon="7.73883"><ele></ele><time>2025-9-19T14:27:11Z</time></trkpt>
<trkpt lat="46.38022" lon="7.73883"><ele></ele><time>2025-9-19T14:27:14Z</time></trkpt>
<trkpt lat="46.38023" lon="7.73884"><ele></ele><time>2025-9-19T14:27:17Z</time></trkpt>
<trkpt lat="46.38029" lon="7.73893"><ele></ele><time>2025-9-19T14:27:20Z</time></trkpt>
<trkpt lat="46.38037" lon="7.739"><ele></ele><time>2025-9-19T14:27:23Z</time></trkpt>
<trkpt lat="46.38042" lon="7.73905"><ele></ele><time>2025-9-19T14:27:26Z</time></trkpt>
<trkpt lat="46.38044" lon="7.73908"><ele></ele><time>2025-9-19T14:27:29Z</time></trkpt>
<trkpt lat="46.3805" lon="7.73914"><ele></ele><time>2025-9-19T14:27:32Z</time></trkpt>
<trkpt lat="46.38052" lon="7.73915"><ele></ele><time>2025-9-19T14:27:35Z</time></trkpt>
<trkpt lat="46.38052" lon="7.73915"><ele></ele><time>2025-9-19T14:27:38Z</time></trkpt>
<trkpt lat="46.38054" lon="7.7392"><ele></ele><time>2025-9-19T14:27:41Z</time></trkpt>
<trkpt lat="46.38054" lon="7.73922"><ele></ele><time>2025-9-19T14:27:44Z</time></trkpt>
<trkpt lat="46.38054" lon="7.73925"><ele></ele><time>2025-9-19T14:27:47Z</time></trkpt>
<trkpt lat="46.38054" lon="7.73925"><ele></ele><time>2025-9-19T14:27:50Z</time></trkpt>
<trkpt lat="46.38055" lon="7.73926"><ele></ele><time>2025-9-19T14:27:53Z</time></trkpt>
<trkpt lat="46.38058" lon="7.73934"><ele></ele><time>2025-9-19T14:27:56Z</time></trkpt>
<trkpt lat="46.38059" lon="7.73942"><ele></ele><time>2025-9-19T14:27:59Z</time></trkpt>
<trkpt lat="46.3806" lon="7.73953"><ele></ele><time>2025-9-19T14:28:2Z</time></trkpt>
<trkpt lat="46.38063" lon="7.73961"><ele></ele><time>2025-9-19T14:28:5Z</time></trkpt>
<trkpt lat="46.38065" lon="7.7397"><ele></ele><time>2025-9-19T14:28:8Z</time></trkpt>
<trkpt lat="46.38068" lon="7.73979"><ele></ele><time>2025-9-19T14:28:11Z</time></trkpt>
<trkpt lat="46.38074" lon="7.73987"><ele></ele><time>2025-9-19T14:28:14Z</time></trkpt>
<trkpt lat="46.38078" lon="7.73989"><ele></ele><time>2025-9-19T14:28:17Z</time></trkpt>
<trkpt lat="46.38081" lon="7.73989"><ele></ele><time>2025-9-19T14:28:20Z</time></trkpt>
<trkpt lat="46.38088" lon="7.73989"><ele></ele><time>2025-9-19T14:28:23Z</time></trkpt>
<trkpt lat="46.38091" lon="7.7399"><ele></ele><time>2025-9-19T14:28:26Z</time></trkpt>
<trkpt lat="46.38093" lon="7.73994"><ele></ele><time>2025-9-19T14:28:29Z</time></trkpt>
<trkpt lat="46.38096" lon="7.74"><ele></ele><time>2025-9-19T14:28:32Z</time></trkpt>
<trkpt lat="46.381" lon="7.74009"><ele></ele><time>2025-9-19T14:28:35Z</time></trkpt>
<trkpt lat="46.38104" lon="7.74015"><ele></ele><time>2025-9-19T14:28:38Z</time></trkpt>
<trkpt lat="46.38105" lon="7.74017"><ele></ele><time>2025-9-19T14:28:41Z</time></trkpt>
<trkpt lat="46.38105" lon="7.74019"><ele></ele><time>2025-9-19T14:28:44Z</time></trkpt>
<trkpt lat="46.38106" lon="7.74021"><ele></ele><time>2025-9-19T14:28:47Z</time></trkpt>
<trkpt lat="46.38106" lon="7.74021"><ele></ele><time>2025-9-19T14:28:50Z</time></trkpt>
<trkpt lat="46.38109" lon="7.74028"><ele></ele><time>2025-9-19T14:28:53Z</time></trkpt>
<trkpt lat="46.38111" lon="7.74034"><ele></ele><time>2025-9-19T14:28:56Z</time></trkpt>
<trkpt lat="46.38114" lon="7.74044"><ele></ele><time>2025-9-19T14:28:59Z</time></trkpt>
<trkpt lat="46.38116" lon="7.74047"><ele></ele><time>2025-9-19T14:29:2Z</time></trkpt>
<trkpt lat="46.38117" lon="7.7405"><ele></ele><time>2025-9-19T14:29:5Z</time></trkpt>
<trkpt lat="46.3812" lon="7.74056"><ele></ele><time>2025-9-19T14:29:8Z</time></trkpt>
<trkpt lat="46.38123" lon="7.74062"><ele></ele><time>2025-9-19T14:29:11Z</time></trkpt>
<trkpt lat="46.38124" lon="7.74066"><ele></ele><time>2025-9-19T14:29:14Z</time></trkpt>
<trkpt lat="46.38128" lon="7.7407"><ele></ele><time>2025-9-19T14:29:17Z</time></trkpt>
<trkpt lat="46.38132" lon="7.74076"><ele></ele><time>2025-9-19T14:29:20Z</time></trkpt>
<trkpt lat="46.38134" lon="7.7408"><ele></ele><time>2025-9-19T14:29:23Z</time></trkpt>
<trkpt lat="46.38136" lon="7.74085"><ele></ele><time>2025-9-19T14:29:26Z</time></trkpt>
<trkpt lat="46.3814" lon="7.74093"><ele></ele><time>2025-9-19T14:29:29Z</time></trkpt>
<trkpt lat="46.38144" lon="7.74101"><ele></ele><time>2025-9-19T14:29:32Z</time></trkpt>
<trkpt lat="46.38147" lon="7.74108"><ele></ele><time>2025-9-19T14:29:35Z</time></trkpt>
<trkpt lat="46.3815" lon="7.74114"><ele></ele><time>2025-9-19T14:29:38Z</time></trkpt>
<trkpt lat="46.38152" lon="7.74118"><ele></ele><time>2025-9-19T14:29:41Z</time></trkpt>
<trkpt lat="46.38155" lon="7.74126"><ele></ele><time>2025-9-19T14:29:44Z</time></trkpt>
<trkpt lat="46.38161" lon="7.74135"><ele></ele><time>2025-9-19T14:29:47Z</time></trkpt>
<trkpt lat="46.38164" lon="7.74139"><ele></ele><time>2025-9-19T14:29:50Z</time></trkpt>
<trkpt lat="46.38167" lon="7.74144"><ele></ele><time>2025-9-19T14:29:53Z</time></trkpt>
<trkpt lat="46.38169" lon="7.74148"><ele></ele><time>2025-9-19T14:29:56Z</time></trkpt>
<trkpt lat="46.38174" lon="7.74156"><ele></ele><time>2025-9-19T14:29:59Z</time></trkpt>
<trkpt lat="46.38181" lon="7.74164"><ele></ele><time>2025-9-19T14:30:2Z</time></trkpt>
<trkpt lat="46.38186" lon="7.74171"><ele></ele><time>2025-9-19T14:30:5Z</time></trkpt>
<trkpt lat="46.38189" lon="7.74177"><ele></ele><time>2025-9-19T14:30:8Z</time></trkpt>
<trkpt lat="46.38193" lon="7.74184"><ele></ele><time>2025-9-19T14:30:11Z</time></trkpt>
<trkpt lat="46.38195" lon="7.7419"><ele></ele><time>2025-9-19T14:30:14Z</time></trkpt>
<trkpt lat="46.38199" lon="7.74197"><ele></ele><time>2025-9-19T14:30:17Z</time></trkpt>
<trkpt lat="46.38205" lon="7.74209"><ele></ele><time>2025-9-19T14:30:20Z</time></trkpt>
<trkpt lat="46.38207" lon="7.74212"><ele></ele><time>2025-9-19T14:30:23Z</time></trkpt>
<trkpt lat="46.38209" lon="7.74215"><ele></ele><time>2025-9-19T14:30:26Z</time></trkpt>
<trkpt lat="46.3821" lon="7.74218"><ele></ele><time>2025-9-19T14:30:29Z</time></trkpt>
<trkpt lat="46.38215" lon="7.74228"><ele></ele><time>2025-9-19T14:30:32Z</time></trkpt>
<trkpt lat="46.38217" lon="7.74235"><ele></ele><time>2025-9-19T14:30:35Z</time></trkpt>
<trkpt lat="46.3822" lon="7.74241"><ele></ele><time>2025-9-19T14:30:38Z</time></trkpt>
<trkpt lat="46.38221" lon="7.74243"><ele></ele><time>2025-9-19T14:30:41Z</time></trkpt>
<trkpt lat="46.38222" lon="7.74245"><ele></ele><time>2025-9-19T14:30:44Z</time></trkpt>
<trkpt lat="46.38221" lon="7.74246"><ele></ele><time>2025-9-19T14:30:47Z</time></trkpt>
<trkpt lat="46.38219" lon="7.74243"><ele></ele><time>2025-9-19T14:30:50Z</time></trkpt>
<trkpt lat="46.38215" lon="7.74241"><ele></ele><time>2025-9-19T14:30:53Z</time></trkpt>
<trkpt lat="46.38209" lon="7.74234"><ele></ele><time>2025-9-19T14:30:56Z</time></trkpt>
<trkpt lat="46.38207" lon="7.74233"><ele></ele><time>2025-9-19T14:30:59Z</time></trkpt>
<trkpt lat="46.38201" lon="7.74231"><ele></ele><time>2025-9-19T14:31:2Z</time></trkpt>
<trkpt lat="46.38195" lon="7.74227"><ele></ele><time>2025-9-19T14:31:5Z</time></trkpt>
<trkpt lat="46.38187" lon="7.74222"><ele></ele><time>2025-9-19T14:31:8Z</time></trkpt>
<trkpt lat="46.38181" lon="7.74218"><ele></ele><time>2025-9-19T14:31:11Z</time></trkpt>
<trkpt lat="46.38179" lon="7.74217"><ele></ele><time>2025-9-19T14:31:14Z</time></trkpt>
<trkpt lat="46.38176" lon="7.74216"><ele></ele><time>2025-9-19T14:31:17Z</time></trkpt>
<trkpt lat="46.38171" lon="7.74214"><ele></ele><time>2025-9-19T14:31:20Z</time></trkpt>
<trkpt lat="46.38167" lon="7.74213"><ele></ele><time>2025-9-19T14:31:23Z</time></trkpt>
<trkpt lat="46.38162" lon="7.74211"><ele></ele><time>2025-9-19T14:31:26Z</time></trkpt>
<trkpt lat="46.38157" lon="7.74207"><ele></ele><time>2025-9-19T14:31:29Z</time></trkpt>
<trkpt lat="46.38152" lon="7.74203"><ele></ele><time>2025-9-19T14:31:32Z</time></trkpt>
<trkpt lat="46.38149" lon="7.74202"><ele></ele><time>2025-9-19T14:31:35Z</time></trkpt>
<trkpt lat="46.38148" lon="7.74204"><ele></ele><time>2025-9-19T14:31:38Z</time></trkpt>
<trkpt lat="46.3815" lon="7.74208"><ele></ele><time>2025-9-19T14:31:41Z</time></trkpt>
<trkpt lat="46.38156" lon="7.74214"><ele></ele><time>2025-9-19T14:31:44Z</time></trkpt>
<trkpt lat="46.3816" lon="7.74217"><ele></ele><time>2025-9-19T14:31:47Z</time></trkpt>
<trkpt lat="46.38165" lon="7.7422"><ele></ele><time>2025-9-19T14:31:50Z</time></trkpt>
<trkpt lat="46.38174" lon="7.74228"><ele></ele><time>2025-9-19T14:31:53Z</time></trkpt>
<trkpt lat="46.38183" lon="7.7424"><ele></ele><time>2025-9-19T14:31:56Z</time></trkpt>
<trkpt lat="46.38186" lon="7.74246"><ele></ele><time>2025-9-19T14:31:59Z</time></trkpt>
<trkpt lat="46.38188" lon="7.74255"><ele></ele><time>2025-9-19T14:32:2Z</time></trkpt>
<trkpt lat="46.38191" lon="7.74264"><ele></ele><time>2025-9-19T14:32:5Z</time></trkpt>
<trkpt lat="46.38193" lon="7.74273"><ele></ele><time>2025-9-19T14:32:8Z</time></trkpt>
<trkpt lat="46.38196" lon="7.7428"><ele></ele><time>2025-9-19T14:32:11Z</time></trkpt>
<trkpt lat="46.38199" lon="7.74289"><ele></ele><time>2025-9-19T14:32:14Z</time></trkpt>
<trkpt lat="46.382" lon="7.74292"><ele></ele><time>2025-9-19T14:32:17Z</time></trkpt>
<trkpt lat="46.38205" lon="7.74301"><ele></ele><time>2025-9-19T14:32:20Z</time></trkpt>
<trkpt lat="46.38206" lon="7.74306"><ele></ele><time>2025-9-19T14:32:23Z</time></trkpt>
<trkpt lat="46.38211" lon="7.74317"><ele></ele><time>2025-9-19T14:32:26Z</time></trkpt>
<trkpt lat="46.38214" lon="7.74323"><ele></ele><time>2025-9-19T14:32:29Z</time></trkpt>
<trkpt lat="46.38217" lon="7.74328"><ele></ele><time>2025-9-19T14:32:32Z</time></trkpt>
<trkpt lat="46.38222" lon="7.74333"><ele></ele><time>2025-9-19T14:32:35Z</time></trkpt>
<trkpt lat="46.38226" lon="7.74337"><ele></ele><time>2025-9-19T14:32:38Z</time></trkpt>
<trkpt lat="46.38232" lon="7.7434"><ele></ele><time>2025-9-19T14:32:41Z</time></trkpt>
<trkpt lat="46.38238" lon="7.74342"><ele></ele><time>2025-9-19T14:32:44Z</time></trkpt>
<trkpt lat="46.38245" lon="7.74343"><ele></ele><time>2025-9-19T14:32:47Z</time></trkpt>
<trkpt lat="46.38259" lon="7.74348"><ele></ele><time>2025-9-19T14:32:50Z</time></trkpt>
<trkpt lat="46.38267" lon="7.74351"><ele></ele><time>2025-9-19T14:32:53Z</time></trkpt>
<trkpt lat="46.38275" lon="7.74353"><ele></ele><time>2025-9-19T14:32:56Z</time></trkpt>
<trkpt lat="46.38285" lon="7.74356"><ele></ele><time>2025-9-19T14:32:59Z</time></trkpt>
<trkpt lat="46.38294" lon="7.74359"><ele></ele><time>2025-9-19T14:33:2Z</time></trkpt>
<trkpt lat="46.38304" lon="7.74362"><ele></ele><time>2025-9-19T14:33:5Z</time></trkpt>
<trkpt lat="46.38314" lon="7.74366"><ele></ele><time>2025-9-19T14:33:8Z</time></trkpt>
<trkpt lat="46.38323" lon="7.74371"><ele></ele><time>2025-9-19T14:33:11Z</time></trkpt>
<trkpt lat="46.38332" lon="7.74376"><ele></ele><time>2025-9-19T14:33:14Z</time></trkpt>
<trkpt lat="46.38342" lon="7.74381"><ele></ele><time>2025-9-19T14:33:17Z</time></trkpt>
<trkpt lat="46.38351" lon="7.74385"><ele></ele><time>2025-9-19T14:33:20Z</time></trkpt>
<trkpt lat="46.38361" lon="7.74389"><ele></ele><time>2025-9-19T14:33:23Z</time></trkpt>
<trkpt lat="46.3837" lon="7.74394"><ele></ele><time>2025-9-19T14:33:26Z</time></trkpt>
<trkpt lat="46.3838" lon="7.74399"><ele></ele><time>2025-9-19T14:33:29Z</time></trkpt>
<trkpt lat="46.38396" lon="7.74412"><ele></ele><time>2025-9-19T14:33:32Z</time></trkpt>
<trkpt lat="46.38412" lon="7.74422"><ele></ele><time>2025-9-19T14:33:35Z</time></trkpt>
<trkpt lat="46.3842" lon="7.74426"><ele></ele><time>2025-9-19T14:33:38Z</time></trkpt>
<trkpt lat="46.38428" lon="7.74432"><ele></ele><time>2025-9-19T14:33:41Z</time></trkpt>
<trkpt lat="46.38435" lon="7.74439"><ele></ele><time>2025-9-19T14:33:44Z</time></trkpt>
<trkpt lat="46.38442" lon="7.74447"><ele></ele><time>2025-9-19T14:33:47Z</time></trkpt>
<trkpt lat="46.38448" lon="7.74455"><ele></ele><time>2025-9-19T14:33:50Z</time></trkpt>
<trkpt lat="46.38459" lon="7.74466"><ele></ele><time>2025-9-19T14:33:53Z</time></trkpt>
<trkpt lat="46.38466" lon="7.74469"><ele></ele><time>2025-9-19T14:33:56Z</time></trkpt>
<trkpt lat="46.38481" lon="7.74472"><ele></ele><time>2025-9-19T14:33:59Z</time></trkpt>
<trkpt lat="46.38489" lon="7.74475"><ele></ele><time>2025-9-19T14:34:2Z</time></trkpt>
<trkpt lat="46.38496" lon="7.7448"><ele></ele><time>2025-9-19T14:34:5Z</time></trkpt>
<trkpt lat="46.38511" lon="7.74489"><ele></ele><time>2025-9-19T14:34:8Z</time></trkpt>
<trkpt lat="46.38527" lon="7.74496"><ele></ele><time>2025-9-19T14:34:11Z</time></trkpt>
<trkpt lat="46.38543" lon="7.74503"><ele></ele><time>2025-9-19T14:34:14Z</time></trkpt>
<trkpt lat="46.3855" lon="7.74507"><ele></ele><time>2025-9-19T14:34:17Z</time></trkpt>
<trkpt lat="46.38562" lon="7.74513"><ele></ele><time>2025-9-19T14:34:20Z</time></trkpt>
<trkpt lat="46.38575" lon="7.7452"><ele></ele><time>2025-9-19T14:34:23Z</time></trkpt>
<trkpt lat="46.38582" lon="7.74524"><ele></ele><time>2025-9-19T14:34:26Z</time></trkpt>
<trkpt lat="46.3859" lon="7.74528"><ele></ele><time>2025-9-19T14:34:29Z</time></trkpt>
<trkpt lat="46.38606" lon="7.74537"><ele></ele><time>2025-9-19T14:34:32Z</time></trkpt>
<trkpt lat="46.38623" lon="7.7455"><ele></ele><time>2025-9-19T14:34:35Z</time></trkpt>
<trkpt lat="46.38631" lon="7.74556"><ele></ele><time>2025-9-19T14:34:38Z</time></trkpt>
<trkpt lat="46.38648" lon="7.74567"><ele></ele><time>2025-9-19T14:34:41Z</time></trkpt>
<trkpt lat="46.38665" lon="7.74578"><ele></ele><time>2025-9-19T14:34:44Z</time></trkpt>
<trkpt lat="46.38673" lon="7.74583"><ele></ele><time>2025-9-19T14:34:47Z</time></trkpt>
<trkpt lat="46.38681" lon="7.74589"><ele></ele><time>2025-9-19T14:34:50Z</time></trkpt>
<trkpt lat="46.38694" lon="7.746"><ele></ele><time>2025-9-19T14:34:53Z</time></trkpt>
<trkpt lat="46.38701" lon="7.74605"><ele></ele><time>2025-9-19T14:34:56Z</time></trkpt>
<trkpt lat="46.38706" lon="7.7461"><ele></ele><time>2025-9-19T14:34:59Z</time></trkpt>
<trkpt lat="46.38715" lon="7.74621"><ele></ele><time>2025-9-19T14:35:2Z</time></trkpt>
<trkpt lat="46.3872" lon="7.74628"><ele></ele><time>2025-9-19T14:35:5Z</time></trkpt>
<trkpt lat="46.38723" lon="7.74636"><ele></ele><time>2025-9-19T14:35:8Z</time></trkpt>
<trkpt lat="46.38733" lon="7.74652"><ele></ele><time>2025-9-19T14:35:11Z</time></trkpt>
<trkpt lat="46.38737" lon="7.74659"><ele></ele><time>2025-9-19T14:35:14Z</time></trkpt>
<trkpt lat="46.38741" lon="7.74667"><ele></ele><time>2025-9-19T14:35:17Z</time></trkpt>
<trkpt lat="46.38745" lon="7.74673"><ele></ele><time>2025-9-19T14:35:20Z</time></trkpt>
<trkpt lat="46.38749" lon="7.7468"><ele></ele><time>2025-9-19T14:35:23Z</time></trkpt>
<trkpt lat="46.38756" lon="7.74692"><ele></ele><time>2025-9-19T14:35:26Z</time></trkpt>
<trkpt lat="46.38768" lon="7.74699"><ele></ele><time>2025-9-19T14:35:29Z</time></trkpt>
<trkpt lat="46.38775" lon="7.74703"><ele></ele><time>2025-9-19T14:35:32Z</time></trkpt>
<trkpt lat="46.38782" lon="7.74707"><ele></ele><time>2025-9-19T14:35:35Z</time></trkpt>
<trkpt lat="46.38797" lon="7.74712"><ele></ele><time>2025-9-19T14:35:38Z</time></trkpt>
<trkpt lat="46.38806" lon="7.74712"><ele></ele><time>2025-9-19T14:35:41Z</time></trkpt>
<trkpt lat="46.38823" lon="7.7471"><ele></ele><time>2025-9-19T14:35:44Z</time></trkpt>
<trkpt lat="46.38832" lon="7.7471"><ele></ele><time>2025-9-19T14:35:47Z</time></trkpt>
<trkpt lat="46.38839" lon="7.74709"><ele></ele><time>2025-9-19T14:35:50Z</time></trkpt>
<trkpt lat="46.38848" lon="7.74709"><ele></ele><time>2025-9-19T14:35:53Z</time></trkpt>
<trkpt lat="46.38856" lon="7.74708"><ele></ele><time>2025-9-19T14:35:56Z</time></trkpt>
<trkpt lat="46.38863" lon="7.7471"><ele></ele><time>2025-9-19T14:35:59Z</time></trkpt>
<trkpt lat="46.38869" lon="7.74713"><ele></ele><time>2025-9-19T14:36:2Z</time></trkpt>
<trkpt lat="46.38883" lon="7.74715"><ele></ele><time>2025-9-19T14:36:5Z</time></trkpt>
<trkpt lat="46.38889" lon="7.74711"><ele></ele><time>2025-9-19T14:36:8Z</time></trkpt>
<trkpt lat="46.38895" lon="7.74706"><ele></ele><time>2025-9-19T14:36:11Z</time></trkpt>
<trkpt lat="46.38902" lon="7.74699"><ele></ele><time>2025-9-19T14:36:14Z</time></trkpt>
<trkpt lat="46.3891" lon="7.74693"><ele></ele><time>2025-9-19T14:36:17Z</time></trkpt>
<trkpt lat="46.38917" lon="7.74691"><ele></ele><time>2025-9-19T14:36:20Z</time></trkpt>
<trkpt lat="46.38923" lon="7.74693"><ele></ele><time>2025-9-19T14:36:23Z</time></trkpt>
<trkpt lat="46.38928" lon="7.747"><ele></ele><time>2025-9-19T14:36:26Z</time></trkpt>
<trkpt lat="46.38932" lon="7.74709"><ele></ele><time>2025-9-19T14:36:29Z</time></trkpt>
<trkpt lat="46.3894" lon="7.74721"><ele></ele><time>2025-9-19T14:36:32Z</time></trkpt>
<trkpt lat="46.38954" lon="7.74724"><ele></ele><time>2025-9-19T14:36:35Z</time></trkpt>
<trkpt lat="46.38962" lon="7.74725"><ele></ele><time>2025-9-19T14:36:38Z</time></trkpt>
<trkpt lat="46.38969" lon="7.74727"><ele></ele><time>2025-9-19T14:36:41Z</time></trkpt>
<trkpt lat="46.38977" lon="7.74726"><ele></ele><time>2025-9-19T14:36:44Z</time></trkpt>
<trkpt lat="46.38984" lon="7.74723"><ele></ele><time>2025-9-19T14:36:47Z</time></trkpt>
<trkpt lat="46.38992" lon="7.74716"><ele></ele><time>2025-9-19T14:36:50Z</time></trkpt>
<trkpt lat="46.38999" lon="7.74708"><ele></ele><time>2025-9-19T14:36:53Z</time></trkpt>
<trkpt lat="46.39007" lon="7.74702"><ele></ele><time>2025-9-19T14:36:56Z</time></trkpt>
<trkpt lat="46.39016" lon="7.747"><ele></ele><time>2025-9-19T14:36:59Z</time></trkpt>
<trkpt lat="46.39031" lon="7.74706"><ele></ele><time>2025-9-19T14:37:2Z</time></trkpt>
<trkpt lat="46.39039" lon="7.74719"><ele></ele><time>2025-9-19T14:37:5Z</time></trkpt>
<trkpt lat="46.39042" lon="7.74724"><ele></ele><time>2025-9-19T14:37:8Z</time></trkpt>
<trkpt lat="46.39047" lon="7.74727"><ele></ele><time>2025-9-19T14:37:11Z</time></trkpt>
<trkpt lat="46.39052" lon="7.74725"><ele></ele><time>2025-9-19T14:37:14Z</time></trkpt>
<trkpt lat="46.39058" lon="7.74723"><ele></ele><time>2025-9-19T14:37:17Z</time></trkpt>
<trkpt lat="46.39064" lon="7.7472"><ele></ele><time>2025-9-19T14:37:20Z</time></trkpt>
<trkpt lat="46.3907" lon="7.74719"><ele></ele><time>2025-9-19T14:37:23Z</time></trkpt>
<trkpt lat="46.39077" lon="7.7472"><ele></ele><time>2025-9-19T14:37:26Z</time></trkpt>
<trkpt lat="46.39084" lon="7.74723"><ele></ele><time>2025-9-19T14:37:29Z</time></trkpt>
<trkpt lat="46.39098" lon="7.74731"><ele></ele><time>2025-9-19T14:37:32Z</time></trkpt>
<trkpt lat="46.39109" lon="7.74735"><ele></ele><time>2025-9-19T14:37:35Z</time></trkpt>
<trkpt lat="46.39116" lon="7.74729"><ele></ele><time>2025-9-19T14:37:38Z</time></trkpt>
<trkpt lat="46.39116" lon="7.74724"><ele></ele><time>2025-9-19T14:37:41Z</time></trkpt>
<trkpt lat="46.39119" lon="7.74691"><ele></ele><time>2025-9-19T14:37:44Z</time></trkpt>
<trkpt lat="46.39123" lon="7.74669"><ele></ele><time>2025-9-19T14:37:47Z</time></trkpt>
<trkpt lat="46.39124" lon="7.7466"><ele></ele><time>2025-9-19T14:37:50Z</time></trkpt>
<trkpt lat="46.39136" lon="7.74599"><ele></ele><time>2025-9-19T14:37:53Z</time></trkpt>
<trkpt lat="46.39137" lon="7.7458"><ele></ele><time>2025-9-19T14:37:56Z</time></trkpt>
<trkpt lat="46.39136" lon="7.74559"><ele></ele><time>2025-9-19T14:37:59Z</time></trkpt>
<trkpt lat="46.39133" lon="7.74527"><ele></ele><time>2025-9-19T14:38:2Z</time></trkpt>
<trkpt lat="46.39143" lon="7.74511"><ele></ele><time>2025-9-19T14:38:5Z</time></trkpt>
<trkpt lat="46.39158" lon="7.74509"><ele></ele><time>2025-9-19T14:38:8Z</time></trkpt>
<trkpt lat="46.39171" lon="7.74515"><ele></ele><time>2025-9-19T14:38:11Z</time></trkpt>
<trkpt lat="46.39177" lon="7.7452"><ele></ele><time>2025-9-19T14:38:14Z</time></trkpt>
<trkpt lat="46.39183" lon="7.74528"><ele></ele><time>2025-9-19T14:38:17Z</time></trkpt>
<trkpt lat="46.39192" lon="7.74544"><ele></ele><time>2025-9-19T14:38:20Z</time></trkpt>
<trkpt lat="46.39203" lon="7.74559"><ele></ele><time>2025-9-19T14:38:23Z</time></trkpt>
<trkpt lat="46.39217" lon="7.74568"><ele></ele><time>2025-9-19T14:38:26Z</time></trkpt>
<trkpt lat="46.39223" lon="7.74572"><ele></ele><time>2025-9-19T14:38:29Z</time></trkpt>
<trkpt lat="46.39234" lon="7.74584"><ele></ele><time>2025-9-19T14:38:32Z</time></trkpt>
<trkpt lat="46.3924" lon="7.74591"><ele></ele><time>2025-9-19T14:38:35Z</time></trkpt>
<trkpt lat="46.39245" lon="7.74597"><ele></ele><time>2025-9-19T14:38:38Z</time></trkpt>
<trkpt lat="46.39251" lon="7.74601"><ele></ele><time>2025-9-19T14:38:41Z</time></trkpt>
<trkpt lat="46.39266" lon="7.74604"><ele></ele><time>2025-9-19T14:38:44Z</time></trkpt>
<trkpt lat="46.39281" lon="7.74607"><ele></ele><time>2025-9-19T14:38:47Z</time></trkpt>
<trkpt lat="46.39289" lon="7.74608"><ele></ele><time>2025-9-19T14:38:50Z</time></trkpt>
<trkpt lat="46.39297" lon="7.74614"><ele></ele><time>2025-9-19T14:38:53Z</time></trkpt>
<trkpt lat="46.39303" lon="7.74623"><ele></ele><time>2025-9-19T14:38:56Z</time></trkpt>
<trkpt lat="46.39309" lon="7.74634"><ele></ele><time>2025-9-19T14:38:59Z</time></trkpt>
<trkpt lat="46.39316" lon="7.74644"><ele></ele><time>2025-9-19T14:39:2Z</time></trkpt>
<trkpt lat="46.39325" lon="7.74652"><ele></ele><time>2025-9-19T14:39:5Z</time></trkpt>
<trkpt lat="46.39333" lon="7.74659"><ele></ele><time>2025-9-19T14:39:8Z</time></trkpt>
<trkpt lat="46.39349" lon="7.74672"><ele></ele><time>2025-9-19T14:39:11Z</time></trkpt>
<trkpt lat="46.39386" lon="7.74699"><ele></ele><time>2025-9-19T14:39:14Z</time></trkpt>
<trkpt lat="46.39398" lon="7.7472"><ele></ele><time>2025-9-19T14:39:17Z</time></trkpt>
<trkpt lat="46.39402" lon="7.74733"><ele></ele><time>2025-9-19T14:39:20Z</time></trkpt>
<trkpt lat="46.39409" lon="7.74759"><ele></ele><time>2025-9-19T14:39:23Z</time></trkpt>
<trkpt lat="46.39412" lon="7.74786"><ele></ele><time>2025-9-19T14:39:26Z</time></trkpt>
<trkpt lat="46.39412" lon="7.74799"><ele></ele><time>2025-9-19T14:39:29Z</time></trkpt>
<trkpt lat="46.39414" lon="7.7481"><ele></ele><time>2025-9-19T14:39:32Z</time></trkpt>
<trkpt lat="46.39418" lon="7.74821"><ele></ele><time>2025-9-19T14:39:35Z</time></trkpt>
<trkpt lat="46.39423" lon="7.7483"><ele></ele><time>2025-9-19T14:39:38Z</time></trkpt>
<trkpt lat="46.39428" lon="7.74841"><ele></ele><time>2025-9-19T14:39:41Z</time></trkpt>
<trkpt lat="46.39432" lon="7.74852"><ele></ele><time>2025-9-19T14:39:44Z</time></trkpt>
<trkpt lat="46.39435" lon="7.74864"><ele></ele><time>2025-9-19T14:39:47Z</time></trkpt>
<trkpt lat="46.39436" lon="7.74877"><ele></ele><time>2025-9-19T14:39:50Z</time></trkpt>
<trkpt lat="46.39439" lon="7.74891"><ele></ele><time>2025-9-19T14:39:53Z</time></trkpt>
<trkpt lat="46.39444" lon="7.74904"><ele></ele><time>2025-9-19T14:39:56Z</time></trkpt>
<trkpt lat="46.39444" lon="7.74917"><ele></ele><time>2025-9-19T14:39:59Z</time></trkpt>
<trkpt lat="46.39444" lon="7.74935"><ele></ele><time>2025-9-19T14:40:2Z</time></trkpt>
<trkpt lat="46.39445" lon="7.74941"><ele></ele><time>2025-9-19T14:40:5Z</time></trkpt>
<trkpt lat="46.39448" lon="7.74948"><ele></ele><time>2025-9-19T14:40:8Z</time></trkpt>
<trkpt lat="46.39449" lon="7.7495"><ele></ele><time>2025-9-19T14:40:11Z</time></trkpt>
<trkpt lat="46.3945" lon="7.74953"><ele></ele><time>2025-9-19T14:40:14Z</time></trkpt>
<trkpt lat="46.39451" lon="7.74959"><ele></ele><time>2025-9-19T14:40:17Z</time></trkpt>
<trkpt lat="46.39451" lon="7.7496"><ele></ele><time>2025-9-19T14:40:20Z</time></trkpt>
<trkpt lat="46.39452" lon="7.74963"><ele></ele><time>2025-9-19T14:40:23Z</time></trkpt>
<trkpt lat="46.39453" lon="7.74967"><ele></ele><time>2025-9-19T14:40:26Z</time></trkpt>
<trkpt lat="46.39454" lon="7.7497"><ele></ele><time>2025-9-19T14:40:29Z</time></trkpt>
<trkpt lat="46.39455" lon="7.74975"><ele></ele><time>2025-9-19T14:40:32Z</time></trkpt>
<trkpt lat="46.39455" lon="7.74978"><ele></ele><time>2025-9-19T14:40:35Z</time></trkpt>
<trkpt lat="46.39455" lon="7.74988"><ele></ele><time>2025-9-19T14:40:38Z</time></trkpt>
<trkpt lat="46.39456" lon="7.7499"><ele></ele><time>2025-9-19T14:40:41Z</time></trkpt>
<trkpt lat="46.39456" lon="7.74997"><ele></ele><time>2025-9-19T14:40:44Z</time></trkpt>
<trkpt lat="46.39457" lon="7.75001"><ele></ele><time>2025-9-19T14:40:47Z</time></trkpt>
<trkpt lat="46.39457" lon="7.75002"><ele></ele><time>2025-9-19T14:40:50Z</time></trkpt>
<trkpt lat="46.39459" lon="7.75011"><ele></ele><time>2025-9-19T14:40:53Z</time></trkpt>
<trkpt lat="46.39461" lon="7.75017"><ele></ele><time>2025-9-19T14:40:56Z</time></trkpt>
<trkpt lat="46.39461" lon="7.75022"><ele></ele><time>2025-9-19T14:40:59Z</time></trkpt>
<trkpt lat="46.39463" lon="7.75032"><ele></ele><time>2025-9-19T14:41:2Z</time></trkpt>
<trkpt lat="46.39463" lon="7.75035"><ele></ele><time>2025-9-19T14:41:5Z</time></trkpt>
<trkpt lat="46.39466" lon="7.7504"><ele></ele><time>2025-9-19T14:41:8Z</time></trkpt>
<trkpt lat="46.39466" lon="7.75044"><ele></ele><time>2025-9-19T14:41:11Z</time></trkpt>
<trkpt lat="46.39467" lon="7.75046"><ele></ele><time>2025-9-19T14:41:14Z</time></trkpt>
<trkpt lat="46.3947" lon="7.75054"><ele></ele><time>2025-9-19T14:41:17Z</time></trkpt>
<trkpt lat="46.39469" lon="7.75055"><ele></ele><time>2025-9-19T14:41:20Z</time></trkpt>
<trkpt lat="46.3947" lon="7.75064"><ele></ele><time>2025-9-19T14:41:23Z</time></trkpt>
<trkpt lat="46.39471" lon="7.75068"><ele></ele><time>2025-9-19T14:41:26Z</time></trkpt>
<trkpt lat="46.39472" lon="7.75073"><ele></ele><time>2025-9-19T14:41:29Z</time></trkpt>
<trkpt lat="46.39472" lon="7.75078"><ele></ele><time>2025-9-19T14:41:32Z</time></trkpt>
<trkpt lat="46.39473" lon="7.75081"><ele></ele><time>2025-9-19T14:41:35Z</time></trkpt>
<trkpt lat="46.39474" lon="7.75085"><ele></ele><time>2025-9-19T14:41:38Z</time></trkpt>
<trkpt lat="46.39474" lon="7.75092"><ele></ele><time>2025-9-19T14:41:41Z</time></trkpt>
<trkpt lat="46.39474" lon="7.75097"><ele></ele><time>2025-9-19T14:41:44Z</time></trkpt>
<trkpt lat="46.39473" lon="7.75102"><ele></ele><time>2025-9-19T14:41:47Z</time></trkpt>
<trkpt lat="46.39475" lon="7.75104"><ele></ele><time>2025-9-19T14:41:50Z</time></trkpt>
<trkpt lat="46.39475" lon="7.75108"><ele></ele><time>2025-9-19T14:41:53Z</time></trkpt>
<trkpt lat="46.39476" lon="7.7511"><ele></ele><time>2025-9-19T14:41:56Z</time></trkpt>
<trkpt lat="46.39476" lon="7.75114"><ele></ele><time>2025-9-19T14:41:59Z</time></trkpt>
<trkpt lat="46.39476" lon="7.75115"><ele></ele><time>2025-9-19T14:42:2Z</time></trkpt>
<trkpt lat="46.39477" lon="7.75123"><ele></ele><time>2025-9-19T14:42:5Z</time></trkpt>
<trkpt lat="46.39479" lon="7.75127"><ele></ele><time>2025-9-19T14:42:8Z</time></trkpt>
<trkpt lat="46.39481" lon="7.75133"><ele></ele><time>2025-9-19T14:42:11Z</time></trkpt>
<trkpt lat="46.39481" lon="7.75134"><ele></ele><time>2025-9-19T14:42:14Z</time></trkpt>
<trkpt lat="46.39483" lon="7.75139"><ele></ele><time>2025-9-19T14:42:17Z</time></trkpt>
<trkpt lat="46.39484" lon="7.75141"><ele></ele><time>2025-9-19T14:42:20Z</time></trkpt>
<trkpt lat="46.39484" lon="7.75143"><ele></ele><time>2025-9-19T14:42:23Z</time></trkpt>
<trkpt lat="46.39485" lon="7.75144"><ele></ele><time>2025-9-19T14:42:26Z</time></trkpt>
<trkpt lat="46.39486" lon="7.75148"><ele></ele><time>2025-9-19T14:42:29Z</time></trkpt>
<trkpt lat="46.39488" lon="7.75152"><ele></ele><time>2025-9-19T14:42:32Z</time></trkpt>
<trkpt lat="46.39488" lon="7.75153"><ele></ele><time>2025-9-19T14:42:35Z</time></trkpt>
<trkpt lat="46.3949" lon="7.7516"><ele></ele><time>2025-9-19T14:42:38Z</time></trkpt>
<trkpt lat="46.39491" lon="7.75162"><ele></ele><time>2025-9-19T14:42:41Z</time></trkpt>
<trkpt lat="46.39493" lon="7.75165"><ele></ele><time>2025-9-19T14:42:44Z</time></trkpt>
<trkpt lat="46.39497" lon="7.75166"><ele></ele><time>2025-9-19T14:42:47Z</time></trkpt>
<trkpt lat="46.39499" lon="7.75167"><ele></ele><time>2025-9-19T14:42:50Z</time></trkpt>
<trkpt lat="46.39505" lon="7.75168"><ele></ele><time>2025-9-19T14:42:53Z</time></trkpt>
<trkpt lat="46.39507" lon="7.75168"><ele></ele><time>2025-9-19T14:42:56Z</time></trkpt>
<trkpt lat="46.39513" lon="7.75169"><ele></ele><time>2025-9-19T14:42:59Z</time></trkpt>
<trkpt lat="46.39516" lon="7.7517"><ele></ele><time>2025-9-19T14:43:2Z</time></trkpt>
<trkpt lat="46.39519" lon="7.75171"><ele></ele><time>2025-9-19T14:43:5Z</time></trkpt>
<trkpt lat="46.39524" lon="7.75168"><ele></ele><time>2025-9-19T14:43:8Z</time></trkpt>
<trkpt lat="46.39526" lon="7.75169"><ele></ele><time>2025-9-19T14:43:11Z</time></trkpt>
<trkpt lat="46.39527" lon="7.75169"><ele></ele><time>2025-9-19T14:43:14Z</time></trkpt>
<trkpt lat="46.3953" lon="7.7517"><ele></ele><time>2025-9-19T14:43:17Z</time></trkpt>
<trkpt lat="46.39531" lon="7.75173"><ele></ele><time>2025-9-19T14:43:20Z</time></trkpt>
<trkpt lat="46.39533" lon="7.75173"><ele></ele><time>2025-9-19T14:43:23Z</time></trkpt>
<trkpt lat="46.39536" lon="7.75171"><ele></ele><time>2025-9-19T14:43:26Z</time></trkpt>
<trkpt lat="46.3954" lon="7.75174"><ele></ele><time>2025-9-19T14:43:29Z</time></trkpt>
<trkpt lat="46.3954" lon="7.75175"><ele></ele><time>2025-9-19T14:43:32Z</time></trkpt>
<trkpt lat="46.39547" lon="7.75181"><ele></ele><time>2025-9-19T14:43:35Z</time></trkpt>
<trkpt lat="46.3955" lon="7.75182"><ele></ele><time>2025-9-19T14:43:38Z</time></trkpt>
<trkpt lat="46.39555" lon="7.75182"><ele></ele><time>2025-9-19T14:43:41Z</time></trkpt>
<trkpt lat="46.39558" lon="7.75183"><ele></ele><time>2025-9-19T14:43:44Z</time></trkpt>
<trkpt lat="46.39564" lon="7.75181"><ele></ele><time>2025-9-19T14:43:47Z</time></trkpt>
<trkpt lat="46.39566" lon="7.75179"><ele></ele><time>2025-9-19T14:43:50Z</time></trkpt>
<trkpt lat="46.39572" lon="7.75176"><ele></ele><time>2025-9-19T14:43:53Z</time></trkpt>
<trkpt lat="46.39573" lon="7.75175"><ele></ele><time>2025-9-19T14:43:56Z</time></trkpt>
<trkpt lat="46.39577" lon="7.75171"><ele></ele><time>2025-9-19T14:43:59Z</time></trkpt>
<trkpt lat="46.39579" lon="7.75171"><ele></ele><time>2025-9-19T14:44:2Z</time></trkpt>
<trkpt lat="46.39581" lon="7.7517"><ele></ele><time>2025-9-19T14:44:5Z</time></trkpt>
<trkpt lat="46.39583" lon="7.75168"><ele></ele><time>2025-9-19T14:44:8Z</time></trkpt>
<trkpt lat="46.39584" lon="7.75168"><ele></ele><time>2025-9-19T14:44:11Z</time></trkpt>
<trkpt lat="46.39587" lon="7.75166"><ele></ele><time>2025-9-19T14:44:14Z</time></trkpt>
<trkpt lat="46.3959" lon="7.75166"><ele></ele><time>2025-9-19T14:44:17Z</time></trkpt>
<trkpt lat="46.39596" lon="7.75165"><ele></ele><time>2025-9-19T14:44:20Z</time></trkpt>
<trkpt lat="46.39598" lon="7.75164"><ele></ele><time>2025-9-19T14:44:23Z</time></trkpt>
<trkpt lat="46.39599" lon="7.75164"><ele></ele><time>2025-9-19T14:44:26Z</time></trkpt>
<trkpt lat="46.396" lon="7.75165"><ele></ele><time>2025-9-19T14:44:29Z</time></trkpt>
<trkpt lat="46.39602" lon="7.75167"><ele></ele><time>2025-9-19T14:44:32Z</time></trkpt>
<trkpt lat="46.39604" lon="7.75169"><ele></ele><time>2025-9-19T14:44:35Z</time></trkpt>
<trkpt lat="46.39609" lon="7.7517"><ele></ele><time>2025-9-19T14:44:38Z</time></trkpt>
<trkpt lat="46.39612" lon="7.75172"><ele></ele><time>2025-9-19T14:44:41Z</time></trkpt>
<trkpt lat="46.39615" lon="7.75174"><ele></ele><time>2025-9-19T14:44:44Z</time></trkpt>
<trkpt lat="46.3962" lon="7.75175"><ele></ele><time>2025-9-19T14:44:47Z</time></trkpt>
<trkpt lat="46.39621" lon="7.75175"><ele></ele><time>2025-9-19T14:44:50Z</time></trkpt>
<trkpt lat="46.39627" lon="7.75177"><ele></ele><time>2025-9-19T14:44:53Z</time></trkpt>
<trkpt lat="46.39631" lon="7.75178"><ele></ele><time>2025-9-19T14:44:56Z</time></trkpt>
<trkpt lat="46.39633" lon="7.75178"><ele></ele><time>2025-9-19T14:44:59Z</time></trkpt>
<trkpt lat="46.39639" lon="7.75177"><ele></ele><time>2025-9-19T14:45:2Z</time></trkpt>
<trkpt lat="46.3964" lon="7.75176"><ele></ele><time>2025-9-19T14:45:5Z</time></trkpt>
<trkpt lat="46.39645" lon="7.75173"><ele></ele><time>2025-9-19T14:45:8Z</time></trkpt>
<trkpt lat="46.39648" lon="7.75173"><ele></ele><time>2025-9-19T14:45:11Z</time></trkpt>
<trkpt lat="46.39652" lon="7.75171"><ele></ele><time>2025-9-19T14:45:14Z</time></trkpt>
<trkpt lat="46.39659" lon="7.75167"><ele></ele><time>2025-9-19T14:45:17Z</time></trkpt>
<trkpt lat="46.39661" lon="7.75166"><ele></ele><time>2025-9-19T14:45:20Z</time></trkpt>
<trkpt lat="46.39661" lon="7.75166"><ele></ele><time>2025-9-19T14:45:23Z</time></trkpt>
<trkpt lat="46.39661" lon="7.75165"><ele></ele><time>2025-9-19T14:45:26Z</time></trkpt>
<trkpt lat="46.39662" lon="7.75163"><ele></ele><time>2025-9-19T14:45:29Z</time></trkpt>
<trkpt lat="46.39662" lon="7.75162"><ele></ele><time>2025-9-19T14:45:32Z</time></trkpt>
<trkpt lat="46.39666" lon="7.75157"><ele></ele><time>2025-9-19T14:45:35Z</time></trkpt>
<trkpt lat="46.39666" lon="7.75156"><ele></ele><time>2025-9-19T14:45:38Z</time></trkpt>
<trkpt lat="46.39666" lon="7.75156"><ele></ele><time>2025-9-19T14:45:41Z</time></trkpt>
<trkpt lat="46.39667" lon="7.75158"><ele></ele><time>2025-9-19T14:45:44Z</time></trkpt>
<trkpt lat="46.39667" lon="7.75159"><ele></ele><time>2025-9-19T14:45:47Z</time></trkpt>
<trkpt lat="46.39666" lon="7.75166"><ele></ele><time>2025-9-19T14:45:50Z</time></trkpt>
<trkpt lat="46.39665" lon="7.75167"><ele></ele><time>2025-9-19T14:45:53Z</time></trkpt>
<trkpt lat="46.39663" lon="7.75167"><ele></ele><time>2025-9-19T14:45:56Z</time></trkpt>
<trkpt lat="46.39663" lon="7.75167"><ele></ele><time>2025-9-19T14:45:59Z</time></trkpt>
<trkpt lat="46.39668" lon="7.75169"><ele></ele><time>2025-9-19T14:46:2Z</time></trkpt>
<trkpt lat="46.39684" lon="7.75173"><ele></ele><time>2025-9-19T14:46:5Z</time></trkpt>
<trkpt lat="46.3969" lon="7.75174"><ele></ele><time>2025-9-19T14:46:8Z</time></trkpt>
<trkpt lat="46.39701" lon="7.75184"><ele></ele><time>2025-9-19T14:46:11Z</time></trkpt>
<trkpt lat="46.39705" lon="7.75187"><ele></ele><time>2025-9-19T14:46:14Z</time></trkpt>
<trkpt lat="46.39722" lon="7.75209"><ele></ele><time>2025-9-19T14:46:17Z</time></trkpt>
<trkpt lat="46.3973" lon="7.75219"><ele></ele><time>2025-9-19T14:46:20Z</time></trkpt>
<trkpt lat="46.39734" lon="7.75224"><ele></ele><time>2025-9-19T14:46:23Z</time></trkpt>
<trkpt lat="46.39745" lon="7.7524"><ele></ele><time>2025-9-19T14:46:26Z</time></trkpt>
<trkpt lat="46.39748" lon="7.75246"><ele></ele><time>2025-9-19T14:46:29Z</time></trkpt>
<trkpt lat="46.39762" lon="7.75273"><ele></ele><time>2025-9-19T14:46:32Z</time></trkpt>
<trkpt lat="46.39767" lon="7.75287"><ele></ele><time>2025-9-19T14:46:35Z</time></trkpt>
<trkpt lat="46.39773" lon="7.75301"><ele></ele><time>2025-9-19T14:46:38Z</time></trkpt>
<trkpt lat="46.39777" lon="7.75307"><ele></ele><time>2025-9-19T14:46:41Z</time></trkpt>
<trkpt lat="46.39786" lon="7.75316"><ele></ele><time>2025-9-19T14:46:44Z</time></trkpt>
<trkpt lat="46.39792" lon="7.75319"><ele></ele><time>2025-9-19T14:46:47Z</time></trkpt>
<trkpt lat="46.39803" lon="7.75325"><ele></ele><time>2025-9-19T14:46:50Z</time></trkpt>
<trkpt lat="46.39814" lon="7.75332"><ele></ele><time>2025-9-19T14:46:53Z</time></trkpt>
<trkpt lat="46.39825" lon="7.75339"><ele></ele><time>2025-9-19T14:46:56Z</time></trkpt>
<trkpt lat="46.39836" lon="7.75349"><ele></ele><time>2025-9-19T14:46:59Z</time></trkpt>
<trkpt lat="46.39848" lon="7.75359"><ele></ele><time>2025-9-19T14:47:2Z</time></trkpt>
<trkpt lat="46.39854" lon="7.7536"><ele></ele><time>2025-9-19T14:47:5Z</time></trkpt>
<trkpt lat="46.39861" lon="7.75356"><ele></ele><time>2025-9-19T14:47:8Z</time></trkpt>
<trkpt lat="46.39866" lon="7.75353"><ele></ele><time>2025-9-19T14:47:11Z</time></trkpt>
<trkpt lat="46.39872" lon="7.75347"><ele></ele><time>2025-9-19T14:47:14Z</time></trkpt>
<trkpt lat="46.39891" lon="7.75328"><ele></ele><time>2025-9-19T14:47:17Z</time></trkpt>
<trkpt lat="46.39905" lon="7.75314"><ele></ele><time>2025-9-19T14:47:20Z</time></trkpt>
<trkpt lat="46.3992" lon="7.75303"><ele></ele><time>2025-9-19T14:47:23Z</time></trkpt>
<trkpt lat="46.39927" lon="7.753"><ele></ele><time>2025-9-19T14:47:26Z</time></trkpt>
<trkpt lat="46.39964" lon="7.75285"><ele></ele><time>2025-9-19T14:47:29Z</time></trkpt>
<trkpt lat="46.3997" lon="7.7528"><ele></ele><time>2025-9-19T14:47:32Z</time></trkpt>
<trkpt lat="46.4" lon="7.75258"><ele></ele><time>2025-9-19T14:47:35Z</time></trkpt>
<trkpt lat="46.40013" lon="7.7525"><ele></ele><time>2025-9-19T14:47:38Z</time></trkpt>
<trkpt lat="46.40024" lon="7.75241"><ele></ele><time>2025-9-19T14:47:41Z</time></trkpt>
<trkpt lat="46.40047" lon="7.75218"><ele></ele><time>2025-9-19T14:47:44Z</time></trkpt>
<trkpt lat="46.40052" lon="7.75213"><ele></ele><time>2025-9-19T14:47:47Z</time></trkpt>
<trkpt lat="46.40076" lon="7.75182"><ele></ele><time>2025-9-19T14:47:50Z</time></trkpt>
<trkpt lat="46.4008" lon="7.75175"><ele></ele><time>2025-9-19T14:47:53Z</time></trkpt>
<trkpt lat="46.40087" lon="7.75163"><ele></ele><time>2025-9-19T14:47:56Z</time></trkpt>
<trkpt lat="46.40092" lon="7.75158"><ele></ele><time>2025-9-19T14:47:59Z</time></trkpt>
<trkpt lat="46.40096" lon="7.75155"><ele></ele><time>2025-9-19T14:48:2Z</time></trkpt>
<trkpt lat="46.40101" lon="7.75152"><ele></ele><time>2025-9-19T14:48:5Z</time></trkpt>
<trkpt lat="46.40113" lon="7.75141"><ele></ele><time>2025-9-19T14:48:8Z</time></trkpt>
<trkpt lat="46.40122" lon="7.75133"><ele></ele><time>2025-9-19T14:48:11Z</time></trkpt>
<trkpt lat="46.40129" lon="7.75128"><ele></ele><time>2025-9-19T14:48:14Z</time></trkpt>
<trkpt lat="46.40132" lon="7.75127"><ele></ele><time>2025-9-19T14:48:17Z</time></trkpt>
<trkpt lat="46.40137" lon="7.75123"><ele></ele><time>2025-9-19T14:48:20Z</time></trkpt>
<trkpt lat="46.40142" lon="7.75119"><ele></ele><time>2025-9-19T14:48:23Z</time></trkpt>
<trkpt lat="46.40146" lon="7.75116"><ele></ele><time>2025-9-19T14:48:26Z</time></trkpt>
<trkpt lat="46.4015" lon="7.75113"><ele></ele><time>2025-9-19T14:48:29Z</time></trkpt>
<trkpt lat="46.40155" lon="7.75112"><ele></ele><time>2025-9-19T14:48:32Z</time></trkpt>
<trkpt lat="46.40157" lon="7.75112"><ele></ele><time>2025-9-19T14:48:35Z</time></trkpt>
<trkpt lat="46.40161" lon="7.75113"><ele></ele><time>2025-9-19T14:48:38Z</time></trkpt>
<trkpt lat="46.40168" lon="7.7512"><ele></ele><time>2025-9-19T14:48:41Z</time></trkpt>
<trkpt lat="46.40174" lon="7.75132"><ele></ele><time>2025-9-19T14:48:44Z</time></trkpt>
<trkpt lat="46.40175" lon="7.75135"><ele></ele><time>2025-9-19T14:48:47Z</time></trkpt>
<trkpt lat="46.40177" lon="7.7514"><ele></ele><time>2025-9-19T14:48:50Z</time></trkpt>
<trkpt lat="46.40179" lon="7.75145"><ele></ele><time>2025-9-19T14:48:53Z</time></trkpt>
<trkpt lat="46.4018" lon="7.75148"><ele></ele><time>2025-9-19T14:48:56Z</time></trkpt>
<trkpt lat="46.40183" lon="7.75157"><ele></ele><time>2025-9-19T14:48:59Z</time></trkpt>
<trkpt lat="46.40184" lon="7.7516"><ele></ele><time>2025-9-19T14:49:2Z</time></trkpt>
<trkpt lat="46.40188" lon="7.7517"><ele></ele><time>2025-9-19T14:49:5Z</time></trkpt>
<trkpt lat="46.40189" lon="7.75174"><ele></ele><time>2025-9-19T14:49:8Z</time></trkpt>
<trkpt lat="46.40193" lon="7.75186"><ele></ele><time>2025-9-19T14:49:11Z</time></trkpt>
<trkpt lat="46.40196" lon="7.75192"><ele></ele><time>2025-9-19T14:49:14Z</time></trkpt>
<trkpt lat="46.40197" lon="7.75198"><ele></ele><time>2025-9-19T14:49:17Z</time></trkpt>
<trkpt lat="46.40199" lon="7.7521"><ele></ele><time>2025-9-19T14:49:20Z</time></trkpt>
<trkpt lat="46.402" lon="7.75215"><ele></ele><time>2025-9-19T14:49:23Z</time></trkpt>
<trkpt lat="46.40202" lon="7.75225"><ele></ele><time>2025-9-19T14:49:26Z</time></trkpt>
<trkpt lat="46.40202" lon="7.75229"><ele></ele><time>2025-9-19T14:49:29Z</time></trkpt>
<trkpt lat="46.40204" lon="7.75236"><ele></ele><time>2025-9-19T14:49:32Z</time></trkpt>
<trkpt lat="46.40208" lon="7.75245"><ele></ele><time>2025-9-19T14:49:35Z</time></trkpt>
<trkpt lat="46.4021" lon="7.75256"><ele></ele><time>2025-9-19T14:49:38Z</time></trkpt>
<trkpt lat="46.40211" lon="7.75261"><ele></ele><time>2025-9-19T14:49:41Z</time></trkpt>
<trkpt lat="46.40212" lon="7.75271"><ele></ele><time>2025-9-19T14:49:44Z</time></trkpt>
<trkpt lat="46.40213" lon="7.75275"><ele></ele><time>2025-9-19T14:49:47Z</time></trkpt>
<trkpt lat="46.40215" lon="7.75294"><ele></ele><time>2025-9-19T14:49:50Z</time></trkpt>
<trkpt lat="46.40217" lon="7.75307"><ele></ele><time>2025-9-19T14:49:53Z</time></trkpt>
<trkpt lat="46.40218" lon="7.7531"><ele></ele><time>2025-9-19T14:49:56Z</time></trkpt>
<trkpt lat="46.40221" lon="7.75318"><ele></ele><time>2025-9-19T14:49:59Z</time></trkpt>
<trkpt lat="46.40222" lon="7.75323"><ele></ele><time>2025-9-19T14:50:2Z</time></trkpt>
<trkpt lat="46.40224" lon="7.75337"><ele></ele><time>2025-9-19T14:50:5Z</time></trkpt>
<trkpt lat="46.40223" lon="7.75345"><ele></ele><time>2025-9-19T14:50:8Z</time></trkpt>
<trkpt lat="46.40223" lon="7.75347"><ele></ele><time>2025-9-19T14:50:11Z</time></trkpt>
<trkpt lat="46.40223" lon="7.75352"><ele></ele><time>2025-9-19T14:50:14Z</time></trkpt>
<trkpt lat="46.40224" lon="7.75364"><ele></ele><time>2025-9-19T14:50:17Z</time></trkpt>
<trkpt lat="46.40224" lon="7.75368"><ele></ele><time>2025-9-19T14:50:20Z</time></trkpt>
<trkpt lat="46.40224" lon="7.75377"><ele></ele><time>2025-9-19T14:50:23Z</time></trkpt>
<trkpt lat="46.40223" lon="7.75386"><ele></ele><time>2025-9-19T14:50:26Z</time></trkpt>
<trkpt lat="46.40222" lon="7.75391"><ele></ele><time>2025-9-19T14:50:29Z</time></trkpt>
<trkpt lat="46.40218" lon="7.75398"><ele></ele><time>2025-9-19T14:50:32Z</time></trkpt>
<trkpt lat="46.40215" lon="7.75401"><ele></ele><time>2025-9-19T14:50:35Z</time></trkpt>
<trkpt lat="46.40214" lon="7.75407"><ele></ele><time>2025-9-19T14:50:38Z</time></trkpt>
<trkpt lat="46.40215" lon="7.75414"><ele></ele><time>2025-9-19T14:50:41Z</time></trkpt>
<trkpt lat="46.40218" lon="7.7542"><ele></ele><time>2025-9-19T14:50:44Z</time></trkpt>
<trkpt lat="46.40222" lon="7.75435"><ele></ele><time>2025-9-19T14:50:47Z</time></trkpt>
<trkpt lat="46.40223" lon="7.7545"><ele></ele><time>2025-9-19T14:50:50Z</time></trkpt>
<trkpt lat="46.40222" lon="7.75455"><ele></ele><time>2025-9-19T14:50:53Z</time></trkpt>
<trkpt lat="46.40219" lon="7.75466"><ele></ele><time>2025-9-19T14:50:56Z</time></trkpt>
<trkpt lat="46.40212" lon="7.75482"><ele></ele><time>2025-9-19T14:50:59Z</time></trkpt>
<trkpt lat="46.40211" lon="7.75484"><ele></ele><time>2025-9-19T14:51:2Z</time></trkpt>
<trkpt lat="46.4021" lon="7.75485"><ele></ele><time>2025-9-19T14:51:5Z</time></trkpt>
<trkpt lat="46.40207" lon="7.75492"><ele></ele><time>2025-9-19T14:51:8Z</time></trkpt>
<trkpt lat="46.40202" lon="7.75505"><ele></ele><time>2025-9-19T14:51:11Z</time></trkpt>
<trkpt lat="46.40198" lon="7.7552"><ele></ele><time>2025-9-19T14:51:14Z</time></trkpt>
<trkpt lat="46.40196" lon="7.75533"><ele></ele><time>2025-9-19T14:51:17Z</time></trkpt>
<trkpt lat="46.40194" lon="7.75551"><ele></ele><time>2025-9-19T14:51:20Z</time></trkpt>
<trkpt lat="46.40194" lon="7.75562"><ele></ele><time>2025-9-19T14:51:23Z</time></trkpt>
<trkpt lat="46.40196" lon="7.75573"><ele></ele><time>2025-9-19T14:51:26Z</time></trkpt>
<trkpt lat="46.40199" lon="7.75587"><ele></ele><time>2025-9-19T14:51:29Z</time></trkpt>
<trkpt lat="46.402" lon="7.7559"><ele></ele><time>2025-9-19T14:51:32Z</time></trkpt>
<trkpt lat="46.40198" lon="7.75602"><ele></ele><time>2025-9-19T14:51:35Z</time></trkpt>
<trkpt lat="46.40198" lon="7.75611"><ele></ele><time>2025-9-19T14:51:38Z</time></trkpt>
<trkpt lat="46.40198" lon="7.75613"><ele></ele><time>2025-9-19T14:51:41Z</time></trkpt>
<trkpt lat="46.40196" lon="7.75622"><ele></ele><time>2025-9-19T14:51:44Z</time></trkpt>
<trkpt lat="46.40193" lon="7.75633"><ele></ele><time>2025-9-19T14:51:47Z</time></trkpt>
<trkpt lat="46.40193" lon="7.75638"><ele></ele><time>2025-9-19T14:51:50Z</time></trkpt>
<trkpt lat="46.40194" lon="7.75647"><ele></ele><time>2025-9-19T14:51:53Z</time></trkpt>
<trkpt lat="46.40196" lon="7.75648"><ele></ele><time>2025-9-19T14:51:56Z</time></trkpt>
<trkpt lat="46.40198" lon="7.75649"><ele></ele><time>2025-9-19T14:51:59Z</time></trkpt>
<trkpt lat="46.40197" lon="7.75649"><ele></ele><time>2025-9-19T14:52:2Z</time></trkpt>
<trkpt lat="46.40197" lon="7.75649"><ele></ele><time>2025-9-19T14:52:5Z</time></trkpt>
<trkpt lat="46.40197" lon="7.75649"><ele></ele><time>2025-9-19T14:52:8Z</time></trkpt>
<trkpt lat="46.40197" lon="7.75649"><ele></ele><time>2025-9-19T14:52:11Z</time></trkpt>
<trkpt lat="46.40197" lon="7.75649"><ele></ele><time>2025-9-19T14:52:14Z</time></trkpt>
<trkpt lat="46.40197" lon="7.75649"><ele></ele><time>2025-9-19T14:52:17Z</time></trkpt>
<trkpt lat="46.40197" lon="7.75649"><ele></ele><time>2025-9-19T14:52:20Z</time></trkpt>
<trkpt lat="46.40197" lon="7.75649"><ele></ele><time>2025-9-19T14:52:23Z</time></trkpt>
<trkpt lat="46.40197" lon="7.75649"><ele></ele><time>2025-9-19T14:52:26Z</time></trkpt>
<trkpt lat="46.40197" lon="7.75649"><ele></ele><time>2025-9-19T14:52:29Z</time></trkpt>
<trkpt lat="46.40197" lon="7.75649"><ele></ele><time>2025-9-19T14:52:32Z</time></trkpt>
<trkpt lat="46.40197" lon="7.75649"><ele></ele><time>2025-9-19T14:52:35Z</time></trkpt>
<trkpt lat="46.40196" lon="7.75651"><ele></ele><time>2025-9-19T14:52:38Z</time></trkpt>
<trkpt lat="46.40197" lon="7.75651"><ele></ele><time>2025-9-19T14:52:41Z</time></trkpt>
<trkpt lat="46.40197" lon="7.75651"><ele></ele><time>2025-9-19T14:52:44Z</time></trkpt>
<trkpt lat="46.40197" lon="7.75651"><ele></ele><time>2025-9-19T14:52:47Z</time></trkpt>
<trkpt lat="46.40197" lon="7.75651"><ele></ele><time>2025-9-19T14:52:50Z</time></trkpt>
<trkpt lat="46.40197" lon="7.75651"><ele></ele><time>2025-9-19T14:52:53Z</time></trkpt>
<trkpt lat="46.40197" lon="7.75651"><ele></ele><time>2025-9-19T14:52:56Z</time></trkpt>
<trkpt lat="46.40197" lon="7.75651"><ele></ele><time>2025-9-19T14:52:59Z</time></trkpt>
<trkpt lat="46.40197" lon="7.75651"><ele></ele><time>2025-9-19T14:53:2Z</time></trkpt>
<trkpt lat="46.40197" lon="7.75651"><ele></ele><time>2025-9-19T14:53:5Z</time></trkpt>
<trkpt lat="46.40197" lon="7.75652"><ele></ele><time>2025-9-19T14:53:8Z</time></trkpt>
<trkpt lat="46.40201" lon="7.75661"><ele></ele><time>2025-9-19T14:53:11Z</time></trkpt>
<trkpt lat="46.40202" lon="7.75665"><ele></ele><time>2025-9-19T14:53:14Z</time></trkpt>
<trkpt lat="46.40206" lon="7.75681"><ele></ele><time>2025-9-19T14:53:17Z</time></trkpt>
<trkpt lat="46.40207" lon="7.75689"><ele></ele><time>2025-9-19T14:53:20Z</time></trkpt>
<trkpt lat="46.40212" lon="7.75707"><ele></ele><time>2025-9-19T14:53:23Z</time></trkpt>
<trkpt lat="46.40214" lon="7.7571"><ele></ele><time>2025-9-19T14:53:26Z</time></trkpt>
<trkpt lat="46.40222" lon="7.75722"><ele></ele><time>2025-9-19T14:53:29Z</time></trkpt>
<trkpt lat="46.40224" lon="7.75726"><ele></ele><time>2025-9-19T14:53:32Z</time></trkpt>
<trkpt lat="46.40225" lon="7.7573"><ele></ele><time>2025-9-19T14:53:35Z</time></trkpt>
<trkpt lat="46.40227" lon="7.75744"><ele></ele><time>2025-9-19T14:53:38Z</time></trkpt>
<trkpt lat="46.40228" lon="7.75747"><ele></ele><time>2025-9-19T14:53:41Z</time></trkpt>
<trkpt lat="46.40231" lon="7.75763"><ele></ele><time>2025-9-19T14:53:44Z</time></trkpt>
<trkpt lat="46.40232" lon="7.75766"><ele></ele><time>2025-9-19T14:53:47Z</time></trkpt>
<trkpt lat="46.40238" lon="7.75776"><ele></ele><time>2025-9-19T14:53:50Z</time></trkpt>
<trkpt lat="46.40239" lon="7.75779"><ele></ele><time>2025-9-19T14:53:53Z</time></trkpt>
<trkpt lat="46.40244" lon="7.75788"><ele></ele><time>2025-9-19T14:53:56Z</time></trkpt>
<trkpt lat="46.40246" lon="7.75798"><ele></ele><time>2025-9-19T14:53:59Z</time></trkpt>
<trkpt lat="46.40246" lon="7.75801"><ele></ele><time>2025-9-19T14:54:2Z</time></trkpt>
<trkpt lat="46.40246" lon="7.75816"><ele></ele><time>2025-9-19T14:54:5Z</time></trkpt>
<trkpt lat="46.40246" lon="7.75818"><ele></ele><time>2025-9-19T14:54:8Z</time></trkpt>
<trkpt lat="46.40246" lon="7.7582"><ele></ele><time>2025-9-19T14:54:11Z</time></trkpt>
<trkpt lat="46.40246" lon="7.7582"><ele></ele><time>2025-9-19T14:54:14Z</time></trkpt>
<trkpt lat="46.40245" lon="7.7582"><ele></ele><time>2025-9-19T14:54:17Z</time></trkpt>
<trkpt lat="46.40245" lon="7.75819"><ele></ele><time>2025-9-19T14:54:20Z</time></trkpt>
<trkpt lat="46.40245" lon="7.75806"><ele></ele><time>2025-9-19T14:54:23Z</time></trkpt>
<trkpt lat="46.40246" lon="7.75806"><ele></ele><time>2025-9-19T14:54:26Z</time></trkpt>
<trkpt lat="46.40245" lon="7.75807"><ele></ele><time>2025-9-19T14:54:29Z</time></trkpt>
<trkpt lat="46.40245" lon="7.75807"><ele></ele><time>2025-9-19T14:54:32Z</time></trkpt>
<trkpt lat="46.40246" lon="7.75806"><ele></ele><time>2025-9-19T14:54:35Z</time></trkpt>
<trkpt lat="46.40246" lon="7.75806"><ele></ele><time>2025-9-19T14:54:38Z</time></trkpt>
<trkpt lat="46.40246" lon="7.75806"><ele></ele><time>2025-9-19T14:54:41Z</time></trkpt>
<trkpt lat="46.40246" lon="7.75806"><ele></ele><time>2025-9-19T14:54:44Z</time></trkpt>
<trkpt lat="46.40245" lon="7.75805"><ele></ele><time>2025-9-19T14:54:47Z</time></trkpt>
<trkpt lat="46.40244" lon="7.75806"><ele></ele><time>2025-9-19T14:54:50Z</time></trkpt>
<trkpt lat="46.40244" lon="7.75806"><ele></ele><time>2025-9-19T14:54:53Z</time></trkpt>
<trkpt lat="46.40246" lon="7.75816"><ele></ele><time>2025-9-19T14:54:56Z</time></trkpt>
<trkpt lat="46.40244" lon="7.75824"><ele></ele><time>2025-9-19T14:54:59Z</time></trkpt>
<trkpt lat="46.40245" lon="7.75826"><ele></ele><time>2025-9-19T14:55:2Z</time></trkpt>
<trkpt lat="46.40246" lon="7.75829"><ele></ele><time>2025-9-19T14:55:5Z</time></trkpt>
<trkpt lat="46.40249" lon="7.75834"><ele></ele><time>2025-9-19T14:55:8Z</time></trkpt>
<trkpt lat="46.4025" lon="7.75835"><ele></ele><time>2025-9-19T14:55:11Z</time></trkpt>
<trkpt lat="46.40251" lon="7.75836"><ele></ele><time>2025-9-19T14:55:14Z</time></trkpt>
<trkpt lat="46.40252" lon="7.75837"><ele></ele><time>2025-9-19T14:55:17Z</time></trkpt>
<trkpt lat="46.40253" lon="7.75837"><ele></ele><time>2025-9-19T14:55:20Z</time></trkpt>
<trkpt lat="46.40255" lon="7.75837"><ele></ele><time>2025-9-19T14:55:23Z</time></trkpt>
<trkpt lat="46.40256" lon="7.75838"><ele></ele><time>2025-9-19T14:55:26Z</time></trkpt>
<trkpt lat="46.40256" lon="7.75838"><ele></ele><time>2025-9-19T14:55:29Z</time></trkpt>
<trkpt lat="46.40256" lon="7.75838"><ele></ele><time>2025-9-19T14:55:32Z</time></trkpt>
<trkpt lat="46.40258" lon="7.75837"><ele></ele><time>2025-9-19T14:55:35Z</time></trkpt>
<trkpt lat="46.4026" lon="7.75835"><ele></ele><time>2025-9-19T14:55:38Z</time></trkpt>
<trkpt lat="46.4026" lon="7.75835"><ele></ele><time>2025-9-19T14:55:41Z</time></trkpt>
<trkpt lat="46.4026" lon="7.75835"><ele></ele><time>2025-9-19T14:55:44Z</time></trkpt>
<trkpt lat="46.40261" lon="7.75834"><ele></ele><time>2025-9-19T14:55:47Z</time></trkpt>
<trkpt lat="46.40261" lon="7.75835"><ele></ele><time>2025-9-19T14:55:50Z</time></trkpt>
<trkpt lat="46.40261" lon="7.75836"><ele></ele><time>2025-9-19T14:55:53Z</time></trkpt>
<trkpt lat="46.40261" lon="7.75836"><ele></ele><time>2025-9-19T14:55:56Z</time></trkpt>
<trkpt lat="46.4026" lon="7.75835"><ele></ele><time>2025-9-19T14:55:59Z</time></trkpt>
<trkpt lat="46.40261" lon="7.75836"><ele></ele><time>2025-9-19T14:56:2Z</time></trkpt>
<trkpt lat="46.40261" lon="7.75836"><ele></ele><time>2025-9-19T14:56:5Z</time></trkpt>
<trkpt lat="46.4026" lon="7.75837"><ele></ele><time>2025-9-19T14:56:8Z</time></trkpt>
<trkpt lat="46.4026" lon="7.75837"><ele></ele><time>2025-9-19T14:56:11Z</time></trkpt>
<trkpt lat="46.4026" lon="7.75837"><ele></ele><time>2025-9-19T14:56:14Z</time></trkpt>
<trkpt lat="46.4026" lon="7.75837"><ele></ele><time>2025-9-19T14:56:17Z</time></trkpt>
<trkpt lat="46.4026" lon="7.75837"><ele></ele><time>2025-9-19T14:56:20Z</time></trkpt>
<trkpt lat="46.4026" lon="7.75834"><ele></ele><time>2025-9-19T14:56:23Z</time></trkpt>
<trkpt lat="46.4026" lon="7.75835"><ele></ele><time>2025-9-19T14:56:26Z</time></trkpt>
<trkpt lat="46.40259" lon="7.75835"><ele></ele><time>2025-9-19T14:56:29Z</time></trkpt>
<trkpt lat="46.4026" lon="7.75835"><ele></ele><time>2025-9-19T14:56:32Z</time></trkpt>
<trkpt lat="46.4026" lon="7.75835"><ele></ele><time>2025-9-19T14:56:35Z</time></trkpt>
<trkpt lat="46.4026" lon="7.75835"><ele></ele><time>2025-9-19T14:56:38Z</time></trkpt>
<trkpt lat="46.4026" lon="7.75834"><ele></ele><time>2025-9-19T14:56:41Z</time></trkpt>
<trkpt lat="46.40259" lon="7.75835"><ele></ele><time>2025-9-19T14:56:44Z</time></trkpt>
<trkpt lat="46.4026" lon="7.75835"><ele></ele><time>2025-9-19T14:56:47Z</time></trkpt>
<trkpt lat="46.4026" lon="7.75835"><ele></ele><time>2025-9-19T14:56:50Z</time></trkpt>
<trkpt lat="46.40259" lon="7.75835"><ele></ele><time>2025-9-19T14:56:53Z</time></trkpt>
<trkpt lat="46.40259" lon="7.75835"><ele></ele><time>2025-9-19T14:56:56Z</time></trkpt>
<trkpt lat="46.40259" lon="7.75835"><ele></ele><time>2025-9-19T14:56:59Z</time></trkpt>
<trkpt lat="46.40259" lon="7.75837"><ele></ele><time>2025-9-19T14:57:2Z</time></trkpt>
<trkpt lat="46.40259" lon="7.75838"><ele></ele><time>2025-9-19T14:57:5Z</time></trkpt>
<trkpt lat="46.40257" lon="7.75838"><ele></ele><time>2025-9-19T14:57:8Z</time></trkpt>
<trkpt lat="46.40251" lon="7.75836"><ele></ele><time>2025-9-19T14:57:11Z</time></trkpt>
<trkpt lat="46.40247" lon="7.75833"><ele></ele><time>2025-9-19T14:57:14Z</time></trkpt>
<trkpt lat="46.40246" lon="7.75834"><ele></ele><time>2025-9-19T14:57:17Z</time></trkpt>
<trkpt lat="46.40246" lon="7.75833"><ele></ele><time>2025-9-19T14:57:20Z</time></trkpt>
<trkpt lat="46.40246" lon="7.75832"><ele></ele><time>2025-9-19T14:57:23Z</time></trkpt>
<trkpt lat="46.40246" lon="7.75833"><ele></ele><time>2025-9-19T14:57:26Z</time></trkpt>
<trkpt lat="46.40246" lon="7.75832"><ele></ele><time>2025-9-19T14:57:29Z</time></trkpt>
<trkpt lat="46.40246" lon="7.75832"><ele></ele><time>2025-9-19T14:57:32Z</time></trkpt>
<trkpt lat="46.40246" lon="7.75832"><ele></ele><time>2025-9-19T14:57:35Z</time></trkpt>
<trkpt lat="46.40246" lon="7.75832"><ele></ele><time>2025-9-19T14:57:38Z</time></trkpt>
<trkpt lat="46.40246" lon="7.75832"><ele></ele><time>2025-9-19T14:57:41Z</time></trkpt>
<trkpt lat="46.40246" lon="7.75832"><ele></ele><time>2025-9-19T14:57:44Z</time></trkpt>
<trkpt lat="46.40246" lon="7.75832"><ele></ele><time>2025-9-19T14:57:47Z</time></trkpt>
<trkpt lat="46.40246" lon="7.75832"><ele></ele><time>2025-9-19T14:57:50Z</time></trkpt>
<trkpt lat="46.40246" lon="7.75832"><ele></ele><time>2025-9-19T14:57:53Z</time></trkpt>
<trkpt lat="46.40246" lon="7.75832"><ele></ele><time>2025-9-19T14:57:56Z</time></trkpt>
<trkpt lat="46.40246" lon="7.75832"><ele></ele><time>2025-9-19T14:57:59Z</time></trkpt>
<trkpt lat="46.40246" lon="7.75832"><ele></ele><time>2025-9-19T14:58:2Z</time></trkpt>
<trkpt lat="46.40246" lon="7.75832"><ele></ele><time>2025-9-19T14:58:5Z</time></trkpt>
<trkpt lat="46.40246" lon="7.75832"><ele></ele><time>2025-9-19T14:58:8Z</time></trkpt>
<trkpt lat="46.40246" lon="7.75832"><ele></ele><time>2025-9-19T14:58:11Z</time></trkpt>
<trkpt lat="46.40247" lon="7.75833"><ele></ele><time>2025-9-19T14:58:14Z</time></trkpt>
<trkpt lat="46.40256" lon="7.75836"><ele></ele><time>2025-9-19T14:58:17Z</time></trkpt>
<trkpt lat="46.40258" lon="7.75836"><ele></ele><time>2025-9-19T14:58:20Z</time></trkpt>
<trkpt lat="46.40261" lon="7.75836"><ele></ele><time>2025-9-19T14:58:23Z</time></trkpt>
<trkpt lat="46.40269" lon="7.75835"><ele></ele><time>2025-9-19T14:58:26Z</time></trkpt>
<trkpt lat="46.40275" lon="7.75835"><ele></ele><time>2025-9-19T14:58:29Z</time></trkpt>
<trkpt lat="46.4028" lon="7.75836"><ele></ele><time>2025-9-19T14:58:32Z</time></trkpt>
<trkpt lat="46.40282" lon="7.75836"><ele></ele><time>2025-9-19T14:58:35Z</time></trkpt>
<trkpt lat="46.40285" lon="7.75837"><ele></ele><time>2025-9-19T14:58:38Z</time></trkpt>
<trkpt lat="46.4029" lon="7.75839"><ele></ele><time>2025-9-19T14:58:41Z</time></trkpt>
<trkpt lat="46.40296" lon="7.75846"><ele></ele><time>2025-9-19T14:58:44Z</time></trkpt>
<trkpt lat="46.40298" lon="7.75849"><ele></ele><time>2025-9-19T14:58:47Z</time></trkpt>
<trkpt lat="46.40302" lon="7.75853"><ele></ele><time>2025-9-19T14:58:50Z</time></trkpt>
<trkpt lat="46.40304" lon="7.75856"><ele></ele><time>2025-9-19T14:58:53Z</time></trkpt>
<trkpt lat="46.40308" lon="7.75858"><ele></ele><time>2025-9-19T14:58:56Z</time></trkpt>
<trkpt lat="46.40312" lon="7.75862"><ele></ele><time>2025-9-19T14:58:59Z</time></trkpt>
<trkpt lat="46.40314" lon="7.75863"><ele></ele><time>2025-9-19T14:59:2Z</time></trkpt>
<trkpt lat="46.40318" lon="7.75866"><ele></ele><time>2025-9-19T14:59:5Z</time></trkpt>
<trkpt lat="46.4032" lon="7.75868"><ele></ele><time>2025-9-19T14:59:8Z</time></trkpt>
<trkpt lat="46.40325" lon="7.75872"><ele></ele><time>2025-9-19T14:59:11Z</time></trkpt>
<trkpt lat="46.40326" lon="7.75873"><ele></ele><time>2025-9-19T14:59:14Z</time></trkpt>
<trkpt lat="46.40329" lon="7.75875"><ele></ele><time>2025-9-19T14:59:17Z</time></trkpt>
<trkpt lat="46.40332" lon="7.75876"><ele></ele><time>2025-9-19T14:59:20Z</time></trkpt>
<trkpt lat="46.4034" lon="7.75879"><ele></ele><time>2025-9-19T14:59:23Z</time></trkpt>
<trkpt lat="46.40348" lon="7.75885"><ele></ele><time>2025-9-19T14:59:26Z</time></trkpt>
<trkpt lat="46.40348" lon="7.75886"><ele></ele><time>2025-9-19T14:59:29Z</time></trkpt>
<trkpt lat="46.40356" lon="7.75891"><ele></ele><time>2025-9-19T14:59:32Z</time></trkpt>
<trkpt lat="46.40362" lon="7.75895"><ele></ele><time>2025-9-19T14:59:35Z</time></trkpt>
<trkpt lat="46.40363" lon="7.75895"><ele></ele><time>2025-9-19T14:59:38Z</time></trkpt>
<trkpt lat="46.40368" lon="7.75897"><ele></ele><time>2025-9-19T14:59:41Z</time></trkpt>
<trkpt lat="46.40372" lon="7.75899"><ele></ele><time>2025-9-19T14:59:44Z</time></trkpt>
<trkpt lat="46.40374" lon="7.759"><ele></ele><time>2025-9-19T14:59:47Z</time></trkpt>
<trkpt lat="46.40381" lon="7.75906"><ele></ele><time>2025-9-19T14:59:50Z</time></trkpt>
<trkpt lat="46.40388" lon="7.75911"><ele></ele><time>2025-9-19T14:59:53Z</time></trkpt>
<trkpt lat="46.40389" lon="7.75912"><ele></ele><time>2025-9-19T14:59:56Z</time></trkpt>
<trkpt lat="46.40396" lon="7.75918"><ele></ele><time>2025-9-19T14:59:59Z</time></trkpt>
<trkpt lat="46.40397" lon="7.75918"><ele></ele><time>2025-9-19T15:0:2Z</time></trkpt>
<trkpt lat="46.40402" lon="7.75923"><ele></ele><time>2025-9-19T15:0:5Z</time></trkpt>
<trkpt lat="46.40403" lon="7.75924"><ele></ele><time>2025-9-19T15:0:8Z</time></trkpt>
<trkpt lat="46.40408" lon="7.75928"><ele></ele><time>2025-9-19T15:0:11Z</time></trkpt>
<trkpt lat="46.4041" lon="7.7593"><ele></ele><time>2025-9-19T15:0:14Z</time></trkpt>
<trkpt lat="46.40415" lon="7.75935"><ele></ele><time>2025-9-19T15:0:17Z</time></trkpt>
<trkpt lat="46.40416" lon="7.75936"><ele></ele><time>2025-9-19T15:0:20Z</time></trkpt>
<trkpt lat="46.40422" lon="7.75941"><ele></ele><time>2025-9-19T15:0:23Z</time></trkpt>
<trkpt lat="46.40425" lon="7.75942"><ele></ele><time>2025-9-19T15:0:26Z</time></trkpt>
<trkpt lat="46.40427" lon="7.75944"><ele></ele><time>2025-9-19T15:0:29Z</time></trkpt>
<trkpt lat="46.40431" lon="7.75945"><ele></ele><time>2025-9-19T15:0:32Z</time></trkpt>
<trkpt lat="46.40435" lon="7.75946"><ele></ele><time>2025-9-19T15:0:35Z</time></trkpt>
<trkpt lat="46.4044" lon="7.75946"><ele></ele><time>2025-9-19T15:0:38Z</time></trkpt>
<trkpt lat="46.40442" lon="7.75946"><ele></ele><time>2025-9-19T15:0:41Z</time></trkpt>
<trkpt lat="46.40449" lon="7.75945"><ele></ele><time>2025-9-19T15:0:44Z</time></trkpt>
<trkpt lat="46.40451" lon="7.75945"><ele></ele><time>2025-9-19T15:0:47Z</time></trkpt>
<trkpt lat="46.40458" lon="7.75945"><ele></ele><time>2025-9-19T15:0:50Z</time></trkpt>
<trkpt lat="46.40459" lon="7.75945"><ele></ele><time>2025-9-19T15:0:53Z</time></trkpt>
<trkpt lat="46.40465" lon="7.75945"><ele></ele><time>2025-9-19T15:0:56Z</time></trkpt>
<trkpt lat="46.40467" lon="7.75945"><ele></ele><time>2025-9-19T15:0:59Z</time></trkpt>
<trkpt lat="46.40473" lon="7.75948"><ele></ele><time>2025-9-19T15:1:2Z</time></trkpt>
<trkpt lat="46.40475" lon="7.75949"><ele></ele><time>2025-9-19T15:1:5Z</time></trkpt>
<trkpt lat="46.4048" lon="7.75951"><ele></ele><time>2025-9-19T15:1:8Z</time></trkpt>
<trkpt lat="46.40482" lon="7.75953"><ele></ele><time>2025-9-19T15:1:11Z</time></trkpt>
<trkpt lat="46.40485" lon="7.75955"><ele></ele><time>2025-9-19T15:1:14Z</time></trkpt>
<trkpt lat="46.40493" lon="7.7596"><ele></ele><time>2025-9-19T15:1:17Z</time></trkpt>
<trkpt lat="46.405" lon="7.75968"><ele></ele><time>2025-9-19T15:1:20Z</time></trkpt>
<trkpt lat="46.40501" lon="7.75969"><ele></ele><time>2025-9-19T15:1:23Z</time></trkpt>
<trkpt lat="46.40507" lon="7.75976"><ele></ele><time>2025-9-19T15:1:26Z</time></trkpt>
<trkpt lat="46.40512" lon="7.75979"><ele></ele><time>2025-9-19T15:1:29Z</time></trkpt>
<trkpt lat="46.40517" lon="7.75983"><ele></ele><time>2025-9-19T15:1:32Z</time></trkpt>
<trkpt lat="46.40523" lon="7.75989"><ele></ele><time>2025-9-19T15:1:35Z</time></trkpt>
<trkpt lat="46.40525" lon="7.7599"><ele></ele><time>2025-9-19T15:1:38Z</time></trkpt>
<trkpt lat="46.40535" lon="7.75997"><ele></ele><time>2025-9-19T15:1:41Z</time></trkpt>
<trkpt lat="46.40537" lon="7.75999"><ele></ele><time>2025-9-19T15:1:44Z</time></trkpt>
<trkpt lat="46.40543" lon="7.76012"><ele></ele><time>2025-9-19T15:1:47Z</time></trkpt>
<trkpt lat="46.4054" lon="7.76029"><ele></ele><time>2025-9-19T15:1:50Z</time></trkpt>
<trkpt lat="46.40533" lon="7.7604"><ele></ele><time>2025-9-19T15:1:53Z</time></trkpt>
<trkpt lat="46.4053" lon="7.76042"><ele></ele><time>2025-9-19T15:1:56Z</time></trkpt>
<trkpt lat="46.40514" lon="7.7605"><ele></ele><time>2025-9-19T15:1:59Z</time></trkpt>
<trkpt lat="46.40507" lon="7.76053"><ele></ele><time>2025-9-19T15:2:2Z</time></trkpt>
<trkpt lat="46.40488" lon="7.76061"><ele></ele><time>2025-9-19T15:2:5Z</time></trkpt>
<trkpt lat="46.40484" lon="7.76064"><ele></ele><time>2025-9-19T15:2:8Z</time></trkpt>
<trkpt lat="46.40479" lon="7.76077"><ele></ele><time>2025-9-19T15:2:11Z</time></trkpt>
<trkpt lat="46.40478" lon="7.76089"><ele></ele><time>2025-9-19T15:2:14Z</time></trkpt>
<trkpt lat="46.40478" lon="7.7609"><ele></ele><time>2025-9-19T15:2:17Z</time></trkpt>
<trkpt lat="46.4048" lon="7.76092"><ele></ele><time>2025-9-19T15:2:20Z</time></trkpt>
<trkpt lat="46.4048" lon="7.76094"><ele></ele><time>2025-9-19T15:2:23Z</time></trkpt>
<trkpt lat="46.4048" lon="7.76102"><ele></ele><time>2025-9-19T15:2:26Z</time></trkpt>
<trkpt lat="46.40481" lon="7.76104"><ele></ele><time>2025-9-19T15:2:29Z</time></trkpt>
<trkpt lat="46.40482" lon="7.7611"><ele></ele><time>2025-9-19T15:2:32Z</time></trkpt>
<trkpt lat="46.40483" lon="7.76116"><ele></ele><time>2025-9-19T15:2:35Z</time></trkpt>
<trkpt lat="46.40483" lon="7.76118"><ele></ele><time>2025-9-19T15:2:38Z</time></trkpt>
<trkpt lat="46.40484" lon="7.76126"><ele></ele><time>2025-9-19T15:2:41Z</time></trkpt>
<trkpt lat="46.40484" lon="7.76128"><ele></ele><time>2025-9-19T15:2:44Z</time></trkpt>
<trkpt lat="46.40485" lon="7.76138"><ele></ele><time>2025-9-19T15:2:47Z</time></trkpt>
<trkpt lat="46.40485" lon="7.7614"><ele></ele><time>2025-9-19T15:2:50Z</time></trkpt>
<trkpt lat="46.40484" lon="7.76153"><ele></ele><time>2025-9-19T15:2:53Z</time></trkpt>
<trkpt lat="46.40484" lon="7.76155"><ele></ele><time>2025-9-19T15:2:56Z</time></trkpt>
<trkpt lat="46.40482" lon="7.76168"><ele></ele><time>2025-9-19T15:2:59Z</time></trkpt>
<trkpt lat="46.40481" lon="7.76173"><ele></ele><time>2025-9-19T15:3:2Z</time></trkpt>
<trkpt lat="46.40479" lon="7.76181"><ele></ele><time>2025-9-19T15:3:5Z</time></trkpt>
<trkpt lat="46.40477" lon="7.76187"><ele></ele><time>2025-9-19T15:3:8Z</time></trkpt>
<trkpt lat="46.40475" lon="7.76195"><ele></ele><time>2025-9-19T15:3:11Z</time></trkpt>
<trkpt lat="46.40472" lon="7.76206"><ele></ele><time>2025-9-19T15:3:14Z</time></trkpt>
<trkpt lat="46.4047" lon="7.76211"><ele></ele><time>2025-9-19T15:3:17Z</time></trkpt>
<trkpt lat="46.40464" lon="7.76222"><ele></ele><time>2025-9-19T15:3:20Z</time></trkpt>
<trkpt lat="46.40459" lon="7.76236"><ele></ele><time>2025-9-19T15:3:23Z</time></trkpt>
<trkpt lat="46.40455" lon="7.76251"><ele></ele><time>2025-9-19T15:3:26Z</time></trkpt>
<trkpt lat="46.40453" lon="7.76257"><ele></ele><time>2025-9-19T15:3:29Z</time></trkpt>
<trkpt lat="46.40448" lon="7.76272"><ele></ele><time>2025-9-19T15:3:32Z</time></trkpt>
<trkpt lat="46.40445" lon="7.76287"><ele></ele><time>2025-9-19T15:3:35Z</time></trkpt>
<trkpt lat="46.40443" lon="7.76295"><ele></ele><time>2025-9-19T15:3:38Z</time></trkpt>
<trkpt lat="46.40439" lon="7.76311"><ele></ele><time>2025-9-19T15:3:41Z</time></trkpt>
<trkpt lat="46.40437" lon="7.76327"><ele></ele><time>2025-9-19T15:3:44Z</time></trkpt>
<trkpt lat="46.40437" lon="7.76336"><ele></ele><time>2025-9-19T15:3:47Z</time></trkpt>
<trkpt lat="46.40439" lon="7.76344"><ele></ele><time>2025-9-19T15:3:50Z</time></trkpt>
<trkpt lat="46.4044" lon="7.76353"><ele></ele><time>2025-9-19T15:3:53Z</time></trkpt>
<trkpt lat="46.40444" lon="7.76379"><ele></ele><time>2025-9-19T15:3:56Z</time></trkpt>
<trkpt lat="46.40446" lon="7.76387"><ele></ele><time>2025-9-19T15:3:59Z</time></trkpt>
<trkpt lat="46.40447" lon="7.76396"><ele></ele><time>2025-9-19T15:4:2Z</time></trkpt>
<trkpt lat="46.40452" lon="7.76415"><ele></ele><time>2025-9-19T15:4:5Z</time></trkpt>
<trkpt lat="46.40454" lon="7.76423"><ele></ele><time>2025-9-19T15:4:8Z</time></trkpt>
<trkpt lat="46.40456" lon="7.76433"><ele></ele><time>2025-9-19T15:4:11Z</time></trkpt>
<trkpt lat="46.40458" lon="7.76443"><ele></ele><time>2025-9-19T15:4:14Z</time></trkpt>
<trkpt lat="46.40459" lon="7.76453"><ele></ele><time>2025-9-19T15:4:17Z</time></trkpt>
<trkpt lat="46.40463" lon="7.76469"><ele></ele><time>2025-9-19T15:4:20Z</time></trkpt>
<trkpt lat="46.40465" lon="7.76476"><ele></ele><time>2025-9-19T15:4:23Z</time></trkpt>
<trkpt lat="46.4047" lon="7.76482"><ele></ele><time>2025-9-19T15:4:26Z</time></trkpt>
<trkpt lat="46.40479" lon="7.76493"><ele></ele><time>2025-9-19T15:4:29Z</time></trkpt>
<trkpt lat="46.40488" lon="7.76506"><ele></ele><time>2025-9-19T15:4:32Z</time></trkpt>
<trkpt lat="46.40492" lon="7.76514"><ele></ele><time>2025-9-19T15:4:35Z</time></trkpt>
<trkpt lat="46.405" lon="7.76529"><ele></ele><time>2025-9-19T15:4:38Z</time></trkpt>
<trkpt lat="46.40509" lon="7.76544"><ele></ele><time>2025-9-19T15:4:41Z</time></trkpt>
<trkpt lat="46.40517" lon="7.76558"><ele></ele><time>2025-9-19T15:4:44Z</time></trkpt>
<trkpt lat="46.40519" lon="7.76566"><ele></ele><time>2025-9-19T15:4:47Z</time></trkpt>
<trkpt lat="46.40524" lon="7.76583"><ele></ele><time>2025-9-19T15:4:50Z</time></trkpt>
<trkpt lat="46.40531" lon="7.766"><ele></ele><time>2025-9-19T15:4:53Z</time></trkpt>
<trkpt lat="46.40533" lon="7.76609"><ele></ele><time>2025-9-19T15:4:56Z</time></trkpt>
<trkpt lat="46.40535" lon="7.76617"><ele></ele><time>2025-9-19T15:4:59Z</time></trkpt>
<trkpt lat="46.40536" lon="7.76626"><ele></ele><time>2025-9-19T15:5:2Z</time></trkpt>
<trkpt lat="46.40537" lon="7.76635"><ele></ele><time>2025-9-19T15:5:5Z</time></trkpt>
<trkpt lat="46.40538" lon="7.76651"><ele></ele><time>2025-9-19T15:5:8Z</time></trkpt>
<trkpt lat="46.40537" lon="7.76665"><ele></ele><time>2025-9-19T15:5:11Z</time></trkpt>
<trkpt lat="46.40536" lon="7.76679"><ele></ele><time>2025-9-19T15:5:14Z</time></trkpt>
<trkpt lat="46.40536" lon="7.76684"><ele></ele><time>2025-9-19T15:5:17Z</time></trkpt>
<trkpt lat="46.40537" lon="7.76689"><ele></ele><time>2025-9-19T15:5:20Z</time></trkpt>
<trkpt lat="46.40536" lon="7.76698"><ele></ele><time>2025-9-19T15:5:23Z</time></trkpt>
<trkpt lat="46.40535" lon="7.76711"><ele></ele><time>2025-9-19T15:5:26Z</time></trkpt>
<trkpt lat="46.40535" lon="7.76715"><ele></ele><time>2025-9-19T15:5:29Z</time></trkpt>
<trkpt lat="46.40535" lon="7.76727"><ele></ele><time>2025-9-19T15:5:32Z</time></trkpt>
<trkpt lat="46.40535" lon="7.76734"><ele></ele><time>2025-9-19T15:5:35Z</time></trkpt>
<trkpt lat="46.40535" lon="7.76738"><ele></ele><time>2025-9-19T15:5:38Z</time></trkpt>
<trkpt lat="46.40535" lon="7.76738"><ele></ele><time>2025-9-19T15:5:41Z</time></trkpt>
<trkpt lat="46.40535" lon="7.76738"><ele></ele><time>2025-9-19T15:5:44Z</time></trkpt>
<trkpt lat="46.40535" lon="7.76738"><ele></ele><time>2025-9-19T15:5:47Z</time></trkpt>
<trkpt lat="46.40535" lon="7.76738"><ele></ele><time>2025-9-19T15:5:50Z</time></trkpt>
<trkpt lat="46.40535" lon="7.76738"><ele></ele><time>2025-9-19T15:5:53Z</time></trkpt>
<trkpt lat="46.40535" lon="7.76738"><ele></ele><time>2025-9-19T15:5:56Z</time></trkpt>
<trkpt lat="46.40535" lon="7.76738"><ele></ele><time>2025-9-19T15:5:59Z</time></trkpt>
<trkpt lat="46.40535" lon="7.76738"><ele></ele><time>2025-9-19T15:6:2Z</time></trkpt>
<trkpt lat="46.40536" lon="7.76732"><ele></ele><time>2025-9-19T15:6:5Z</time></trkpt>
<trkpt lat="46.40536" lon="7.76727"><ele></ele><time>2025-9-19T15:6:8Z</time></trkpt>
<trkpt lat="46.40536" lon="7.76723"><ele></ele><time>2025-9-19T15:6:11Z</time></trkpt>
<trkpt lat="46.40536" lon="7.76721"><ele></ele><time>2025-9-19T15:6:14Z</time></trkpt>
<trkpt lat="46.40537" lon="7.76718"><ele></ele><time>2025-9-19T15:6:17Z</time></trkpt>
<trkpt lat="46.40537" lon="7.76718"><ele></ele><time>2025-9-19T15:6:20Z</time></trkpt>
<trkpt lat="46.40537" lon="7.76718"><ele></ele><time>2025-9-19T15:6:23Z</time></trkpt>
<trkpt lat="46.40535" lon="7.7672"><ele></ele><time>2025-9-19T15:6:26Z</time></trkpt>
<trkpt lat="46.40534" lon="7.7672"><ele></ele><time>2025-9-19T15:6:29Z</time></trkpt>
<trkpt lat="46.40534" lon="7.7672"><ele></ele><time>2025-9-19T15:6:32Z</time></trkpt>
<trkpt lat="46.40534" lon="7.7672"><ele></ele><time>2025-9-19T15:6:35Z</time></trkpt>
<trkpt lat="46.40534" lon="7.7672"><ele></ele><time>2025-9-19T15:6:38Z</time></trkpt>
<trkpt lat="46.40534" lon="7.7672"><ele></ele><time>2025-9-19T15:6:41Z</time></trkpt>
<trkpt lat="46.40535" lon="7.76719"><ele></ele><time>2025-9-19T15:6:44Z</time></trkpt>
<trkpt lat="46.40536" lon="7.76717"><ele></ele><time>2025-9-19T15:6:47Z</time></trkpt>
<trkpt lat="46.40537" lon="7.76717"><ele></ele><time>2025-9-19T15:6:50Z</time></trkpt>
<trkpt lat="46.40537" lon="7.76718"><ele></ele><time>2025-9-19T15:6:53Z</time></trkpt>
<trkpt lat="46.40535" lon="7.76721"><ele></ele><time>2025-9-19T15:6:56Z</time></trkpt>
<trkpt lat="46.40535" lon="7.76721"><ele></ele><time>2025-9-19T15:6:59Z</time></trkpt>
<trkpt lat="46.40535" lon="7.76721"><ele></ele><time>2025-9-19T15:7:2Z</time></trkpt>
<trkpt lat="46.40535" lon="7.76721"><ele></ele><time>2025-9-19T15:7:5Z</time></trkpt>
<trkpt lat="46.40535" lon="7.76721"><ele></ele><time>2025-9-19T15:7:8Z</time></trkpt>
<trkpt lat="46.40535" lon="7.76721"><ele></ele><time>2025-9-19T15:7:11Z</time></trkpt>
<trkpt lat="46.40535" lon="7.76721"><ele></ele><time>2025-9-19T15:7:14Z</time></trkpt>
<trkpt lat="46.40534" lon="7.76721"><ele></ele><time>2025-9-19T15:7:17Z</time></trkpt>
<trkpt lat="46.40536" lon="7.76718"><ele></ele><time>2025-9-19T15:7:20Z</time></trkpt>
<trkpt lat="46.40536" lon="7.76717"><ele></ele><time>2025-9-19T15:7:23Z</time></trkpt>
<trkpt lat="46.40534" lon="7.7672"><ele></ele><time>2025-9-19T15:7:26Z</time></trkpt>
<trkpt lat="46.40535" lon="7.76721"><ele></ele><time>2025-9-19T15:7:29Z</time></trkpt>
<trkpt lat="46.40535" lon="7.76721"><ele></ele><time>2025-9-19T15:7:32Z</time></trkpt>
<trkpt lat="46.40535" lon="7.76721"><ele></ele><time>2025-9-19T15:7:35Z</time></trkpt>
<trkpt lat="46.40535" lon="7.76721"><ele></ele><time>2025-9-19T15:7:38Z</time></trkpt>
<trkpt lat="46.40535" lon="7.76721"><ele></ele><time>2025-9-19T15:7:41Z</time></trkpt>
<trkpt lat="46.40535" lon="7.76721"><ele></ele><time>2025-9-19T15:7:44Z</time></trkpt>
<trkpt lat="46.40535" lon="7.76721"><ele></ele><time>2025-9-19T15:7:47Z</time></trkpt>
<trkpt lat="46.40535" lon="7.76721"><ele></ele><time>2025-9-19T15:7:50Z</time></trkpt>
<trkpt lat="46.40535" lon="7.76721"><ele></ele><time>2025-9-19T15:7:53Z</time></trkpt>
<trkpt lat="46.40535" lon="7.76723"><ele></ele><time>2025-9-19T15:7:56Z</time></trkpt>
<trkpt lat="46.40535" lon="7.76721"><ele></ele><time>2025-9-19T15:7:59Z</time></trkpt>
<trkpt lat="46.40535" lon="7.76721"><ele></ele><time>2025-9-19T15:8:2Z</time></trkpt>
<trkpt lat="46.40535" lon="7.76721"><ele></ele><time>2025-9-19T15:8:5Z</time></trkpt>
<trkpt lat="46.40534" lon="7.76722"><ele></ele><time>2025-9-19T15:8:8Z</time></trkpt>
<trkpt lat="46.40535" lon="7.76721"><ele></ele><time>2025-9-19T15:8:11Z</time></trkpt>
<trkpt lat="46.40535" lon="7.76721"><ele></ele><time>2025-9-19T15:8:14Z</time></trkpt>
<trkpt lat="46.40535" lon="7.7672"><ele></ele><time>2025-9-19T15:8:17Z</time></trkpt>
<trkpt lat="46.40536" lon="7.76719"><ele></ele><time>2025-9-19T15:8:20Z</time></trkpt>
<trkpt lat="46.40537" lon="7.76718"><ele></ele><time>2025-9-19T15:8:23Z</time></trkpt>
<trkpt lat="46.40537" lon="7.76718"><ele></ele><time>2025-9-19T15:8:26Z</time></trkpt>
<trkpt lat="46.40536" lon="7.76718"><ele></ele><time>2025-9-19T15:8:29Z</time></trkpt>
<trkpt lat="46.40536" lon="7.76719"><ele></ele><time>2025-9-19T15:8:32Z</time></trkpt>
<trkpt lat="46.40537" lon="7.76718"><ele></ele><time>2025-9-19T15:8:35Z</time></trkpt>
<trkpt lat="46.40537" lon="7.76718"><ele></ele><time>2025-9-19T15:8:38Z</time></trkpt>
<trkpt lat="46.40537" lon="7.76718"><ele></ele><time>2025-9-19T15:8:41Z</time></trkpt>
<trkpt lat="46.40537" lon="7.76719"><ele></ele><time>2025-9-19T15:8:44Z</time></trkpt>
<trkpt lat="46.40536" lon="7.76718"><ele></ele><time>2025-9-19T15:8:47Z</time></trkpt>
<trkpt lat="46.40537" lon="7.76718"><ele></ele><time>2025-9-19T15:8:50Z</time></trkpt>
<trkpt lat="46.40536" lon="7.76719"><ele></ele><time>2025-9-19T15:8:53Z</time></trkpt>
<trkpt lat="46.40536" lon="7.76724"><ele></ele><time>2025-9-19T15:8:56Z</time></trkpt>
<trkpt lat="46.40537" lon="7.76727"><ele></ele><time>2025-9-19T15:8:59Z</time></trkpt>
<trkpt lat="46.40537" lon="7.76732"><ele></ele><time>2025-9-19T15:9:2Z</time></trkpt>
<trkpt lat="46.40539" lon="7.76737"><ele></ele><time>2025-9-19T15:9:5Z</time></trkpt>
<trkpt lat="46.40541" lon="7.76744"><ele></ele><time>2025-9-19T15:9:8Z</time></trkpt>
<trkpt lat="46.40543" lon="7.76751"><ele></ele><time>2025-9-19T15:9:11Z</time></trkpt>
<trkpt lat="46.40546" lon="7.7676"><ele></ele><time>2025-9-19T15:9:14Z</time></trkpt>
<trkpt lat="46.40548" lon="7.76769"><ele></ele><time>2025-9-19T15:9:17Z</time></trkpt>
<trkpt lat="46.40549" lon="7.76779"><ele></ele><time>2025-9-19T15:9:20Z</time></trkpt>
<trkpt lat="46.40551" lon="7.76787"><ele></ele><time>2025-9-19T15:9:23Z</time></trkpt>
<trkpt lat="46.40551" lon="7.76796"><ele></ele><time>2025-9-19T15:9:26Z</time></trkpt>
<trkpt lat="46.40551" lon="7.76804"><ele></ele><time>2025-9-19T15:9:29Z</time></trkpt>
<trkpt lat="46.40549" lon="7.76818"><ele></ele><time>2025-9-19T15:9:32Z</time></trkpt>
<trkpt lat="46.40548" lon="7.76823"><ele></ele><time>2025-9-19T15:9:35Z</time></trkpt>
<trkpt lat="46.40546" lon="7.76834"><ele></ele><time>2025-9-19T15:9:38Z</time></trkpt>
<trkpt lat="46.40544" lon="7.7684"><ele></ele><time>2025-9-19T15:9:41Z</time></trkpt>
<trkpt lat="46.40539" lon="7.76851"><ele></ele><time>2025-9-19T15:9:44Z</time></trkpt>
<trkpt lat="46.40537" lon="7.76856"><ele></ele><time>2025-9-19T15:9:47Z</time></trkpt>
<trkpt lat="46.40536" lon="7.76862"><ele></ele><time>2025-9-19T15:9:50Z</time></trkpt>
<trkpt lat="46.40535" lon="7.76873"><ele></ele><time>2025-9-19T15:9:53Z</time></trkpt>
<trkpt lat="46.40536" lon="7.76878"><ele></ele><time>2025-9-19T15:9:56Z</time></trkpt>
<trkpt lat="46.40539" lon="7.76883"><ele></ele><time>2025-9-19T15:9:59Z</time></trkpt>
<trkpt lat="46.40543" lon="7.76888"><ele></ele><time>2025-9-19T15:10:2Z</time></trkpt>
<trkpt lat="46.40548" lon="7.76893"><ele></ele><time>2025-9-19T15:10:5Z</time></trkpt>
<trkpt lat="46.40562" lon="7.76905"><ele></ele><time>2025-9-19T15:10:8Z</time></trkpt>
<trkpt lat="46.40569" lon="7.7691"><ele></ele><time>2025-9-19T15:10:11Z</time></trkpt>
<trkpt lat="46.40575" lon="7.76916"><ele></ele><time>2025-9-19T15:10:14Z</time></trkpt>
<trkpt lat="46.4058" lon="7.76924"><ele></ele><time>2025-9-19T15:10:17Z</time></trkpt>
<trkpt lat="46.40583" lon="7.76933"><ele></ele><time>2025-9-19T15:10:20Z</time></trkpt>
<trkpt lat="46.40583" lon="7.76943"><ele></ele><time>2025-9-19T15:10:23Z</time></trkpt>
<trkpt lat="46.40581" lon="7.76952"><ele></ele><time>2025-9-19T15:10:26Z</time></trkpt>
<trkpt lat="46.40579" lon="7.76962"><ele></ele><time>2025-9-19T15:10:29Z</time></trkpt>
<trkpt lat="46.40571" lon="7.76976"><ele></ele><time>2025-9-19T15:10:32Z</time></trkpt>
<trkpt lat="46.40566" lon="7.76981"><ele></ele><time>2025-9-19T15:10:35Z</time></trkpt>
<trkpt lat="46.40562" lon="7.76985"><ele></ele><time>2025-9-19T15:10:38Z</time></trkpt>
<trkpt lat="46.40555" lon="7.7699"><ele></ele><time>2025-9-19T15:10:41Z</time></trkpt>
<trkpt lat="46.40544" lon="7.76999"><ele></ele><time>2025-9-19T15:10:44Z</time></trkpt>
<trkpt lat="46.40542" lon="7.77002"><ele></ele><time>2025-9-19T15:10:47Z</time></trkpt>
<trkpt lat="46.40539" lon="7.77006"><ele></ele><time>2025-9-19T15:10:50Z</time></trkpt>
<trkpt lat="46.40534" lon="7.77012"><ele></ele><time>2025-9-19T15:10:53Z</time></trkpt>
<trkpt lat="46.40532" lon="7.7702"><ele></ele><time>2025-9-19T15:10:56Z</time></trkpt>
<trkpt lat="46.40532" lon="7.77024"><ele></ele><time>2025-9-19T15:10:59Z</time></trkpt>
<trkpt lat="46.40536" lon="7.7704"><ele></ele><time>2025-9-19T15:11:2Z</time></trkpt>
<trkpt lat="46.40539" lon="7.77051"><ele></ele><time>2025-9-19T15:11:5Z</time></trkpt>
<trkpt lat="46.40546" lon="7.77059"><ele></ele><time>2025-9-19T15:11:8Z</time></trkpt>
<trkpt lat="46.4055" lon="7.77061"><ele></ele><time>2025-9-19T15:11:11Z</time></trkpt>
<trkpt lat="46.40558" lon="7.77063"><ele></ele><time>2025-9-19T15:11:14Z</time></trkpt>
<trkpt lat="46.40563" lon="7.77064"><ele></ele><time>2025-9-19T15:11:17Z</time></trkpt>
<trkpt lat="46.40567" lon="7.77067"><ele></ele><time>2025-9-19T15:11:20Z</time></trkpt>
<trkpt lat="46.4057" lon="7.77073"><ele></ele><time>2025-9-19T15:11:23Z</time></trkpt>
<trkpt lat="46.40571" lon="7.7708"><ele></ele><time>2025-9-19T15:11:26Z</time></trkpt>
<trkpt lat="46.40572" lon="7.77086"><ele></ele><time>2025-9-19T15:11:29Z</time></trkpt>
<trkpt lat="46.40573" lon="7.77092"><ele></ele><time>2025-9-19T15:11:32Z</time></trkpt>
<trkpt lat="46.4058" lon="7.77099"><ele></ele><time>2025-9-19T15:11:35Z</time></trkpt>
<trkpt lat="46.40585" lon="7.771"><ele></ele><time>2025-9-19T15:11:38Z</time></trkpt>
<trkpt lat="46.4059" lon="7.771"><ele></ele><time>2025-9-19T15:11:41Z</time></trkpt>
<trkpt lat="46.40594" lon="7.77109"><ele></ele><time>2025-9-19T15:11:44Z</time></trkpt>
<trkpt lat="46.40591" lon="7.77117"><ele></ele><time>2025-9-19T15:11:47Z</time></trkpt>
<trkpt lat="46.40588" lon="7.77119"><ele></ele><time>2025-9-19T15:11:50Z</time></trkpt>
<trkpt lat="46.40579" lon="7.77117"><ele></ele><time>2025-9-19T15:11:53Z</time></trkpt>
<trkpt lat="46.40575" lon="7.77115"><ele></ele><time>2025-9-19T15:11:56Z</time></trkpt>
<trkpt lat="46.40568" lon="7.77107"><ele></ele><time>2025-9-19T15:11:59Z</time></trkpt>
<trkpt lat="46.40565" lon="7.77102"><ele></ele><time>2025-9-19T15:12:2Z</time></trkpt>
<trkpt lat="46.40561" lon="7.77098"><ele></ele><time>2025-9-19T15:12:5Z</time></trkpt>
<trkpt lat="46.40556" lon="7.77096"><ele></ele><time>2025-9-19T15:12:8Z</time></trkpt>
<trkpt lat="46.40551" lon="7.77094"><ele></ele><time>2025-9-19T15:12:11Z</time></trkpt>
<trkpt lat="46.40545" lon="7.77094"><ele></ele><time>2025-9-19T15:12:14Z</time></trkpt>
<trkpt lat="46.4054" lon="7.77096"><ele></ele><time>2025-9-19T15:12:17Z</time></trkpt>
<trkpt lat="46.40535" lon="7.77097"><ele></ele><time>2025-9-19T15:12:20Z</time></trkpt>
<trkpt lat="46.40527" lon="7.77096"><ele></ele><time>2025-9-19T15:12:23Z</time></trkpt>
<trkpt lat="46.40521" lon="7.77091"><ele></ele><time>2025-9-19T15:12:26Z</time></trkpt>
<trkpt lat="46.40515" lon="7.77082"><ele></ele><time>2025-9-19T15:12:29Z</time></trkpt>
<trkpt lat="46.40507" lon="7.77069"><ele></ele><time>2025-9-19T15:12:32Z</time></trkpt>
<trkpt lat="46.40499" lon="7.77055"><ele></ele><time>2025-9-19T15:12:35Z</time></trkpt>
<trkpt lat="46.40491" lon="7.77042"><ele></ele><time>2025-9-19T15:12:38Z</time></trkpt>
<trkpt lat="46.40489" lon="7.77034"><ele></ele><time>2025-9-19T15:12:41Z</time></trkpt>
<trkpt lat="46.40487" lon="7.77026"><ele></ele><time>2025-9-19T15:12:44Z</time></trkpt>
<trkpt lat="46.40487" lon="7.77017"><ele></ele><time>2025-9-19T15:12:47Z</time></trkpt>
<trkpt lat="46.40485" lon="7.77008"><ele></ele><time>2025-9-19T15:12:50Z</time></trkpt>
<trkpt lat="46.40481" lon="7.77"><ele></ele><time>2025-9-19T15:12:53Z</time></trkpt>
<trkpt lat="46.40477" lon="7.76993"><ele></ele><time>2025-9-19T15:12:56Z</time></trkpt>
<trkpt lat="46.40471" lon="7.76989"><ele></ele><time>2025-9-19T15:12:59Z</time></trkpt>
<trkpt lat="46.40466" lon="7.76986"><ele></ele><time>2025-9-19T15:13:2Z</time></trkpt>
<trkpt lat="46.40456" lon="7.7698"><ele></ele><time>2025-9-19T15:13:5Z</time></trkpt>
<trkpt lat="46.40448" lon="7.76971"><ele></ele><time>2025-9-19T15:13:8Z</time></trkpt>
<trkpt lat="46.4044" lon="7.76955"><ele></ele><time>2025-9-19T15:13:11Z</time></trkpt>
<trkpt lat="46.40436" lon="7.76946"><ele></ele><time>2025-9-19T15:13:14Z</time></trkpt>
<trkpt lat="46.40433" lon="7.76937"><ele></ele><time>2025-9-19T15:13:17Z</time></trkpt>
<trkpt lat="46.40428" lon="7.76919"><ele></ele><time>2025-9-19T15:13:20Z</time></trkpt>
<trkpt lat="46.40425" lon="7.76896"><ele></ele><time>2025-9-19T15:13:23Z</time></trkpt>
<trkpt lat="46.40418" lon="7.76875"><ele></ele><time>2025-9-19T15:13:26Z</time></trkpt>
<trkpt lat="46.40409" lon="7.7686"><ele></ele><time>2025-9-19T15:13:29Z</time></trkpt>
<trkpt lat="46.40405" lon="7.76856"><ele></ele><time>2025-9-19T15:13:32Z</time></trkpt>
<trkpt lat="46.40399" lon="7.76844"><ele></ele><time>2025-9-19T15:13:35Z</time></trkpt>
<trkpt lat="46.40392" lon="7.76827"><ele></ele><time>2025-9-19T15:13:38Z</time></trkpt>
<trkpt lat="46.4039" lon="7.76817"><ele></ele><time>2025-9-19T15:13:41Z</time></trkpt>
<trkpt lat="46.40388" lon="7.76806"><ele></ele><time>2025-9-19T15:13:44Z</time></trkpt>
<trkpt lat="46.40386" lon="7.76794"><ele></ele><time>2025-9-19T15:13:47Z</time></trkpt>
<trkpt lat="46.40384" lon="7.76783"><ele></ele><time>2025-9-19T15:13:50Z</time></trkpt>
<trkpt lat="46.40381" lon="7.76762"><ele></ele><time>2025-9-19T15:13:53Z</time></trkpt>
<trkpt lat="46.40379" lon="7.76752"><ele></ele><time>2025-9-19T15:13:56Z</time></trkpt>
<trkpt lat="46.40376" lon="7.76742"><ele></ele><time>2025-9-19T15:13:59Z</time></trkpt>
<trkpt lat="46.40374" lon="7.76731"><ele></ele><time>2025-9-19T15:14:2Z</time></trkpt>
<trkpt lat="46.40371" lon="7.76713"><ele></ele><time>2025-9-19T15:14:5Z</time></trkpt>
<trkpt lat="46.40368" lon="7.76703"><ele></ele><time>2025-9-19T15:14:8Z</time></trkpt>
<trkpt lat="46.40365" lon="7.76695"><ele></ele><time>2025-9-19T15:14:11Z</time></trkpt>
<trkpt lat="46.4036" lon="7.76689"><ele></ele><time>2025-9-19T15:14:14Z</time></trkpt>
<trkpt lat="46.40351" lon="7.76677"><ele></ele><time>2025-9-19T15:14:17Z</time></trkpt>
<trkpt lat="46.4034" lon="7.7667"><ele></ele><time>2025-9-19T15:14:20Z</time></trkpt>
<trkpt lat="46.40333" lon="7.76662"><ele></ele><time>2025-9-19T15:14:23Z</time></trkpt>
<trkpt lat="46.40331" lon="7.76656"><ele></ele><time>2025-9-19T15:14:26Z</time></trkpt>
<trkpt lat="46.40328" lon="7.76645"><ele></ele><time>2025-9-19T15:14:29Z</time></trkpt>
<trkpt lat="46.40323" lon="7.76644"><ele></ele><time>2025-9-19T15:14:32Z</time></trkpt>
<trkpt lat="46.40321" lon="7.76644"><ele></ele><time>2025-9-19T15:14:35Z</time></trkpt>
<trkpt lat="46.40321" lon="7.76649"><ele></ele><time>2025-9-19T15:14:38Z</time></trkpt>
<trkpt lat="46.40323" lon="7.76656"><ele></ele><time>2025-9-19T15:14:41Z</time></trkpt>
<trkpt lat="46.40328" lon="7.76672"><ele></ele><time>2025-9-19T15:14:44Z</time></trkpt>
<trkpt lat="46.40336" lon="7.76681"><ele></ele><time>2025-9-19T15:14:47Z</time></trkpt>
<trkpt lat="46.40345" lon="7.76693"><ele></ele><time>2025-9-19T15:14:50Z</time></trkpt>
<trkpt lat="46.40348" lon="7.767"><ele></ele><time>2025-9-19T15:14:53Z</time></trkpt>
<trkpt lat="46.40349" lon="7.7671"><ele></ele><time>2025-9-19T15:14:56Z</time></trkpt>
<trkpt lat="46.40349" lon="7.76721"><ele></ele><time>2025-9-19T15:14:59Z</time></trkpt>
<trkpt lat="46.40349" lon="7.7673"><ele></ele><time>2025-9-19T15:15:2Z</time></trkpt>
<trkpt lat="46.40348" lon="7.7674"><ele></ele><time>2025-9-19T15:15:5Z</time></trkpt>
<trkpt lat="46.40346" lon="7.76752"><ele></ele><time>2025-9-19T15:15:8Z</time></trkpt>
<trkpt lat="46.40345" lon="7.76763"><ele></ele><time>2025-9-19T15:15:11Z</time></trkpt>
<trkpt lat="46.40342" lon="7.76776"><ele></ele><time>2025-9-19T15:15:14Z</time></trkpt>
<trkpt lat="46.40337" lon="7.768"><ele></ele><time>2025-9-19T15:15:17Z</time></trkpt>
<trkpt lat="46.40331" lon="7.7682"><ele></ele><time>2025-9-19T15:15:20Z</time></trkpt>
<trkpt lat="46.40329" lon="7.76828"><ele></ele><time>2025-9-19T15:15:23Z</time></trkpt>
<trkpt lat="46.40327" lon="7.76834"><ele></ele><time>2025-9-19T15:15:26Z</time></trkpt>
<trkpt lat="46.40328" lon="7.7684"><ele></ele><time>2025-9-19T15:15:29Z</time></trkpt>
<trkpt lat="46.40328" lon="7.76846"><ele></ele><time>2025-9-19T15:15:32Z</time></trkpt>
<trkpt lat="46.40329" lon="7.76853"><ele></ele><time>2025-9-19T15:15:35Z</time></trkpt>
<trkpt lat="46.4033" lon="7.76859"><ele></ele><time>2025-9-19T15:15:38Z</time></trkpt>
<trkpt lat="46.40331" lon="7.76865"><ele></ele><time>2025-9-19T15:15:41Z</time></trkpt>
<trkpt lat="46.40334" lon="7.76871"><ele></ele><time>2025-9-19T15:15:44Z</time></trkpt>
<trkpt lat="46.40339" lon="7.76885"><ele></ele><time>2025-9-19T15:15:47Z</time></trkpt>
<trkpt lat="46.40341" lon="7.76892"><ele></ele><time>2025-9-19T15:15:50Z</time></trkpt>
<trkpt lat="46.40342" lon="7.76899"><ele></ele><time>2025-9-19T15:15:53Z</time></trkpt>
<trkpt lat="46.40343" lon="7.76908"><ele></ele><time>2025-9-19T15:15:56Z</time></trkpt>
<trkpt lat="46.40345" lon="7.76918"><ele></ele><time>2025-9-19T15:15:59Z</time></trkpt>
<trkpt lat="46.40347" lon="7.76928"><ele></ele><time>2025-9-19T15:16:2Z</time></trkpt>
<trkpt lat="46.40351" lon="7.7695"><ele></ele><time>2025-9-19T15:16:5Z</time></trkpt>
<trkpt lat="46.40359" lon="7.76985"><ele></ele><time>2025-9-19T15:16:8Z</time></trkpt>
<trkpt lat="46.40366" lon="7.77022"><ele></ele><time>2025-9-19T15:16:11Z</time></trkpt>
<trkpt lat="46.40369" lon="7.77034"><ele></ele><time>2025-9-19T15:16:14Z</time></trkpt>
<trkpt lat="46.40374" lon="7.77058"><ele></ele><time>2025-9-19T15:16:17Z</time></trkpt>
<trkpt lat="46.40379" lon="7.77084"><ele></ele><time>2025-9-19T15:16:20Z</time></trkpt>
<trkpt lat="46.4038" lon="7.77097"><ele></ele><time>2025-9-19T15:16:23Z</time></trkpt>
<trkpt lat="46.40382" lon="7.77109"><ele></ele><time>2025-9-19T15:16:26Z</time></trkpt>
<trkpt lat="46.40383" lon="7.77122"><ele></ele><time>2025-9-19T15:16:29Z</time></trkpt>
<trkpt lat="46.40384" lon="7.77133"><ele></ele><time>2025-9-19T15:16:32Z</time></trkpt>
<trkpt lat="46.40385" lon="7.77144"><ele></ele><time>2025-9-19T15:16:35Z</time></trkpt>
<trkpt lat="46.40386" lon="7.77154"><ele></ele><time>2025-9-19T15:16:38Z</time></trkpt>
<trkpt lat="46.40389" lon="7.77171"><ele></ele><time>2025-9-19T15:16:41Z</time></trkpt>
<trkpt lat="46.40393" lon="7.77189"><ele></ele><time>2025-9-19T15:16:44Z</time></trkpt>
<trkpt lat="46.40395" lon="7.77199"><ele></ele><time>2025-9-19T15:16:47Z</time></trkpt>
<trkpt lat="46.40398" lon="7.77208"><ele></ele><time>2025-9-19T15:16:50Z</time></trkpt>
<trkpt lat="46.40403" lon="7.77227"><ele></ele><time>2025-9-19T15:16:53Z</time></trkpt>
<trkpt lat="46.40409" lon="7.77241"><ele></ele><time>2025-9-19T15:16:56Z</time></trkpt>
<trkpt lat="46.40411" lon="7.77247"><ele></ele><time>2025-9-19T15:16:59Z</time></trkpt>
<trkpt lat="46.40413" lon="7.77252"><ele></ele><time>2025-9-19T15:17:2Z</time></trkpt>
<trkpt lat="46.40418" lon="7.7726"><ele></ele><time>2025-9-19T15:17:5Z</time></trkpt>
<trkpt lat="46.40421" lon="7.77263"><ele></ele><time>2025-9-19T15:17:8Z</time></trkpt>
<trkpt lat="46.40424" lon="7.77264"><ele></ele><time>2025-9-19T15:17:11Z</time></trkpt>
<trkpt lat="46.40434" lon="7.77271"><ele></ele><time>2025-9-19T15:17:14Z</time></trkpt>
<trkpt lat="46.40435" lon="7.77281"><ele></ele><time>2025-9-19T15:17:17Z</time></trkpt>
<trkpt lat="46.40433" lon="7.77283"><ele></ele><time>2025-9-19T15:17:20Z</time></trkpt>
<trkpt lat="46.40431" lon="7.77282"><ele></ele><time>2025-9-19T15:17:23Z</time></trkpt>
<trkpt lat="46.40429" lon="7.77281"><ele></ele><time>2025-9-19T15:17:26Z</time></trkpt>
<trkpt lat="46.40425" lon="7.77279"><ele></ele><time>2025-9-19T15:17:29Z</time></trkpt>
<trkpt lat="46.40413" lon="7.77272"><ele></ele><time>2025-9-19T15:17:32Z</time></trkpt>
<trkpt lat="46.40404" lon="7.77263"><ele></ele><time>2025-9-19T15:17:35Z</time></trkpt>
<trkpt lat="46.40399" lon="7.77258"><ele></ele><time>2025-9-19T15:17:38Z</time></trkpt>
<trkpt lat="46.40389" lon="7.77249"><ele></ele><time>2025-9-19T15:17:41Z</time></trkpt>
<trkpt lat="46.40384" lon="7.77244"><ele></ele><time>2025-9-19T15:17:44Z</time></trkpt>
<trkpt lat="46.40379" lon="7.77239"><ele></ele><time>2025-9-19T15:17:47Z</time></trkpt>
<trkpt lat="46.40375" lon="7.77232"><ele></ele><time>2025-9-19T15:17:50Z</time></trkpt>
<trkpt lat="46.40365" lon="7.77223"><ele></ele><time>2025-9-19T15:17:53Z</time></trkpt>
<trkpt lat="46.40356" lon="7.77213"><ele></ele><time>2025-9-19T15:17:56Z</time></trkpt>
<trkpt lat="46.40353" lon="7.77207"><ele></ele><time>2025-9-19T15:17:59Z</time></trkpt>
<trkpt lat="46.40349" lon="7.772"><ele></ele><time>2025-9-19T15:18:2Z</time></trkpt>
<trkpt lat="46.40346" lon="7.77193"><ele></ele><time>2025-9-19T15:18:5Z</time></trkpt>
<trkpt lat="46.4034" lon="7.77178"><ele></ele><time>2025-9-19T15:18:8Z</time></trkpt>
<trkpt lat="46.40335" lon="7.77162"><ele></ele><time>2025-9-19T15:18:11Z</time></trkpt>
<trkpt lat="46.40331" lon="7.77145"><ele></ele><time>2025-9-19T15:18:14Z</time></trkpt>
<trkpt lat="46.40324" lon="7.7713"><ele></ele><time>2025-9-19T15:18:17Z</time></trkpt>
<trkpt lat="46.40317" lon="7.77115"><ele></ele><time>2025-9-19T15:18:20Z</time></trkpt>
<trkpt lat="46.40307" lon="7.77099"><ele></ele><time>2025-9-19T15:18:23Z</time></trkpt>
<trkpt lat="46.40302" lon="7.7709"><ele></ele><time>2025-9-19T15:18:26Z</time></trkpt>
<trkpt lat="46.40298" lon="7.7708"><ele></ele><time>2025-9-19T15:18:29Z</time></trkpt>
<trkpt lat="46.40288" lon="7.77061"><ele></ele><time>2025-9-19T15:18:32Z</time></trkpt>
<trkpt lat="46.40283" lon="7.77052"><ele></ele><time>2025-9-19T15:18:35Z</time></trkpt>
<trkpt lat="46.40277" lon="7.77042"><ele></ele><time>2025-9-19T15:18:38Z</time></trkpt>
<trkpt lat="46.40271" lon="7.77033"><ele></ele><time>2025-9-19T15:18:41Z</time></trkpt>
<trkpt lat="46.40266" lon="7.77024"><ele></ele><time>2025-9-19T15:18:44Z</time></trkpt>
<trkpt lat="46.40259" lon="7.77015"><ele></ele><time>2025-9-19T15:18:47Z</time></trkpt>
<trkpt lat="46.40253" lon="7.77006"><ele></ele><time>2025-9-19T15:18:50Z</time></trkpt>
<trkpt lat="46.40247" lon="7.76996"><ele></ele><time>2025-9-19T15:18:53Z</time></trkpt>
<trkpt lat="46.40241" lon="7.76986"><ele></ele><time>2025-9-19T15:18:56Z</time></trkpt>
<trkpt lat="46.40231" lon="7.7697"><ele></ele><time>2025-9-19T15:18:59Z</time></trkpt>
<trkpt lat="46.40227" lon="7.76963"><ele></ele><time>2025-9-19T15:19:2Z</time></trkpt>
<trkpt lat="46.40223" lon="7.76957"><ele></ele><time>2025-9-19T15:19:5Z</time></trkpt>
<trkpt lat="46.40216" lon="7.76942"><ele></ele><time>2025-9-19T15:19:8Z</time></trkpt>
<trkpt lat="46.40211" lon="7.76929"><ele></ele><time>2025-9-19T15:19:11Z</time></trkpt>
<trkpt lat="46.4021" lon="7.76921"><ele></ele><time>2025-9-19T15:19:14Z</time></trkpt>
<trkpt lat="46.40209" lon="7.76913"><ele></ele><time>2025-9-19T15:19:17Z</time></trkpt>
<trkpt lat="46.40206" lon="7.76907"><ele></ele><time>2025-9-19T15:19:20Z</time></trkpt>
<trkpt lat="46.40201" lon="7.76905"><ele></ele><time>2025-9-19T15:19:23Z</time></trkpt>
<trkpt lat="46.40197" lon="7.76906"><ele></ele><time>2025-9-19T15:19:26Z</time></trkpt>
<trkpt lat="46.40197" lon="7.76914"><ele></ele><time>2025-9-19T15:19:29Z</time></trkpt>
<trkpt lat="46.40199" lon="7.76917"><ele></ele><time>2025-9-19T15:19:32Z</time></trkpt>
<trkpt lat="46.40205" lon="7.76931"><ele></ele><time>2025-9-19T15:19:35Z</time></trkpt>
<trkpt lat="46.40206" lon="7.76938"><ele></ele><time>2025-9-19T15:19:38Z</time></trkpt>
<trkpt lat="46.40212" lon="7.76961"><ele></ele><time>2025-9-19T15:19:41Z</time></trkpt>
<trkpt lat="46.40217" lon="7.76979"><ele></ele><time>2025-9-19T15:19:44Z</time></trkpt>
<trkpt lat="46.40222" lon="7.77002"><ele></ele><time>2025-9-19T15:19:47Z</time></trkpt>
<trkpt lat="46.40226" lon="7.77028"><ele></ele><time>2025-9-19T15:19:50Z</time></trkpt>
<trkpt lat="46.40232" lon="7.77055"><ele></ele><time>2025-9-19T15:19:53Z</time></trkpt>
<trkpt lat="46.40235" lon="7.77068"><ele></ele><time>2025-9-19T15:19:56Z</time></trkpt>
<trkpt lat="46.40236" lon="7.77081"><ele></ele><time>2025-9-19T15:19:59Z</time></trkpt>
<trkpt lat="46.40238" lon="7.77093"><ele></ele><time>2025-9-19T15:20:2Z</time></trkpt>
<trkpt lat="46.40238" lon="7.77107"><ele></ele><time>2025-9-19T15:20:5Z</time></trkpt>
<trkpt lat="46.40236" lon="7.77121"><ele></ele><time>2025-9-19T15:20:8Z</time></trkpt>
<trkpt lat="46.40234" lon="7.77135"><ele></ele><time>2025-9-19T15:20:11Z</time></trkpt>
<trkpt lat="46.40232" lon="7.77149"><ele></ele><time>2025-9-19T15:20:14Z</time></trkpt>
<trkpt lat="46.40229" lon="7.77176"><ele></ele><time>2025-9-19T15:20:17Z</time></trkpt>
<trkpt lat="46.40228" lon="7.77202"><ele></ele><time>2025-9-19T15:20:20Z</time></trkpt>
<trkpt lat="46.40226" lon="7.77224"><ele></ele><time>2025-9-19T15:20:23Z</time></trkpt>
<trkpt lat="46.40223" lon="7.77241"><ele></ele><time>2025-9-19T15:20:26Z</time></trkpt>
<trkpt lat="46.40223" lon="7.77247"><ele></ele><time>2025-9-19T15:20:29Z</time></trkpt>
<trkpt lat="46.40223" lon="7.77253"><ele></ele><time>2025-9-19T15:20:32Z</time></trkpt>
<trkpt lat="46.40225" lon="7.77259"><ele></ele><time>2025-9-19T15:20:35Z</time></trkpt>
<trkpt lat="46.40227" lon="7.77264"><ele></ele><time>2025-9-19T15:20:38Z</time></trkpt>
<trkpt lat="46.4023" lon="7.77271"><ele></ele><time>2025-9-19T15:20:41Z</time></trkpt>
<trkpt lat="46.40237" lon="7.77288"><ele></ele><time>2025-9-19T15:20:44Z</time></trkpt>
<trkpt lat="46.40241" lon="7.77296"><ele></ele><time>2025-9-19T15:20:47Z</time></trkpt>
<trkpt lat="46.40245" lon="7.77304"><ele></ele><time>2025-9-19T15:20:50Z</time></trkpt>
<trkpt lat="46.40255" lon="7.77322"><ele></ele><time>2025-9-19T15:20:53Z</time></trkpt>
<trkpt lat="46.40267" lon="7.77337"><ele></ele><time>2025-9-19T15:20:56Z</time></trkpt>
<trkpt lat="46.40273" lon="7.77343"><ele></ele><time>2025-9-19T15:20:59Z</time></trkpt>
<trkpt lat="46.40278" lon="7.77346"><ele></ele><time>2025-9-19T15:21:2Z</time></trkpt>
<trkpt lat="46.40282" lon="7.77348"><ele></ele><time>2025-9-19T15:21:5Z</time></trkpt>
<trkpt lat="46.40291" lon="7.77356"><ele></ele><time>2025-9-19T15:21:8Z</time></trkpt>
<trkpt lat="46.40291" lon="7.7736"><ele></ele><time>2025-9-19T15:21:11Z</time></trkpt>
<trkpt lat="46.40291" lon="7.77365"><ele></ele><time>2025-9-19T15:21:14Z</time></trkpt>
<trkpt lat="46.4029" lon="7.77365"><ele></ele><time>2025-9-19T15:21:17Z</time></trkpt>
<trkpt lat="46.4029" lon="7.77365"><ele></ele><time>2025-9-19T15:21:20Z</time></trkpt>
<trkpt lat="46.4029" lon="7.77365"><ele></ele><time>2025-9-19T15:21:23Z</time></trkpt>
<trkpt lat="46.4029" lon="7.77365"><ele></ele><time>2025-9-19T15:21:26Z</time></trkpt>
<trkpt lat="46.4029" lon="7.77365"><ele></ele><time>2025-9-19T15:21:29Z</time></trkpt>
<trkpt lat="46.4029" lon="7.77365"><ele></ele><time>2025-9-19T15:21:32Z</time></trkpt>
<trkpt lat="46.4029" lon="7.77365"><ele></ele><time>2025-9-19T15:21:35Z</time></trkpt>
<trkpt lat="46.4029" lon="7.77365"><ele></ele><time>2025-9-19T15:21:38Z</time></trkpt>
<trkpt lat="46.4029" lon="7.77365"><ele></ele><time>2025-9-19T15:21:41Z</time></trkpt>
<trkpt lat="46.4029" lon="7.77365"><ele></ele><time>2025-9-19T15:21:44Z</time></trkpt>
<trkpt lat="46.4029" lon="7.77365"><ele></ele><time>2025-9-19T15:21:47Z</time></trkpt>
<trkpt lat="46.4029" lon="7.77365"><ele></ele><time>2025-9-19T15:21:50Z</time></trkpt>
<trkpt lat="46.4029" lon="7.77365"><ele></ele><time>2025-9-19T15:21:53Z</time></trkpt>
<trkpt lat="46.40293" lon="7.77369"><ele></ele><time>2025-9-19T15:21:56Z</time></trkpt>
<trkpt lat="46.40301" lon="7.77376"><ele></ele><time>2025-9-19T15:21:59Z</time></trkpt>
<trkpt lat="46.40303" lon="7.77384"><ele></ele><time>2025-9-19T15:22:2Z</time></trkpt>
<trkpt lat="46.40303" lon="7.77381"><ele></ele><time>2025-9-19T15:22:5Z</time></trkpt>
<trkpt lat="46.40302" lon="7.7738"><ele></ele><time>2025-9-19T15:22:8Z</time></trkpt>
<trkpt lat="46.40302" lon="7.77381"><ele></ele><time>2025-9-19T15:22:11Z</time></trkpt>
<trkpt lat="46.40302" lon="7.77382"><ele></ele><time>2025-9-19T15:22:14Z</time></trkpt>
<trkpt lat="46.40303" lon="7.77383"><ele></ele><time>2025-9-19T15:22:17Z</time></trkpt>
<trkpt lat="46.40303" lon="7.77384"><ele></ele><time>2025-9-19T15:22:20Z</time></trkpt>
<trkpt lat="46.40303" lon="7.77384"><ele></ele><time>2025-9-19T15:22:23Z</time></trkpt>
<trkpt lat="46.40304" lon="7.77382"><ele></ele><time>2025-9-19T15:22:26Z</time></trkpt>
<trkpt lat="46.40304" lon="7.77384"><ele></ele><time>2025-9-19T15:22:29Z</time></trkpt>
<trkpt lat="46.40306" lon="7.77388"><ele></ele><time>2025-9-19T15:22:32Z</time></trkpt>
<trkpt lat="46.40306" lon="7.77387"><ele></ele><time>2025-9-19T15:22:35Z</time></trkpt>
<trkpt lat="46.40304" lon="7.77385"><ele></ele><time>2025-9-19T15:22:38Z</time></trkpt>
<trkpt lat="46.40304" lon="7.77383"><ele></ele><time>2025-9-19T15:22:41Z</time></trkpt>
<trkpt lat="46.40303" lon="7.77382"><ele></ele><time>2025-9-19T15:22:44Z</time></trkpt>
<trkpt lat="46.40303" lon="7.77382"><ele></ele><time>2025-9-19T15:22:47Z</time></trkpt>
<trkpt lat="46.40303" lon="7.77382"><ele></ele><time>2025-9-19T15:22:50Z</time></trkpt>
<trkpt lat="46.40303" lon="7.77383"><ele></ele><time>2025-9-19T15:22:53Z</time></trkpt>
<trkpt lat="46.40302" lon="7.77384"><ele></ele><time>2025-9-19T15:22:56Z</time></trkpt>
<trkpt lat="46.40302" lon="7.77384"><ele></ele><time>2025-9-19T15:22:59Z</time></trkpt>
<trkpt lat="46.40302" lon="7.77384"><ele></ele><time>2025-9-19T15:23:2Z</time></trkpt>
<trkpt lat="46.40303" lon="7.77383"><ele></ele><time>2025-9-19T15:23:5Z</time></trkpt>
<trkpt lat="46.40303" lon="7.77382"><ele></ele><time>2025-9-19T15:23:8Z</time></trkpt>
<trkpt lat="46.40305" lon="7.77383"><ele></ele><time>2025-9-19T15:23:11Z</time></trkpt>
<trkpt lat="46.40305" lon="7.77383"><ele></ele><time>2025-9-19T15:23:14Z</time></trkpt>
<trkpt lat="46.40305" lon="7.77383"><ele></ele><time>2025-9-19T15:23:17Z</time></trkpt>
<trkpt lat="46.40304" lon="7.77382"><ele></ele><time>2025-9-19T15:23:20Z</time></trkpt>
<trkpt lat="46.40304" lon="7.77383"><ele></ele><time>2025-9-19T15:23:23Z</time></trkpt>
<trkpt lat="46.40304" lon="7.77383"><ele></ele><time>2025-9-19T15:23:26Z</time></trkpt>
<trkpt lat="46.40304" lon="7.77382"><ele></ele><time>2025-9-19T15:23:29Z</time></trkpt>
<trkpt lat="46.40303" lon="7.77383"><ele></ele><time>2025-9-19T15:23:32Z</time></trkpt>
<trkpt lat="46.40304" lon="7.77382"><ele></ele><time>2025-9-19T15:23:35Z</time></trkpt>
<trkpt lat="46.40304" lon="7.77382"><ele></ele><time>2025-9-19T15:23:38Z</time></trkpt>
<trkpt lat="46.40304" lon="7.77382"><ele></ele><time>2025-9-19T15:23:41Z</time></trkpt>
<trkpt lat="46.40304" lon="7.7738"><ele></ele><time>2025-9-19T15:23:44Z</time></trkpt>
<trkpt lat="46.40301" lon="7.77378"><ele></ele><time>2025-9-19T15:23:47Z</time></trkpt>
<trkpt lat="46.40299" lon="7.77375"><ele></ele><time>2025-9-19T15:23:50Z</time></trkpt>
<trkpt lat="46.40289" lon="7.77362"><ele></ele><time>2025-9-19T15:23:53Z</time></trkpt>
<trkpt lat="46.40286" lon="7.77356"><ele></ele><time>2025-9-19T15:23:56Z</time></trkpt>
<trkpt lat="46.40282" lon="7.77348"><ele></ele><time>2025-9-19T15:23:59Z</time></trkpt>
<trkpt lat="46.40283" lon="7.77346"><ele></ele><time>2025-9-19T15:24:2Z</time></trkpt>
<trkpt lat="46.40289" lon="7.77356"><ele></ele><time>2025-9-19T15:24:5Z</time></trkpt>
<trkpt lat="46.40301" lon="7.77374"><ele></ele><time>2025-9-19T15:24:8Z</time></trkpt>
<trkpt lat="46.40307" lon="7.77388"><ele></ele><time>2025-9-19T15:24:11Z</time></trkpt>
<trkpt lat="46.4031" lon="7.77389"><ele></ele><time>2025-9-19T15:24:14Z</time></trkpt>
<trkpt lat="46.40312" lon="7.77389"><ele></ele><time>2025-9-19T15:24:17Z</time></trkpt>
<trkpt lat="46.40312" lon="7.77389"><ele></ele><time>2025-9-19T15:24:20Z</time></trkpt>
<trkpt lat="46.40312" lon="7.7739"><ele></ele><time>2025-9-19T15:24:23Z</time></trkpt>
<trkpt lat="46.40311" lon="7.77391"><ele></ele><time>2025-9-19T15:24:26Z</time></trkpt>
<trkpt lat="46.40306" lon="7.77389"><ele></ele><time>2025-9-19T15:24:29Z</time></trkpt>
<trkpt lat="46.40304" lon="7.77385"><ele></ele><time>2025-9-19T15:24:32Z</time></trkpt>
<trkpt lat="46.40303" lon="7.77383"><ele></ele><time>2025-9-19T15:24:35Z</time></trkpt>
<trkpt lat="46.40303" lon="7.77382"><ele></ele><time>2025-9-19T15:24:38Z</time></trkpt>
<trkpt lat="46.40302" lon="7.7738"><ele></ele><time>2025-9-19T15:24:41Z</time></trkpt>
<trkpt lat="46.40301" lon="7.77382"><ele></ele><time>2025-9-19T15:24:44Z</time></trkpt>
<trkpt lat="46.40301" lon="7.77382"><ele></ele><time>2025-9-19T15:24:47Z</time></trkpt>
<trkpt lat="46.40301" lon="7.77382"><ele></ele><time>2025-9-19T15:24:50Z</time></trkpt>
<trkpt lat="46.40301" lon="7.77381"><ele></ele><time>2025-9-19T15:24:53Z</time></trkpt>
<trkpt lat="46.40302" lon="7.77384"><ele></ele><time>2025-9-19T15:24:56Z</time></trkpt>
<trkpt lat="46.40304" lon="7.77388"><ele></ele><time>2025-9-19T15:24:59Z</time></trkpt>
<trkpt lat="46.40306" lon="7.77388"><ele></ele><time>2025-9-19T15:25:2Z</time></trkpt>
<trkpt lat="46.40313" lon="7.77388"><ele></ele><time>2025-9-19T15:25:5Z</time></trkpt>
<trkpt lat="46.40321" lon="7.7739"><ele></ele><time>2025-9-19T15:25:8Z</time></trkpt>
<trkpt lat="46.40326" lon="7.77391"><ele></ele><time>2025-9-19T15:25:11Z</time></trkpt>
<trkpt lat="46.40336" lon="7.77396"><ele></ele><time>2025-9-19T15:25:14Z</time></trkpt>
<trkpt lat="46.40345" lon="7.77402"><ele></ele><time>2025-9-19T15:25:17Z</time></trkpt>
<trkpt lat="46.4035" lon="7.77406"><ele></ele><time>2025-9-19T15:25:20Z</time></trkpt>
<trkpt lat="46.40353" lon="7.77409"><ele></ele><time>2025-9-19T15:25:23Z</time></trkpt>
<trkpt lat="46.40358" lon="7.77417"><ele></ele><time>2025-9-19T15:25:26Z</time></trkpt>
<trkpt lat="46.4036" lon="7.7742"><ele></ele><time>2025-9-19T15:25:29Z</time></trkpt>
<trkpt lat="46.40364" lon="7.77428"><ele></ele><time>2025-9-19T15:25:32Z</time></trkpt>
<trkpt lat="46.40366" lon="7.77432"><ele></ele><time>2025-9-19T15:25:35Z</time></trkpt>
<trkpt lat="46.40373" lon="7.7744"><ele></ele><time>2025-9-19T15:25:38Z</time></trkpt>
<trkpt lat="46.40374" lon="7.77449"><ele></ele><time>2025-9-19T15:25:41Z</time></trkpt>
<trkpt lat="46.40373" lon="7.77451"><ele></ele><time>2025-9-19T15:25:44Z</time></trkpt>
<trkpt lat="46.4037" lon="7.77452"><ele></ele><time>2025-9-19T15:25:47Z</time></trkpt>
<trkpt lat="46.40368" lon="7.77456"><ele></ele><time>2025-9-19T15:25:50Z</time></trkpt>
<trkpt lat="46.40366" lon="7.77457"><ele></ele><time>2025-9-19T15:25:53Z</time></trkpt>
<trkpt lat="46.40363" lon="7.7746"><ele></ele><time>2025-9-19T15:25:56Z</time></trkpt>
<trkpt lat="46.4036" lon="7.77465"><ele></ele><time>2025-9-19T15:25:59Z</time></trkpt>
<trkpt lat="46.40358" lon="7.7747"><ele></ele><time>2025-9-19T15:26:2Z</time></trkpt>
<trkpt lat="46.40351" lon="7.77475"><ele></ele><time>2025-9-19T15:26:5Z</time></trkpt>
<trkpt lat="46.40348" lon="7.77479"><ele></ele><time>2025-9-19T15:26:8Z</time></trkpt>
<trkpt lat="46.40336" lon="7.77498"><ele></ele><time>2025-9-19T15:26:11Z</time></trkpt>
<trkpt lat="46.40334" lon="7.77516"><ele></ele><time>2025-9-19T15:26:14Z</time></trkpt>
<trkpt lat="46.40338" lon="7.77539"><ele></ele><time>2025-9-19T15:26:17Z</time></trkpt>
<trkpt lat="46.40337" lon="7.7754"><ele></ele><time>2025-9-19T15:26:20Z</time></trkpt>
<trkpt lat="46.40338" lon="7.7754"><ele></ele><time>2025-9-19T15:26:23Z</time></trkpt>
<trkpt lat="46.40339" lon="7.77543"><ele></ele><time>2025-9-19T15:26:26Z</time></trkpt>
<trkpt lat="46.40337" lon="7.77543"><ele></ele><time>2025-9-19T15:26:29Z</time></trkpt>
<trkpt lat="46.40336" lon="7.77538"><ele></ele><time>2025-9-19T15:26:32Z</time></trkpt>
<trkpt lat="46.40336" lon="7.7753"><ele></ele><time>2025-9-19T15:26:35Z</time></trkpt>
<trkpt lat="46.40335" lon="7.77525"><ele></ele><time>2025-9-19T15:26:38Z</time></trkpt>
<trkpt lat="46.40333" lon="7.7752"><ele></ele><time>2025-9-19T15:26:41Z</time></trkpt>
<trkpt lat="46.40333" lon="7.77517"><ele></ele><time>2025-9-19T15:26:44Z</time></trkpt>
<trkpt lat="46.40334" lon="7.77515"><ele></ele><time>2025-9-19T15:26:47Z</time></trkpt>
<trkpt lat="46.40335" lon="7.77515"><ele></ele><time>2025-9-19T15:26:50Z</time></trkpt>
<trkpt lat="46.40335" lon="7.77516"><ele></ele><time>2025-9-19T15:26:53Z</time></trkpt>
<trkpt lat="46.40335" lon="7.77515"><ele></ele><time>2025-9-19T15:26:56Z</time></trkpt>
<trkpt lat="46.40334" lon="7.77514"><ele></ele><time>2025-9-19T15:26:59Z</time></trkpt>
<trkpt lat="46.40333" lon="7.77514"><ele></ele><time>2025-9-19T15:27:2Z</time></trkpt>
<trkpt lat="46.40333" lon="7.77514"><ele></ele><time>2025-9-19T15:27:5Z</time></trkpt>
<trkpt lat="46.40333" lon="7.77514"><ele></ele><time>2025-9-19T15:27:8Z</time></trkpt>
<trkpt lat="46.40333" lon="7.77514"><ele></ele><time>2025-9-19T15:27:11Z</time></trkpt>
<trkpt lat="46.40333" lon="7.77514"><ele></ele><time>2025-9-19T15:27:14Z</time></trkpt>
<trkpt lat="46.40333" lon="7.77514"><ele></ele><time>2025-9-19T15:27:17Z</time></trkpt>
<trkpt lat="46.40333" lon="7.77514"><ele></ele><time>2025-9-19T15:27:20Z</time></trkpt>
<trkpt lat="46.40333" lon="7.77514"><ele></ele><time>2025-9-19T15:27:23Z</time></trkpt>
<trkpt lat="46.40333" lon="7.77514"><ele></ele><time>2025-9-19T15:27:26Z</time></trkpt>
<trkpt lat="46.40335" lon="7.77516"><ele></ele><time>2025-9-19T15:27:29Z</time></trkpt>
<trkpt lat="46.40334" lon="7.77518"><ele></ele><time>2025-9-19T15:27:32Z</time></trkpt>
<trkpt lat="46.40335" lon="7.7752"><ele></ele><time>2025-9-19T15:27:35Z</time></trkpt>
<trkpt lat="46.40334" lon="7.7752"><ele></ele><time>2025-9-19T15:27:38Z</time></trkpt>
<trkpt lat="46.40334" lon="7.7752"><ele></ele><time>2025-9-19T15:27:41Z</time></trkpt>
<trkpt lat="46.40334" lon="7.77519"><ele></ele><time>2025-9-19T15:27:44Z</time></trkpt>
<trkpt lat="46.40335" lon="7.77518"><ele></ele><time>2025-9-19T15:27:47Z</time></trkpt>
<trkpt lat="46.40335" lon="7.77519"><ele></ele><time>2025-9-19T15:27:50Z</time></trkpt>
<trkpt lat="46.40337" lon="7.77524"><ele></ele><time>2025-9-19T15:27:53Z</time></trkpt>
<trkpt lat="46.40339" lon="7.77543"><ele></ele><time>2025-9-19T15:27:56Z</time></trkpt>
<trkpt lat="46.40339" lon="7.7755"><ele></ele><time>2025-9-19T15:27:59Z</time></trkpt>
<trkpt lat="46.40338" lon="7.77568"><ele></ele><time>2025-9-19T15:28:2Z</time></trkpt>
<trkpt lat="46.40339" lon="7.77578"><ele></ele><time>2025-9-19T15:28:5Z</time></trkpt>
<trkpt lat="46.40339" lon="7.77588"><ele></ele><time>2025-9-19T15:28:8Z</time></trkpt>
<trkpt lat="46.4034" lon="7.77605"><ele></ele><time>2025-9-19T15:28:11Z</time></trkpt>
<trkpt lat="46.40338" lon="7.77613"><ele></ele><time>2025-9-19T15:28:14Z</time></trkpt>
<trkpt lat="46.40339" lon="7.77632"><ele></ele><time>2025-9-19T15:28:17Z</time></trkpt>
<trkpt lat="46.40341" lon="7.7765"><ele></ele><time>2025-9-19T15:28:20Z</time></trkpt>
<trkpt lat="46.40342" lon="7.77658"><ele></ele><time>2025-9-19T15:28:23Z</time></trkpt>
<trkpt lat="46.40345" lon="7.77673"><ele></ele><time>2025-9-19T15:28:26Z</time></trkpt>
<trkpt lat="46.40347" lon="7.77679"><ele></ele><time>2025-9-19T15:28:29Z</time></trkpt>
<trkpt lat="46.40348" lon="7.77684"><ele></ele><time>2025-9-19T15:28:32Z</time></trkpt>
<trkpt lat="46.40349" lon="7.77689"><ele></ele><time>2025-9-19T15:28:35Z</time></trkpt>
<trkpt lat="46.40348" lon="7.77695"><ele></ele><time>2025-9-19T15:28:38Z</time></trkpt>
<trkpt lat="46.40347" lon="7.77703"><ele></ele><time>2025-9-19T15:28:41Z</time></trkpt>
<trkpt lat="46.40347" lon="7.77711"><ele></ele><time>2025-9-19T15:28:44Z</time></trkpt>
<trkpt lat="46.40346" lon="7.77718"><ele></ele><time>2025-9-19T15:28:47Z</time></trkpt>
<trkpt lat="46.40345" lon="7.77724"><ele></ele><time>2025-9-19T15:28:50Z</time></trkpt>
<trkpt lat="46.40345" lon="7.77729"><ele></ele><time>2025-9-19T15:28:53Z</time></trkpt>
<trkpt lat="46.40345" lon="7.77732"><ele></ele><time>2025-9-19T15:28:56Z</time></trkpt>
<trkpt lat="46.40346" lon="7.77739"><ele></ele><time>2025-9-19T15:28:59Z</time></trkpt>
<trkpt lat="46.40348" lon="7.7775"><ele></ele><time>2025-9-19T15:29:2Z</time></trkpt>
<trkpt lat="46.40352" lon="7.77764"><ele></ele><time>2025-9-19T15:29:5Z</time></trkpt>
<trkpt lat="46.40354" lon="7.77769"><ele></ele><time>2025-9-19T15:29:8Z</time></trkpt>
<trkpt lat="46.40356" lon="7.77775"><ele></ele><time>2025-9-19T15:29:11Z</time></trkpt>
<trkpt lat="46.40357" lon="7.77781"><ele></ele><time>2025-9-19T15:29:14Z</time></trkpt>
<trkpt lat="46.40358" lon="7.77788"><ele></ele><time>2025-9-19T15:29:17Z</time></trkpt>
<trkpt lat="46.4036" lon="7.77805"><ele></ele><time>2025-9-19T15:29:20Z</time></trkpt>
<trkpt lat="46.4036" lon="7.77813"><ele></ele><time>2025-9-19T15:29:23Z</time></trkpt>
<trkpt lat="46.40359" lon="7.77822"><ele></ele><time>2025-9-19T15:29:26Z</time></trkpt>
<trkpt lat="46.4036" lon="7.77831"><ele></ele><time>2025-9-19T15:29:29Z</time></trkpt>
<trkpt lat="46.40362" lon="7.77841"><ele></ele><time>2025-9-19T15:29:32Z</time></trkpt>
<trkpt lat="46.40368" lon="7.77864"><ele></ele><time>2025-9-19T15:29:35Z</time></trkpt>
<trkpt lat="46.40374" lon="7.77889"><ele></ele><time>2025-9-19T15:29:38Z</time></trkpt>
<trkpt lat="46.40377" lon="7.77902"><ele></ele><time>2025-9-19T15:29:41Z</time></trkpt>
<trkpt lat="46.40379" lon="7.77916"><ele></ele><time>2025-9-19T15:29:44Z</time></trkpt>
<trkpt lat="46.4038" lon="7.7793"><ele></ele><time>2025-9-19T15:29:47Z</time></trkpt>
<trkpt lat="46.40382" lon="7.77944"><ele></ele><time>2025-9-19T15:29:50Z</time></trkpt>
<trkpt lat="46.40384" lon="7.77958"><ele></ele><time>2025-9-19T15:29:53Z</time></trkpt>
<trkpt lat="46.40386" lon="7.77971"><ele></ele><time>2025-9-19T15:29:56Z</time></trkpt>
<trkpt lat="46.40389" lon="7.77983"><ele></ele><time>2025-9-19T15:29:59Z</time></trkpt>
<trkpt lat="46.4039" lon="7.77994"><ele></ele><time>2025-9-19T15:30:2Z</time></trkpt>
<trkpt lat="46.40392" lon="7.78004"><ele></ele><time>2025-9-19T15:30:5Z</time></trkpt>
<trkpt lat="46.40393" lon="7.78015"><ele></ele><time>2025-9-19T15:30:8Z</time></trkpt>
<trkpt lat="46.40395" lon="7.78025"><ele></ele><time>2025-9-19T15:30:11Z</time></trkpt>
<trkpt lat="46.40399" lon="7.78043"><ele></ele><time>2025-9-19T15:30:14Z</time></trkpt>
<trkpt lat="46.40401" lon="7.78058"><ele></ele><time>2025-9-19T15:30:17Z</time></trkpt>
<trkpt lat="46.40402" lon="7.78071"><ele></ele><time>2025-9-19T15:30:20Z</time></trkpt>
<trkpt lat="46.40402" lon="7.78082"><ele></ele><time>2025-9-19T15:30:23Z</time></trkpt>
<trkpt lat="46.404" lon="7.78087"><ele></ele><time>2025-9-19T15:30:26Z</time></trkpt>
<trkpt lat="46.40397" lon="7.78088"><ele></ele><time>2025-9-19T15:30:29Z</time></trkpt>
<trkpt lat="46.40394" lon="7.78077"><ele></ele><time>2025-9-19T15:30:32Z</time></trkpt>
<trkpt lat="46.4039" lon="7.78064"><ele></ele><time>2025-9-19T15:30:35Z</time></trkpt>
<trkpt lat="46.40384" lon="7.78047"><ele></ele><time>2025-9-19T15:30:38Z</time></trkpt>
<trkpt lat="46.40382" lon="7.7804"><ele></ele><time>2025-9-19T15:30:41Z</time></trkpt>
<trkpt lat="46.40377" lon="7.78024"><ele></ele><time>2025-9-19T15:30:44Z</time></trkpt>
<trkpt lat="46.40374" lon="7.78015"><ele></ele><time>2025-9-19T15:30:47Z</time></trkpt>
<trkpt lat="46.40371" lon="7.78006"><ele></ele><time>2025-9-19T15:30:50Z</time></trkpt>
<trkpt lat="46.40367" lon="7.77998"><ele></ele><time>2025-9-19T15:30:53Z</time></trkpt>
<trkpt lat="46.40358" lon="7.77982"><ele></ele><time>2025-9-19T15:30:56Z</time></trkpt>
<trkpt lat="46.40352" lon="7.77974"><ele></ele><time>2025-9-19T15:30:59Z</time></trkpt>
<trkpt lat="46.40346" lon="7.77966"><ele></ele><time>2025-9-19T15:31:2Z</time></trkpt>
<trkpt lat="46.40339" lon="7.77959"><ele></ele><time>2025-9-19T15:31:5Z</time></trkpt>
<trkpt lat="46.40332" lon="7.77952"><ele></ele><time>2025-9-19T15:31:8Z</time></trkpt>
<trkpt lat="46.40326" lon="7.77943"><ele></ele><time>2025-9-19T15:31:11Z</time></trkpt>
<trkpt lat="46.40319" lon="7.77934"><ele></ele><time>2025-9-19T15:31:14Z</time></trkpt>
<trkpt lat="46.40296" lon="7.77901"><ele></ele><time>2025-9-19T15:31:17Z</time></trkpt>
<trkpt lat="46.40287" lon="7.77892"><ele></ele><time>2025-9-19T15:31:20Z</time></trkpt>
<trkpt lat="46.40284" lon="7.77889"><ele></ele><time>2025-9-19T15:31:23Z</time></trkpt>
<trkpt lat="46.40277" lon="7.77868"><ele></ele><time>2025-9-19T15:31:26Z</time></trkpt>
<trkpt lat="46.40274" lon="7.77839"><ele></ele><time>2025-9-19T15:31:29Z</time></trkpt>
<trkpt lat="46.4027" lon="7.77811"><ele></ele><time>2025-9-19T15:31:32Z</time></trkpt>
<trkpt lat="46.40269" lon="7.778"><ele></ele><time>2025-9-19T15:31:35Z</time></trkpt>
<trkpt lat="46.40269" lon="7.77789"><ele></ele><time>2025-9-19T15:31:38Z</time></trkpt>
<trkpt lat="46.40269" lon="7.77764"><ele></ele><time>2025-9-19T15:31:41Z</time></trkpt>
<trkpt lat="46.40266" lon="7.77739"><ele></ele><time>2025-9-19T15:31:44Z</time></trkpt>
<trkpt lat="46.40263" lon="7.77726"><ele></ele><time>2025-9-19T15:31:47Z</time></trkpt>
<trkpt lat="46.40257" lon="7.77701"><ele></ele><time>2025-9-19T15:31:50Z</time></trkpt>
<trkpt lat="46.4025" lon="7.77676"><ele></ele><time>2025-9-19T15:31:53Z</time></trkpt>
<trkpt lat="46.40243" lon="7.77667"><ele></ele><time>2025-9-19T15:31:56Z</time></trkpt>
<trkpt lat="46.40234" lon="7.77659"><ele></ele><time>2025-9-19T15:31:59Z</time></trkpt>
<trkpt lat="46.40225" lon="7.77656"><ele></ele><time>2025-9-19T15:32:2Z</time></trkpt>
<trkpt lat="46.40207" lon="7.77652"><ele></ele><time>2025-9-19T15:32:5Z</time></trkpt>
<trkpt lat="46.40198" lon="7.77647"><ele></ele><time>2025-9-19T15:32:8Z</time></trkpt>
<trkpt lat="46.4018" lon="7.77633"><ele></ele><time>2025-9-19T15:32:11Z</time></trkpt>
<trkpt lat="46.40172" lon="7.77631"><ele></ele><time>2025-9-19T15:32:14Z</time></trkpt>
<trkpt lat="46.40165" lon="7.77635"><ele></ele><time>2025-9-19T15:32:17Z</time></trkpt>
<trkpt lat="46.40162" lon="7.77642"><ele></ele><time>2025-9-19T15:32:20Z</time></trkpt>
<trkpt lat="46.40165" lon="7.77649"><ele></ele><time>2025-9-19T15:32:23Z</time></trkpt>
<trkpt lat="46.40176" lon="7.77656"><ele></ele><time>2025-9-19T15:32:26Z</time></trkpt>
<trkpt lat="46.40183" lon="7.7766"><ele></ele><time>2025-9-19T15:32:29Z</time></trkpt>
<trkpt lat="46.40189" lon="7.77668"><ele></ele><time>2025-9-19T15:32:32Z</time></trkpt>
<trkpt lat="46.40195" lon="7.77677"><ele></ele><time>2025-9-19T15:32:35Z</time></trkpt>
<trkpt lat="46.40202" lon="7.77685"><ele></ele><time>2025-9-19T15:32:38Z</time></trkpt>
<trkpt lat="46.40217" lon="7.77703"><ele></ele><time>2025-9-19T15:32:41Z</time></trkpt>
<trkpt lat="46.40224" lon="7.77714"><ele></ele><time>2025-9-19T15:32:44Z</time></trkpt>
<trkpt lat="46.40228" lon="7.77726"><ele></ele><time>2025-9-19T15:32:47Z</time></trkpt>
<trkpt lat="46.4023" lon="7.77739"><ele></ele><time>2025-9-19T15:32:50Z</time></trkpt>
<trkpt lat="46.40227" lon="7.77751"><ele></ele><time>2025-9-19T15:32:53Z</time></trkpt>
<trkpt lat="46.40224" lon="7.77761"><ele></ele><time>2025-9-19T15:32:56Z</time></trkpt>
<trkpt lat="46.40222" lon="7.77773"><ele></ele><time>2025-9-19T15:32:59Z</time></trkpt>
<trkpt lat="46.4022" lon="7.77785"><ele></ele><time>2025-9-19T15:33:2Z</time></trkpt>
<trkpt lat="46.40217" lon="7.7781"><ele></ele><time>2025-9-19T15:33:5Z</time></trkpt>
<trkpt lat="46.40214" lon="7.7782"><ele></ele><time>2025-9-19T15:33:8Z</time></trkpt>
<trkpt lat="46.40211" lon="7.77828"><ele></ele><time>2025-9-19T15:33:11Z</time></trkpt>
<trkpt lat="46.40207" lon="7.77833"><ele></ele><time>2025-9-19T15:33:14Z</time></trkpt>
<trkpt lat="46.402" lon="7.77839"><ele></ele><time>2025-9-19T15:33:17Z</time></trkpt>
<trkpt lat="46.40194" lon="7.77839"><ele></ele><time>2025-9-19T15:33:20Z</time></trkpt>
<trkpt lat="46.40191" lon="7.77837"><ele></ele><time>2025-9-19T15:33:23Z</time></trkpt>
<trkpt lat="46.40189" lon="7.77833"><ele></ele><time>2025-9-19T15:33:26Z</time></trkpt>
<trkpt lat="46.40183" lon="7.77817"><ele></ele><time>2025-9-19T15:33:29Z</time></trkpt>
<trkpt lat="46.4018" lon="7.77811"><ele></ele><time>2025-9-19T15:33:32Z</time></trkpt>
<trkpt lat="46.40174" lon="7.77796"><ele></ele><time>2025-9-19T15:33:35Z</time></trkpt>
<trkpt lat="46.4017" lon="7.77782"><ele></ele><time>2025-9-19T15:33:38Z</time></trkpt>
<trkpt lat="46.40167" lon="7.77778"><ele></ele><time>2025-9-19T15:33:41Z</time></trkpt>
<trkpt lat="46.40165" lon="7.7777"><ele></ele><time>2025-9-19T15:33:44Z</time></trkpt>
<trkpt lat="46.40157" lon="7.77755"><ele></ele><time>2025-9-19T15:33:47Z</time></trkpt>
<trkpt lat="46.40144" lon="7.77737"><ele></ele><time>2025-9-19T15:33:50Z</time></trkpt>
<trkpt lat="46.40139" lon="7.77726"><ele></ele><time>2025-9-19T15:33:53Z</time></trkpt>
<trkpt lat="46.4013" lon="7.7771"><ele></ele><time>2025-9-19T15:33:56Z</time></trkpt>
<trkpt lat="46.40126" lon="7.77708"><ele></ele><time>2025-9-19T15:33:59Z</time></trkpt>
<trkpt lat="46.40121" lon="7.77706"><ele></ele><time>2025-9-19T15:34:2Z</time></trkpt>
<trkpt lat="46.40121" lon="7.77705"><ele></ele><time>2025-9-19T15:34:5Z</time></trkpt>
<trkpt lat="46.40122" lon="7.77704"><ele></ele><time>2025-9-19T15:34:8Z</time></trkpt>
<trkpt lat="46.40122" lon="7.77705"><ele></ele><time>2025-9-19T15:34:11Z</time></trkpt>
<trkpt lat="46.40121" lon="7.77704"><ele></ele><time>2025-9-19T15:34:14Z</time></trkpt>
</trkseg></trk></gpx>